<?xml version="1.0" encoding="UTF-8" standalone="no" ?>
<gpx xmlns="http://www.topografix.com/GPX/1/1" xmlns:xsi="http://www.w3.org/2001/XMLSchema-instance" xsi:schemaLocation="http://www.topografix.com/GPX/1/1 http://www.topografix.com/GPX/1/1/gpx.xsd" version="1.1" creator="VisuGPX - https://www.visugpx.com">
  <metadata>
    <name>vallee de la loue</name>
    <desc><![CDATA[visite de la vallee de la loue par les belvederes]]></desc>
  </metadata>
  <trk>
    <name><![CDATA[Tracé actuel: 09 SEP 2018 09:22]]></name>
    <trkseg>
      <trkpt lat="47.10291" lon="6.15256">
        <ele>333.23</ele>
        <time>2018-09-09T07:22:33Z</time>
      </trkpt>
      <trkpt lat="47.10291" lon="6.15256">
        <ele>336.12</ele>
        <time>2018-09-09T07:22:34Z</time>
      </trkpt>
      <trkpt lat="47.10297" lon="6.15267">
        <ele>335.16</ele>
        <time>2018-09-09T07:22:48Z</time>
      </trkpt>
      <trkpt lat="47.10306" lon="6.15283">
        <ele>336.12</ele>
        <time>2018-09-09T07:22:54Z</time>
      </trkpt>
      <trkpt lat="47.10306" lon="6.15286">
        <ele>336.12</ele>
        <time>2018-09-09T07:22:55Z</time>
      </trkpt>
      <trkpt lat="47.10291" lon="6.15301">
        <ele>337.08</ele>
        <time>2018-09-09T07:23:01Z</time>
      </trkpt>
      <trkpt lat="47.10275" lon="6.15358">
        <ele>338.52</ele>
        <time>2018-09-09T07:23:14Z</time>
      </trkpt>
      <trkpt lat="47.10256" lon="6.15414">
        <ele>338.04</ele>
        <time>2018-09-09T07:23:26Z</time>
      </trkpt>
      <trkpt lat="47.10246" lon="6.15438">
        <ele>337.56</ele>
        <time>2018-09-09T07:23:30Z</time>
      </trkpt>
      <trkpt lat="47.10242" lon="6.15442">
        <ele>337.08</ele>
        <time>2018-09-09T07:23:31Z</time>
      </trkpt>
      <trkpt lat="47.10238" lon="6.15444">
        <ele>337.08</ele>
        <time>2018-09-09T07:23:32Z</time>
      </trkpt>
      <trkpt lat="47.10232" lon="6.15444">
        <ele>336.6</ele>
        <time>2018-09-09T07:23:33Z</time>
      </trkpt>
      <trkpt lat="47.10227" lon="6.15444">
        <ele>336.6</ele>
        <time>2018-09-09T07:23:34Z</time>
      </trkpt>
      <trkpt lat="47.10191" lon="6.15443">
        <ele>339.48</ele>
        <time>2018-09-09T07:23:45Z</time>
      </trkpt>
      <trkpt lat="47.10174" lon="6.15443">
        <ele>340.44</ele>
        <time>2018-09-09T07:23:51Z</time>
      </trkpt>
      <trkpt lat="47.10172" lon="6.15445">
        <ele>340.44</ele>
        <time>2018-09-09T07:23:52Z</time>
      </trkpt>
      <trkpt lat="47.1017" lon="6.15449">
        <ele>340.92</ele>
        <time>2018-09-09T07:23:53Z</time>
      </trkpt>
      <trkpt lat="47.10169" lon="6.15453">
        <ele>340.92</ele>
        <time>2018-09-09T07:23:54Z</time>
      </trkpt>
      <trkpt lat="47.10168" lon="6.15458">
        <ele>340.92</ele>
        <time>2018-09-09T07:23:55Z</time>
      </trkpt>
      <trkpt lat="47.1014" lon="6.15518">
        <ele>343.33</ele>
        <time>2018-09-09T07:24:11Z</time>
      </trkpt>
      <trkpt lat="47.10102" lon="6.15575">
        <ele>345.73</ele>
        <time>2018-09-09T07:24:27Z</time>
      </trkpt>
      <trkpt lat="47.10056" lon="6.15625">
        <ele>346.69</ele>
        <time>2018-09-09T07:24:42Z</time>
      </trkpt>
      <trkpt lat="47.09996" lon="6.15697">
        <ele>347.17</ele>
        <time>2018-09-09T07:25:00Z</time>
      </trkpt>
      <trkpt lat="47.09936" lon="6.15789">
        <ele>347.65</ele>
        <time>2018-09-09T07:25:19Z</time>
      </trkpt>
      <trkpt lat="47.09887" lon="6.15892">
        <ele>348.62</ele>
        <time>2018-09-09T07:25:38Z</time>
      </trkpt>
      <trkpt lat="47.09838" lon="6.16001">
        <ele>349.1</ele>
        <time>2018-09-09T07:25:58Z</time>
      </trkpt>
      <trkpt lat="47.09777" lon="6.16101">
        <ele>349.58</ele>
        <time>2018-09-09T07:26:18Z</time>
      </trkpt>
      <trkpt lat="47.09712" lon="6.16191">
        <ele>349.1</ele>
        <time>2018-09-09T07:26:37Z</time>
      </trkpt>
      <trkpt lat="47.09704" lon="6.16198">
        <ele>349.1</ele>
        <time>2018-09-09T07:26:39Z</time>
      </trkpt>
      <trkpt lat="47.09629" lon="6.16219">
        <ele>349.58</ele>
        <time>2018-09-09T07:26:55Z</time>
      </trkpt>
      <trkpt lat="47.09542" lon="6.16251">
        <ele>349.58</ele>
        <time>2018-09-09T07:27:13Z</time>
      </trkpt>
      <trkpt lat="47.0945" lon="6.16291">
        <ele>350.06</ele>
        <time>2018-09-09T07:27:31Z</time>
      </trkpt>
      <trkpt lat="47.09385" lon="6.16346">
        <ele>351.5</ele>
        <time>2018-09-09T07:27:46Z</time>
      </trkpt>
      <trkpt lat="47.09359" lon="6.16373">
        <ele>352.46</ele>
        <time>2018-09-09T07:27:53Z</time>
      </trkpt>
      <trkpt lat="47.09346" lon="6.1638">
        <ele>352.46</ele>
        <time>2018-09-09T07:27:56Z</time>
      </trkpt>
      <trkpt lat="47.09342" lon="6.16381">
        <ele>352.94</ele>
        <time>2018-09-09T07:27:57Z</time>
      </trkpt>
      <trkpt lat="47.09325" lon="6.16382">
        <ele>354.38</ele>
        <time>2018-09-09T07:28:01Z</time>
      </trkpt>
      <trkpt lat="47.09317" lon="6.1638">
        <ele>354.38</ele>
        <time>2018-09-09T07:28:03Z</time>
      </trkpt>
      <trkpt lat="47.09314" lon="6.16378">
        <ele>354.86</ele>
        <time>2018-09-09T07:28:04Z</time>
      </trkpt>
      <trkpt lat="47.09293" lon="6.16372">
        <ele>355.34</ele>
        <time>2018-09-09T07:28:09Z</time>
      </trkpt>
      <trkpt lat="47.09267" lon="6.16372">
        <ele>352.94</ele>
        <time>2018-09-09T07:28:14Z</time>
      </trkpt>
      <trkpt lat="47.09192" lon="6.16385">
        <ele>351.5</ele>
        <time>2018-09-09T07:28:27Z</time>
      </trkpt>
      <trkpt lat="47.09109" lon="6.16395">
        <ele>350.54</ele>
        <time>2018-09-09T07:28:41Z</time>
      </trkpt>
      <trkpt lat="47.09103" lon="6.16395">
        <ele>350.54</ele>
        <time>2018-09-09T07:28:42Z</time>
      </trkpt>
      <trkpt lat="47.09064" lon="6.16385">
        <ele>351.02</ele>
        <time>2018-09-09T07:28:49Z</time>
      </trkpt>
      <trkpt lat="47.09059" lon="6.16383">
        <ele>351.02</ele>
        <time>2018-09-09T07:28:50Z</time>
      </trkpt>
      <trkpt lat="47.09024" lon="6.16368">
        <ele>350.54</ele>
        <time>2018-09-09T07:28:57Z</time>
      </trkpt>
      <trkpt lat="47.09004" lon="6.16361">
        <ele>351.02</ele>
        <time>2018-09-09T07:29:01Z</time>
      </trkpt>
      <trkpt lat="47.08993" lon="6.16358">
        <ele>351.02</ele>
        <time>2018-09-09T07:29:03Z</time>
      </trkpt>
      <trkpt lat="47.08956" lon="6.16353">
        <ele>351.98</ele>
        <time>2018-09-09T07:29:10Z</time>
      </trkpt>
      <trkpt lat="47.08931" lon="6.16352">
        <ele>353.42</ele>
        <time>2018-09-09T07:29:15Z</time>
      </trkpt>
      <trkpt lat="47.08927" lon="6.16352">
        <ele>353.42</ele>
        <time>2018-09-09T07:29:16Z</time>
      </trkpt>
      <trkpt lat="47.08922" lon="6.16351">
        <ele>353.42</ele>
        <time>2018-09-09T07:29:17Z</time>
      </trkpt>
      <trkpt lat="47.08855" lon="6.16341">
        <ele>353.9</ele>
        <time>2018-09-09T07:29:31Z</time>
      </trkpt>
      <trkpt lat="47.08785" lon="6.16336">
        <ele>352.46</ele>
        <time>2018-09-09T07:29:45Z</time>
      </trkpt>
      <trkpt lat="47.08781" lon="6.16336">
        <ele>352.46</ele>
        <time>2018-09-09T07:29:46Z</time>
      </trkpt>
      <trkpt lat="47.08776" lon="6.16335">
        <ele>352.46</ele>
        <time>2018-09-09T07:29:47Z</time>
      </trkpt>
      <trkpt lat="47.08771" lon="6.16335">
        <ele>352.46</ele>
        <time>2018-09-09T07:29:48Z</time>
      </trkpt>
      <trkpt lat="47.08765" lon="6.16334">
        <ele>352.46</ele>
        <time>2018-09-09T07:29:49Z</time>
      </trkpt>
      <trkpt lat="47.0876" lon="6.16334">
        <ele>352.46</ele>
        <time>2018-09-09T07:29:50Z</time>
      </trkpt>
      <trkpt lat="47.08755" lon="6.16335">
        <ele>352.46</ele>
        <time>2018-09-09T07:29:51Z</time>
      </trkpt>
      <trkpt lat="47.08749" lon="6.16336">
        <ele>352.46</ele>
        <time>2018-09-09T07:29:52Z</time>
      </trkpt>
      <trkpt lat="47.08672" lon="6.16347">
        <ele>352.46</ele>
        <time>2018-09-09T07:30:07Z</time>
      </trkpt>
      <trkpt lat="47.08667" lon="6.16345">
        <ele>352.46</ele>
        <time>2018-09-09T07:30:08Z</time>
      </trkpt>
      <trkpt lat="47.08662" lon="6.16342">
        <ele>352.46</ele>
        <time>2018-09-09T07:30:09Z</time>
      </trkpt>
      <trkpt lat="47.0863" lon="6.16322">
        <ele>352.94</ele>
        <time>2018-09-09T07:30:16Z</time>
      </trkpt>
      <trkpt lat="47.08582" lon="6.163">
        <ele>353.42</ele>
        <time>2018-09-09T07:30:27Z</time>
      </trkpt>
      <trkpt lat="47.08577" lon="6.163">
        <ele>353.9</ele>
        <time>2018-09-09T07:30:28Z</time>
      </trkpt>
      <trkpt lat="47.08572" lon="6.16302">
        <ele>353.9</ele>
        <time>2018-09-09T07:30:29Z</time>
      </trkpt>
      <trkpt lat="47.08567" lon="6.16304">
        <ele>353.9</ele>
        <time>2018-09-09T07:30:30Z</time>
      </trkpt>
      <trkpt lat="47.08563" lon="6.16308">
        <ele>353.9</ele>
        <time>2018-09-09T07:30:31Z</time>
      </trkpt>
      <trkpt lat="47.08559" lon="6.16313">
        <ele>354.38</ele>
        <time>2018-09-09T07:30:32Z</time>
      </trkpt>
      <trkpt lat="47.08556" lon="6.16318">
        <ele>354.38</ele>
        <time>2018-09-09T07:30:33Z</time>
      </trkpt>
      <trkpt lat="47.08553" lon="6.16324">
        <ele>354.38</ele>
        <time>2018-09-09T07:30:34Z</time>
      </trkpt>
      <trkpt lat="47.08549" lon="6.16329">
        <ele>354.38</ele>
        <time>2018-09-09T07:30:35Z</time>
      </trkpt>
      <trkpt lat="47.08546" lon="6.16334">
        <ele>354.86</ele>
        <time>2018-09-09T07:30:36Z</time>
      </trkpt>
      <trkpt lat="47.08542" lon="6.16338">
        <ele>354.86</ele>
        <time>2018-09-09T07:30:37Z</time>
      </trkpt>
      <trkpt lat="47.08538" lon="6.16341">
        <ele>354.86</ele>
        <time>2018-09-09T07:30:38Z</time>
      </trkpt>
      <trkpt lat="47.08534" lon="6.16344">
        <ele>355.34</ele>
        <time>2018-09-09T07:30:39Z</time>
      </trkpt>
      <trkpt lat="47.08531" lon="6.16347">
        <ele>355.34</ele>
        <time>2018-09-09T07:30:40Z</time>
      </trkpt>
      <trkpt lat="47.08516" lon="6.16358">
        <ele>355.34</ele>
        <time>2018-09-09T07:30:44Z</time>
      </trkpt>
      <trkpt lat="47.0851" lon="6.16361">
        <ele>355.83</ele>
        <time>2018-09-09T07:30:46Z</time>
      </trkpt>
      <trkpt lat="47.08507" lon="6.16363">
        <ele>355.83</ele>
        <time>2018-09-09T07:30:47Z</time>
      </trkpt>
      <trkpt lat="47.08504" lon="6.16363">
        <ele>356.31</ele>
        <time>2018-09-09T07:30:48Z</time>
      </trkpt>
      <trkpt lat="47.08501" lon="6.16364">
        <ele>356.31</ele>
        <time>2018-09-09T07:30:49Z</time>
      </trkpt>
      <trkpt lat="47.08498" lon="6.16365">
        <ele>356.31</ele>
        <time>2018-09-09T07:30:50Z</time>
      </trkpt>
      <trkpt lat="47.08468" lon="6.16367">
        <ele>356.31</ele>
        <time>2018-09-09T07:30:57Z</time>
      </trkpt>
      <trkpt lat="47.08463" lon="6.16367">
        <ele>356.79</ele>
        <time>2018-09-09T07:30:58Z</time>
      </trkpt>
      <trkpt lat="47.08421" lon="6.16367">
        <ele>356.79</ele>
        <time>2018-09-09T07:31:08Z</time>
      </trkpt>
      <trkpt lat="47.08383" lon="6.16381">
        <ele>357.27</ele>
        <time>2018-09-09T07:31:17Z</time>
      </trkpt>
      <trkpt lat="47.0837" lon="6.16421">
        <ele>359.67</ele>
        <time>2018-09-09T07:31:27Z</time>
      </trkpt>
      <trkpt lat="47.08369" lon="6.1644">
        <ele>361.11</ele>
        <time>2018-09-09T07:31:33Z</time>
      </trkpt>
      <trkpt lat="47.08368" lon="6.16444">
        <ele>361.11</ele>
        <time>2018-09-09T07:31:34Z</time>
      </trkpt>
      <trkpt lat="47.08368" lon="6.16447">
        <ele>361.11</ele>
        <time>2018-09-09T07:31:35Z</time>
      </trkpt>
      <trkpt lat="47.08368" lon="6.16451">
        <ele>361.11</ele>
        <time>2018-09-09T07:31:36Z</time>
      </trkpt>
      <trkpt lat="47.08368" lon="6.16454">
        <ele>361.11</ele>
        <time>2018-09-09T07:31:37Z</time>
      </trkpt>
      <trkpt lat="47.0837" lon="6.16457">
        <ele>361.11</ele>
        <time>2018-09-09T07:31:38Z</time>
      </trkpt>
      <trkpt lat="47.08371" lon="6.16459">
        <ele>361.59</ele>
        <time>2018-09-09T07:31:39Z</time>
      </trkpt>
      <trkpt lat="47.08373" lon="6.16461">
        <ele>361.59</ele>
        <time>2018-09-09T07:31:40Z</time>
      </trkpt>
      <trkpt lat="47.08375" lon="6.16462">
        <ele>361.59</ele>
        <time>2018-09-09T07:31:41Z</time>
      </trkpt>
      <trkpt lat="47.08377" lon="6.16464">
        <ele>361.11</ele>
        <time>2018-09-09T07:31:42Z</time>
      </trkpt>
      <trkpt lat="47.08378" lon="6.16465">
        <ele>361.11</ele>
        <time>2018-09-09T07:31:43Z</time>
      </trkpt>
      <trkpt lat="47.0838" lon="6.16466">
        <ele>361.11</ele>
        <time>2018-09-09T07:31:44Z</time>
      </trkpt>
      <trkpt lat="47.08382" lon="6.16468">
        <ele>361.11</ele>
        <time>2018-09-09T07:31:45Z</time>
      </trkpt>
      <trkpt lat="47.08384" lon="6.16468">
        <ele>360.63</ele>
        <time>2018-09-09T07:31:46Z</time>
      </trkpt>
      <trkpt lat="47.08386" lon="6.16469">
        <ele>361.11</ele>
        <time>2018-09-09T07:31:47Z</time>
      </trkpt>
      <trkpt lat="47.08397" lon="6.1647">
        <ele>361.11</ele>
        <time>2018-09-09T07:31:51Z</time>
      </trkpt>
      <trkpt lat="47.08399" lon="6.16471">
        <ele>361.11</ele>
        <time>2018-09-09T07:31:52Z</time>
      </trkpt>
      <trkpt lat="47.08437" lon="6.16481">
        <ele>360.63</ele>
        <time>2018-09-09T07:32:02Z</time>
      </trkpt>
      <trkpt lat="47.08473" lon="6.16486">
        <ele>359.67</ele>
        <time>2018-09-09T07:32:11Z</time>
      </trkpt>
      <trkpt lat="47.08499" lon="6.16489">
        <ele>360.63</ele>
        <time>2018-09-09T07:32:20Z</time>
      </trkpt>
      <trkpt lat="47.0853" lon="6.16491">
        <ele>360.63</ele>
        <time>2018-09-09T07:32:29Z</time>
      </trkpt>
      <trkpt lat="47.08549" lon="6.16491">
        <ele>363.52</ele>
        <time>2018-09-09T07:32:38Z</time>
      </trkpt>
      <trkpt lat="47.08556" lon="6.16492">
        <ele>358.23</ele>
        <time>2018-09-09T07:32:42Z</time>
      </trkpt>
      <trkpt lat="47.08559" lon="6.16491">
        <ele>369.28</ele>
        <time>2018-09-09T07:32:43Z</time>
      </trkpt>
      <trkpt lat="47.0856" lon="6.16491">
        <ele>364</ele>
        <time>2018-09-09T07:32:44Z</time>
      </trkpt>
      <trkpt lat="47.08575" lon="6.16496">
        <ele>363.52</ele>
        <time>2018-09-09T07:32:57Z</time>
      </trkpt>
      <trkpt lat="47.08574" lon="6.16499">
        <ele>363.52</ele>
        <time>2018-09-09T07:33:01Z</time>
      </trkpt>
      <trkpt lat="47.08572" lon="6.16499">
        <ele>362.55</ele>
        <time>2018-09-09T07:33:02Z</time>
      </trkpt>
      <trkpt lat="47.0857" lon="6.16498">
        <ele>361.59</ele>
        <time>2018-09-09T07:33:03Z</time>
      </trkpt>
      <trkpt lat="47.08568" lon="6.16498">
        <ele>361.11</ele>
        <time>2018-09-09T07:33:04Z</time>
      </trkpt>
      <trkpt lat="47.08563" lon="6.16497">
        <ele>360.15</ele>
        <time>2018-09-09T07:33:05Z</time>
      </trkpt>
      <trkpt lat="47.08559" lon="6.16497">
        <ele>359.67</ele>
        <time>2018-09-09T07:33:06Z</time>
      </trkpt>
      <trkpt lat="47.08556" lon="6.16498">
        <ele>359.67</ele>
        <time>2018-09-09T07:33:07Z</time>
      </trkpt>
      <trkpt lat="47.08503" lon="6.16503">
        <ele>359.67</ele>
        <time>2018-09-09T07:33:19Z</time>
      </trkpt>
      <trkpt lat="47.0847" lon="6.16501">
        <ele>360.63</ele>
        <time>2018-09-09T07:33:29Z</time>
      </trkpt>
      <trkpt lat="47.0844" lon="6.16497">
        <ele>361.11</ele>
        <time>2018-09-09T07:33:37Z</time>
      </trkpt>
      <trkpt lat="47.08434" lon="6.16494">
        <ele>361.11</ele>
        <time>2018-09-09T07:33:38Z</time>
      </trkpt>
      <trkpt lat="47.08428" lon="6.16492">
        <ele>360.63</ele>
        <time>2018-09-09T07:33:39Z</time>
      </trkpt>
      <trkpt lat="47.08423" lon="6.16489">
        <ele>360.63</ele>
        <time>2018-09-09T07:33:40Z</time>
      </trkpt>
      <trkpt lat="47.08412" lon="6.16489">
        <ele>361.11</ele>
        <time>2018-09-09T07:33:47Z</time>
      </trkpt>
      <trkpt lat="47.08401" lon="6.16487">
        <ele>361.11</ele>
        <time>2018-09-09T07:33:50Z</time>
      </trkpt>
      <trkpt lat="47.08361" lon="6.16501">
        <ele>362.07</ele>
        <time>2018-09-09T07:34:00Z</time>
      </trkpt>
      <trkpt lat="47.0834" lon="6.16506">
        <ele>363.04</ele>
        <time>2018-09-09T07:34:06Z</time>
      </trkpt>
      <trkpt lat="47.08311" lon="6.16537">
        <ele>364.96</ele>
        <time>2018-09-09T07:34:20Z</time>
      </trkpt>
      <trkpt lat="47.08304" lon="6.1654">
        <ele>364.96</ele>
        <time>2018-09-09T07:34:22Z</time>
      </trkpt>
      <trkpt lat="47.08294" lon="6.16546">
        <ele>365.92</ele>
        <time>2018-09-09T07:34:28Z</time>
      </trkpt>
      <trkpt lat="47.08264" lon="6.16557">
        <ele>366.88</ele>
        <time>2018-09-09T07:34:40Z</time>
      </trkpt>
      <trkpt lat="47.08231" lon="6.16564">
        <ele>367.84</ele>
        <time>2018-09-09T07:34:50Z</time>
      </trkpt>
      <trkpt lat="47.0823" lon="6.16564">
        <ele>367.84</ele>
        <time>2018-09-09T07:34:51Z</time>
      </trkpt>
      <trkpt lat="47.08189" lon="6.16563">
        <ele>369.76</ele>
        <time>2018-09-09T07:35:00Z</time>
      </trkpt>
      <trkpt lat="47.08149" lon="6.16572">
        <ele>372.17</ele>
        <time>2018-09-09T07:35:12Z</time>
      </trkpt>
      <trkpt lat="47.08125" lon="6.16589">
        <ele>374.57</ele>
        <time>2018-09-09T07:35:24Z</time>
      </trkpt>
      <trkpt lat="47.08118" lon="6.16592">
        <ele>375.05</ele>
        <time>2018-09-09T07:35:26Z</time>
      </trkpt>
      <trkpt lat="47.08106" lon="6.166">
        <ele>376.01</ele>
        <time>2018-09-09T07:35:30Z</time>
      </trkpt>
      <trkpt lat="47.08092" lon="6.1661">
        <ele>377.45</ele>
        <time>2018-09-09T07:35:36Z</time>
      </trkpt>
      <trkpt lat="47.08074" lon="6.16616">
        <ele>377.45</ele>
        <time>2018-09-09T07:35:41Z</time>
      </trkpt>
      <trkpt lat="47.08038" lon="6.16634">
        <ele>378.9</ele>
        <time>2018-09-09T07:35:53Z</time>
      </trkpt>
      <trkpt lat="47.08022" lon="6.16642">
        <ele>379.86</ele>
        <time>2018-09-09T07:35:59Z</time>
      </trkpt>
      <trkpt lat="47.08016" lon="6.16649">
        <ele>380.82</ele>
        <time>2018-09-09T07:36:03Z</time>
      </trkpt>
      <trkpt lat="47.08011" lon="6.16655">
        <ele>380.82</ele>
        <time>2018-09-09T07:36:05Z</time>
      </trkpt>
      <trkpt lat="47.07986" lon="6.16665">
        <ele>382.74</ele>
        <time>2018-09-09T07:36:14Z</time>
      </trkpt>
      <trkpt lat="47.07959" lon="6.16673">
        <ele>383.7</ele>
        <time>2018-09-09T07:36:24Z</time>
      </trkpt>
      <trkpt lat="47.07949" lon="6.1668">
        <ele>384.66</ele>
        <time>2018-09-09T07:36:31Z</time>
      </trkpt>
      <trkpt lat="47.07943" lon="6.16686">
        <ele>384.66</ele>
        <time>2018-09-09T07:36:36Z</time>
      </trkpt>
      <trkpt lat="47.07932" lon="6.16693">
        <ele>385.63</ele>
        <time>2018-09-09T07:36:40Z</time>
      </trkpt>
      <trkpt lat="47.07922" lon="6.16697">
        <ele>386.11</ele>
        <time>2018-09-09T07:36:44Z</time>
      </trkpt>
      <trkpt lat="47.07915" lon="6.16698">
        <ele>386.59</ele>
        <time>2018-09-09T07:36:46Z</time>
      </trkpt>
      <trkpt lat="47.07886" lon="6.16719">
        <ele>388.03</ele>
        <time>2018-09-09T07:36:58Z</time>
      </trkpt>
      <trkpt lat="47.07874" lon="6.16724">
        <ele>388.03</ele>
        <time>2018-09-09T07:37:02Z</time>
      </trkpt>
      <trkpt lat="47.07842" lon="6.1673">
        <ele>389.47</ele>
        <time>2018-09-09T07:37:10Z</time>
      </trkpt>
      <trkpt lat="47.07806" lon="6.16743">
        <ele>391.39</ele>
        <time>2018-09-09T07:37:21Z</time>
      </trkpt>
      <trkpt lat="47.07779" lon="6.1675">
        <ele>392.84</ele>
        <time>2018-09-09T07:37:29Z</time>
      </trkpt>
      <trkpt lat="47.07758" lon="6.16747">
        <ele>394.28</ele>
        <time>2018-09-09T07:37:37Z</time>
      </trkpt>
      <trkpt lat="47.07737" lon="6.16745">
        <ele>395.72</ele>
        <time>2018-09-09T07:37:44Z</time>
      </trkpt>
      <trkpt lat="47.07726" lon="6.16739">
        <ele>395.72</ele>
        <time>2018-09-09T07:37:51Z</time>
      </trkpt>
      <trkpt lat="47.07685" lon="6.16732">
        <ele>397.16</ele>
        <time>2018-09-09T07:38:02Z</time>
      </trkpt>
      <trkpt lat="47.07662" lon="6.16725">
        <ele>397.64</ele>
        <time>2018-09-09T07:38:08Z</time>
      </trkpt>
      <trkpt lat="47.07648" lon="6.16726">
        <ele>398.12</ele>
        <time>2018-09-09T07:38:12Z</time>
      </trkpt>
      <trkpt lat="47.07613" lon="6.16732">
        <ele>400.53</ele>
        <time>2018-09-09T07:38:24Z</time>
      </trkpt>
      <trkpt lat="47.07581" lon="6.16732">
        <ele>401.49</ele>
        <time>2018-09-09T07:38:35Z</time>
      </trkpt>
      <trkpt lat="47.07577" lon="6.16732">
        <ele>401.97</ele>
        <time>2018-09-09T07:38:37Z</time>
      </trkpt>
      <trkpt lat="47.07574" lon="6.16734">
        <ele>402.45</ele>
        <time>2018-09-09T07:38:39Z</time>
      </trkpt>
      <trkpt lat="47.07566" lon="6.16737">
        <ele>402.45</ele>
        <time>2018-09-09T07:38:42Z</time>
      </trkpt>
      <trkpt lat="47.07539" lon="6.16741">
        <ele>404.37</ele>
        <time>2018-09-09T07:38:54Z</time>
      </trkpt>
      <trkpt lat="47.0753" lon="6.16742">
        <ele>404.85</ele>
        <time>2018-09-09T07:38:59Z</time>
      </trkpt>
      <trkpt lat="47.07518" lon="6.16739">
        <ele>405.33</ele>
        <time>2018-09-09T07:39:04Z</time>
      </trkpt>
      <trkpt lat="47.07499" lon="6.16744">
        <ele>406.29</ele>
        <time>2018-09-09T07:39:13Z</time>
      </trkpt>
      <trkpt lat="47.07489" lon="6.16749">
        <ele>407.26</ele>
        <time>2018-09-09T07:39:17Z</time>
      </trkpt>
      <trkpt lat="47.07468" lon="6.16756">
        <ele>409.18</ele>
        <time>2018-09-09T07:39:26Z</time>
      </trkpt>
      <trkpt lat="47.07458" lon="6.16759">
        <ele>409.66</ele>
        <time>2018-09-09T07:39:30Z</time>
      </trkpt>
      <trkpt lat="47.07452" lon="6.1676">
        <ele>410.14</ele>
        <time>2018-09-09T07:39:32Z</time>
      </trkpt>
      <trkpt lat="47.07448" lon="6.16762">
        <ele>410.14</ele>
        <time>2018-09-09T07:39:34Z</time>
      </trkpt>
      <trkpt lat="47.07434" lon="6.16767">
        <ele>410.62</ele>
        <time>2018-09-09T07:39:41Z</time>
      </trkpt>
      <trkpt lat="47.07422" lon="6.1677">
        <ele>411.1</ele>
        <time>2018-09-09T07:39:47Z</time>
      </trkpt>
      <trkpt lat="47.07409" lon="6.16773">
        <ele>411.1</ele>
        <time>2018-09-09T07:39:51Z</time>
      </trkpt>
      <trkpt lat="47.074" lon="6.16777">
        <ele>410.62</ele>
        <time>2018-09-09T07:39:55Z</time>
      </trkpt>
      <trkpt lat="47.07368" lon="6.16773">
        <ele>411.58</ele>
        <time>2018-09-09T07:40:02Z</time>
      </trkpt>
      <trkpt lat="47.0735" lon="6.16771">
        <ele>411.58</ele>
        <time>2018-09-09T07:40:08Z</time>
      </trkpt>
      <trkpt lat="47.07331" lon="6.16776">
        <ele>412.06</ele>
        <time>2018-09-09T07:40:15Z</time>
      </trkpt>
      <trkpt lat="47.07317" lon="6.16776">
        <ele>412.54</ele>
        <time>2018-09-09T07:40:20Z</time>
      </trkpt>
      <trkpt lat="47.07311" lon="6.1678">
        <ele>412.54</ele>
        <time>2018-09-09T07:40:23Z</time>
      </trkpt>
      <trkpt lat="47.07281" lon="6.16794">
        <ele>413.5</ele>
        <time>2018-09-09T07:40:36Z</time>
      </trkpt>
      <trkpt lat="47.07275" lon="6.16799">
        <ele>413.98</ele>
        <time>2018-09-09T07:40:39Z</time>
      </trkpt>
      <trkpt lat="47.07272" lon="6.16799">
        <ele>413.5</ele>
        <time>2018-09-09T07:40:40Z</time>
      </trkpt>
      <trkpt lat="47.07251" lon="6.16809">
        <ele>413.5</ele>
        <time>2018-09-09T07:40:47Z</time>
      </trkpt>
      <trkpt lat="47.07225" lon="6.16835">
        <ele>413.5</ele>
        <time>2018-09-09T07:40:58Z</time>
      </trkpt>
      <trkpt lat="47.07187" lon="6.16865">
        <ele>414.47</ele>
        <time>2018-09-09T07:41:08Z</time>
      </trkpt>
      <trkpt lat="47.07186" lon="6.16869">
        <ele>414.95</ele>
        <time>2018-09-09T07:41:09Z</time>
      </trkpt>
      <trkpt lat="47.07159" lon="6.16892">
        <ele>416.39</ele>
        <time>2018-09-09T07:41:20Z</time>
      </trkpt>
      <trkpt lat="47.07158" lon="6.16895">
        <ele>416.39</ele>
        <time>2018-09-09T07:41:21Z</time>
      </trkpt>
      <trkpt lat="47.07152" lon="6.16897">
        <ele>416.87</ele>
        <time>2018-09-09T07:41:23Z</time>
      </trkpt>
      <trkpt lat="47.07125" lon="6.16929">
        <ele>418.31</ele>
        <time>2018-09-09T07:41:34Z</time>
      </trkpt>
      <trkpt lat="47.07113" lon="6.16945">
        <ele>419.27</ele>
        <time>2018-09-09T07:41:41Z</time>
      </trkpt>
      <trkpt lat="47.0711" lon="6.16947">
        <ele>419.75</ele>
        <time>2018-09-09T07:41:43Z</time>
      </trkpt>
      <trkpt lat="47.0709" lon="6.1697">
        <ele>421.19</ele>
        <time>2018-09-09T07:41:51Z</time>
      </trkpt>
      <trkpt lat="47.07085" lon="6.16981">
        <ele>422.16</ele>
        <time>2018-09-09T07:41:55Z</time>
      </trkpt>
      <trkpt lat="47.0708" lon="6.16989">
        <ele>422.64</ele>
        <time>2018-09-09T07:41:59Z</time>
      </trkpt>
      <trkpt lat="47.07078" lon="6.16995">
        <ele>423.12</ele>
        <time>2018-09-09T07:42:02Z</time>
      </trkpt>
      <trkpt lat="47.07071" lon="6.17014">
        <ele>425.04</ele>
        <time>2018-09-09T07:42:12Z</time>
      </trkpt>
      <trkpt lat="47.07058" lon="6.17025">
        <ele>426</ele>
        <time>2018-09-09T07:42:16Z</time>
      </trkpt>
      <trkpt lat="47.07051" lon="6.17032">
        <ele>427.44</ele>
        <time>2018-09-09T07:42:20Z</time>
      </trkpt>
      <trkpt lat="47.07048" lon="6.17035">
        <ele>427.44</ele>
        <time>2018-09-09T07:42:22Z</time>
      </trkpt>
      <trkpt lat="47.07039" lon="6.17043">
        <ele>428.89</ele>
        <time>2018-09-09T07:42:26Z</time>
      </trkpt>
      <trkpt lat="47.0702" lon="6.17055">
        <ele>431.29</ele>
        <time>2018-09-09T07:42:35Z</time>
      </trkpt>
      <trkpt lat="47.06996" lon="6.17052">
        <ele>433.69</ele>
        <time>2018-09-09T07:42:44Z</time>
      </trkpt>
      <trkpt lat="47.06988" lon="6.17051">
        <ele>435.13</ele>
        <time>2018-09-09T07:42:48Z</time>
      </trkpt>
      <trkpt lat="47.06965" lon="6.17053">
        <ele>437.06</ele>
        <time>2018-09-09T07:42:59Z</time>
      </trkpt>
      <trkpt lat="47.0696" lon="6.1706">
        <ele>438.98</ele>
        <time>2018-09-09T07:43:08Z</time>
      </trkpt>
      <trkpt lat="47.06956" lon="6.17067">
        <ele>440.9</ele>
        <time>2018-09-09T07:43:18Z</time>
      </trkpt>
      <trkpt lat="47.06948" lon="6.17076">
        <ele>442.82</ele>
        <time>2018-09-09T07:43:26Z</time>
      </trkpt>
      <trkpt lat="47.0694" lon="6.1709">
        <ele>446.19</ele>
        <time>2018-09-09T07:43:37Z</time>
      </trkpt>
      <trkpt lat="47.0693" lon="6.17096">
        <ele>449.07</ele>
        <time>2018-09-09T07:43:45Z</time>
      </trkpt>
      <trkpt lat="47.06923" lon="6.17099">
        <ele>450.03</ele>
        <time>2018-09-09T07:43:48Z</time>
      </trkpt>
      <trkpt lat="47.06907" lon="6.17102">
        <ele>451.96</ele>
        <time>2018-09-09T07:43:58Z</time>
      </trkpt>
      <trkpt lat="47.06889" lon="6.17095">
        <ele>454.84</ele>
        <time>2018-09-09T07:44:09Z</time>
      </trkpt>
      <trkpt lat="47.06879" lon="6.1709">
        <ele>456.76</ele>
        <time>2018-09-09T07:44:18Z</time>
      </trkpt>
      <trkpt lat="47.06873" lon="6.17093">
        <ele>458.69</ele>
        <time>2018-09-09T07:44:26Z</time>
      </trkpt>
      <trkpt lat="47.0687" lon="6.17094">
        <ele>459.17</ele>
        <time>2018-09-09T07:44:29Z</time>
      </trkpt>
      <trkpt lat="47.06856" lon="6.17093">
        <ele>460.61</ele>
        <time>2018-09-09T07:44:39Z</time>
      </trkpt>
      <trkpt lat="47.06844" lon="6.17098">
        <ele>462.05</ele>
        <time>2018-09-09T07:44:50Z</time>
      </trkpt>
      <trkpt lat="47.06832" lon="6.17104">
        <ele>463.49</ele>
        <time>2018-09-09T07:45:00Z</time>
      </trkpt>
      <trkpt lat="47.06814" lon="6.17111">
        <ele>465.9</ele>
        <time>2018-09-09T07:45:12Z</time>
      </trkpt>
      <trkpt lat="47.06806" lon="6.17114">
        <ele>466.86</ele>
        <time>2018-09-09T07:45:16Z</time>
      </trkpt>
      <trkpt lat="47.06786" lon="6.17121">
        <ele>468.3</ele>
        <time>2018-09-09T07:45:27Z</time>
      </trkpt>
      <trkpt lat="47.06777" lon="6.17123">
        <ele>469.74</ele>
        <time>2018-09-09T07:45:33Z</time>
      </trkpt>
      <trkpt lat="47.06774" lon="6.17127">
        <ele>470.7</ele>
        <time>2018-09-09T07:45:39Z</time>
      </trkpt>
      <trkpt lat="47.0675" lon="6.17138">
        <ele>472.63</ele>
        <time>2018-09-09T07:45:49Z</time>
      </trkpt>
      <trkpt lat="47.06739" lon="6.1714">
        <ele>474.07</ele>
        <time>2018-09-09T07:45:55Z</time>
      </trkpt>
      <trkpt lat="47.06722" lon="6.17144">
        <ele>475.51</ele>
        <time>2018-09-09T07:46:07Z</time>
      </trkpt>
      <trkpt lat="47.06711" lon="6.1715">
        <ele>478.39</ele>
        <time>2018-09-09T07:46:19Z</time>
      </trkpt>
      <trkpt lat="47.067" lon="6.17155">
        <ele>480.8</ele>
        <time>2018-09-09T07:46:31Z</time>
      </trkpt>
      <trkpt lat="47.06686" lon="6.17162">
        <ele>482.72</ele>
        <time>2018-09-09T07:46:42Z</time>
      </trkpt>
      <trkpt lat="47.06685" lon="6.17162">
        <ele>483.2</ele>
        <time>2018-09-09T07:46:43Z</time>
      </trkpt>
      <trkpt lat="47.06678" lon="6.17166">
        <ele>484.16</ele>
        <time>2018-09-09T07:46:48Z</time>
      </trkpt>
      <trkpt lat="47.06662" lon="6.17176">
        <ele>487.05</ele>
        <time>2018-09-09T07:46:58Z</time>
      </trkpt>
      <trkpt lat="47.06654" lon="6.17182">
        <ele>488.97</ele>
        <time>2018-09-09T07:47:05Z</time>
      </trkpt>
      <trkpt lat="47.06645" lon="6.17191">
        <ele>491.37</ele>
        <time>2018-09-09T07:47:12Z</time>
      </trkpt>
      <trkpt lat="47.06624" lon="6.17195">
        <ele>493.29</ele>
        <time>2018-09-09T07:47:22Z</time>
      </trkpt>
      <trkpt lat="47.06607" lon="6.17198">
        <ele>494.26</ele>
        <time>2018-09-09T07:47:31Z</time>
      </trkpt>
      <trkpt lat="47.06604" lon="6.17198">
        <ele>494.26</ele>
        <time>2018-09-09T07:47:33Z</time>
      </trkpt>
      <trkpt lat="47.06594" lon="6.17202">
        <ele>494.26</ele>
        <time>2018-09-09T07:47:38Z</time>
      </trkpt>
      <trkpt lat="47.06587" lon="6.17204">
        <ele>494.26</ele>
        <time>2018-09-09T07:47:42Z</time>
      </trkpt>
      <trkpt lat="47.06579" lon="6.17206">
        <ele>494.74</ele>
        <time>2018-09-09T07:47:47Z</time>
      </trkpt>
      <trkpt lat="47.06574" lon="6.17206">
        <ele>495.22</ele>
        <time>2018-09-09T07:47:50Z</time>
      </trkpt>
      <trkpt lat="47.06566" lon="6.17212">
        <ele>496.66</ele>
        <time>2018-09-09T07:47:54Z</time>
      </trkpt>
      <trkpt lat="47.06566" lon="6.17222">
        <ele>498.58</ele>
        <time>2018-09-09T07:47:58Z</time>
      </trkpt>
      <trkpt lat="47.06566" lon="6.17227">
        <ele>499.54</ele>
        <time>2018-09-09T07:48:00Z</time>
      </trkpt>
      <trkpt lat="47.06568" lon="6.17232">
        <ele>500.98</ele>
        <time>2018-09-09T07:48:12Z</time>
      </trkpt>
      <trkpt lat="47.06562" lon="6.17233">
        <ele>502.91</ele>
        <time>2018-09-09T07:48:29Z</time>
      </trkpt>
      <trkpt lat="47.06563" lon="6.17232">
        <ele>502.91</ele>
        <time>2018-09-09T07:48:34Z</time>
      </trkpt>
      <trkpt lat="47.06568" lon="6.17234">
        <ele>503.87</ele>
        <time>2018-09-09T07:48:38Z</time>
      </trkpt>
      <trkpt lat="47.06572" lon="6.17235">
        <ele>504.83</ele>
        <time>2018-09-09T07:48:41Z</time>
      </trkpt>
      <trkpt lat="47.06574" lon="6.17237">
        <ele>505.31</ele>
        <time>2018-09-09T07:48:43Z</time>
      </trkpt>
      <trkpt lat="47.0658" lon="6.1724">
        <ele>507.23</ele>
        <time>2018-09-09T07:48:49Z</time>
      </trkpt>
      <trkpt lat="47.0659" lon="6.17243">
        <ele>509.64</ele>
        <time>2018-09-09T07:48:58Z</time>
      </trkpt>
      <trkpt lat="47.06592" lon="6.17243">
        <ele>510.12</ele>
        <time>2018-09-09T07:49:00Z</time>
      </trkpt>
      <trkpt lat="47.06596" lon="6.17245">
        <ele>511.08</ele>
        <time>2018-09-09T07:49:04Z</time>
      </trkpt>
      <trkpt lat="47.0661" lon="6.17251">
        <ele>514.44</ele>
        <time>2018-09-09T07:49:14Z</time>
      </trkpt>
      <trkpt lat="47.06613" lon="6.17251">
        <ele>514.92</ele>
        <time>2018-09-09T07:49:16Z</time>
      </trkpt>
      <trkpt lat="47.06619" lon="6.17257">
        <ele>515.88</ele>
        <time>2018-09-09T07:49:28Z</time>
      </trkpt>
      <trkpt lat="47.06627" lon="6.1726">
        <ele>517.81</ele>
        <time>2018-09-09T07:49:41Z</time>
      </trkpt>
      <trkpt lat="47.06628" lon="6.17261">
        <ele>518.29</ele>
        <time>2018-09-09T07:49:44Z</time>
      </trkpt>
      <trkpt lat="47.06635" lon="6.17272">
        <ele>520.69</ele>
        <time>2018-09-09T07:49:58Z</time>
      </trkpt>
      <trkpt lat="47.06642" lon="6.17275">
        <ele>523.09</ele>
        <time>2018-09-09T07:50:10Z</time>
      </trkpt>
      <trkpt lat="47.06652" lon="6.17279">
        <ele>525.5</ele>
        <time>2018-09-09T07:50:23Z</time>
      </trkpt>
      <trkpt lat="47.06657" lon="6.17282">
        <ele>526.94</ele>
        <time>2018-09-09T07:50:33Z</time>
      </trkpt>
      <trkpt lat="47.06665" lon="6.17288">
        <ele>529.82</ele>
        <time>2018-09-09T07:50:47Z</time>
      </trkpt>
      <trkpt lat="47.0667" lon="6.17294">
        <ele>532.23</ele>
        <time>2018-09-09T07:50:58Z</time>
      </trkpt>
      <trkpt lat="47.06676" lon="6.17304">
        <ele>534.15</ele>
        <time>2018-09-09T07:51:10Z</time>
      </trkpt>
      <trkpt lat="47.06679" lon="6.17311">
        <ele>536.07</ele>
        <time>2018-09-09T07:51:20Z</time>
      </trkpt>
      <trkpt lat="47.06686" lon="6.17321">
        <ele>538.96</ele>
        <time>2018-09-09T07:51:34Z</time>
      </trkpt>
      <trkpt lat="47.06693" lon="6.17326">
        <ele>540.4</ele>
        <time>2018-09-09T07:51:45Z</time>
      </trkpt>
      <trkpt lat="47.06712" lon="6.17327">
        <ele>539.92</ele>
        <time>2018-09-09T07:51:56Z</time>
      </trkpt>
      <trkpt lat="47.06738" lon="6.1733">
        <ele>539.92</ele>
        <time>2018-09-09T07:52:08Z</time>
      </trkpt>
      <trkpt lat="47.06762" lon="6.17335">
        <ele>540.4</ele>
        <time>2018-09-09T07:52:16Z</time>
      </trkpt>
      <trkpt lat="47.06782" lon="6.17338">
        <ele>539.92</ele>
        <time>2018-09-09T07:52:22Z</time>
      </trkpt>
      <trkpt lat="47.06819" lon="6.17337">
        <ele>539.92</ele>
        <time>2018-09-09T07:52:35Z</time>
      </trkpt>
      <trkpt lat="47.06847" lon="6.17341">
        <ele>540.88</ele>
        <time>2018-09-09T07:52:44Z</time>
      </trkpt>
      <trkpt lat="47.06856" lon="6.17344">
        <ele>541.36</ele>
        <time>2018-09-09T07:52:48Z</time>
      </trkpt>
      <trkpt lat="47.06887" lon="6.17353">
        <ele>540.88</ele>
        <time>2018-09-09T07:52:58Z</time>
      </trkpt>
      <trkpt lat="47.0691" lon="6.17356">
        <ele>540.4</ele>
        <time>2018-09-09T07:53:05Z</time>
      </trkpt>
      <trkpt lat="47.06936" lon="6.17371">
        <ele>540.88</ele>
        <time>2018-09-09T07:53:14Z</time>
      </trkpt>
      <trkpt lat="47.06946" lon="6.17379">
        <ele>540.88</ele>
        <time>2018-09-09T07:53:19Z</time>
      </trkpt>
      <trkpt lat="47.06962" lon="6.1739">
        <ele>538.48</ele>
        <time>2018-09-09T07:53:24Z</time>
      </trkpt>
      <trkpt lat="47.06972" lon="6.174">
        <ele>537.99</ele>
        <time>2018-09-09T07:53:27Z</time>
      </trkpt>
      <trkpt lat="47.06976" lon="6.17403">
        <ele>537.99</ele>
        <time>2018-09-09T07:53:28Z</time>
      </trkpt>
      <trkpt lat="47.06991" lon="6.1742">
        <ele>537.03</ele>
        <time>2018-09-09T07:53:32Z</time>
      </trkpt>
      <trkpt lat="47.06998" lon="6.17433">
        <ele>537.99</ele>
        <time>2018-09-09T07:53:35Z</time>
      </trkpt>
      <trkpt lat="47.07014" lon="6.17461">
        <ele>539.44</ele>
        <time>2018-09-09T07:53:43Z</time>
      </trkpt>
      <trkpt lat="47.07018" lon="6.17465">
        <ele>539.44</ele>
        <time>2018-09-09T07:53:45Z</time>
      </trkpt>
      <trkpt lat="47.07052" lon="6.17451">
        <ele>538.96</ele>
        <time>2018-09-09T07:53:54Z</time>
      </trkpt>
      <trkpt lat="47.07063" lon="6.17437">
        <ele>537.51</ele>
        <time>2018-09-09T07:53:57Z</time>
      </trkpt>
      <trkpt lat="47.07074" lon="6.17421">
        <ele>536.07</ele>
        <time>2018-09-09T07:54:00Z</time>
      </trkpt>
      <trkpt lat="47.07089" lon="6.17398">
        <ele>536.55</ele>
        <time>2018-09-09T07:54:05Z</time>
      </trkpt>
      <trkpt lat="47.07106" lon="6.17381">
        <ele>536.55</ele>
        <time>2018-09-09T07:54:11Z</time>
      </trkpt>
      <trkpt lat="47.07129" lon="6.17346">
        <ele>535.59</ele>
        <time>2018-09-09T07:54:20Z</time>
      </trkpt>
      <trkpt lat="47.07136" lon="6.17335">
        <ele>535.11</ele>
        <time>2018-09-09T07:54:22Z</time>
      </trkpt>
      <trkpt lat="47.07147" lon="6.17317">
        <ele>533.67</ele>
        <time>2018-09-09T07:54:25Z</time>
      </trkpt>
      <trkpt lat="47.07183" lon="6.17258">
        <ele>531.75</ele>
        <time>2018-09-09T07:54:35Z</time>
      </trkpt>
      <trkpt lat="47.07189" lon="6.17245">
        <ele>530.3</ele>
        <time>2018-09-09T07:54:37Z</time>
      </trkpt>
      <trkpt lat="47.07196" lon="6.17232">
        <ele>529.34</ele>
        <time>2018-09-09T07:54:39Z</time>
      </trkpt>
      <trkpt lat="47.07215" lon="6.17209">
        <ele>527.42</ele>
        <time>2018-09-09T07:54:43Z</time>
      </trkpt>
      <trkpt lat="47.0724" lon="6.17189">
        <ele>526.46</ele>
        <time>2018-09-09T07:54:47Z</time>
      </trkpt>
      <trkpt lat="47.0726" lon="6.17171">
        <ele>524.54</ele>
        <time>2018-09-09T07:54:50Z</time>
      </trkpt>
      <trkpt lat="47.07298" lon="6.17144">
        <ele>521.65</ele>
        <time>2018-09-09T07:54:56Z</time>
      </trkpt>
      <trkpt lat="47.07342" lon="6.17121">
        <ele>518.29</ele>
        <time>2018-09-09T07:55:03Z</time>
      </trkpt>
      <trkpt lat="47.0741" lon="6.17097">
        <ele>515.4</ele>
        <time>2018-09-09T07:55:12Z</time>
      </trkpt>
      <trkpt lat="47.07425" lon="6.17093">
        <ele>514.44</ele>
        <time>2018-09-09T07:55:14Z</time>
      </trkpt>
      <trkpt lat="47.07477" lon="6.17082">
        <ele>511.08</ele>
        <time>2018-09-09T07:55:21Z</time>
      </trkpt>
      <trkpt lat="47.07493" lon="6.17079">
        <ele>510.12</ele>
        <time>2018-09-09T07:55:23Z</time>
      </trkpt>
      <trkpt lat="47.07509" lon="6.17077">
        <ele>509.16</ele>
        <time>2018-09-09T07:55:25Z</time>
      </trkpt>
      <trkpt lat="47.07552" lon="6.17068">
        <ele>507.23</ele>
        <time>2018-09-09T07:55:31Z</time>
      </trkpt>
      <trkpt lat="47.07588" lon="6.17067">
        <ele>505.31</ele>
        <time>2018-09-09T07:55:36Z</time>
      </trkpt>
      <trkpt lat="47.07604" lon="6.17069">
        <ele>503.87</ele>
        <time>2018-09-09T07:55:38Z</time>
      </trkpt>
      <trkpt lat="47.07611" lon="6.17071">
        <ele>503.39</ele>
        <time>2018-09-09T07:55:39Z</time>
      </trkpt>
      <trkpt lat="47.07625" lon="6.17078">
        <ele>502.43</ele>
        <time>2018-09-09T07:55:41Z</time>
      </trkpt>
      <trkpt lat="47.07633" lon="6.17084">
        <ele>501.95</ele>
        <time>2018-09-09T07:55:42Z</time>
      </trkpt>
      <trkpt lat="47.07648" lon="6.17101">
        <ele>501.46</ele>
        <time>2018-09-09T07:55:45Z</time>
      </trkpt>
      <trkpt lat="47.07663" lon="6.17132">
        <ele>498.1</ele>
        <time>2018-09-09T07:55:49Z</time>
      </trkpt>
      <trkpt lat="47.07672" lon="6.17149">
        <ele>497.14</ele>
        <time>2018-09-09T07:55:51Z</time>
      </trkpt>
      <trkpt lat="47.07692" lon="6.17179">
        <ele>495.7</ele>
        <time>2018-09-09T07:55:55Z</time>
      </trkpt>
      <trkpt lat="47.07718" lon="6.1719">
        <ele>494.26</ele>
        <time>2018-09-09T07:55:59Z</time>
      </trkpt>
      <trkpt lat="47.07725" lon="6.17186">
        <ele>493.77</ele>
        <time>2018-09-09T07:56:00Z</time>
      </trkpt>
      <trkpt lat="47.07732" lon="6.17182">
        <ele>493.77</ele>
        <time>2018-09-09T07:56:01Z</time>
      </trkpt>
      <trkpt lat="47.07739" lon="6.17178">
        <ele>493.29</ele>
        <time>2018-09-09T07:56:02Z</time>
      </trkpt>
      <trkpt lat="47.07746" lon="6.17172">
        <ele>492.81</ele>
        <time>2018-09-09T07:56:03Z</time>
      </trkpt>
      <trkpt lat="47.07751" lon="6.17166">
        <ele>492.81</ele>
        <time>2018-09-09T07:56:04Z</time>
      </trkpt>
      <trkpt lat="47.07756" lon="6.1716">
        <ele>492.33</ele>
        <time>2018-09-09T07:56:05Z</time>
      </trkpt>
      <trkpt lat="47.07761" lon="6.17152">
        <ele>491.85</ele>
        <time>2018-09-09T07:56:06Z</time>
      </trkpt>
      <trkpt lat="47.07777" lon="6.17122">
        <ele>490.41</ele>
        <time>2018-09-09T07:56:10Z</time>
      </trkpt>
      <trkpt lat="47.0778" lon="6.17116">
        <ele>490.41</ele>
        <time>2018-09-09T07:56:11Z</time>
      </trkpt>
      <trkpt lat="47.07782" lon="6.17112">
        <ele>490.41</ele>
        <time>2018-09-09T07:56:12Z</time>
      </trkpt>
      <trkpt lat="47.07784" lon="6.1711">
        <ele>490.89</ele>
        <time>2018-09-09T07:56:13Z</time>
      </trkpt>
      <trkpt lat="47.07786" lon="6.17111">
        <ele>491.85</ele>
        <time>2018-09-09T07:56:18Z</time>
      </trkpt>
      <trkpt lat="47.07785" lon="6.17112">
        <ele>492.33</ele>
        <time>2018-09-09T07:56:19Z</time>
      </trkpt>
      <trkpt lat="47.07785" lon="6.17113">
        <ele>492.33</ele>
        <time>2018-09-09T07:56:20Z</time>
      </trkpt>
      <trkpt lat="47.07784" lon="6.17114">
        <ele>492.81</ele>
        <time>2018-09-09T07:56:21Z</time>
      </trkpt>
      <trkpt lat="47.07782" lon="6.17124">
        <ele>493.77</ele>
        <time>2018-09-09T07:56:28Z</time>
      </trkpt>
      <trkpt lat="47.07781" lon="6.17126">
        <ele>493.77</ele>
        <time>2018-09-09T07:56:29Z</time>
      </trkpt>
      <trkpt lat="47.0778" lon="6.17127">
        <ele>494.26</ele>
        <time>2018-09-09T07:56:30Z</time>
      </trkpt>
      <trkpt lat="47.0778" lon="6.17129">
        <ele>494.26</ele>
        <time>2018-09-09T07:56:31Z</time>
      </trkpt>
      <trkpt lat="47.07778" lon="6.17135">
        <ele>495.22</ele>
        <time>2018-09-09T07:56:35Z</time>
      </trkpt>
      <trkpt lat="47.07778" lon="6.17136">
        <ele>495.22</ele>
        <time>2018-09-09T07:56:36Z</time>
      </trkpt>
      <trkpt lat="47.07779" lon="6.17144">
        <ele>496.66</ele>
        <time>2018-09-09T07:56:41Z</time>
      </trkpt>
      <trkpt lat="47.07777" lon="6.1715">
        <ele>497.14</ele>
        <time>2018-09-09T07:56:44Z</time>
      </trkpt>
      <trkpt lat="47.07775" lon="6.17172">
        <ele>500.02</ele>
        <time>2018-09-09T07:56:55Z</time>
      </trkpt>
      <trkpt lat="47.07774" lon="6.17177">
        <ele>500.5</ele>
        <time>2018-09-09T07:56:58Z</time>
      </trkpt>
      <trkpt lat="47.07773" lon="6.17193">
        <ele>502.91</ele>
        <time>2018-09-09T07:57:08Z</time>
      </trkpt>
      <trkpt lat="47.07772" lon="6.17203">
        <ele>504.35</ele>
        <time>2018-09-09T07:57:14Z</time>
      </trkpt>
      <trkpt lat="47.07768" lon="6.17208">
        <ele>504.83</ele>
        <time>2018-09-09T07:57:18Z</time>
      </trkpt>
      <trkpt lat="47.07766" lon="6.1721">
        <ele>505.31</ele>
        <time>2018-09-09T07:57:19Z</time>
      </trkpt>
      <trkpt lat="47.07765" lon="6.17211">
        <ele>505.31</ele>
        <time>2018-09-09T07:57:20Z</time>
      </trkpt>
      <trkpt lat="47.07764" lon="6.17213">
        <ele>505.79</ele>
        <time>2018-09-09T07:57:21Z</time>
      </trkpt>
      <trkpt lat="47.07761" lon="6.1722">
        <ele>506.75</ele>
        <time>2018-09-09T07:57:27Z</time>
      </trkpt>
      <trkpt lat="47.07761" lon="6.17223">
        <ele>507.23</ele>
        <time>2018-09-09T07:57:28Z</time>
      </trkpt>
      <trkpt lat="47.0776" lon="6.17225">
        <ele>507.23</ele>
        <time>2018-09-09T07:57:29Z</time>
      </trkpt>
      <trkpt lat="47.07759" lon="6.17227">
        <ele>508.19</ele>
        <time>2018-09-09T07:57:30Z</time>
      </trkpt>
      <trkpt lat="47.07756" lon="6.17236">
        <ele>509.16</ele>
        <time>2018-09-09T07:57:35Z</time>
      </trkpt>
      <trkpt lat="47.07756" lon="6.17238">
        <ele>509.64</ele>
        <time>2018-09-09T07:57:36Z</time>
      </trkpt>
      <trkpt lat="47.07755" lon="6.1724">
        <ele>509.64</ele>
        <time>2018-09-09T07:57:37Z</time>
      </trkpt>
      <trkpt lat="47.07754" lon="6.17241">
        <ele>510.12</ele>
        <time>2018-09-09T07:57:38Z</time>
      </trkpt>
      <trkpt lat="47.07751" lon="6.17246">
        <ele>511.08</ele>
        <time>2018-09-09T07:57:41Z</time>
      </trkpt>
      <trkpt lat="47.07749" lon="6.17254">
        <ele>512.52</ele>
        <time>2018-09-09T07:57:45Z</time>
      </trkpt>
      <trkpt lat="47.07748" lon="6.17256">
        <ele>512.52</ele>
        <time>2018-09-09T07:57:46Z</time>
      </trkpt>
      <trkpt lat="47.07746" lon="6.1726">
        <ele>513.48</ele>
        <time>2018-09-09T07:57:49Z</time>
      </trkpt>
      <trkpt lat="47.07744" lon="6.1726">
        <ele>513.96</ele>
        <time>2018-09-09T07:57:50Z</time>
      </trkpt>
      <trkpt lat="47.07738" lon="6.17263">
        <ele>515.88</ele>
        <time>2018-09-09T07:57:58Z</time>
      </trkpt>
      <trkpt lat="47.07737" lon="6.1727">
        <ele>517.33</ele>
        <time>2018-09-09T07:58:06Z</time>
      </trkpt>
      <trkpt lat="47.07738" lon="6.17282">
        <ele>519.25</ele>
        <time>2018-09-09T07:58:17Z</time>
      </trkpt>
      <trkpt lat="47.07736" lon="6.17289">
        <ele>521.17</ele>
        <time>2018-09-09T07:58:28Z</time>
      </trkpt>
      <trkpt lat="47.07737" lon="6.17305">
        <ele>523.09</ele>
        <time>2018-09-09T07:58:42Z</time>
      </trkpt>
      <trkpt lat="47.07736" lon="6.17306">
        <ele>523.58</ele>
        <time>2018-09-09T07:58:46Z</time>
      </trkpt>
      <trkpt lat="47.07733" lon="6.17316">
        <ele>525.02</ele>
        <time>2018-09-09T07:58:51Z</time>
      </trkpt>
      <trkpt lat="47.07732" lon="6.17319">
        <ele>525.5</ele>
        <time>2018-09-09T07:58:53Z</time>
      </trkpt>
      <trkpt lat="47.07731" lon="6.17322">
        <ele>525.98</ele>
        <time>2018-09-09T07:58:55Z</time>
      </trkpt>
      <trkpt lat="47.07729" lon="6.17328">
        <ele>526.46</ele>
        <time>2018-09-09T07:58:58Z</time>
      </trkpt>
      <trkpt lat="47.07729" lon="6.17341">
        <ele>528.86</ele>
        <time>2018-09-09T07:59:10Z</time>
      </trkpt>
      <trkpt lat="47.07716" lon="6.17344">
        <ele>530.79</ele>
        <time>2018-09-09T07:59:23Z</time>
      </trkpt>
      <trkpt lat="47.07709" lon="6.17341">
        <ele>531.27</ele>
        <time>2018-09-09T07:59:35Z</time>
      </trkpt>
      <trkpt lat="47.07709" lon="6.17342">
        <ele>531.27</ele>
        <time>2018-09-09T07:59:37Z</time>
      </trkpt>
      <trkpt lat="47.0771" lon="6.17342">
        <ele>531.27</ele>
        <time>2018-09-09T07:59:39Z</time>
      </trkpt>
      <trkpt lat="47.07716" lon="6.17344">
        <ele>529.82</ele>
        <time>2018-09-09T07:59:43Z</time>
      </trkpt>
      <trkpt lat="47.07724" lon="6.17343">
        <ele>528.86</ele>
        <time>2018-09-09T07:59:45Z</time>
      </trkpt>
      <trkpt lat="47.07729" lon="6.17344">
        <ele>528.86</ele>
        <time>2018-09-09T07:59:46Z</time>
      </trkpt>
      <trkpt lat="47.07733" lon="6.17346">
        <ele>528.86</ele>
        <time>2018-09-09T07:59:47Z</time>
      </trkpt>
      <trkpt lat="47.07748" lon="6.17354">
        <ele>528.38</ele>
        <time>2018-09-09T07:59:52Z</time>
      </trkpt>
      <trkpt lat="47.0775" lon="6.17354">
        <ele>528.38</ele>
        <time>2018-09-09T07:59:53Z</time>
      </trkpt>
      <trkpt lat="47.07751" lon="6.17355">
        <ele>528.38</ele>
        <time>2018-09-09T07:59:54Z</time>
      </trkpt>
      <trkpt lat="47.07754" lon="6.17355">
        <ele>528.38</ele>
        <time>2018-09-09T07:59:55Z</time>
      </trkpt>
      <trkpt lat="47.07756" lon="6.17356">
        <ele>528.38</ele>
        <time>2018-09-09T07:59:56Z</time>
      </trkpt>
      <trkpt lat="47.07758" lon="6.17358">
        <ele>528.38</ele>
        <time>2018-09-09T07:59:57Z</time>
      </trkpt>
      <trkpt lat="47.0776" lon="6.17361">
        <ele>527.9</ele>
        <time>2018-09-09T07:59:58Z</time>
      </trkpt>
      <trkpt lat="47.07759" lon="6.17363">
        <ele>527.42</ele>
        <time>2018-09-09T07:59:59Z</time>
      </trkpt>
      <trkpt lat="47.07757" lon="6.17364">
        <ele>527.42</ele>
        <time>2018-09-09T08:00:00Z</time>
      </trkpt>
      <trkpt lat="47.07756" lon="6.17365">
        <ele>527.42</ele>
        <time>2018-09-09T08:00:01Z</time>
      </trkpt>
      <trkpt lat="47.07754" lon="6.17366">
        <ele>527.9</ele>
        <time>2018-09-09T08:00:02Z</time>
      </trkpt>
      <trkpt lat="47.07752" lon="6.17368">
        <ele>527.9</ele>
        <time>2018-09-09T08:00:03Z</time>
      </trkpt>
      <trkpt lat="47.07732" lon="6.17395">
        <ele>529.34</ele>
        <time>2018-09-09T08:00:15Z</time>
      </trkpt>
      <trkpt lat="47.07729" lon="6.17402">
        <ele>529.82</ele>
        <time>2018-09-09T08:00:20Z</time>
      </trkpt>
      <trkpt lat="47.07727" lon="6.17405">
        <ele>530.3</ele>
        <time>2018-09-09T08:00:22Z</time>
      </trkpt>
      <trkpt lat="47.07723" lon="6.17411">
        <ele>531.27</ele>
        <time>2018-09-09T08:00:26Z</time>
      </trkpt>
      <trkpt lat="47.07723" lon="6.17413">
        <ele>531.27</ele>
        <time>2018-09-09T08:00:27Z</time>
      </trkpt>
      <trkpt lat="47.07721" lon="6.17415">
        <ele>531.75</ele>
        <time>2018-09-09T08:00:28Z</time>
      </trkpt>
      <trkpt lat="47.0772" lon="6.17418">
        <ele>531.75</ele>
        <time>2018-09-09T08:00:29Z</time>
      </trkpt>
      <trkpt lat="47.07718" lon="6.17421">
        <ele>532.23</ele>
        <time>2018-09-09T08:00:30Z</time>
      </trkpt>
      <trkpt lat="47.07717" lon="6.17423">
        <ele>532.23</ele>
        <time>2018-09-09T08:00:31Z</time>
      </trkpt>
      <trkpt lat="47.07715" lon="6.17425">
        <ele>532.71</ele>
        <time>2018-09-09T08:00:32Z</time>
      </trkpt>
      <trkpt lat="47.07712" lon="6.17428">
        <ele>532.71</ele>
        <time>2018-09-09T08:00:33Z</time>
      </trkpt>
      <trkpt lat="47.07687" lon="6.17473">
        <ele>535.11</ele>
        <time>2018-09-09T08:00:44Z</time>
      </trkpt>
      <trkpt lat="47.07679" lon="6.17535">
        <ele>537.99</ele>
        <time>2018-09-09T08:01:01Z</time>
      </trkpt>
      <trkpt lat="47.0769" lon="6.17605">
        <ele>538.48</ele>
        <time>2018-09-09T08:01:17Z</time>
      </trkpt>
      <trkpt lat="47.07701" lon="6.17687">
        <ele>540.88</ele>
        <time>2018-09-09T08:01:36Z</time>
      </trkpt>
      <trkpt lat="47.07707" lon="6.17755">
        <ele>542.8</ele>
        <time>2018-09-09T08:01:51Z</time>
      </trkpt>
      <trkpt lat="47.07707" lon="6.1783">
        <ele>545.69</ele>
        <time>2018-09-09T08:02:08Z</time>
      </trkpt>
      <trkpt lat="47.07705" lon="6.17832">
        <ele>546.17</ele>
        <time>2018-09-09T08:02:09Z</time>
      </trkpt>
      <trkpt lat="47.07703" lon="6.17833">
        <ele>546.65</ele>
        <time>2018-09-09T08:02:10Z</time>
      </trkpt>
      <trkpt lat="47.07701" lon="6.17833">
        <ele>547.13</ele>
        <time>2018-09-09T08:02:11Z</time>
      </trkpt>
      <trkpt lat="47.07699" lon="6.17831">
        <ele>547.61</ele>
        <time>2018-09-09T08:02:12Z</time>
      </trkpt>
      <trkpt lat="47.07698" lon="6.17828">
        <ele>548.09</ele>
        <time>2018-09-09T08:02:13Z</time>
      </trkpt>
      <trkpt lat="47.07696" lon="6.17826">
        <ele>548.57</ele>
        <time>2018-09-09T08:02:14Z</time>
      </trkpt>
      <trkpt lat="47.07696" lon="6.17823">
        <ele>548.57</ele>
        <time>2018-09-09T08:02:15Z</time>
      </trkpt>
      <trkpt lat="47.07694" lon="6.1782">
        <ele>549.05</ele>
        <time>2018-09-09T08:02:16Z</time>
      </trkpt>
      <trkpt lat="47.07693" lon="6.17817">
        <ele>549.05</ele>
        <time>2018-09-09T08:02:17Z</time>
      </trkpt>
      <trkpt lat="47.07692" lon="6.17814">
        <ele>549.53</ele>
        <time>2018-09-09T08:02:18Z</time>
      </trkpt>
      <trkpt lat="47.0768" lon="6.17781">
        <ele>552.9</ele>
        <time>2018-09-09T08:02:30Z</time>
      </trkpt>
      <trkpt lat="47.07661" lon="6.17747">
        <ele>555.78</ele>
        <time>2018-09-09T08:02:44Z</time>
      </trkpt>
      <trkpt lat="47.07642" lon="6.17728">
        <ele>559.14</ele>
        <time>2018-09-09T08:02:55Z</time>
      </trkpt>
      <trkpt lat="47.07619" lon="6.17706">
        <ele>562.03</ele>
        <time>2018-09-09T08:03:08Z</time>
      </trkpt>
      <trkpt lat="47.07597" lon="6.17678">
        <ele>564.91</ele>
        <time>2018-09-09T08:03:22Z</time>
      </trkpt>
      <trkpt lat="47.07595" lon="6.17675">
        <ele>565.39</ele>
        <time>2018-09-09T08:03:24Z</time>
      </trkpt>
      <trkpt lat="47.07593" lon="6.17675">
        <ele>565.39</ele>
        <time>2018-09-09T08:03:25Z</time>
      </trkpt>
      <trkpt lat="47.07591" lon="6.17676">
        <ele>565.39</ele>
        <time>2018-09-09T08:03:26Z</time>
      </trkpt>
      <trkpt lat="47.07589" lon="6.17677">
        <ele>565.39</ele>
        <time>2018-09-09T08:03:27Z</time>
      </trkpt>
      <trkpt lat="47.07588" lon="6.17679">
        <ele>565.87</ele>
        <time>2018-09-09T08:03:28Z</time>
      </trkpt>
      <trkpt lat="47.07588" lon="6.17681">
        <ele>566.35</ele>
        <time>2018-09-09T08:03:29Z</time>
      </trkpt>
      <trkpt lat="47.07588" lon="6.17684">
        <ele>566.35</ele>
        <time>2018-09-09T08:03:30Z</time>
      </trkpt>
      <trkpt lat="47.07589" lon="6.17687">
        <ele>566.35</ele>
        <time>2018-09-09T08:03:31Z</time>
      </trkpt>
      <trkpt lat="47.0759" lon="6.17689">
        <ele>566.35</ele>
        <time>2018-09-09T08:03:32Z</time>
      </trkpt>
      <trkpt lat="47.0759" lon="6.17692">
        <ele>566.35</ele>
        <time>2018-09-09T08:03:33Z</time>
      </trkpt>
      <trkpt lat="47.0759" lon="6.17696">
        <ele>566.35</ele>
        <time>2018-09-09T08:03:34Z</time>
      </trkpt>
      <trkpt lat="47.0759" lon="6.17699">
        <ele>566.35</ele>
        <time>2018-09-09T08:03:35Z</time>
      </trkpt>
      <trkpt lat="47.0759" lon="6.17703">
        <ele>566.83</ele>
        <time>2018-09-09T08:03:36Z</time>
      </trkpt>
      <trkpt lat="47.07588" lon="6.17743">
        <ele>569.24</ele>
        <time>2018-09-09T08:03:48Z</time>
      </trkpt>
      <trkpt lat="47.07588" lon="6.17751">
        <ele>570.2</ele>
        <time>2018-09-09T08:03:51Z</time>
      </trkpt>
      <trkpt lat="47.07587" lon="6.17754">
        <ele>570.2</ele>
        <time>2018-09-09T08:03:52Z</time>
      </trkpt>
      <trkpt lat="47.07586" lon="6.17757">
        <ele>570.2</ele>
        <time>2018-09-09T08:03:53Z</time>
      </trkpt>
      <trkpt lat="47.07586" lon="6.17761">
        <ele>570.68</ele>
        <time>2018-09-09T08:03:54Z</time>
      </trkpt>
      <trkpt lat="47.07585" lon="6.17764">
        <ele>571.16</ele>
        <time>2018-09-09T08:03:55Z</time>
      </trkpt>
      <trkpt lat="47.07585" lon="6.17767">
        <ele>571.16</ele>
        <time>2018-09-09T08:03:56Z</time>
      </trkpt>
      <trkpt lat="47.07585" lon="6.1777">
        <ele>571.16</ele>
        <time>2018-09-09T08:03:57Z</time>
      </trkpt>
      <trkpt lat="47.07586" lon="6.17809">
        <ele>573.08</ele>
        <time>2018-09-09T08:04:10Z</time>
      </trkpt>
      <trkpt lat="47.07583" lon="6.17842">
        <ele>575.01</ele>
        <time>2018-09-09T08:04:21Z</time>
      </trkpt>
      <trkpt lat="47.07567" lon="6.17876">
        <ele>577.89</ele>
        <time>2018-09-09T08:04:34Z</time>
      </trkpt>
      <trkpt lat="47.07547" lon="6.17868">
        <ele>580.29</ele>
        <time>2018-09-09T08:04:46Z</time>
      </trkpt>
      <trkpt lat="47.07532" lon="6.17827">
        <ele>581.25</ele>
        <time>2018-09-09T08:05:00Z</time>
      </trkpt>
      <trkpt lat="47.07513" lon="6.17785">
        <ele>583.18</ele>
        <time>2018-09-09T08:05:15Z</time>
      </trkpt>
      <trkpt lat="47.07493" lon="6.17746">
        <ele>586.06</ele>
        <time>2018-09-09T08:05:30Z</time>
      </trkpt>
      <trkpt lat="47.07476" lon="6.17717">
        <ele>587.02</ele>
        <time>2018-09-09T08:05:42Z</time>
      </trkpt>
      <trkpt lat="47.0745" lon="6.17708">
        <ele>588.95</ele>
        <time>2018-09-09T08:05:54Z</time>
      </trkpt>
      <trkpt lat="47.0742" lon="6.17693">
        <ele>590.39</ele>
        <time>2018-09-09T08:06:08Z</time>
      </trkpt>
      <trkpt lat="47.07393" lon="6.17697">
        <ele>591.35</ele>
        <time>2018-09-09T08:06:21Z</time>
      </trkpt>
      <trkpt lat="47.07391" lon="6.17697">
        <ele>592.31</ele>
        <time>2018-09-09T08:06:22Z</time>
      </trkpt>
      <trkpt lat="47.07389" lon="6.17697">
        <ele>591.83</ele>
        <time>2018-09-09T08:06:23Z</time>
      </trkpt>
      <trkpt lat="47.07387" lon="6.17697">
        <ele>591.83</ele>
        <time>2018-09-09T08:06:24Z</time>
      </trkpt>
      <trkpt lat="47.07385" lon="6.17698">
        <ele>592.31</ele>
        <time>2018-09-09T08:06:25Z</time>
      </trkpt>
      <trkpt lat="47.07384" lon="6.17699">
        <ele>592.31</ele>
        <time>2018-09-09T08:06:26Z</time>
      </trkpt>
      <trkpt lat="47.07382" lon="6.177">
        <ele>592.31</ele>
        <time>2018-09-09T08:06:27Z</time>
      </trkpt>
      <trkpt lat="47.0738" lon="6.17701">
        <ele>592.31</ele>
        <time>2018-09-09T08:06:28Z</time>
      </trkpt>
      <trkpt lat="47.07378" lon="6.17702">
        <ele>592.31</ele>
        <time>2018-09-09T08:06:29Z</time>
      </trkpt>
      <trkpt lat="47.07376" lon="6.17704">
        <ele>592.31</ele>
        <time>2018-09-09T08:06:30Z</time>
      </trkpt>
      <trkpt lat="47.07375" lon="6.17705">
        <ele>592.79</ele>
        <time>2018-09-09T08:06:31Z</time>
      </trkpt>
      <trkpt lat="47.07352" lon="6.1771">
        <ele>594.71</ele>
        <time>2018-09-09T08:06:42Z</time>
      </trkpt>
      <trkpt lat="47.07335" lon="6.17706">
        <ele>595.19</ele>
        <time>2018-09-09T08:06:49Z</time>
      </trkpt>
      <trkpt lat="47.07333" lon="6.17706">
        <ele>595.67</ele>
        <time>2018-09-09T08:06:50Z</time>
      </trkpt>
      <trkpt lat="47.07314" lon="6.17704">
        <ele>596.15</ele>
        <time>2018-09-09T08:06:57Z</time>
      </trkpt>
      <trkpt lat="47.07312" lon="6.17704">
        <ele>596.15</ele>
        <time>2018-09-09T08:06:58Z</time>
      </trkpt>
      <trkpt lat="47.07296" lon="6.17703">
        <ele>596.64</ele>
        <time>2018-09-09T08:07:05Z</time>
      </trkpt>
      <trkpt lat="47.07293" lon="6.17703">
        <ele>596.64</ele>
        <time>2018-09-09T08:07:06Z</time>
      </trkpt>
      <trkpt lat="47.07291" lon="6.17703">
        <ele>597.12</ele>
        <time>2018-09-09T08:07:07Z</time>
      </trkpt>
      <trkpt lat="47.07288" lon="6.17703">
        <ele>596.64</ele>
        <time>2018-09-09T08:07:08Z</time>
      </trkpt>
      <trkpt lat="47.07285" lon="6.17703">
        <ele>596.64</ele>
        <time>2018-09-09T08:07:09Z</time>
      </trkpt>
      <trkpt lat="47.07283" lon="6.17704">
        <ele>597.12</ele>
        <time>2018-09-09T08:07:10Z</time>
      </trkpt>
      <trkpt lat="47.07282" lon="6.17704">
        <ele>597.12</ele>
        <time>2018-09-09T08:07:11Z</time>
      </trkpt>
      <trkpt lat="47.0728" lon="6.17706">
        <ele>597.12</ele>
        <time>2018-09-09T08:07:12Z</time>
      </trkpt>
      <trkpt lat="47.07277" lon="6.17706">
        <ele>597.12</ele>
        <time>2018-09-09T08:07:13Z</time>
      </trkpt>
      <trkpt lat="47.07275" lon="6.17706">
        <ele>597.6</ele>
        <time>2018-09-09T08:07:14Z</time>
      </trkpt>
      <trkpt lat="47.07263" lon="6.17709">
        <ele>597.6</ele>
        <time>2018-09-09T08:07:18Z</time>
      </trkpt>
      <trkpt lat="47.07261" lon="6.1771">
        <ele>598.08</ele>
        <time>2018-09-09T08:07:19Z</time>
      </trkpt>
      <trkpt lat="47.07259" lon="6.17711">
        <ele>598.08</ele>
        <time>2018-09-09T08:07:20Z</time>
      </trkpt>
      <trkpt lat="47.07257" lon="6.17712">
        <ele>598.08</ele>
        <time>2018-09-09T08:07:21Z</time>
      </trkpt>
      <trkpt lat="47.07255" lon="6.17712">
        <ele>598.56</ele>
        <time>2018-09-09T08:07:22Z</time>
      </trkpt>
      <trkpt lat="47.07252" lon="6.17712">
        <ele>598.56</ele>
        <time>2018-09-09T08:07:23Z</time>
      </trkpt>
      <trkpt lat="47.07249" lon="6.17711">
        <ele>598.56</ele>
        <time>2018-09-09T08:07:24Z</time>
      </trkpt>
      <trkpt lat="47.07246" lon="6.17711">
        <ele>598.56</ele>
        <time>2018-09-09T08:07:25Z</time>
      </trkpt>
      <trkpt lat="47.07218" lon="6.1771">
        <ele>599.52</ele>
        <time>2018-09-09T08:07:35Z</time>
      </trkpt>
      <trkpt lat="47.07189" lon="6.17714">
        <ele>600.96</ele>
        <time>2018-09-09T08:07:45Z</time>
      </trkpt>
      <trkpt lat="47.07155" lon="6.17715">
        <ele>601.92</ele>
        <time>2018-09-09T08:07:56Z</time>
      </trkpt>
      <trkpt lat="47.07122" lon="6.17709">
        <ele>602.4</ele>
        <time>2018-09-09T08:08:09Z</time>
      </trkpt>
      <trkpt lat="47.07077" lon="6.17718">
        <ele>602.88</ele>
        <time>2018-09-09T08:08:21Z</time>
      </trkpt>
      <trkpt lat="47.07048" lon="6.17719">
        <ele>602.88</ele>
        <time>2018-09-09T08:08:30Z</time>
      </trkpt>
      <trkpt lat="47.07008" lon="6.17716">
        <ele>602.88</ele>
        <time>2018-09-09T08:08:41Z</time>
      </trkpt>
      <trkpt lat="47.06979" lon="6.17707">
        <ele>603.36</ele>
        <time>2018-09-09T08:08:50Z</time>
      </trkpt>
      <trkpt lat="47.06962" lon="6.17699">
        <ele>604.33</ele>
        <time>2018-09-09T08:08:57Z</time>
      </trkpt>
      <trkpt lat="47.0696" lon="6.17697">
        <ele>604.81</ele>
        <time>2018-09-09T08:08:58Z</time>
      </trkpt>
      <trkpt lat="47.06958" lon="6.17696">
        <ele>604.81</ele>
        <time>2018-09-09T08:08:59Z</time>
      </trkpt>
      <trkpt lat="47.06942" lon="6.17695">
        <ele>605.29</ele>
        <time>2018-09-09T08:09:04Z</time>
      </trkpt>
      <trkpt lat="47.06939" lon="6.17695">
        <ele>605.77</ele>
        <time>2018-09-09T08:09:05Z</time>
      </trkpt>
      <trkpt lat="47.06896" lon="6.17697">
        <ele>608.17</ele>
        <time>2018-09-09T08:09:19Z</time>
      </trkpt>
      <trkpt lat="47.06893" lon="6.17697">
        <ele>608.17</ele>
        <time>2018-09-09T08:09:20Z</time>
      </trkpt>
      <trkpt lat="47.06873" lon="6.17697">
        <ele>609.61</ele>
        <time>2018-09-09T08:09:28Z</time>
      </trkpt>
      <trkpt lat="47.0687" lon="6.17697">
        <ele>610.09</ele>
        <time>2018-09-09T08:09:29Z</time>
      </trkpt>
      <trkpt lat="47.06868" lon="6.17698">
        <ele>610.09</ele>
        <time>2018-09-09T08:09:30Z</time>
      </trkpt>
      <trkpt lat="47.06866" lon="6.17699">
        <ele>610.09</ele>
        <time>2018-09-09T08:09:31Z</time>
      </trkpt>
      <trkpt lat="47.06863" lon="6.177">
        <ele>610.57</ele>
        <time>2018-09-09T08:09:32Z</time>
      </trkpt>
      <trkpt lat="47.0686" lon="6.17699">
        <ele>610.57</ele>
        <time>2018-09-09T08:09:33Z</time>
      </trkpt>
      <trkpt lat="47.06858" lon="6.17698">
        <ele>611.06</ele>
        <time>2018-09-09T08:09:34Z</time>
      </trkpt>
      <trkpt lat="47.06855" lon="6.17698">
        <ele>611.06</ele>
        <time>2018-09-09T08:09:35Z</time>
      </trkpt>
      <trkpt lat="47.0683" lon="6.17696">
        <ele>612.98</ele>
        <time>2018-09-09T08:09:45Z</time>
      </trkpt>
      <trkpt lat="47.06808" lon="6.17697">
        <ele>615.86</ele>
        <time>2018-09-09T08:09:56Z</time>
      </trkpt>
      <trkpt lat="47.06785" lon="6.17704">
        <ele>617.78</ele>
        <time>2018-09-09T08:10:07Z</time>
      </trkpt>
      <trkpt lat="47.06783" lon="6.17704">
        <ele>617.78</ele>
        <time>2018-09-09T08:10:08Z</time>
      </trkpt>
      <trkpt lat="47.06781" lon="6.17704">
        <ele>617.78</ele>
        <time>2018-09-09T08:10:09Z</time>
      </trkpt>
      <trkpt lat="47.06772" lon="6.17705">
        <ele>618.26</ele>
        <time>2018-09-09T08:10:13Z</time>
      </trkpt>
      <trkpt lat="47.06769" lon="6.17705">
        <ele>618.26</ele>
        <time>2018-09-09T08:10:14Z</time>
      </trkpt>
      <trkpt lat="47.06767" lon="6.17705">
        <ele>618.75</ele>
        <time>2018-09-09T08:10:15Z</time>
      </trkpt>
      <trkpt lat="47.06764" lon="6.17705">
        <ele>618.75</ele>
        <time>2018-09-09T08:10:16Z</time>
      </trkpt>
      <trkpt lat="47.06761" lon="6.17705">
        <ele>618.75</ele>
        <time>2018-09-09T08:10:17Z</time>
      </trkpt>
      <trkpt lat="47.06758" lon="6.17705">
        <ele>618.75</ele>
        <time>2018-09-09T08:10:18Z</time>
      </trkpt>
      <trkpt lat="47.06755" lon="6.17705">
        <ele>618.75</ele>
        <time>2018-09-09T08:10:19Z</time>
      </trkpt>
      <trkpt lat="47.06752" lon="6.17705">
        <ele>619.23</ele>
        <time>2018-09-09T08:10:20Z</time>
      </trkpt>
      <trkpt lat="47.06749" lon="6.17706">
        <ele>619.23</ele>
        <time>2018-09-09T08:10:21Z</time>
      </trkpt>
      <trkpt lat="47.06746" lon="6.17706">
        <ele>619.23</ele>
        <time>2018-09-09T08:10:22Z</time>
      </trkpt>
      <trkpt lat="47.06742" lon="6.17707">
        <ele>619.71</ele>
        <time>2018-09-09T08:10:23Z</time>
      </trkpt>
      <trkpt lat="47.06738" lon="6.17707">
        <ele>619.23</ele>
        <time>2018-09-09T08:10:24Z</time>
      </trkpt>
      <trkpt lat="47.06735" lon="6.17708">
        <ele>619.23</ele>
        <time>2018-09-09T08:10:25Z</time>
      </trkpt>
      <trkpt lat="47.06703" lon="6.1771">
        <ele>620.67</ele>
        <time>2018-09-09T08:10:37Z</time>
      </trkpt>
      <trkpt lat="47.06678" lon="6.17714">
        <ele>621.63</ele>
        <time>2018-09-09T08:10:46Z</time>
      </trkpt>
      <trkpt lat="47.06665" lon="6.17719">
        <ele>623.07</ele>
        <time>2018-09-09T08:10:51Z</time>
      </trkpt>
      <trkpt lat="47.06662" lon="6.17722">
        <ele>623.07</ele>
        <time>2018-09-09T08:10:52Z</time>
      </trkpt>
      <trkpt lat="47.0666" lon="6.17723">
        <ele>623.07</ele>
        <time>2018-09-09T08:10:53Z</time>
      </trkpt>
      <trkpt lat="47.06658" lon="6.17723">
        <ele>623.07</ele>
        <time>2018-09-09T08:10:54Z</time>
      </trkpt>
      <trkpt lat="47.06656" lon="6.17723">
        <ele>623.55</ele>
        <time>2018-09-09T08:10:55Z</time>
      </trkpt>
      <trkpt lat="47.06654" lon="6.17723">
        <ele>623.55</ele>
        <time>2018-09-09T08:10:56Z</time>
      </trkpt>
      <trkpt lat="47.06652" lon="6.17724">
        <ele>623.55</ele>
        <time>2018-09-09T08:10:57Z</time>
      </trkpt>
      <trkpt lat="47.0665" lon="6.17726">
        <ele>624.03</ele>
        <time>2018-09-09T08:10:58Z</time>
      </trkpt>
      <trkpt lat="47.06648" lon="6.17726">
        <ele>623.55</ele>
        <time>2018-09-09T08:10:59Z</time>
      </trkpt>
      <trkpt lat="47.06623" lon="6.17741">
        <ele>625.47</ele>
        <time>2018-09-09T08:11:09Z</time>
      </trkpt>
      <trkpt lat="47.06612" lon="6.17748">
        <ele>625.96</ele>
        <time>2018-09-09T08:11:14Z</time>
      </trkpt>
      <trkpt lat="47.0661" lon="6.1775">
        <ele>625.96</ele>
        <time>2018-09-09T08:11:15Z</time>
      </trkpt>
      <trkpt lat="47.06608" lon="6.17752">
        <ele>625.96</ele>
        <time>2018-09-09T08:11:16Z</time>
      </trkpt>
      <trkpt lat="47.06605" lon="6.17753">
        <ele>625.96</ele>
        <time>2018-09-09T08:11:17Z</time>
      </trkpt>
      <trkpt lat="47.06603" lon="6.17753">
        <ele>626.44</ele>
        <time>2018-09-09T08:11:18Z</time>
      </trkpt>
      <trkpt lat="47.06589" lon="6.1776">
        <ele>626.92</ele>
        <time>2018-09-09T08:11:23Z</time>
      </trkpt>
      <trkpt lat="47.06587" lon="6.17762">
        <ele>626.92</ele>
        <time>2018-09-09T08:11:24Z</time>
      </trkpt>
      <trkpt lat="47.06558" lon="6.17769">
        <ele>627.88</ele>
        <time>2018-09-09T08:11:36Z</time>
      </trkpt>
      <trkpt lat="47.0653" lon="6.17794">
        <ele>628.84</ele>
        <time>2018-09-09T08:11:46Z</time>
      </trkpt>
      <trkpt lat="47.06527" lon="6.17797">
        <ele>628.84</ele>
        <time>2018-09-09T08:11:47Z</time>
      </trkpt>
      <trkpt lat="47.06525" lon="6.178">
        <ele>629.32</ele>
        <time>2018-09-09T08:11:48Z</time>
      </trkpt>
      <trkpt lat="47.06523" lon="6.17803">
        <ele>629.32</ele>
        <time>2018-09-09T08:11:49Z</time>
      </trkpt>
      <trkpt lat="47.06521" lon="6.17805">
        <ele>629.32</ele>
        <time>2018-09-09T08:11:50Z</time>
      </trkpt>
      <trkpt lat="47.06519" lon="6.17807">
        <ele>629.32</ele>
        <time>2018-09-09T08:11:51Z</time>
      </trkpt>
      <trkpt lat="47.06518" lon="6.1781">
        <ele>629.8</ele>
        <time>2018-09-09T08:11:52Z</time>
      </trkpt>
      <trkpt lat="47.06508" lon="6.17821">
        <ele>630.28</ele>
        <time>2018-09-09T08:11:57Z</time>
      </trkpt>
      <trkpt lat="47.06506" lon="6.17821">
        <ele>630.28</ele>
        <time>2018-09-09T08:11:58Z</time>
      </trkpt>
      <trkpt lat="47.06484" lon="6.17831">
        <ele>631.72</ele>
        <time>2018-09-09T08:12:07Z</time>
      </trkpt>
      <trkpt lat="47.06483" lon="6.17833">
        <ele>631.72</ele>
        <time>2018-09-09T08:12:08Z</time>
      </trkpt>
      <trkpt lat="47.0648" lon="6.17834">
        <ele>631.72</ele>
        <time>2018-09-09T08:12:09Z</time>
      </trkpt>
      <trkpt lat="47.06477" lon="6.17836">
        <ele>631.72</ele>
        <time>2018-09-09T08:12:10Z</time>
      </trkpt>
      <trkpt lat="47.06473" lon="6.17837">
        <ele>631.72</ele>
        <time>2018-09-09T08:12:11Z</time>
      </trkpt>
      <trkpt lat="47.0647" lon="6.17839">
        <ele>631.72</ele>
        <time>2018-09-09T08:12:12Z</time>
      </trkpt>
      <trkpt lat="47.06467" lon="6.17839">
        <ele>632.2</ele>
        <time>2018-09-09T08:12:13Z</time>
      </trkpt>
      <trkpt lat="47.06424" lon="6.17847">
        <ele>632.2</ele>
        <time>2018-09-09T08:12:26Z</time>
      </trkpt>
      <trkpt lat="47.06384" lon="6.17853">
        <ele>631.72</ele>
        <time>2018-09-09T08:12:37Z</time>
      </trkpt>
      <trkpt lat="47.06346" lon="6.17871">
        <ele>631.72</ele>
        <time>2018-09-09T08:12:48Z</time>
      </trkpt>
      <trkpt lat="47.06313" lon="6.17883">
        <ele>631.72</ele>
        <time>2018-09-09T08:12:57Z</time>
      </trkpt>
      <trkpt lat="47.06278" lon="6.17895">
        <ele>632.68</ele>
        <time>2018-09-09T08:13:08Z</time>
      </trkpt>
      <trkpt lat="47.06237" lon="6.1792">
        <ele>633.17</ele>
        <time>2018-09-09T08:13:19Z</time>
      </trkpt>
      <trkpt lat="47.06208" lon="6.17944">
        <ele>633.65</ele>
        <time>2018-09-09T08:13:28Z</time>
      </trkpt>
      <trkpt lat="47.06168" lon="6.17967">
        <ele>633.17</ele>
        <time>2018-09-09T08:13:38Z</time>
      </trkpt>
      <trkpt lat="47.06143" lon="6.17988">
        <ele>633.17</ele>
        <time>2018-09-09T08:13:45Z</time>
      </trkpt>
      <trkpt lat="47.06139" lon="6.17991">
        <ele>633.17</ele>
        <time>2018-09-09T08:13:46Z</time>
      </trkpt>
      <trkpt lat="47.06106" lon="6.18">
        <ele>633.65</ele>
        <time>2018-09-09T08:13:55Z</time>
      </trkpt>
      <trkpt lat="47.06079" lon="6.17983">
        <ele>633.65</ele>
        <time>2018-09-09T08:14:03Z</time>
      </trkpt>
      <trkpt lat="47.06076" lon="6.1798">
        <ele>633.65</ele>
        <time>2018-09-09T08:14:04Z</time>
      </trkpt>
      <trkpt lat="47.06072" lon="6.17977">
        <ele>633.17</ele>
        <time>2018-09-09T08:14:05Z</time>
      </trkpt>
      <trkpt lat="47.06069" lon="6.17974">
        <ele>633.17</ele>
        <time>2018-09-09T08:14:06Z</time>
      </trkpt>
      <trkpt lat="47.06066" lon="6.1797">
        <ele>633.17</ele>
        <time>2018-09-09T08:14:07Z</time>
      </trkpt>
      <trkpt lat="47.06063" lon="6.17966">
        <ele>633.17</ele>
        <time>2018-09-09T08:14:08Z</time>
      </trkpt>
      <trkpt lat="47.06034" lon="6.17945">
        <ele>633.17</ele>
        <time>2018-09-09T08:14:17Z</time>
      </trkpt>
      <trkpt lat="47.0601" lon="6.17932">
        <ele>633.17</ele>
        <time>2018-09-09T08:14:23Z</time>
      </trkpt>
      <trkpt lat="47.06006" lon="6.17929">
        <ele>633.17</ele>
        <time>2018-09-09T08:14:24Z</time>
      </trkpt>
      <trkpt lat="47.06002" lon="6.17927">
        <ele>632.68</ele>
        <time>2018-09-09T08:14:25Z</time>
      </trkpt>
      <trkpt lat="47.05969" lon="6.17911">
        <ele>633.17</ele>
        <time>2018-09-09T08:14:33Z</time>
      </trkpt>
      <trkpt lat="47.05966" lon="6.17909">
        <ele>633.65</ele>
        <time>2018-09-09T08:14:34Z</time>
      </trkpt>
      <trkpt lat="47.05962" lon="6.17909">
        <ele>634.13</ele>
        <time>2018-09-09T08:14:35Z</time>
      </trkpt>
      <trkpt lat="47.05959" lon="6.17908">
        <ele>634.13</ele>
        <time>2018-09-09T08:14:36Z</time>
      </trkpt>
      <trkpt lat="47.05956" lon="6.17907">
        <ele>634.61</ele>
        <time>2018-09-09T08:14:37Z</time>
      </trkpt>
      <trkpt lat="47.05953" lon="6.17907">
        <ele>634.61</ele>
        <time>2018-09-09T08:14:38Z</time>
      </trkpt>
      <trkpt lat="47.0595" lon="6.17906">
        <ele>635.09</ele>
        <time>2018-09-09T08:14:39Z</time>
      </trkpt>
      <trkpt lat="47.05907" lon="6.17897">
        <ele>636.53</ele>
        <time>2018-09-09T08:14:51Z</time>
      </trkpt>
      <trkpt lat="47.05898" lon="6.17898">
        <ele>637.01</ele>
        <time>2018-09-09T08:14:54Z</time>
      </trkpt>
      <trkpt lat="47.05896" lon="6.179">
        <ele>637.49</ele>
        <time>2018-09-09T08:14:55Z</time>
      </trkpt>
      <trkpt lat="47.05894" lon="6.17902">
        <ele>637.49</ele>
        <time>2018-09-09T08:14:56Z</time>
      </trkpt>
      <trkpt lat="47.05893" lon="6.17905">
        <ele>637.97</ele>
        <time>2018-09-09T08:14:57Z</time>
      </trkpt>
      <trkpt lat="47.05892" lon="6.17907">
        <ele>638.45</ele>
        <time>2018-09-09T08:14:58Z</time>
      </trkpt>
      <trkpt lat="47.05887" lon="6.17916">
        <ele>638.93</ele>
        <time>2018-09-09T08:15:03Z</time>
      </trkpt>
      <trkpt lat="47.05876" lon="6.17944">
        <ele>640.86</ele>
        <time>2018-09-09T08:15:14Z</time>
      </trkpt>
      <trkpt lat="47.05876" lon="6.17947">
        <ele>640.86</ele>
        <time>2018-09-09T08:15:16Z</time>
      </trkpt>
      <trkpt lat="47.05877" lon="6.17956">
        <ele>641.34</ele>
        <time>2018-09-09T08:15:24Z</time>
      </trkpt>
      <trkpt lat="47.05872" lon="6.17961">
        <ele>641.34</ele>
        <time>2018-09-09T08:15:27Z</time>
      </trkpt>
      <trkpt lat="47.05864" lon="6.17977">
        <ele>642.78</ele>
        <time>2018-09-09T08:15:35Z</time>
      </trkpt>
      <trkpt lat="47.05854" lon="6.17998">
        <ele>644.7</ele>
        <time>2018-09-09T08:15:44Z</time>
      </trkpt>
      <trkpt lat="47.05848" lon="6.18011">
        <ele>645.18</ele>
        <time>2018-09-09T08:15:49Z</time>
      </trkpt>
      <trkpt lat="47.05831" lon="6.18049">
        <ele>646.62</ele>
        <time>2018-09-09T08:16:00Z</time>
      </trkpt>
      <trkpt lat="47.05825" lon="6.18065">
        <ele>647.1</ele>
        <time>2018-09-09T08:16:06Z</time>
      </trkpt>
      <trkpt lat="47.05817" lon="6.18084">
        <ele>648.07</ele>
        <time>2018-09-09T08:16:12Z</time>
      </trkpt>
      <trkpt lat="47.05801" lon="6.18122">
        <ele>650.47</ele>
        <time>2018-09-09T08:16:24Z</time>
      </trkpt>
      <trkpt lat="47.05794" lon="6.18134">
        <ele>650.95</ele>
        <time>2018-09-09T08:16:29Z</time>
      </trkpt>
      <trkpt lat="47.05781" lon="6.18131">
        <ele>650.47</ele>
        <time>2018-09-09T08:16:35Z</time>
      </trkpt>
      <trkpt lat="47.05759" lon="6.18123">
        <ele>650.47</ele>
        <time>2018-09-09T08:16:46Z</time>
      </trkpt>
      <trkpt lat="47.05759" lon="6.18123">
        <ele>650.47</ele>
        <time>2018-09-09T08:17:12Z</time>
      </trkpt>
      <trkpt lat="47.05747" lon="6.18123">
        <ele>649.99</ele>
        <time>2018-09-09T08:17:30Z</time>
      </trkpt>
      <trkpt lat="47.05723" lon="6.18119">
        <ele>651.91</ele>
        <time>2018-09-09T08:17:40Z</time>
      </trkpt>
      <trkpt lat="47.05708" lon="6.18116">
        <ele>652.39</ele>
        <time>2018-09-09T08:17:46Z</time>
      </trkpt>
      <trkpt lat="47.05695" lon="6.18109">
        <ele>652.39</ele>
        <time>2018-09-09T08:17:51Z</time>
      </trkpt>
      <trkpt lat="47.05684" lon="6.18104">
        <ele>652.39</ele>
        <time>2018-09-09T08:17:56Z</time>
      </trkpt>
      <trkpt lat="47.05664" lon="6.18091">
        <ele>653.35</ele>
        <time>2018-09-09T08:18:04Z</time>
      </trkpt>
      <trkpt lat="47.05647" lon="6.18082">
        <ele>653.83</ele>
        <time>2018-09-09T08:18:13Z</time>
      </trkpt>
      <trkpt lat="47.05642" lon="6.1808">
        <ele>653.83</ele>
        <time>2018-09-09T08:18:15Z</time>
      </trkpt>
      <trkpt lat="47.05617" lon="6.1807">
        <ele>654.8</ele>
        <time>2018-09-09T08:18:24Z</time>
      </trkpt>
      <trkpt lat="47.05613" lon="6.18071">
        <ele>654.8</ele>
        <time>2018-09-09T08:18:27Z</time>
      </trkpt>
      <trkpt lat="47.05589" lon="6.18061">
        <ele>655.76</ele>
        <time>2018-09-09T08:18:37Z</time>
      </trkpt>
      <trkpt lat="47.05585" lon="6.18062">
        <ele>655.76</ele>
        <time>2018-09-09T08:18:39Z</time>
      </trkpt>
      <trkpt lat="47.05558" lon="6.18073">
        <ele>656.72</ele>
        <time>2018-09-09T08:18:51Z</time>
      </trkpt>
      <trkpt lat="47.05547" lon="6.18076">
        <ele>657.2</ele>
        <time>2018-09-09T08:18:57Z</time>
      </trkpt>
      <trkpt lat="47.05534" lon="6.18084">
        <ele>658.16</ele>
        <time>2018-09-09T08:19:03Z</time>
      </trkpt>
      <trkpt lat="47.05511" lon="6.18116">
        <ele>658.64</ele>
        <time>2018-09-09T08:19:14Z</time>
      </trkpt>
      <trkpt lat="47.0549" lon="6.18141">
        <ele>659.12</ele>
        <time>2018-09-09T08:19:25Z</time>
      </trkpt>
      <trkpt lat="47.05465" lon="6.18148">
        <ele>659.6</ele>
        <time>2018-09-09T08:19:34Z</time>
      </trkpt>
      <trkpt lat="47.05452" lon="6.18153">
        <ele>659.12</ele>
        <time>2018-09-09T08:19:39Z</time>
      </trkpt>
      <trkpt lat="47.05443" lon="6.18154">
        <ele>658.64</ele>
        <time>2018-09-09T08:19:43Z</time>
      </trkpt>
      <trkpt lat="47.05422" lon="6.18162">
        <ele>658.16</ele>
        <time>2018-09-09T08:19:49Z</time>
      </trkpt>
      <trkpt lat="47.05392" lon="6.18178">
        <ele>657.2</ele>
        <time>2018-09-09T08:19:58Z</time>
      </trkpt>
      <trkpt lat="47.05376" lon="6.18193">
        <ele>655.76</ele>
        <time>2018-09-09T08:20:02Z</time>
      </trkpt>
      <trkpt lat="47.05359" lon="6.18206">
        <ele>654.8</ele>
        <time>2018-09-09T08:20:06Z</time>
      </trkpt>
      <trkpt lat="47.05343" lon="6.18217">
        <ele>653.35</ele>
        <time>2018-09-09T08:20:09Z</time>
      </trkpt>
      <trkpt lat="47.05338" lon="6.18221">
        <ele>653.35</ele>
        <time>2018-09-09T08:20:10Z</time>
      </trkpt>
      <trkpt lat="47.05329" lon="6.18231">
        <ele>652.87</ele>
        <time>2018-09-09T08:20:12Z</time>
      </trkpt>
      <trkpt lat="47.05299" lon="6.18249">
        <ele>651.43</ele>
        <time>2018-09-09T08:20:18Z</time>
      </trkpt>
      <trkpt lat="47.05262" lon="6.18258">
        <ele>652.87</ele>
        <time>2018-09-09T08:20:27Z</time>
      </trkpt>
      <trkpt lat="47.05251" lon="6.18257">
        <ele>653.35</ele>
        <time>2018-09-09T08:20:32Z</time>
      </trkpt>
      <trkpt lat="47.05219" lon="6.18293">
        <ele>653.35</ele>
        <time>2018-09-09T08:20:45Z</time>
      </trkpt>
      <trkpt lat="47.05206" lon="6.18307">
        <ele>653.83</ele>
        <time>2018-09-09T08:20:51Z</time>
      </trkpt>
      <trkpt lat="47.05177" lon="6.18327">
        <ele>653.35</ele>
        <time>2018-09-09T08:21:01Z</time>
      </trkpt>
      <trkpt lat="47.0516" lon="6.18339">
        <ele>651.43</ele>
        <time>2018-09-09T08:21:06Z</time>
      </trkpt>
      <trkpt lat="47.0514" lon="6.18354">
        <ele>649.03</ele>
        <time>2018-09-09T08:21:10Z</time>
      </trkpt>
      <trkpt lat="47.05095" lon="6.18382">
        <ele>648.07</ele>
        <time>2018-09-09T08:21:21Z</time>
      </trkpt>
      <trkpt lat="47.05066" lon="6.1843">
        <ele>646.14</ele>
        <time>2018-09-09T08:21:32Z</time>
      </trkpt>
      <trkpt lat="47.0506" lon="6.18448">
        <ele>644.7</ele>
        <time>2018-09-09T08:21:36Z</time>
      </trkpt>
      <trkpt lat="47.05068" lon="6.18538">
        <ele>642.3</ele>
        <time>2018-09-09T08:21:47Z</time>
      </trkpt>
      <trkpt lat="47.05068" lon="6.18545">
        <ele>642.3</ele>
        <time>2018-09-09T08:21:48Z</time>
      </trkpt>
      <trkpt lat="47.05077" lon="6.18574">
        <ele>640.38</ele>
        <time>2018-09-09T08:21:52Z</time>
      </trkpt>
      <trkpt lat="47.05081" lon="6.18587">
        <ele>639.89</ele>
        <time>2018-09-09T08:21:54Z</time>
      </trkpt>
      <trkpt lat="47.05084" lon="6.18612">
        <ele>637.97</ele>
        <time>2018-09-09T08:21:58Z</time>
      </trkpt>
      <trkpt lat="47.05091" lon="6.1863">
        <ele>634.61</ele>
        <time>2018-09-09T08:22:03Z</time>
      </trkpt>
      <trkpt lat="47.05092" lon="6.18653">
        <ele>634.13</ele>
        <time>2018-09-09T08:22:08Z</time>
      </trkpt>
      <trkpt lat="47.05114" lon="6.18718">
        <ele>634.13</ele>
        <time>2018-09-09T08:22:21Z</time>
      </trkpt>
      <trkpt lat="47.05124" lon="6.18762">
        <ele>633.17</ele>
        <time>2018-09-09T08:22:30Z</time>
      </trkpt>
      <trkpt lat="47.05126" lon="6.18786">
        <ele>632.68</ele>
        <time>2018-09-09T08:22:35Z</time>
      </trkpt>
      <trkpt lat="47.05126" lon="6.18799">
        <ele>632.2</ele>
        <time>2018-09-09T08:22:37Z</time>
      </trkpt>
      <trkpt lat="47.05126" lon="6.18825">
        <ele>630.76</ele>
        <time>2018-09-09T08:22:45Z</time>
      </trkpt>
      <trkpt lat="47.05126" lon="6.18826">
        <ele>630.76</ele>
        <time>2018-09-09T08:22:47Z</time>
      </trkpt>
      <trkpt lat="47.0512" lon="6.1883">
        <ele>632.2</ele>
        <time>2018-09-09T08:22:52Z</time>
      </trkpt>
      <trkpt lat="47.05109" lon="6.18842">
        <ele>633.65</ele>
        <time>2018-09-09T08:23:01Z</time>
      </trkpt>
      <trkpt lat="47.05101" lon="6.18847">
        <ele>634.13</ele>
        <time>2018-09-09T08:23:05Z</time>
      </trkpt>
      <trkpt lat="47.05093" lon="6.18858">
        <ele>635.09</ele>
        <time>2018-09-09T08:23:10Z</time>
      </trkpt>
      <trkpt lat="47.0508" lon="6.18862">
        <ele>635.57</ele>
        <time>2018-09-09T08:23:17Z</time>
      </trkpt>
      <trkpt lat="47.05073" lon="6.18868">
        <ele>636.05</ele>
        <time>2018-09-09T08:23:22Z</time>
      </trkpt>
      <trkpt lat="47.05046" lon="6.18887">
        <ele>637.49</ele>
        <time>2018-09-09T08:23:34Z</time>
      </trkpt>
      <trkpt lat="47.05029" lon="6.18898">
        <ele>638.45</ele>
        <time>2018-09-09T08:23:42Z</time>
      </trkpt>
      <trkpt lat="47.05007" lon="6.18925">
        <ele>639.41</ele>
        <time>2018-09-09T08:23:52Z</time>
      </trkpt>
      <trkpt lat="47.04999" lon="6.18948">
        <ele>640.86</ele>
        <time>2018-09-09T08:24:00Z</time>
      </trkpt>
      <trkpt lat="47.05005" lon="6.18985">
        <ele>642.78</ele>
        <time>2018-09-09T08:24:11Z</time>
      </trkpt>
      <trkpt lat="47.05006" lon="6.18988">
        <ele>642.78</ele>
        <time>2018-09-09T08:24:12Z</time>
      </trkpt>
      <trkpt lat="47.05023" lon="6.19023">
        <ele>644.7</ele>
        <time>2018-09-09T08:24:25Z</time>
      </trkpt>
      <trkpt lat="47.05037" lon="6.19049">
        <ele>646.14</ele>
        <time>2018-09-09T08:24:35Z</time>
      </trkpt>
      <trkpt lat="47.0504" lon="6.19062">
        <ele>646.62</ele>
        <time>2018-09-09T08:24:39Z</time>
      </trkpt>
      <trkpt lat="47.0504" lon="6.19073">
        <ele>647.1</ele>
        <time>2018-09-09T08:24:43Z</time>
      </trkpt>
      <trkpt lat="47.05052" lon="6.1911">
        <ele>649.51</ele>
        <time>2018-09-09T08:24:56Z</time>
      </trkpt>
      <trkpt lat="47.05064" lon="6.19145">
        <ele>651.43</ele>
        <time>2018-09-09T08:25:07Z</time>
      </trkpt>
      <trkpt lat="47.05068" lon="6.19154">
        <ele>651.43</ele>
        <time>2018-09-09T08:25:10Z</time>
      </trkpt>
      <trkpt lat="47.05078" lon="6.19184">
        <ele>652.87</ele>
        <time>2018-09-09T08:25:20Z</time>
      </trkpt>
      <trkpt lat="47.05081" lon="6.19203">
        <ele>653.83</ele>
        <time>2018-09-09T08:25:26Z</time>
      </trkpt>
      <trkpt lat="47.05088" lon="6.1924">
        <ele>655.28</ele>
        <time>2018-09-09T08:25:38Z</time>
      </trkpt>
      <trkpt lat="47.05094" lon="6.1926">
        <ele>655.76</ele>
        <time>2018-09-09T08:25:44Z</time>
      </trkpt>
      <trkpt lat="47.05102" lon="6.19286">
        <ele>656.72</ele>
        <time>2018-09-09T08:25:52Z</time>
      </trkpt>
      <trkpt lat="47.05109" lon="6.193">
        <ele>656.72</ele>
        <time>2018-09-09T08:25:56Z</time>
      </trkpt>
      <trkpt lat="47.05135" lon="6.19315">
        <ele>656.24</ele>
        <time>2018-09-09T08:26:05Z</time>
      </trkpt>
      <trkpt lat="47.05149" lon="6.19324">
        <ele>655.76</ele>
        <time>2018-09-09T08:26:10Z</time>
      </trkpt>
      <trkpt lat="47.0518" lon="6.19351">
        <ele>655.28</ele>
        <time>2018-09-09T08:26:21Z</time>
      </trkpt>
      <trkpt lat="47.0519" lon="6.1936">
        <ele>655.28</ele>
        <time>2018-09-09T08:26:24Z</time>
      </trkpt>
      <trkpt lat="47.05224" lon="6.19388">
        <ele>654.8</ele>
        <time>2018-09-09T08:26:33Z</time>
      </trkpt>
      <trkpt lat="47.05238" lon="6.19398">
        <ele>654.31</ele>
        <time>2018-09-09T08:26:36Z</time>
      </trkpt>
      <trkpt lat="47.05244" lon="6.19415">
        <ele>653.83</ele>
        <time>2018-09-09T08:26:42Z</time>
      </trkpt>
      <trkpt lat="47.05266" lon="6.19472">
        <ele>651.43</ele>
        <time>2018-09-09T08:26:52Z</time>
      </trkpt>
      <trkpt lat="47.05274" lon="6.19507">
        <ele>650.47</ele>
        <time>2018-09-09T08:26:57Z</time>
      </trkpt>
      <trkpt lat="47.05259" lon="6.19569">
        <ele>648.55</ele>
        <time>2018-09-09T08:27:06Z</time>
      </trkpt>
      <trkpt lat="47.05255" lon="6.19595">
        <ele>648.55</ele>
        <time>2018-09-09T08:27:10Z</time>
      </trkpt>
      <trkpt lat="47.05254" lon="6.19601">
        <ele>648.55</ele>
        <time>2018-09-09T08:27:11Z</time>
      </trkpt>
      <trkpt lat="47.05255" lon="6.19607">
        <ele>648.55</ele>
        <time>2018-09-09T08:27:12Z</time>
      </trkpt>
      <trkpt lat="47.05257" lon="6.19619">
        <ele>648.07</ele>
        <time>2018-09-09T08:27:14Z</time>
      </trkpt>
      <trkpt lat="47.05257" lon="6.19627">
        <ele>647.59</ele>
        <time>2018-09-09T08:27:15Z</time>
      </trkpt>
      <trkpt lat="47.05258" lon="6.19634">
        <ele>647.1</ele>
        <time>2018-09-09T08:27:16Z</time>
      </trkpt>
      <trkpt lat="47.05259" lon="6.19642">
        <ele>647.1</ele>
        <time>2018-09-09T08:27:17Z</time>
      </trkpt>
      <trkpt lat="47.0526" lon="6.19651">
        <ele>646.62</ele>
        <time>2018-09-09T08:27:18Z</time>
      </trkpt>
      <trkpt lat="47.05261" lon="6.19659">
        <ele>646.14</ele>
        <time>2018-09-09T08:27:19Z</time>
      </trkpt>
      <trkpt lat="47.05262" lon="6.19666">
        <ele>645.66</ele>
        <time>2018-09-09T08:27:20Z</time>
      </trkpt>
      <trkpt lat="47.05263" lon="6.19672">
        <ele>645.18</ele>
        <time>2018-09-09T08:27:21Z</time>
      </trkpt>
      <trkpt lat="47.05269" lon="6.19697">
        <ele>641.34</ele>
        <time>2018-09-09T08:27:25Z</time>
      </trkpt>
      <trkpt lat="47.05273" lon="6.19713">
        <ele>637.97</ele>
        <time>2018-09-09T08:27:28Z</time>
      </trkpt>
      <trkpt lat="47.05274" lon="6.19721">
        <ele>636.53</ele>
        <time>2018-09-09T08:27:29Z</time>
      </trkpt>
      <trkpt lat="47.05275" lon="6.19749">
        <ele>633.17</ele>
        <time>2018-09-09T08:27:33Z</time>
      </trkpt>
      <trkpt lat="47.05286" lon="6.1978">
        <ele>629.8</ele>
        <time>2018-09-09T08:27:38Z</time>
      </trkpt>
      <trkpt lat="47.05287" lon="6.19784">
        <ele>629.32</ele>
        <time>2018-09-09T08:27:39Z</time>
      </trkpt>
      <trkpt lat="47.0529" lon="6.1979">
        <ele>628.84</ele>
        <time>2018-09-09T08:27:40Z</time>
      </trkpt>
      <trkpt lat="47.05303" lon="6.19796">
        <ele>625.47</ele>
        <time>2018-09-09T08:27:44Z</time>
      </trkpt>
      <trkpt lat="47.05315" lon="6.1979">
        <ele>621.63</ele>
        <time>2018-09-09T08:27:49Z</time>
      </trkpt>
      <trkpt lat="47.05325" lon="6.19778">
        <ele>618.26</ele>
        <time>2018-09-09T08:27:54Z</time>
      </trkpt>
      <trkpt lat="47.05334" lon="6.1976">
        <ele>614.9</ele>
        <time>2018-09-09T08:28:00Z</time>
      </trkpt>
      <trkpt lat="47.05336" lon="6.19755">
        <ele>613.46</ele>
        <time>2018-09-09T08:28:01Z</time>
      </trkpt>
      <trkpt lat="47.05336" lon="6.19738">
        <ele>610.57</ele>
        <time>2018-09-09T08:28:05Z</time>
      </trkpt>
      <trkpt lat="47.05341" lon="6.19716">
        <ele>605.77</ele>
        <time>2018-09-09T08:28:11Z</time>
      </trkpt>
      <trkpt lat="47.05346" lon="6.19712">
        <ele>601.92</ele>
        <time>2018-09-09T08:28:13Z</time>
      </trkpt>
      <trkpt lat="47.05355" lon="6.19703">
        <ele>599.04</ele>
        <time>2018-09-09T08:28:17Z</time>
      </trkpt>
      <trkpt lat="47.05356" lon="6.19702">
        <ele>598.08</ele>
        <time>2018-09-09T08:28:18Z</time>
      </trkpt>
      <trkpt lat="47.05361" lon="6.19685">
        <ele>593.27</ele>
        <time>2018-09-09T08:28:22Z</time>
      </trkpt>
      <trkpt lat="47.05362" lon="6.19674">
        <ele>590.39</ele>
        <time>2018-09-09T08:28:24Z</time>
      </trkpt>
      <trkpt lat="47.05362" lon="6.19658">
        <ele>587.02</ele>
        <time>2018-09-09T08:28:28Z</time>
      </trkpt>
      <trkpt lat="47.05362" lon="6.19649">
        <ele>583.18</ele>
        <time>2018-09-09T08:28:31Z</time>
      </trkpt>
      <trkpt lat="47.05363" lon="6.19641">
        <ele>580.77</ele>
        <time>2018-09-09T08:28:33Z</time>
      </trkpt>
      <trkpt lat="47.05382" lon="6.19649">
        <ele>577.41</ele>
        <time>2018-09-09T08:28:37Z</time>
      </trkpt>
      <trkpt lat="47.05389" lon="6.1965">
        <ele>576.45</ele>
        <time>2018-09-09T08:28:38Z</time>
      </trkpt>
      <trkpt lat="47.05402" lon="6.19646">
        <ele>572.6</ele>
        <time>2018-09-09T08:28:41Z</time>
      </trkpt>
      <trkpt lat="47.05422" lon="6.19645">
        <ele>568.76</ele>
        <time>2018-09-09T08:28:45Z</time>
      </trkpt>
      <trkpt lat="47.05439" lon="6.19648">
        <ele>567.32</ele>
        <time>2018-09-09T08:28:47Z</time>
      </trkpt>
      <trkpt lat="47.05444" lon="6.19651">
        <ele>565.87</ele>
        <time>2018-09-09T08:28:48Z</time>
      </trkpt>
      <trkpt lat="47.0545" lon="6.19652">
        <ele>564.91</ele>
        <time>2018-09-09T08:28:49Z</time>
      </trkpt>
      <trkpt lat="47.05463" lon="6.19654">
        <ele>563.47</ele>
        <time>2018-09-09T08:28:52Z</time>
      </trkpt>
      <trkpt lat="47.05466" lon="6.19653">
        <ele>562.99</ele>
        <time>2018-09-09T08:28:53Z</time>
      </trkpt>
      <trkpt lat="47.05468" lon="6.19653">
        <ele>562.03</ele>
        <time>2018-09-09T08:28:54Z</time>
      </trkpt>
      <trkpt lat="47.05471" lon="6.19655">
        <ele>560.59</ele>
        <time>2018-09-09T08:28:55Z</time>
      </trkpt>
      <trkpt lat="47.05484" lon="6.19659">
        <ele>558.18</ele>
        <time>2018-09-09T08:28:59Z</time>
      </trkpt>
      <trkpt lat="47.05494" lon="6.19668">
        <ele>554.34</ele>
        <time>2018-09-09T08:29:02Z</time>
      </trkpt>
      <trkpt lat="47.05498" lon="6.1967">
        <ele>553.38</ele>
        <time>2018-09-09T08:29:03Z</time>
      </trkpt>
      <trkpt lat="47.05515" lon="6.19674">
        <ele>551.93</ele>
        <time>2018-09-09T08:29:08Z</time>
      </trkpt>
      <trkpt lat="47.05518" lon="6.19686">
        <ele>548.57</ele>
        <time>2018-09-09T08:29:15Z</time>
      </trkpt>
      <trkpt lat="47.05528" lon="6.19688">
        <ele>548.57</ele>
        <time>2018-09-09T08:29:32Z</time>
      </trkpt>
      <trkpt lat="47.05531" lon="6.19687">
        <ele>548.57</ele>
        <time>2018-09-09T08:30:02Z</time>
      </trkpt>
      <trkpt lat="47.05532" lon="6.19687">
        <ele>548.57</ele>
        <time>2018-09-09T08:30:37Z</time>
      </trkpt>
      <trkpt lat="47.05531" lon="6.19684">
        <ele>548.57</ele>
        <time>2018-09-09T08:31:11Z</time>
      </trkpt>
      <trkpt lat="47.05534" lon="6.19682">
        <ele>550.97</ele>
        <time>2018-09-09T08:31:27Z</time>
      </trkpt>
      <trkpt lat="47.05536" lon="6.1968">
        <ele>551.45</ele>
        <time>2018-09-09T08:31:29Z</time>
      </trkpt>
      <trkpt lat="47.05538" lon="6.19674">
        <ele>553.38</ele>
        <time>2018-09-09T08:31:34Z</time>
      </trkpt>
      <trkpt lat="47.05538" lon="6.19673">
        <ele>553.38</ele>
        <time>2018-09-09T08:31:35Z</time>
      </trkpt>
      <trkpt lat="47.05533" lon="6.19674">
        <ele>554.82</ele>
        <time>2018-09-09T08:31:44Z</time>
      </trkpt>
      <trkpt lat="47.05531" lon="6.19675">
        <ele>555.3</ele>
        <time>2018-09-09T08:31:47Z</time>
      </trkpt>
      <trkpt lat="47.05516" lon="6.19683">
        <ele>552.9</ele>
        <time>2018-09-09T08:31:53Z</time>
      </trkpt>
      <trkpt lat="47.05507" lon="6.19695">
        <ele>549.05</ele>
        <time>2018-09-09T08:31:57Z</time>
      </trkpt>
      <trkpt lat="47.05499" lon="6.19709">
        <ele>545.2</ele>
        <time>2018-09-09T08:32:00Z</time>
      </trkpt>
      <trkpt lat="47.05496" lon="6.19714">
        <ele>544.24</ele>
        <time>2018-09-09T08:32:01Z</time>
      </trkpt>
      <trkpt lat="47.05494" lon="6.19719">
        <ele>543.28</ele>
        <time>2018-09-09T08:32:02Z</time>
      </trkpt>
      <trkpt lat="47.05491" lon="6.19726">
        <ele>542.32</ele>
        <time>2018-09-09T08:32:03Z</time>
      </trkpt>
      <trkpt lat="47.05491" lon="6.19732">
        <ele>541.36</ele>
        <time>2018-09-09T08:32:04Z</time>
      </trkpt>
      <trkpt lat="47.0549" lon="6.19737">
        <ele>539.92</ele>
        <time>2018-09-09T08:32:05Z</time>
      </trkpt>
      <trkpt lat="47.05488" lon="6.19743">
        <ele>537.99</ele>
        <time>2018-09-09T08:32:07Z</time>
      </trkpt>
      <trkpt lat="47.05487" lon="6.1975">
        <ele>534.63</ele>
        <time>2018-09-09T08:32:10Z</time>
      </trkpt>
      <trkpt lat="47.05487" lon="6.19753">
        <ele>533.67</ele>
        <time>2018-09-09T08:32:12Z</time>
      </trkpt>
      <trkpt lat="47.05488" lon="6.19756">
        <ele>533.19</ele>
        <time>2018-09-09T08:32:13Z</time>
      </trkpt>
      <trkpt lat="47.05488" lon="6.19761">
        <ele>532.71</ele>
        <time>2018-09-09T08:32:14Z</time>
      </trkpt>
      <trkpt lat="47.05489" lon="6.19765">
        <ele>532.71</ele>
        <time>2018-09-09T08:32:15Z</time>
      </trkpt>
      <trkpt lat="47.05494" lon="6.19784">
        <ele>530.3</ele>
        <time>2018-09-09T08:32:19Z</time>
      </trkpt>
      <trkpt lat="47.05496" lon="6.19786">
        <ele>529.82</ele>
        <time>2018-09-09T08:32:20Z</time>
      </trkpt>
      <trkpt lat="47.05497" lon="6.19789">
        <ele>527.9</ele>
        <time>2018-09-09T08:32:21Z</time>
      </trkpt>
      <trkpt lat="47.055" lon="6.19792">
        <ele>526.94</ele>
        <time>2018-09-09T08:32:23Z</time>
      </trkpt>
      <trkpt lat="47.05503" lon="6.19797">
        <ele>524.54</ele>
        <time>2018-09-09T08:32:25Z</time>
      </trkpt>
      <trkpt lat="47.05505" lon="6.19801">
        <ele>521.65</ele>
        <time>2018-09-09T08:32:28Z</time>
      </trkpt>
      <trkpt lat="47.05507" lon="6.19802">
        <ele>520.21</ele>
        <time>2018-09-09T08:32:29Z</time>
      </trkpt>
      <trkpt lat="47.0551" lon="6.19803">
        <ele>517.33</ele>
        <time>2018-09-09T08:32:31Z</time>
      </trkpt>
      <trkpt lat="47.0551" lon="6.19806">
        <ele>513.96</ele>
        <time>2018-09-09T08:32:34Z</time>
      </trkpt>
      <trkpt lat="47.05514" lon="6.19808">
        <ele>512.52</ele>
        <time>2018-09-09T08:32:36Z</time>
      </trkpt>
      <trkpt lat="47.05523" lon="6.19806">
        <ele>509.16</ele>
        <time>2018-09-09T08:32:40Z</time>
      </trkpt>
      <trkpt lat="47.05549" lon="6.19808">
        <ele>505.79</ele>
        <time>2018-09-09T08:32:46Z</time>
      </trkpt>
      <trkpt lat="47.05552" lon="6.19809">
        <ele>504.83</ele>
        <time>2018-09-09T08:32:47Z</time>
      </trkpt>
      <trkpt lat="47.05553" lon="6.19812">
        <ele>501.95</ele>
        <time>2018-09-09T08:32:50Z</time>
      </trkpt>
      <trkpt lat="47.05555" lon="6.19813">
        <ele>500.5</ele>
        <time>2018-09-09T08:32:51Z</time>
      </trkpt>
      <trkpt lat="47.0556" lon="6.19818">
        <ele>499.54</ele>
        <time>2018-09-09T08:32:52Z</time>
      </trkpt>
      <trkpt lat="47.05566" lon="6.19821">
        <ele>498.1</ele>
        <time>2018-09-09T08:32:53Z</time>
      </trkpt>
      <trkpt lat="47.0558" lon="6.19831">
        <ele>494.26</ele>
        <time>2018-09-09T08:32:56Z</time>
      </trkpt>
      <trkpt lat="47.05588" lon="6.19837">
        <ele>492.33</ele>
        <time>2018-09-09T08:32:58Z</time>
      </trkpt>
      <trkpt lat="47.05597" lon="6.19842">
        <ele>488.49</ele>
        <time>2018-09-09T08:33:00Z</time>
      </trkpt>
      <trkpt lat="47.05599" lon="6.19843">
        <ele>488.49</ele>
        <time>2018-09-09T08:33:01Z</time>
      </trkpt>
      <trkpt lat="47.0561" lon="6.19846">
        <ele>485.6</ele>
        <time>2018-09-09T08:33:05Z</time>
      </trkpt>
      <trkpt lat="47.05616" lon="6.19845">
        <ele>481.76</ele>
        <time>2018-09-09T08:33:09Z</time>
      </trkpt>
      <trkpt lat="47.05624" lon="6.19853">
        <ele>477.91</ele>
        <time>2018-09-09T08:33:13Z</time>
      </trkpt>
      <trkpt lat="47.05631" lon="6.19868">
        <ele>474.07</ele>
        <time>2018-09-09T08:33:17Z</time>
      </trkpt>
      <trkpt lat="47.05641" lon="6.19878">
        <ele>470.7</ele>
        <time>2018-09-09T08:33:22Z</time>
      </trkpt>
      <trkpt lat="47.05643" lon="6.19882">
        <ele>469.26</ele>
        <time>2018-09-09T08:33:23Z</time>
      </trkpt>
      <trkpt lat="47.0565" lon="6.19891">
        <ele>465.9</ele>
        <time>2018-09-09T08:33:26Z</time>
      </trkpt>
      <trkpt lat="47.05651" lon="6.19893">
        <ele>464.93</ele>
        <time>2018-09-09T08:33:27Z</time>
      </trkpt>
      <trkpt lat="47.05661" lon="6.19903">
        <ele>462.05</ele>
        <time>2018-09-09T08:33:31Z</time>
      </trkpt>
      <trkpt lat="47.05668" lon="6.19912">
        <ele>458.69</ele>
        <time>2018-09-09T08:33:36Z</time>
      </trkpt>
      <trkpt lat="47.05669" lon="6.19912">
        <ele>457.72</ele>
        <time>2018-09-09T08:33:37Z</time>
      </trkpt>
      <trkpt lat="47.05685" lon="6.19924">
        <ele>454.36</ele>
        <time>2018-09-09T08:33:42Z</time>
      </trkpt>
      <trkpt lat="47.05699" lon="6.1993">
        <ele>451</ele>
        <time>2018-09-09T08:33:46Z</time>
      </trkpt>
      <trkpt lat="47.05711" lon="6.19932">
        <ele>447.63</ele>
        <time>2018-09-09T08:33:49Z</time>
      </trkpt>
      <trkpt lat="47.05727" lon="6.19937">
        <ele>444.27</ele>
        <time>2018-09-09T08:33:54Z</time>
      </trkpt>
      <trkpt lat="47.05743" lon="6.19939">
        <ele>440.9</ele>
        <time>2018-09-09T08:33:59Z</time>
      </trkpt>
      <trkpt lat="47.05756" lon="6.19941">
        <ele>438.02</ele>
        <time>2018-09-09T08:34:05Z</time>
      </trkpt>
      <trkpt lat="47.05758" lon="6.19943">
        <ele>437.54</ele>
        <time>2018-09-09T08:34:06Z</time>
      </trkpt>
      <trkpt lat="47.05756" lon="6.19947">
        <ele>436.1</ele>
        <time>2018-09-09T08:34:08Z</time>
      </trkpt>
      <trkpt lat="47.05749" lon="6.19948">
        <ele>432.73</ele>
        <time>2018-09-09T08:34:11Z</time>
      </trkpt>
      <trkpt lat="47.05737" lon="6.19954">
        <ele>429.37</ele>
        <time>2018-09-09T08:34:14Z</time>
      </trkpt>
      <trkpt lat="47.05717" lon="6.19964">
        <ele>426</ele>
        <time>2018-09-09T08:34:20Z</time>
      </trkpt>
      <trkpt lat="47.05712" lon="6.19967">
        <ele>424.56</ele>
        <time>2018-09-09T08:34:22Z</time>
      </trkpt>
      <trkpt lat="47.05703" lon="6.19977">
        <ele>421.68</ele>
        <time>2018-09-09T08:34:26Z</time>
      </trkpt>
      <trkpt lat="47.05703" lon="6.19977">
        <ele>420.71</ele>
        <time>2018-09-09T08:34:27Z</time>
      </trkpt>
      <trkpt lat="47.05704" lon="6.19981">
        <ele>418.31</ele>
        <time>2018-09-09T08:34:31Z</time>
      </trkpt>
      <trkpt lat="47.05709" lon="6.19988">
        <ele>416.87</ele>
        <time>2018-09-09T08:34:34Z</time>
      </trkpt>
      <trkpt lat="47.05716" lon="6.19999">
        <ele>413.02</ele>
        <time>2018-09-09T08:34:39Z</time>
      </trkpt>
      <trkpt lat="47.0573" lon="6.20006">
        <ele>410.14</ele>
        <time>2018-09-09T08:34:44Z</time>
      </trkpt>
      <trkpt lat="47.05739" lon="6.20009">
        <ele>406.77</ele>
        <time>2018-09-09T08:34:49Z</time>
      </trkpt>
      <trkpt lat="47.05755" lon="6.20017">
        <ele>403.89</ele>
        <time>2018-09-09T08:34:53Z</time>
      </trkpt>
      <trkpt lat="47.05766" lon="6.20018">
        <ele>401.97</ele>
        <time>2018-09-09T08:34:55Z</time>
      </trkpt>
      <trkpt lat="47.05783" lon="6.20026">
        <ele>397.64</ele>
        <time>2018-09-09T08:34:59Z</time>
      </trkpt>
      <trkpt lat="47.05789" lon="6.20026">
        <ele>396.68</ele>
        <time>2018-09-09T08:35:01Z</time>
      </trkpt>
      <trkpt lat="47.0579" lon="6.20029">
        <ele>395.72</ele>
        <time>2018-09-09T08:35:02Z</time>
      </trkpt>
      <trkpt lat="47.0579" lon="6.20032">
        <ele>395.24</ele>
        <time>2018-09-09T08:35:03Z</time>
      </trkpt>
      <trkpt lat="47.05787" lon="6.20037">
        <ele>394.28</ele>
        <time>2018-09-09T08:35:04Z</time>
      </trkpt>
      <trkpt lat="47.05797" lon="6.20063">
        <ele>393.8</ele>
        <time>2018-09-09T08:35:11Z</time>
      </trkpt>
      <trkpt lat="47.05798" lon="6.20066">
        <ele>393.8</ele>
        <time>2018-09-09T08:35:12Z</time>
      </trkpt>
      <trkpt lat="47.05798" lon="6.20069">
        <ele>393.8</ele>
        <time>2018-09-09T08:35:13Z</time>
      </trkpt>
      <trkpt lat="47.05799" lon="6.20082">
        <ele>394.28</ele>
        <time>2018-09-09T08:35:20Z</time>
      </trkpt>
      <trkpt lat="47.05806" lon="6.20072">
        <ele>394.28</ele>
        <time>2018-09-09T08:35:25Z</time>
      </trkpt>
      <trkpt lat="47.05845" lon="6.20044">
        <ele>393.32</ele>
        <time>2018-09-09T08:35:37Z</time>
      </trkpt>
      <trkpt lat="47.05854" lon="6.20039">
        <ele>393.32</ele>
        <time>2018-09-09T08:35:39Z</time>
      </trkpt>
      <trkpt lat="47.05862" lon="6.20033">
        <ele>393.32</ele>
        <time>2018-09-09T08:35:41Z</time>
      </trkpt>
      <trkpt lat="47.05886" lon="6.20012">
        <ele>392.84</ele>
        <time>2018-09-09T08:35:47Z</time>
      </trkpt>
      <trkpt lat="47.0589" lon="6.20008">
        <ele>392.84</ele>
        <time>2018-09-09T08:35:48Z</time>
      </trkpt>
      <trkpt lat="47.05935" lon="6.19969">
        <ele>391.87</ele>
        <time>2018-09-09T08:35:58Z</time>
      </trkpt>
      <trkpt lat="47.05939" lon="6.19965">
        <ele>391.39</ele>
        <time>2018-09-09T08:35:59Z</time>
      </trkpt>
      <trkpt lat="47.05945" lon="6.19963">
        <ele>391.39</ele>
        <time>2018-09-09T08:36:00Z</time>
      </trkpt>
      <trkpt lat="47.05951" lon="6.19964">
        <ele>391.39</ele>
        <time>2018-09-09T08:36:01Z</time>
      </trkpt>
      <trkpt lat="47.05958" lon="6.19965">
        <ele>390.91</ele>
        <time>2018-09-09T08:36:02Z</time>
      </trkpt>
      <trkpt lat="47.05971" lon="6.19967">
        <ele>390.91</ele>
        <time>2018-09-09T08:36:04Z</time>
      </trkpt>
      <trkpt lat="47.05982" lon="6.19966">
        <ele>390.91</ele>
        <time>2018-09-09T08:36:06Z</time>
      </trkpt>
      <trkpt lat="47.05987" lon="6.19964">
        <ele>390.91</ele>
        <time>2018-09-09T08:36:07Z</time>
      </trkpt>
      <trkpt lat="47.06024" lon="6.19958">
        <ele>389.95</ele>
        <time>2018-09-09T08:36:13Z</time>
      </trkpt>
      <trkpt lat="47.06029" lon="6.19957">
        <ele>389.95</ele>
        <time>2018-09-09T08:36:14Z</time>
      </trkpt>
      <trkpt lat="47.06035" lon="6.19954">
        <ele>389.95</ele>
        <time>2018-09-09T08:36:15Z</time>
      </trkpt>
      <trkpt lat="47.06048" lon="6.19947">
        <ele>389.95</ele>
        <time>2018-09-09T08:36:17Z</time>
      </trkpt>
      <trkpt lat="47.06053" lon="6.19943">
        <ele>389.95</ele>
        <time>2018-09-09T08:36:18Z</time>
      </trkpt>
      <trkpt lat="47.06059" lon="6.19937">
        <ele>389.95</ele>
        <time>2018-09-09T08:36:19Z</time>
      </trkpt>
      <trkpt lat="47.06088" lon="6.19909">
        <ele>390.43</ele>
        <time>2018-09-09T08:36:24Z</time>
      </trkpt>
      <trkpt lat="47.06094" lon="6.19906">
        <ele>390.43</ele>
        <time>2018-09-09T08:36:25Z</time>
      </trkpt>
      <trkpt lat="47.061" lon="6.19905">
        <ele>389.95</ele>
        <time>2018-09-09T08:36:26Z</time>
      </trkpt>
      <trkpt lat="47.06133" lon="6.19904">
        <ele>389.47</ele>
        <time>2018-09-09T08:36:31Z</time>
      </trkpt>
      <trkpt lat="47.0614" lon="6.19902">
        <ele>388.99</ele>
        <time>2018-09-09T08:36:32Z</time>
      </trkpt>
      <trkpt lat="47.06146" lon="6.19899">
        <ele>388.51</ele>
        <time>2018-09-09T08:36:33Z</time>
      </trkpt>
      <trkpt lat="47.06158" lon="6.19895">
        <ele>388.51</ele>
        <time>2018-09-09T08:36:35Z</time>
      </trkpt>
      <trkpt lat="47.06165" lon="6.19894">
        <ele>388.03</ele>
        <time>2018-09-09T08:36:36Z</time>
      </trkpt>
      <trkpt lat="47.06213" lon="6.19884">
        <ele>385.63</ele>
        <time>2018-09-09T08:36:43Z</time>
      </trkpt>
      <trkpt lat="47.06233" lon="6.1988">
        <ele>384.66</ele>
        <time>2018-09-09T08:36:46Z</time>
      </trkpt>
      <trkpt lat="47.0624" lon="6.19881">
        <ele>384.18</ele>
        <time>2018-09-09T08:36:47Z</time>
      </trkpt>
      <trkpt lat="47.06254" lon="6.19883">
        <ele>383.22</ele>
        <time>2018-09-09T08:36:49Z</time>
      </trkpt>
      <trkpt lat="47.06262" lon="6.19884">
        <ele>382.26</ele>
        <time>2018-09-09T08:36:50Z</time>
      </trkpt>
      <trkpt lat="47.06277" lon="6.19883">
        <ele>381.78</ele>
        <time>2018-09-09T08:36:52Z</time>
      </trkpt>
      <trkpt lat="47.0635" lon="6.19887">
        <ele>379.86</ele>
        <time>2018-09-09T08:37:03Z</time>
      </trkpt>
      <trkpt lat="47.06376" lon="6.19889">
        <ele>379.38</ele>
        <time>2018-09-09T08:37:07Z</time>
      </trkpt>
      <trkpt lat="47.0639" lon="6.19889">
        <ele>379.38</ele>
        <time>2018-09-09T08:37:09Z</time>
      </trkpt>
      <trkpt lat="47.06397" lon="6.19888">
        <ele>379.38</ele>
        <time>2018-09-09T08:37:10Z</time>
      </trkpt>
      <trkpt lat="47.06404" lon="6.19886">
        <ele>379.38</ele>
        <time>2018-09-09T08:37:11Z</time>
      </trkpt>
      <trkpt lat="47.06411" lon="6.19884">
        <ele>379.86</ele>
        <time>2018-09-09T08:37:13Z</time>
      </trkpt>
      <trkpt lat="47.06414" lon="6.19884">
        <ele>379.86</ele>
        <time>2018-09-09T08:37:14Z</time>
      </trkpt>
      <trkpt lat="47.06416" lon="6.19884">
        <ele>379.86</ele>
        <time>2018-09-09T08:37:15Z</time>
      </trkpt>
      <trkpt lat="47.06418" lon="6.19883">
        <ele>379.86</ele>
        <time>2018-09-09T08:37:16Z</time>
      </trkpt>
      <trkpt lat="47.0642" lon="6.1988">
        <ele>379.86</ele>
        <time>2018-09-09T08:37:17Z</time>
      </trkpt>
      <trkpt lat="47.0642" lon="6.19878">
        <ele>379.86</ele>
        <time>2018-09-09T08:37:18Z</time>
      </trkpt>
      <trkpt lat="47.06419" lon="6.19877">
        <ele>379.86</ele>
        <time>2018-09-09T08:37:19Z</time>
      </trkpt>
      <trkpt lat="47.06417" lon="6.19877">
        <ele>379.38</ele>
        <time>2018-09-09T08:37:20Z</time>
      </trkpt>
      <trkpt lat="47.06416" lon="6.19878">
        <ele>379.86</ele>
        <time>2018-09-09T08:37:21Z</time>
      </trkpt>
      <trkpt lat="47.06415" lon="6.1988">
        <ele>379.38</ele>
        <time>2018-09-09T08:37:22Z</time>
      </trkpt>
      <trkpt lat="47.06414" lon="6.19882">
        <ele>379.86</ele>
        <time>2018-09-09T08:37:23Z</time>
      </trkpt>
      <trkpt lat="47.06414" lon="6.19883">
        <ele>379.86</ele>
        <time>2018-09-09T08:37:24Z</time>
      </trkpt>
      <trkpt lat="47.06414" lon="6.19886">
        <ele>379.86</ele>
        <time>2018-09-09T08:37:25Z</time>
      </trkpt>
      <trkpt lat="47.06414" lon="6.19888">
        <ele>379.86</ele>
        <time>2018-09-09T08:37:26Z</time>
      </trkpt>
      <trkpt lat="47.06414" lon="6.19891">
        <ele>380.34</ele>
        <time>2018-09-09T08:37:27Z</time>
      </trkpt>
      <trkpt lat="47.06423" lon="6.19908">
        <ele>381.78</ele>
        <time>2018-09-09T08:37:35Z</time>
      </trkpt>
      <trkpt lat="47.06424" lon="6.19909">
        <ele>381.78</ele>
        <time>2018-09-09T08:37:36Z</time>
      </trkpt>
      <trkpt lat="47.06426" lon="6.1991">
        <ele>382.26</ele>
        <time>2018-09-09T08:37:37Z</time>
      </trkpt>
      <trkpt lat="47.06439" lon="6.19925">
        <ele>384.66</ele>
        <time>2018-09-09T08:37:49Z</time>
      </trkpt>
      <trkpt lat="47.06447" lon="6.19937">
        <ele>386.11</ele>
        <time>2018-09-09T08:37:59Z</time>
      </trkpt>
      <trkpt lat="47.06449" lon="6.1994">
        <ele>387.07</ele>
        <time>2018-09-09T08:38:01Z</time>
      </trkpt>
      <trkpt lat="47.06466" lon="6.1996">
        <ele>389.47</ele>
        <time>2018-09-09T08:38:12Z</time>
      </trkpt>
      <trkpt lat="47.06468" lon="6.19963">
        <ele>389.47</ele>
        <time>2018-09-09T08:38:14Z</time>
      </trkpt>
      <trkpt lat="47.06474" lon="6.19973">
        <ele>390.91</ele>
        <time>2018-09-09T08:38:20Z</time>
      </trkpt>
      <trkpt lat="47.06476" lon="6.19975">
        <ele>390.91</ele>
        <time>2018-09-09T08:38:21Z</time>
      </trkpt>
      <trkpt lat="47.06478" lon="6.19977">
        <ele>390.91</ele>
        <time>2018-09-09T08:38:22Z</time>
      </trkpt>
      <trkpt lat="47.0648" lon="6.19979">
        <ele>390.91</ele>
        <time>2018-09-09T08:38:23Z</time>
      </trkpt>
      <trkpt lat="47.06481" lon="6.19979">
        <ele>390.91</ele>
        <time>2018-09-09T08:38:24Z</time>
      </trkpt>
      <trkpt lat="47.06494" lon="6.19985">
        <ele>392.36</ele>
        <time>2018-09-09T08:38:30Z</time>
      </trkpt>
      <trkpt lat="47.06498" lon="6.1999">
        <ele>392.36</ele>
        <time>2018-09-09T08:38:33Z</time>
      </trkpt>
      <trkpt lat="47.06501" lon="6.19991">
        <ele>392.84</ele>
        <time>2018-09-09T08:38:34Z</time>
      </trkpt>
      <trkpt lat="47.06503" lon="6.19993">
        <ele>392.84</ele>
        <time>2018-09-09T08:38:35Z</time>
      </trkpt>
      <trkpt lat="47.06506" lon="6.20001">
        <ele>394.28</ele>
        <time>2018-09-09T08:38:39Z</time>
      </trkpt>
      <trkpt lat="47.06506" lon="6.20002">
        <ele>394.28</ele>
        <time>2018-09-09T08:38:40Z</time>
      </trkpt>
      <trkpt lat="47.06496" lon="6.19992">
        <ele>395.72</ele>
        <time>2018-09-09T08:38:51Z</time>
      </trkpt>
      <trkpt lat="47.06488" lon="6.1999">
        <ele>396.2</ele>
        <time>2018-09-09T08:38:56Z</time>
      </trkpt>
      <trkpt lat="47.06463" lon="6.19985">
        <ele>398.12</ele>
        <time>2018-09-09T08:39:09Z</time>
      </trkpt>
      <trkpt lat="47.06447" lon="6.19982">
        <ele>399.08</ele>
        <time>2018-09-09T08:39:17Z</time>
      </trkpt>
      <trkpt lat="47.06446" lon="6.1998">
        <ele>399.08</ele>
        <time>2018-09-09T08:39:19Z</time>
      </trkpt>
      <trkpt lat="47.06422" lon="6.1998">
        <ele>400.53</ele>
        <time>2018-09-09T08:39:31Z</time>
      </trkpt>
      <trkpt lat="47.06403" lon="6.19986">
        <ele>401.97</ele>
        <time>2018-09-09T08:39:40Z</time>
      </trkpt>
      <trkpt lat="47.06389" lon="6.19991">
        <ele>402.93</ele>
        <time>2018-09-09T08:39:48Z</time>
      </trkpt>
      <trkpt lat="47.06372" lon="6.19994">
        <ele>404.37</ele>
        <time>2018-09-09T08:39:58Z</time>
      </trkpt>
      <trkpt lat="47.06361" lon="6.19993">
        <ele>405.33</ele>
        <time>2018-09-09T08:40:04Z</time>
      </trkpt>
      <trkpt lat="47.06359" lon="6.20001">
        <ele>406.29</ele>
        <time>2018-09-09T08:40:11Z</time>
      </trkpt>
      <trkpt lat="47.06365" lon="6.20006">
        <ele>407.26</ele>
        <time>2018-09-09T08:40:16Z</time>
      </trkpt>
      <trkpt lat="47.06379" lon="6.20009">
        <ele>408.22</ele>
        <time>2018-09-09T08:40:25Z</time>
      </trkpt>
      <trkpt lat="47.06395" lon="6.20013">
        <ele>409.18</ele>
        <time>2018-09-09T08:40:36Z</time>
      </trkpt>
      <trkpt lat="47.06407" lon="6.20017">
        <ele>410.14</ele>
        <time>2018-09-09T08:40:46Z</time>
      </trkpt>
      <trkpt lat="47.06411" lon="6.20019">
        <ele>410.62</ele>
        <time>2018-09-09T08:40:48Z</time>
      </trkpt>
      <trkpt lat="47.06415" lon="6.20021">
        <ele>410.62</ele>
        <time>2018-09-09T08:40:50Z</time>
      </trkpt>
      <trkpt lat="47.06432" lon="6.20028">
        <ele>412.06</ele>
        <time>2018-09-09T08:40:59Z</time>
      </trkpt>
      <trkpt lat="47.06448" lon="6.20033">
        <ele>413.02</ele>
        <time>2018-09-09T08:41:07Z</time>
      </trkpt>
      <trkpt lat="47.06454" lon="6.20036">
        <ele>413.5</ele>
        <time>2018-09-09T08:41:10Z</time>
      </trkpt>
      <trkpt lat="47.06464" lon="6.20044">
        <ele>413.98</ele>
        <time>2018-09-09T08:41:16Z</time>
      </trkpt>
      <trkpt lat="47.06475" lon="6.20047">
        <ele>415.43</ele>
        <time>2018-09-09T08:41:24Z</time>
      </trkpt>
      <trkpt lat="47.06488" lon="6.2006">
        <ele>415.91</ele>
        <time>2018-09-09T08:41:29Z</time>
      </trkpt>
      <trkpt lat="47.06508" lon="6.20083">
        <ele>417.35</ele>
        <time>2018-09-09T08:41:40Z</time>
      </trkpt>
      <trkpt lat="47.06514" lon="6.20094">
        <ele>417.35</ele>
        <time>2018-09-09T08:41:44Z</time>
      </trkpt>
      <trkpt lat="47.06517" lon="6.201">
        <ele>417.83</ele>
        <time>2018-09-09T08:41:47Z</time>
      </trkpt>
      <trkpt lat="47.06516" lon="6.20108">
        <ele>418.79</ele>
        <time>2018-09-09T08:41:52Z</time>
      </trkpt>
      <trkpt lat="47.06513" lon="6.20104">
        <ele>420.23</ele>
        <time>2018-09-09T08:42:00Z</time>
      </trkpt>
      <trkpt lat="47.06512" lon="6.201">
        <ele>420.23</ele>
        <time>2018-09-09T08:42:02Z</time>
      </trkpt>
      <trkpt lat="47.06505" lon="6.2009">
        <ele>420.71</ele>
        <time>2018-09-09T08:42:06Z</time>
      </trkpt>
      <trkpt lat="47.0648" lon="6.20065">
        <ele>422.64</ele>
        <time>2018-09-09T08:42:20Z</time>
      </trkpt>
      <trkpt lat="47.06459" lon="6.20063">
        <ele>424.56</ele>
        <time>2018-09-09T08:42:30Z</time>
      </trkpt>
      <trkpt lat="47.06438" lon="6.20062">
        <ele>425.52</ele>
        <time>2018-09-09T08:42:41Z</time>
      </trkpt>
      <trkpt lat="47.0641" lon="6.20062">
        <ele>427.92</ele>
        <time>2018-09-09T08:42:54Z</time>
      </trkpt>
      <trkpt lat="47.06399" lon="6.20064">
        <ele>428.89</ele>
        <time>2018-09-09T08:43:00Z</time>
      </trkpt>
      <trkpt lat="47.06376" lon="6.20068">
        <ele>430.33</ele>
        <time>2018-09-09T08:43:12Z</time>
      </trkpt>
      <trkpt lat="47.06355" lon="6.20072">
        <ele>432.25</ele>
        <time>2018-09-09T08:43:22Z</time>
      </trkpt>
      <trkpt lat="47.06337" lon="6.20078">
        <ele>433.69</ele>
        <time>2018-09-09T08:43:32Z</time>
      </trkpt>
      <trkpt lat="47.06331" lon="6.20078">
        <ele>434.17</ele>
        <time>2018-09-09T08:43:36Z</time>
      </trkpt>
      <trkpt lat="47.06306" lon="6.20088">
        <ele>436.1</ele>
        <time>2018-09-09T08:43:49Z</time>
      </trkpt>
      <trkpt lat="47.06278" lon="6.20106">
        <ele>438.5</ele>
        <time>2018-09-09T08:44:04Z</time>
      </trkpt>
      <trkpt lat="47.06257" lon="6.20141">
        <ele>440.42</ele>
        <time>2018-09-09T08:44:17Z</time>
      </trkpt>
      <trkpt lat="47.06255" lon="6.20143">
        <ele>440.42</ele>
        <time>2018-09-09T08:44:18Z</time>
      </trkpt>
      <trkpt lat="47.06249" lon="6.20159">
        <ele>441.86</ele>
        <time>2018-09-09T08:44:25Z</time>
      </trkpt>
      <trkpt lat="47.06226" lon="6.20183">
        <ele>443.31</ele>
        <time>2018-09-09T08:44:39Z</time>
      </trkpt>
      <trkpt lat="47.06222" lon="6.20186">
        <ele>443.79</ele>
        <time>2018-09-09T08:44:41Z</time>
      </trkpt>
      <trkpt lat="47.06215" lon="6.20188">
        <ele>444.27</ele>
        <time>2018-09-09T08:44:45Z</time>
      </trkpt>
      <trkpt lat="47.06205" lon="6.20192">
        <ele>445.23</ele>
        <time>2018-09-09T08:44:51Z</time>
      </trkpt>
      <trkpt lat="47.06202" lon="6.20193">
        <ele>445.23</ele>
        <time>2018-09-09T08:44:53Z</time>
      </trkpt>
      <trkpt lat="47.06195" lon="6.20192">
        <ele>445.71</ele>
        <time>2018-09-09T08:44:57Z</time>
      </trkpt>
      <trkpt lat="47.06174" lon="6.20193">
        <ele>447.63</ele>
        <time>2018-09-09T08:45:07Z</time>
      </trkpt>
      <trkpt lat="47.06173" lon="6.20196">
        <ele>448.11</ele>
        <time>2018-09-09T08:45:09Z</time>
      </trkpt>
      <trkpt lat="47.06177" lon="6.20202">
        <ele>449.07</ele>
        <time>2018-09-09T08:45:14Z</time>
      </trkpt>
      <trkpt lat="47.06196" lon="6.20203">
        <ele>450.03</ele>
        <time>2018-09-09T08:45:26Z</time>
      </trkpt>
      <trkpt lat="47.06222" lon="6.20204">
        <ele>451.48</ele>
        <time>2018-09-09T08:45:37Z</time>
      </trkpt>
      <trkpt lat="47.06248" lon="6.20197">
        <ele>451.96</ele>
        <time>2018-09-09T08:45:49Z</time>
      </trkpt>
      <trkpt lat="47.06256" lon="6.20193">
        <ele>452.44</ele>
        <time>2018-09-09T08:45:52Z</time>
      </trkpt>
      <trkpt lat="47.06282" lon="6.20187">
        <ele>453.4</ele>
        <time>2018-09-09T08:46:03Z</time>
      </trkpt>
      <trkpt lat="47.06284" lon="6.20189">
        <ele>453.4</ele>
        <time>2018-09-09T08:46:04Z</time>
      </trkpt>
      <trkpt lat="47.06306" lon="6.20202">
        <ele>455.32</ele>
        <time>2018-09-09T08:46:16Z</time>
      </trkpt>
      <trkpt lat="47.06317" lon="6.20207">
        <ele>456.28</ele>
        <time>2018-09-09T08:46:22Z</time>
      </trkpt>
      <trkpt lat="47.06344" lon="6.20222">
        <ele>457.72</ele>
        <time>2018-09-09T08:46:33Z</time>
      </trkpt>
      <trkpt lat="47.06362" lon="6.20236">
        <ele>458.69</ele>
        <time>2018-09-09T08:46:42Z</time>
      </trkpt>
      <trkpt lat="47.06364" lon="6.20245">
        <ele>459.17</ele>
        <time>2018-09-09T08:46:45Z</time>
      </trkpt>
      <trkpt lat="47.06345" lon="6.20267">
        <ele>458.69</ele>
        <time>2018-09-09T08:46:55Z</time>
      </trkpt>
      <trkpt lat="47.0632" lon="6.20288">
        <ele>460.61</ele>
        <time>2018-09-09T08:47:09Z</time>
      </trkpt>
      <trkpt lat="47.06319" lon="6.2029">
        <ele>461.09</ele>
        <time>2018-09-09T08:47:10Z</time>
      </trkpt>
      <trkpt lat="47.06312" lon="6.20306">
        <ele>464.45</ele>
        <time>2018-09-09T08:47:18Z</time>
      </trkpt>
      <trkpt lat="47.0631" lon="6.20309">
        <ele>464.93</ele>
        <time>2018-09-09T08:47:20Z</time>
      </trkpt>
      <trkpt lat="47.06309" lon="6.2031">
        <ele>465.42</ele>
        <time>2018-09-09T08:47:21Z</time>
      </trkpt>
      <trkpt lat="47.06291" lon="6.20308">
        <ele>468.3</ele>
        <time>2018-09-09T08:47:34Z</time>
      </trkpt>
      <trkpt lat="47.0629" lon="6.20307">
        <ele>468.78</ele>
        <time>2018-09-09T08:47:35Z</time>
      </trkpt>
      <trkpt lat="47.0628" lon="6.20305">
        <ele>470.7</ele>
        <time>2018-09-09T08:47:42Z</time>
      </trkpt>
      <trkpt lat="47.06262" lon="6.20301">
        <ele>473.11</ele>
        <time>2018-09-09T08:47:54Z</time>
      </trkpt>
      <trkpt lat="47.06242" lon="6.20296">
        <ele>475.99</ele>
        <time>2018-09-09T08:48:07Z</time>
      </trkpt>
      <trkpt lat="47.06231" lon="6.20293">
        <ele>476.47</ele>
        <time>2018-09-09T08:48:13Z</time>
      </trkpt>
      <trkpt lat="47.06226" lon="6.20291">
        <ele>476.95</ele>
        <time>2018-09-09T08:48:16Z</time>
      </trkpt>
      <trkpt lat="47.06201" lon="6.20284">
        <ele>478.87</ele>
        <time>2018-09-09T08:48:30Z</time>
      </trkpt>
      <trkpt lat="47.06176" lon="6.20284">
        <ele>481.76</ele>
        <time>2018-09-09T08:48:44Z</time>
      </trkpt>
      <trkpt lat="47.06171" lon="6.20285">
        <ele>482.24</ele>
        <time>2018-09-09T08:48:47Z</time>
      </trkpt>
      <trkpt lat="47.06171" lon="6.203">
        <ele>484.64</ele>
        <time>2018-09-09T08:48:57Z</time>
      </trkpt>
      <trkpt lat="47.0619" lon="6.20316">
        <ele>488.01</ele>
        <time>2018-09-09T08:49:11Z</time>
      </trkpt>
      <trkpt lat="47.06196" lon="6.20323">
        <ele>488.49</ele>
        <time>2018-09-09T08:49:16Z</time>
      </trkpt>
      <trkpt lat="47.06201" lon="6.20328">
        <ele>489.45</ele>
        <time>2018-09-09T08:49:20Z</time>
      </trkpt>
      <trkpt lat="47.06217" lon="6.20347">
        <ele>492.33</ele>
        <time>2018-09-09T08:49:34Z</time>
      </trkpt>
      <trkpt lat="47.06231" lon="6.20363">
        <ele>494.74</ele>
        <time>2018-09-09T08:49:47Z</time>
      </trkpt>
      <trkpt lat="47.06239" lon="6.20374">
        <ele>495.7</ele>
        <time>2018-09-09T08:49:55Z</time>
      </trkpt>
      <trkpt lat="47.06248" lon="6.20389">
        <ele>497.62</ele>
        <time>2018-09-09T08:50:04Z</time>
      </trkpt>
      <trkpt lat="47.0625" lon="6.20393">
        <ele>498.1</ele>
        <time>2018-09-09T08:50:07Z</time>
      </trkpt>
      <trkpt lat="47.06258" lon="6.20409">
        <ele>499.54</ele>
        <time>2018-09-09T08:50:15Z</time>
      </trkpt>
      <trkpt lat="47.0626" lon="6.20413">
        <ele>500.02</ele>
        <time>2018-09-09T08:50:17Z</time>
      </trkpt>
      <trkpt lat="47.06262" lon="6.2042">
        <ele>500.98</ele>
        <time>2018-09-09T08:50:21Z</time>
      </trkpt>
      <trkpt lat="47.06265" lon="6.2043">
        <ele>501.95</ele>
        <time>2018-09-09T08:50:26Z</time>
      </trkpt>
      <trkpt lat="47.06261" lon="6.20449">
        <ele>503.39</ele>
        <time>2018-09-09T08:50:36Z</time>
      </trkpt>
      <trkpt lat="47.06256" lon="6.20458">
        <ele>504.35</ele>
        <time>2018-09-09T08:50:43Z</time>
      </trkpt>
      <trkpt lat="47.06238" lon="6.20459">
        <ele>507.23</ele>
        <time>2018-09-09T08:50:56Z</time>
      </trkpt>
      <trkpt lat="47.06229" lon="6.20452">
        <ele>509.16</ele>
        <time>2018-09-09T08:51:04Z</time>
      </trkpt>
      <trkpt lat="47.06214" lon="6.20438">
        <ele>512.04</ele>
        <time>2018-09-09T08:51:17Z</time>
      </trkpt>
      <trkpt lat="47.0621" lon="6.20434">
        <ele>512.52</ele>
        <time>2018-09-09T08:51:21Z</time>
      </trkpt>
      <trkpt lat="47.06192" lon="6.20423">
        <ele>515.4</ele>
        <time>2018-09-09T08:51:35Z</time>
      </trkpt>
      <trkpt lat="47.0618" lon="6.20414">
        <ele>516.85</ele>
        <time>2018-09-09T08:51:43Z</time>
      </trkpt>
      <trkpt lat="47.06163" lon="6.20406">
        <ele>519.25</ele>
        <time>2018-09-09T08:51:54Z</time>
      </trkpt>
      <trkpt lat="47.0614" lon="6.20403">
        <ele>522.13</ele>
        <time>2018-09-09T08:52:08Z</time>
      </trkpt>
      <trkpt lat="47.06138" lon="6.20402">
        <ele>522.61</ele>
        <time>2018-09-09T08:52:10Z</time>
      </trkpt>
      <trkpt lat="47.06131" lon="6.20404">
        <ele>523.58</ele>
        <time>2018-09-09T08:52:15Z</time>
      </trkpt>
      <trkpt lat="47.06125" lon="6.20406">
        <ele>524.54</ele>
        <time>2018-09-09T08:52:19Z</time>
      </trkpt>
      <trkpt lat="47.06122" lon="6.20407">
        <ele>524.54</ele>
        <time>2018-09-09T08:52:21Z</time>
      </trkpt>
      <trkpt lat="47.06107" lon="6.20414">
        <ele>526.94</ele>
        <time>2018-09-09T08:52:33Z</time>
      </trkpt>
      <trkpt lat="47.06095" lon="6.20419">
        <ele>529.34</ele>
        <time>2018-09-09T08:52:41Z</time>
      </trkpt>
      <trkpt lat="47.06091" lon="6.20421">
        <ele>529.82</ele>
        <time>2018-09-09T08:52:44Z</time>
      </trkpt>
      <trkpt lat="47.06076" lon="6.20427">
        <ele>532.23</ele>
        <time>2018-09-09T08:52:54Z</time>
      </trkpt>
      <trkpt lat="47.06059" lon="6.20429">
        <ele>533.67</ele>
        <time>2018-09-09T08:53:05Z</time>
      </trkpt>
      <trkpt lat="47.06052" lon="6.20431">
        <ele>534.63</ele>
        <time>2018-09-09T08:53:10Z</time>
      </trkpt>
      <trkpt lat="47.06047" lon="6.20431">
        <ele>535.11</ele>
        <time>2018-09-09T08:53:13Z</time>
      </trkpt>
      <trkpt lat="47.06028" lon="6.20433">
        <ele>537.51</ele>
        <time>2018-09-09T08:53:26Z</time>
      </trkpt>
      <trkpt lat="47.06009" lon="6.20434">
        <ele>539.92</ele>
        <time>2018-09-09T08:53:38Z</time>
      </trkpt>
      <trkpt lat="47.06" lon="6.20435">
        <ele>540.88</ele>
        <time>2018-09-09T08:53:44Z</time>
      </trkpt>
      <trkpt lat="47.05993" lon="6.20435">
        <ele>541.84</ele>
        <time>2018-09-09T08:53:49Z</time>
      </trkpt>
      <trkpt lat="47.05974" lon="6.20442">
        <ele>543.28</ele>
        <time>2018-09-09T08:54:01Z</time>
      </trkpt>
      <trkpt lat="47.05967" lon="6.20443">
        <ele>543.76</ele>
        <time>2018-09-09T08:54:05Z</time>
      </trkpt>
      <trkpt lat="47.05959" lon="6.20447">
        <ele>544.72</ele>
        <time>2018-09-09T08:54:10Z</time>
      </trkpt>
      <trkpt lat="47.05952" lon="6.20446">
        <ele>545.2</ele>
        <time>2018-09-09T08:54:14Z</time>
      </trkpt>
      <trkpt lat="47.05936" lon="6.20455">
        <ele>546.65</ele>
        <time>2018-09-09T08:54:24Z</time>
      </trkpt>
      <trkpt lat="47.05925" lon="6.2046">
        <ele>547.61</ele>
        <time>2018-09-09T08:54:31Z</time>
      </trkpt>
      <trkpt lat="47.05906" lon="6.2047">
        <ele>549.53</ele>
        <time>2018-09-09T08:54:42Z</time>
      </trkpt>
      <trkpt lat="47.05881" lon="6.20482">
        <ele>551.45</ele>
        <time>2018-09-09T08:54:56Z</time>
      </trkpt>
      <trkpt lat="47.05879" lon="6.20484">
        <ele>551.45</ele>
        <time>2018-09-09T08:54:57Z</time>
      </trkpt>
      <trkpt lat="47.05858" lon="6.20496">
        <ele>553.86</ele>
        <time>2018-09-09T08:55:09Z</time>
      </trkpt>
      <trkpt lat="47.05834" lon="6.20504">
        <ele>556.26</ele>
        <time>2018-09-09T08:55:22Z</time>
      </trkpt>
      <trkpt lat="47.05815" lon="6.20514">
        <ele>557.7</ele>
        <time>2018-09-09T08:55:33Z</time>
      </trkpt>
      <trkpt lat="47.05791" lon="6.20533">
        <ele>560.11</ele>
        <time>2018-09-09T08:55:49Z</time>
      </trkpt>
      <trkpt lat="47.0579" lon="6.20535">
        <ele>560.11</ele>
        <time>2018-09-09T08:55:50Z</time>
      </trkpt>
      <trkpt lat="47.05782" lon="6.20542">
        <ele>561.07</ele>
        <time>2018-09-09T08:55:56Z</time>
      </trkpt>
      <trkpt lat="47.05775" lon="6.20548">
        <ele>561.55</ele>
        <time>2018-09-09T08:56:01Z</time>
      </trkpt>
      <trkpt lat="47.05764" lon="6.20555">
        <ele>562.99</ele>
        <time>2018-09-09T08:56:09Z</time>
      </trkpt>
      <trkpt lat="47.0575" lon="6.2057">
        <ele>564.43</ele>
        <time>2018-09-09T08:56:18Z</time>
      </trkpt>
      <trkpt lat="47.05746" lon="6.20574">
        <ele>564.91</ele>
        <time>2018-09-09T08:56:22Z</time>
      </trkpt>
      <trkpt lat="47.05738" lon="6.20582">
        <ele>565.87</ele>
        <time>2018-09-09T08:56:28Z</time>
      </trkpt>
      <trkpt lat="47.0573" lon="6.20593">
        <ele>566.83</ele>
        <time>2018-09-09T08:56:34Z</time>
      </trkpt>
      <trkpt lat="47.05721" lon="6.20605">
        <ele>568.28</ele>
        <time>2018-09-09T08:56:40Z</time>
      </trkpt>
      <trkpt lat="47.05704" lon="6.20627">
        <ele>570.68</ele>
        <time>2018-09-09T08:56:53Z</time>
      </trkpt>
      <trkpt lat="47.05702" lon="6.2063">
        <ele>571.16</ele>
        <time>2018-09-09T08:56:55Z</time>
      </trkpt>
      <trkpt lat="47.05685" lon="6.20652">
        <ele>573.56</ele>
        <time>2018-09-09T08:57:09Z</time>
      </trkpt>
      <trkpt lat="47.05675" lon="6.20667">
        <ele>575.01</ele>
        <time>2018-09-09T08:57:16Z</time>
      </trkpt>
      <trkpt lat="47.05656" lon="6.20693">
        <ele>575.97</ele>
        <time>2018-09-09T08:57:28Z</time>
      </trkpt>
      <trkpt lat="47.0564" lon="6.20721">
        <ele>577.41</ele>
        <time>2018-09-09T08:57:39Z</time>
      </trkpt>
      <trkpt lat="47.05633" lon="6.20728">
        <ele>577.89</ele>
        <time>2018-09-09T08:57:42Z</time>
      </trkpt>
      <trkpt lat="47.05629" lon="6.20731">
        <ele>577.89</ele>
        <time>2018-09-09T08:57:44Z</time>
      </trkpt>
      <trkpt lat="47.05621" lon="6.20742">
        <ele>578.37</ele>
        <time>2018-09-09T08:57:49Z</time>
      </trkpt>
      <trkpt lat="47.05618" lon="6.20744">
        <ele>578.85</ele>
        <time>2018-09-09T08:57:51Z</time>
      </trkpt>
      <trkpt lat="47.05609" lon="6.20754">
        <ele>578.37</ele>
        <time>2018-09-09T08:57:56Z</time>
      </trkpt>
      <trkpt lat="47.05583" lon="6.20777">
        <ele>579.33</ele>
        <time>2018-09-09T08:58:08Z</time>
      </trkpt>
      <trkpt lat="47.05557" lon="6.20789">
        <ele>579.81</ele>
        <time>2018-09-09T08:58:17Z</time>
      </trkpt>
      <trkpt lat="47.05554" lon="6.20792">
        <ele>579.81</ele>
        <time>2018-09-09T08:58:18Z</time>
      </trkpt>
      <trkpt lat="47.05529" lon="6.20813">
        <ele>580.29</ele>
        <time>2018-09-09T08:58:28Z</time>
      </trkpt>
      <trkpt lat="47.05514" lon="6.20841">
        <ele>581.25</ele>
        <time>2018-09-09T08:58:36Z</time>
      </trkpt>
      <trkpt lat="47.05509" lon="6.2085">
        <ele>581.25</ele>
        <time>2018-09-09T08:58:39Z</time>
      </trkpt>
      <trkpt lat="47.05505" lon="6.20852">
        <ele>581.73</ele>
        <time>2018-09-09T08:58:41Z</time>
      </trkpt>
      <trkpt lat="47.05496" lon="6.20861">
        <ele>581.73</ele>
        <time>2018-09-09T08:58:44Z</time>
      </trkpt>
      <trkpt lat="47.0547" lon="6.20881">
        <ele>583.66</ele>
        <time>2018-09-09T08:58:54Z</time>
      </trkpt>
      <trkpt lat="47.05447" lon="6.20915">
        <ele>585.58</ele>
        <time>2018-09-09T08:59:06Z</time>
      </trkpt>
      <trkpt lat="47.05431" lon="6.20939">
        <ele>587.5</ele>
        <time>2018-09-09T08:59:15Z</time>
      </trkpt>
      <trkpt lat="47.05427" lon="6.20951">
        <ele>588.46</ele>
        <time>2018-09-09T08:59:19Z</time>
      </trkpt>
      <trkpt lat="47.05391" lon="6.21">
        <ele>589.43</ele>
        <time>2018-09-09T08:59:33Z</time>
      </trkpt>
      <trkpt lat="47.05358" lon="6.21037">
        <ele>590.39</ele>
        <time>2018-09-09T08:59:46Z</time>
      </trkpt>
      <trkpt lat="47.05338" lon="6.21071">
        <ele>592.79</ele>
        <time>2018-09-09T09:00:00Z</time>
      </trkpt>
      <trkpt lat="47.05334" lon="6.2109">
        <ele>595.19</ele>
        <time>2018-09-09T09:00:07Z</time>
      </trkpt>
      <trkpt lat="47.05325" lon="6.21117">
        <ele>597.12</ele>
        <time>2018-09-09T09:00:17Z</time>
      </trkpt>
      <trkpt lat="47.05319" lon="6.21128">
        <ele>598.56</ele>
        <time>2018-09-09T09:00:23Z</time>
      </trkpt>
      <trkpt lat="47.05315" lon="6.21137">
        <ele>599.52</ele>
        <time>2018-09-09T09:00:27Z</time>
      </trkpt>
      <trkpt lat="47.05295" lon="6.21158">
        <ele>600.96</ele>
        <time>2018-09-09T09:00:38Z</time>
      </trkpt>
      <trkpt lat="47.0528" lon="6.21186">
        <ele>602.88</ele>
        <time>2018-09-09T09:00:50Z</time>
      </trkpt>
      <trkpt lat="47.05266" lon="6.2122">
        <ele>604.81</ele>
        <time>2018-09-09T09:01:01Z</time>
      </trkpt>
      <trkpt lat="47.05246" lon="6.21251">
        <ele>605.29</ele>
        <time>2018-09-09T09:01:12Z</time>
      </trkpt>
      <trkpt lat="47.05214" lon="6.21288">
        <ele>604.81</ele>
        <time>2018-09-09T09:01:22Z</time>
      </trkpt>
      <trkpt lat="47.05199" lon="6.21306">
        <ele>603.85</ele>
        <time>2018-09-09T09:01:27Z</time>
      </trkpt>
      <trkpt lat="47.05196" lon="6.21311">
        <ele>603.85</ele>
        <time>2018-09-09T09:01:28Z</time>
      </trkpt>
      <trkpt lat="47.05192" lon="6.21314">
        <ele>603.85</ele>
        <time>2018-09-09T09:01:29Z</time>
      </trkpt>
      <trkpt lat="47.05189" lon="6.21318">
        <ele>603.85</ele>
        <time>2018-09-09T09:01:30Z</time>
      </trkpt>
      <trkpt lat="47.05188" lon="6.21321">
        <ele>603.85</ele>
        <time>2018-09-09T09:01:31Z</time>
      </trkpt>
      <trkpt lat="47.05161" lon="6.21355">
        <ele>604.33</ele>
        <time>2018-09-09T09:01:39Z</time>
      </trkpt>
      <trkpt lat="47.05131" lon="6.21384">
        <ele>606.25</ele>
        <time>2018-09-09T09:01:50Z</time>
      </trkpt>
      <trkpt lat="47.0513" lon="6.21385">
        <ele>606.73</ele>
        <time>2018-09-09T09:01:51Z</time>
      </trkpt>
      <trkpt lat="47.05102" lon="6.21419">
        <ele>608.17</ele>
        <time>2018-09-09T09:02:04Z</time>
      </trkpt>
      <trkpt lat="47.0509" lon="6.21435">
        <ele>609.61</ele>
        <time>2018-09-09T09:02:10Z</time>
      </trkpt>
      <trkpt lat="47.05088" lon="6.21436">
        <ele>610.09</ele>
        <time>2018-09-09T09:02:11Z</time>
      </trkpt>
      <trkpt lat="47.05086" lon="6.21437">
        <ele>610.57</ele>
        <time>2018-09-09T09:02:12Z</time>
      </trkpt>
      <trkpt lat="47.05078" lon="6.21445">
        <ele>611.54</ele>
        <time>2018-09-09T09:02:17Z</time>
      </trkpt>
      <trkpt lat="47.05076" lon="6.21446">
        <ele>611.54</ele>
        <time>2018-09-09T09:02:18Z</time>
      </trkpt>
      <trkpt lat="47.05069" lon="6.21448">
        <ele>612.02</ele>
        <time>2018-09-09T09:02:21Z</time>
      </trkpt>
      <trkpt lat="47.05067" lon="6.21448">
        <ele>612.02</ele>
        <time>2018-09-09T09:02:22Z</time>
      </trkpt>
      <trkpt lat="47.05065" lon="6.21448">
        <ele>612.5</ele>
        <time>2018-09-09T09:02:23Z</time>
      </trkpt>
      <trkpt lat="47.05062" lon="6.2145">
        <ele>612.98</ele>
        <time>2018-09-09T09:02:24Z</time>
      </trkpt>
      <trkpt lat="47.05061" lon="6.21452">
        <ele>612.5</ele>
        <time>2018-09-09T09:02:25Z</time>
      </trkpt>
      <trkpt lat="47.05059" lon="6.21454">
        <ele>612.98</ele>
        <time>2018-09-09T09:02:26Z</time>
      </trkpt>
      <trkpt lat="47.05056" lon="6.21456">
        <ele>613.46</ele>
        <time>2018-09-09T09:02:27Z</time>
      </trkpt>
      <trkpt lat="47.05054" lon="6.21458">
        <ele>613.46</ele>
        <time>2018-09-09T09:02:28Z</time>
      </trkpt>
      <trkpt lat="47.05051" lon="6.21459">
        <ele>613.46</ele>
        <time>2018-09-09T09:02:29Z</time>
      </trkpt>
      <trkpt lat="47.05049" lon="6.2146">
        <ele>613.94</ele>
        <time>2018-09-09T09:02:30Z</time>
      </trkpt>
      <trkpt lat="47.05045" lon="6.21463">
        <ele>614.42</ele>
        <time>2018-09-09T09:02:32Z</time>
      </trkpt>
      <trkpt lat="47.05044" lon="6.21464">
        <ele>614.42</ele>
        <time>2018-09-09T09:02:33Z</time>
      </trkpt>
      <trkpt lat="47.05022" lon="6.21487">
        <ele>617.3</ele>
        <time>2018-09-09T09:02:46Z</time>
      </trkpt>
      <trkpt lat="47.05" lon="6.21508">
        <ele>620.19</ele>
        <time>2018-09-09T09:02:58Z</time>
      </trkpt>
      <trkpt lat="47.04986" lon="6.21521">
        <ele>622.59</ele>
        <time>2018-09-09T09:03:08Z</time>
      </trkpt>
      <trkpt lat="47.04986" lon="6.21521">
        <ele>622.59</ele>
        <time>2018-09-09T09:03:09Z</time>
      </trkpt>
      <trkpt lat="47.04974" lon="6.21535">
        <ele>624.51</ele>
        <time>2018-09-09T09:03:18Z</time>
      </trkpt>
      <trkpt lat="47.0497" lon="6.2154">
        <ele>624.51</ele>
        <time>2018-09-09T09:03:20Z</time>
      </trkpt>
      <trkpt lat="47.04967" lon="6.21544">
        <ele>624.99</ele>
        <time>2018-09-09T09:03:22Z</time>
      </trkpt>
      <trkpt lat="47.04954" lon="6.21562">
        <ele>626.92</ele>
        <time>2018-09-09T09:03:33Z</time>
      </trkpt>
      <trkpt lat="47.04944" lon="6.21575">
        <ele>628.36</ele>
        <time>2018-09-09T09:03:42Z</time>
      </trkpt>
      <trkpt lat="47.04943" lon="6.21578">
        <ele>628.36</ele>
        <time>2018-09-09T09:03:43Z</time>
      </trkpt>
      <trkpt lat="47.04941" lon="6.2158">
        <ele>628.84</ele>
        <time>2018-09-09T09:03:44Z</time>
      </trkpt>
      <trkpt lat="47.04921" lon="6.21607">
        <ele>630.28</ele>
        <time>2018-09-09T09:03:55Z</time>
      </trkpt>
      <trkpt lat="47.04918" lon="6.21611">
        <ele>630.76</ele>
        <time>2018-09-09T09:03:57Z</time>
      </trkpt>
      <trkpt lat="47.04916" lon="6.21612">
        <ele>630.76</ele>
        <time>2018-09-09T09:03:58Z</time>
      </trkpt>
      <trkpt lat="47.04914" lon="6.21615">
        <ele>631.24</ele>
        <time>2018-09-09T09:03:59Z</time>
      </trkpt>
      <trkpt lat="47.04911" lon="6.21618">
        <ele>631.24</ele>
        <time>2018-09-09T09:04:00Z</time>
      </trkpt>
      <trkpt lat="47.0491" lon="6.2162">
        <ele>631.24</ele>
        <time>2018-09-09T09:04:01Z</time>
      </trkpt>
      <trkpt lat="47.04907" lon="6.21623">
        <ele>631.72</ele>
        <time>2018-09-09T09:04:03Z</time>
      </trkpt>
      <trkpt lat="47.04904" lon="6.21625">
        <ele>632.2</ele>
        <time>2018-09-09T09:04:05Z</time>
      </trkpt>
      <trkpt lat="47.04904" lon="6.21628">
        <ele>632.2</ele>
        <time>2018-09-09T09:04:06Z</time>
      </trkpt>
      <trkpt lat="47.04903" lon="6.21631">
        <ele>632.2</ele>
        <time>2018-09-09T09:04:07Z</time>
      </trkpt>
      <trkpt lat="47.04902" lon="6.21633">
        <ele>632.2</ele>
        <time>2018-09-09T09:04:08Z</time>
      </trkpt>
      <trkpt lat="47.049" lon="6.21636">
        <ele>632.68</ele>
        <time>2018-09-09T09:04:09Z</time>
      </trkpt>
      <trkpt lat="47.04898" lon="6.21639">
        <ele>632.68</ele>
        <time>2018-09-09T09:04:10Z</time>
      </trkpt>
      <trkpt lat="47.04893" lon="6.21647">
        <ele>633.17</ele>
        <time>2018-09-09T09:04:13Z</time>
      </trkpt>
      <trkpt lat="47.04891" lon="6.2165">
        <ele>633.65</ele>
        <time>2018-09-09T09:04:14Z</time>
      </trkpt>
      <trkpt lat="47.0489" lon="6.21652">
        <ele>633.65</ele>
        <time>2018-09-09T09:04:15Z</time>
      </trkpt>
      <trkpt lat="47.04887" lon="6.21656">
        <ele>634.13</ele>
        <time>2018-09-09T09:04:17Z</time>
      </trkpt>
      <trkpt lat="47.04885" lon="6.21658">
        <ele>634.61</ele>
        <time>2018-09-09T09:04:18Z</time>
      </trkpt>
      <trkpt lat="47.04876" lon="6.2167">
        <ele>635.57</ele>
        <time>2018-09-09T09:04:24Z</time>
      </trkpt>
      <trkpt lat="47.04875" lon="6.21672">
        <ele>635.57</ele>
        <time>2018-09-09T09:04:25Z</time>
      </trkpt>
      <trkpt lat="47.04872" lon="6.21677">
        <ele>636.53</ele>
        <time>2018-09-09T09:04:28Z</time>
      </trkpt>
      <trkpt lat="47.04871" lon="6.21679">
        <ele>636.53</ele>
        <time>2018-09-09T09:04:29Z</time>
      </trkpt>
      <trkpt lat="47.0487" lon="6.21681">
        <ele>637.01</ele>
        <time>2018-09-09T09:04:30Z</time>
      </trkpt>
      <trkpt lat="47.04868" lon="6.21683">
        <ele>637.01</ele>
        <time>2018-09-09T09:04:31Z</time>
      </trkpt>
      <trkpt lat="47.04867" lon="6.21684">
        <ele>637.49</ele>
        <time>2018-09-09T09:04:32Z</time>
      </trkpt>
      <trkpt lat="47.0486" lon="6.21694">
        <ele>638.93</ele>
        <time>2018-09-09T09:04:39Z</time>
      </trkpt>
      <trkpt lat="47.04858" lon="6.21695">
        <ele>639.41</ele>
        <time>2018-09-09T09:04:40Z</time>
      </trkpt>
      <trkpt lat="47.04857" lon="6.21697">
        <ele>639.41</ele>
        <time>2018-09-09T09:04:41Z</time>
      </trkpt>
      <trkpt lat="47.04845" lon="6.21718">
        <ele>642.3</ele>
        <time>2018-09-09T09:04:51Z</time>
      </trkpt>
      <trkpt lat="47.04844" lon="6.2172">
        <ele>642.3</ele>
        <time>2018-09-09T09:04:52Z</time>
      </trkpt>
      <trkpt lat="47.04843" lon="6.21722">
        <ele>642.78</ele>
        <time>2018-09-09T09:04:53Z</time>
      </trkpt>
      <trkpt lat="47.04842" lon="6.21724">
        <ele>642.78</ele>
        <time>2018-09-09T09:04:54Z</time>
      </trkpt>
      <trkpt lat="47.0483" lon="6.21746">
        <ele>645.66</ele>
        <time>2018-09-09T09:05:04Z</time>
      </trkpt>
      <trkpt lat="47.04829" lon="6.21748">
        <ele>646.14</ele>
        <time>2018-09-09T09:05:05Z</time>
      </trkpt>
      <trkpt lat="47.04821" lon="6.21758">
        <ele>648.07</ele>
        <time>2018-09-09T09:05:11Z</time>
      </trkpt>
      <trkpt lat="47.04813" lon="6.21772">
        <ele>649.51</ele>
        <time>2018-09-09T09:05:18Z</time>
      </trkpt>
      <trkpt lat="47.04812" lon="6.21774">
        <ele>649.99</ele>
        <time>2018-09-09T09:05:19Z</time>
      </trkpt>
      <trkpt lat="47.04811" lon="6.21777">
        <ele>649.99</ele>
        <time>2018-09-09T09:05:20Z</time>
      </trkpt>
      <trkpt lat="47.0481" lon="6.21779">
        <ele>650.47</ele>
        <time>2018-09-09T09:05:21Z</time>
      </trkpt>
      <trkpt lat="47.04808" lon="6.21781">
        <ele>650.47</ele>
        <time>2018-09-09T09:05:22Z</time>
      </trkpt>
      <trkpt lat="47.04807" lon="6.21783">
        <ele>650.47</ele>
        <time>2018-09-09T09:05:23Z</time>
      </trkpt>
      <trkpt lat="47.04805" lon="6.21786">
        <ele>650.95</ele>
        <time>2018-09-09T09:05:24Z</time>
      </trkpt>
      <trkpt lat="47.04797" lon="6.21796">
        <ele>652.39</ele>
        <time>2018-09-09T09:05:30Z</time>
      </trkpt>
      <trkpt lat="47.04795" lon="6.21797">
        <ele>652.39</ele>
        <time>2018-09-09T09:05:31Z</time>
      </trkpt>
      <trkpt lat="47.04794" lon="6.21799">
        <ele>652.87</ele>
        <time>2018-09-09T09:05:32Z</time>
      </trkpt>
      <trkpt lat="47.04793" lon="6.21801">
        <ele>652.87</ele>
        <time>2018-09-09T09:05:33Z</time>
      </trkpt>
      <trkpt lat="47.04793" lon="6.21803">
        <ele>653.35</ele>
        <time>2018-09-09T09:05:34Z</time>
      </trkpt>
      <trkpt lat="47.04785" lon="6.21812">
        <ele>654.31</ele>
        <time>2018-09-09T09:05:41Z</time>
      </trkpt>
      <trkpt lat="47.04781" lon="6.21815">
        <ele>654.31</ele>
        <time>2018-09-09T09:05:43Z</time>
      </trkpt>
      <trkpt lat="47.04763" lon="6.21843">
        <ele>654.8</ele>
        <time>2018-09-09T09:05:54Z</time>
      </trkpt>
      <trkpt lat="47.04762" lon="6.21848">
        <ele>654.8</ele>
        <time>2018-09-09T09:05:55Z</time>
      </trkpt>
      <trkpt lat="47.04752" lon="6.21877">
        <ele>655.76</ele>
        <time>2018-09-09T09:06:03Z</time>
      </trkpt>
      <trkpt lat="47.04751" lon="6.21881">
        <ele>655.76</ele>
        <time>2018-09-09T09:06:04Z</time>
      </trkpt>
      <trkpt lat="47.04751" lon="6.21884">
        <ele>655.76</ele>
        <time>2018-09-09T09:06:05Z</time>
      </trkpt>
      <trkpt lat="47.0475" lon="6.21887">
        <ele>656.24</ele>
        <time>2018-09-09T09:06:06Z</time>
      </trkpt>
      <trkpt lat="47.04749" lon="6.2189">
        <ele>656.24</ele>
        <time>2018-09-09T09:06:07Z</time>
      </trkpt>
      <trkpt lat="47.04749" lon="6.21894">
        <ele>656.24</ele>
        <time>2018-09-09T09:06:08Z</time>
      </trkpt>
      <trkpt lat="47.04748" lon="6.21896">
        <ele>656.24</ele>
        <time>2018-09-09T09:06:09Z</time>
      </trkpt>
      <trkpt lat="47.04748" lon="6.21899">
        <ele>656.72</ele>
        <time>2018-09-09T09:06:10Z</time>
      </trkpt>
      <trkpt lat="47.04747" lon="6.21902">
        <ele>656.72</ele>
        <time>2018-09-09T09:06:11Z</time>
      </trkpt>
      <trkpt lat="47.04747" lon="6.21905">
        <ele>656.72</ele>
        <time>2018-09-09T09:06:12Z</time>
      </trkpt>
      <trkpt lat="47.04746" lon="6.21908">
        <ele>657.2</ele>
        <time>2018-09-09T09:06:13Z</time>
      </trkpt>
      <trkpt lat="47.04744" lon="6.2191">
        <ele>657.2</ele>
        <time>2018-09-09T09:06:14Z</time>
      </trkpt>
      <trkpt lat="47.04743" lon="6.21913">
        <ele>657.2</ele>
        <time>2018-09-09T09:06:15Z</time>
      </trkpt>
      <trkpt lat="47.0474" lon="6.21919">
        <ele>657.68</ele>
        <time>2018-09-09T09:06:18Z</time>
      </trkpt>
      <trkpt lat="47.04738" lon="6.2192">
        <ele>657.68</ele>
        <time>2018-09-09T09:06:19Z</time>
      </trkpt>
      <trkpt lat="47.04736" lon="6.21921">
        <ele>658.16</ele>
        <time>2018-09-09T09:06:20Z</time>
      </trkpt>
      <trkpt lat="47.04734" lon="6.21921">
        <ele>658.64</ele>
        <time>2018-09-09T09:06:21Z</time>
      </trkpt>
      <trkpt lat="47.04718" lon="6.21925">
        <ele>661.04</ele>
        <time>2018-09-09T09:06:30Z</time>
      </trkpt>
      <trkpt lat="47.04716" lon="6.21925">
        <ele>661.04</ele>
        <time>2018-09-09T09:06:31Z</time>
      </trkpt>
      <trkpt lat="47.04714" lon="6.21925">
        <ele>661.52</ele>
        <time>2018-09-09T09:06:32Z</time>
      </trkpt>
      <trkpt lat="47.04712" lon="6.21925">
        <ele>661.52</ele>
        <time>2018-09-09T09:06:33Z</time>
      </trkpt>
      <trkpt lat="47.0471" lon="6.21926">
        <ele>662.01</ele>
        <time>2018-09-09T09:06:34Z</time>
      </trkpt>
      <trkpt lat="47.04709" lon="6.21925">
        <ele>662.01</ele>
        <time>2018-09-09T09:06:35Z</time>
      </trkpt>
      <trkpt lat="47.04691" lon="6.2193">
        <ele>663.93</ele>
        <time>2018-09-09T09:06:44Z</time>
      </trkpt>
      <trkpt lat="47.04689" lon="6.21931">
        <ele>663.93</ele>
        <time>2018-09-09T09:06:45Z</time>
      </trkpt>
      <trkpt lat="47.0467" lon="6.21966">
        <ele>666.33</ele>
        <time>2018-09-09T09:07:00Z</time>
      </trkpt>
      <trkpt lat="47.0466" lon="6.21995">
        <ele>668.25</ele>
        <time>2018-09-09T09:07:11Z</time>
      </trkpt>
      <trkpt lat="47.04659" lon="6.21998">
        <ele>668.73</ele>
        <time>2018-09-09T09:07:12Z</time>
      </trkpt>
      <trkpt lat="47.04643" lon="6.22042">
        <ele>670.66</ele>
        <time>2018-09-09T09:07:28Z</time>
      </trkpt>
      <trkpt lat="47.04627" lon="6.22069">
        <ele>671.14</ele>
        <time>2018-09-09T09:07:40Z</time>
      </trkpt>
      <trkpt lat="47.04601" lon="6.22095">
        <ele>670.66</ele>
        <time>2018-09-09T09:07:52Z</time>
      </trkpt>
      <trkpt lat="47.04564" lon="6.22125">
        <ele>670.66</ele>
        <time>2018-09-09T09:08:04Z</time>
      </trkpt>
      <trkpt lat="47.0453" lon="6.22155">
        <ele>672.1</ele>
        <time>2018-09-09T09:08:20Z</time>
      </trkpt>
      <trkpt lat="47.04499" lon="6.22182">
        <ele>674.5</ele>
        <time>2018-09-09T09:08:35Z</time>
      </trkpt>
      <trkpt lat="47.04457" lon="6.22229">
        <ele>675.94</ele>
        <time>2018-09-09T09:08:55Z</time>
      </trkpt>
      <trkpt lat="47.04421" lon="6.22246">
        <ele>678.83</ele>
        <time>2018-09-09T09:09:11Z</time>
      </trkpt>
      <trkpt lat="47.04392" lon="6.22254">
        <ele>681.71</ele>
        <time>2018-09-09T09:09:25Z</time>
      </trkpt>
      <trkpt lat="47.04391" lon="6.22255">
        <ele>681.71</ele>
        <time>2018-09-09T09:09:26Z</time>
      </trkpt>
      <trkpt lat="47.04389" lon="6.22256">
        <ele>681.71</ele>
        <time>2018-09-09T09:09:27Z</time>
      </trkpt>
      <trkpt lat="47.04387" lon="6.22258">
        <ele>681.71</ele>
        <time>2018-09-09T09:09:28Z</time>
      </trkpt>
      <trkpt lat="47.04385" lon="6.22259">
        <ele>682.19</ele>
        <time>2018-09-09T09:09:29Z</time>
      </trkpt>
      <trkpt lat="47.04383" lon="6.22261">
        <ele>682.19</ele>
        <time>2018-09-09T09:09:30Z</time>
      </trkpt>
      <trkpt lat="47.04357" lon="6.22288">
        <ele>685.08</ele>
        <time>2018-09-09T09:09:45Z</time>
      </trkpt>
      <trkpt lat="47.04335" lon="6.22307">
        <ele>686.52</ele>
        <time>2018-09-09T09:09:57Z</time>
      </trkpt>
      <trkpt lat="47.0431" lon="6.22329">
        <ele>688.44</ele>
        <time>2018-09-09T09:10:10Z</time>
      </trkpt>
      <trkpt lat="47.0428" lon="6.22357">
        <ele>689.88</ele>
        <time>2018-09-09T09:10:25Z</time>
      </trkpt>
      <trkpt lat="47.0425" lon="6.22378">
        <ele>692.77</ele>
        <time>2018-09-09T09:10:39Z</time>
      </trkpt>
      <trkpt lat="47.04221" lon="6.224">
        <ele>695.65</ele>
        <time>2018-09-09T09:10:53Z</time>
      </trkpt>
      <trkpt lat="47.04198" lon="6.22421">
        <ele>699.02</ele>
        <time>2018-09-09T09:11:05Z</time>
      </trkpt>
      <trkpt lat="47.04174" lon="6.22445">
        <ele>701.42</ele>
        <time>2018-09-09T09:11:18Z</time>
      </trkpt>
      <trkpt lat="47.04169" lon="6.22451">
        <ele>702.38</ele>
        <time>2018-09-09T09:11:21Z</time>
      </trkpt>
      <trkpt lat="47.04145" lon="6.22482">
        <ele>704.3</ele>
        <time>2018-09-09T09:11:35Z</time>
      </trkpt>
      <trkpt lat="47.04116" lon="6.22516">
        <ele>706.23</ele>
        <time>2018-09-09T09:11:49Z</time>
      </trkpt>
      <trkpt lat="47.04088" lon="6.22563">
        <ele>706.23</ele>
        <time>2018-09-09T09:12:02Z</time>
      </trkpt>
      <trkpt lat="47.04082" lon="6.22573">
        <ele>705.75</ele>
        <time>2018-09-09T09:12:04Z</time>
      </trkpt>
      <trkpt lat="47.04079" lon="6.22578">
        <ele>705.75</ele>
        <time>2018-09-09T09:12:05Z</time>
      </trkpt>
      <trkpt lat="47.04063" lon="6.22593">
        <ele>705.26</ele>
        <time>2018-09-09T09:12:09Z</time>
      </trkpt>
      <trkpt lat="47.04058" lon="6.22596">
        <ele>704.3</ele>
        <time>2018-09-09T09:12:10Z</time>
      </trkpt>
      <trkpt lat="47.04052" lon="6.22599">
        <ele>703.82</ele>
        <time>2018-09-09T09:12:11Z</time>
      </trkpt>
      <trkpt lat="47.04047" lon="6.22601">
        <ele>703.34</ele>
        <time>2018-09-09T09:12:12Z</time>
      </trkpt>
      <trkpt lat="47.0404" lon="6.22603">
        <ele>703.34</ele>
        <time>2018-09-09T09:12:13Z</time>
      </trkpt>
      <trkpt lat="47.03997" lon="6.22613">
        <ele>699.98</ele>
        <time>2018-09-09T09:12:19Z</time>
      </trkpt>
      <trkpt lat="47.03973" lon="6.22618">
        <ele>698.53</ele>
        <time>2018-09-09T09:12:22Z</time>
      </trkpt>
      <trkpt lat="47.03885" lon="6.22623">
        <ele>698.53</ele>
        <time>2018-09-09T09:12:35Z</time>
      </trkpt>
      <trkpt lat="47.03848" lon="6.22629">
        <ele>699.02</ele>
        <time>2018-09-09T09:12:42Z</time>
      </trkpt>
      <trkpt lat="47.03836" lon="6.22632">
        <ele>699.5</ele>
        <time>2018-09-09T09:12:45Z</time>
      </trkpt>
      <trkpt lat="47.0382" lon="6.2264">
        <ele>699.5</ele>
        <time>2018-09-09T09:12:49Z</time>
      </trkpt>
      <trkpt lat="47.03767" lon="6.2267">
        <ele>699.5</ele>
        <time>2018-09-09T09:13:04Z</time>
      </trkpt>
      <trkpt lat="47.0374" lon="6.22685">
        <ele>698.53</ele>
        <time>2018-09-09T09:13:11Z</time>
      </trkpt>
      <trkpt lat="47.03714" lon="6.22707">
        <ele>697.09</ele>
        <time>2018-09-09T09:13:17Z</time>
      </trkpt>
      <trkpt lat="47.03709" lon="6.22711">
        <ele>697.09</ele>
        <time>2018-09-09T09:13:18Z</time>
      </trkpt>
      <trkpt lat="47.03637" lon="6.22756">
        <ele>693.73</ele>
        <time>2018-09-09T09:13:31Z</time>
      </trkpt>
      <trkpt lat="47.03561" lon="6.22801">
        <ele>690.36</ele>
        <time>2018-09-09T09:13:43Z</time>
      </trkpt>
      <trkpt lat="47.03517" lon="6.22845">
        <ele>686.52</ele>
        <time>2018-09-09T09:13:50Z</time>
      </trkpt>
      <trkpt lat="47.03503" lon="6.22857">
        <ele>685.56</ele>
        <time>2018-09-09T09:13:52Z</time>
      </trkpt>
      <trkpt lat="47.03466" lon="6.22889">
        <ele>682.19</ele>
        <time>2018-09-09T09:13:57Z</time>
      </trkpt>
      <trkpt lat="47.03398" lon="6.22947">
        <ele>678.83</ele>
        <time>2018-09-09T09:14:06Z</time>
      </trkpt>
      <trkpt lat="47.03359" lon="6.22979">
        <ele>676.42</ele>
        <time>2018-09-09T09:14:11Z</time>
      </trkpt>
      <trkpt lat="47.03287" lon="6.23044">
        <ele>678.83</ele>
        <time>2018-09-09T09:14:23Z</time>
      </trkpt>
      <trkpt lat="47.03262" lon="6.23071">
        <ele>680.75</ele>
        <time>2018-09-09T09:14:35Z</time>
      </trkpt>
      <trkpt lat="47.0323" lon="6.23111">
        <ele>681.71</ele>
        <time>2018-09-09T09:14:48Z</time>
      </trkpt>
      <trkpt lat="47.03194" lon="6.23154">
        <ele>683.15</ele>
        <time>2018-09-09T09:15:03Z</time>
      </trkpt>
      <trkpt lat="47.03165" lon="6.23186">
        <ele>685.56</ele>
        <time>2018-09-09T09:15:18Z</time>
      </trkpt>
      <trkpt lat="47.03136" lon="6.23211">
        <ele>687.96</ele>
        <time>2018-09-09T09:15:33Z</time>
      </trkpt>
      <trkpt lat="47.03113" lon="6.2323">
        <ele>689.88</ele>
        <time>2018-09-09T09:15:46Z</time>
      </trkpt>
      <trkpt lat="47.03082" lon="6.23237">
        <ele>691.81</ele>
        <time>2018-09-09T09:16:01Z</time>
      </trkpt>
      <trkpt lat="47.03055" lon="6.23214">
        <ele>693.73</ele>
        <time>2018-09-09T09:16:15Z</time>
      </trkpt>
      <trkpt lat="47.03037" lon="6.23209">
        <ele>695.17</ele>
        <time>2018-09-09T09:16:26Z</time>
      </trkpt>
      <trkpt lat="47.03034" lon="6.23218">
        <ele>696.13</ele>
        <time>2018-09-09T09:16:32Z</time>
      </trkpt>
      <trkpt lat="47.03033" lon="6.23219">
        <ele>696.13</ele>
        <time>2018-09-09T09:16:33Z</time>
      </trkpt>
      <trkpt lat="47.03032" lon="6.23221">
        <ele>696.13</ele>
        <time>2018-09-09T09:16:34Z</time>
      </trkpt>
      <trkpt lat="47.03031" lon="6.23222">
        <ele>696.61</ele>
        <time>2018-09-09T09:16:35Z</time>
      </trkpt>
      <trkpt lat="47.03029" lon="6.23223">
        <ele>696.61</ele>
        <time>2018-09-09T09:16:36Z</time>
      </trkpt>
      <trkpt lat="47.03028" lon="6.23224">
        <ele>697.09</ele>
        <time>2018-09-09T09:16:37Z</time>
      </trkpt>
      <trkpt lat="47.03027" lon="6.23224">
        <ele>697.57</ele>
        <time>2018-09-09T09:16:38Z</time>
      </trkpt>
      <trkpt lat="47.03025" lon="6.23224">
        <ele>698.05</ele>
        <time>2018-09-09T09:16:39Z</time>
      </trkpt>
      <trkpt lat="47.03024" lon="6.23224">
        <ele>698.53</ele>
        <time>2018-09-09T09:16:40Z</time>
      </trkpt>
      <trkpt lat="47.03022" lon="6.23224">
        <ele>698.53</ele>
        <time>2018-09-09T09:16:41Z</time>
      </trkpt>
      <trkpt lat="47.03021" lon="6.23224">
        <ele>699.02</ele>
        <time>2018-09-09T09:16:42Z</time>
      </trkpt>
      <trkpt lat="47.0302" lon="6.23224">
        <ele>699.5</ele>
        <time>2018-09-09T09:16:43Z</time>
      </trkpt>
      <trkpt lat="47.03018" lon="6.23224">
        <ele>699.98</ele>
        <time>2018-09-09T09:16:44Z</time>
      </trkpt>
      <trkpt lat="47.03017" lon="6.23225">
        <ele>699.98</ele>
        <time>2018-09-09T09:16:45Z</time>
      </trkpt>
      <trkpt lat="47.03015" lon="6.23224">
        <ele>700.94</ele>
        <time>2018-09-09T09:16:46Z</time>
      </trkpt>
      <trkpt lat="47.03014" lon="6.23224">
        <ele>701.9</ele>
        <time>2018-09-09T09:16:47Z</time>
      </trkpt>
      <trkpt lat="47.03012" lon="6.23224">
        <ele>702.38</ele>
        <time>2018-09-09T09:16:48Z</time>
      </trkpt>
      <trkpt lat="47.03009" lon="6.23224">
        <ele>703.34</ele>
        <time>2018-09-09T09:16:50Z</time>
      </trkpt>
      <trkpt lat="47.03008" lon="6.23224">
        <ele>703.82</ele>
        <time>2018-09-09T09:16:51Z</time>
      </trkpt>
      <trkpt lat="47.03006" lon="6.23224">
        <ele>703.82</ele>
        <time>2018-09-09T09:16:52Z</time>
      </trkpt>
      <trkpt lat="47.03005" lon="6.23224">
        <ele>704.78</ele>
        <time>2018-09-09T09:16:53Z</time>
      </trkpt>
      <trkpt lat="47.02991" lon="6.23229">
        <ele>707.67</ele>
        <time>2018-09-09T09:17:04Z</time>
      </trkpt>
      <trkpt lat="47.02975" lon="6.23236">
        <ele>709.59</ele>
        <time>2018-09-09T09:17:18Z</time>
      </trkpt>
      <trkpt lat="47.02971" lon="6.23234">
        <ele>710.07</ele>
        <time>2018-09-09T09:17:22Z</time>
      </trkpt>
      <trkpt lat="47.02964" lon="6.2323">
        <ele>711.03</ele>
        <time>2018-09-09T09:17:30Z</time>
      </trkpt>
      <trkpt lat="47.02962" lon="6.23228">
        <ele>711.03</ele>
        <time>2018-09-09T09:17:32Z</time>
      </trkpt>
      <trkpt lat="47.0296" lon="6.23226">
        <ele>711.51</ele>
        <time>2018-09-09T09:17:33Z</time>
      </trkpt>
      <trkpt lat="47.02959" lon="6.23225">
        <ele>711.51</ele>
        <time>2018-09-09T09:17:34Z</time>
      </trkpt>
      <trkpt lat="47.02957" lon="6.23224">
        <ele>711.51</ele>
        <time>2018-09-09T09:17:36Z</time>
      </trkpt>
      <trkpt lat="47.02955" lon="6.23223">
        <ele>711.99</ele>
        <time>2018-09-09T09:17:38Z</time>
      </trkpt>
      <trkpt lat="47.02954" lon="6.23222">
        <ele>711.99</ele>
        <time>2018-09-09T09:17:39Z</time>
      </trkpt>
      <trkpt lat="47.02942" lon="6.23208">
        <ele>713.92</ele>
        <time>2018-09-09T09:17:52Z</time>
      </trkpt>
      <trkpt lat="47.02937" lon="6.23202">
        <ele>714.88</ele>
        <time>2018-09-09T09:17:57Z</time>
      </trkpt>
      <trkpt lat="47.02935" lon="6.23201">
        <ele>715.36</ele>
        <time>2018-09-09T09:17:58Z</time>
      </trkpt>
      <trkpt lat="47.02934" lon="6.23198">
        <ele>715.36</ele>
        <time>2018-09-09T09:18:00Z</time>
      </trkpt>
      <trkpt lat="47.02934" lon="6.23196">
        <ele>715.84</ele>
        <time>2018-09-09T09:18:01Z</time>
      </trkpt>
      <trkpt lat="47.02933" lon="6.23194">
        <ele>715.84</ele>
        <time>2018-09-09T09:18:02Z</time>
      </trkpt>
      <trkpt lat="47.02932" lon="6.23193">
        <ele>715.84</ele>
        <time>2018-09-09T09:18:03Z</time>
      </trkpt>
      <trkpt lat="47.0293" lon="6.23191">
        <ele>716.32</ele>
        <time>2018-09-09T09:18:04Z</time>
      </trkpt>
      <trkpt lat="47.02929" lon="6.2319">
        <ele>716.32</ele>
        <time>2018-09-09T09:18:05Z</time>
      </trkpt>
      <trkpt lat="47.02928" lon="6.23189">
        <ele>716.8</ele>
        <time>2018-09-09T09:18:06Z</time>
      </trkpt>
      <trkpt lat="47.02927" lon="6.23188">
        <ele>716.8</ele>
        <time>2018-09-09T09:18:07Z</time>
      </trkpt>
      <trkpt lat="47.02926" lon="6.23187">
        <ele>716.8</ele>
        <time>2018-09-09T09:18:08Z</time>
      </trkpt>
      <trkpt lat="47.02913" lon="6.23171">
        <ele>719.68</ele>
        <time>2018-09-09T09:18:21Z</time>
      </trkpt>
      <trkpt lat="47.02908" lon="6.23161">
        <ele>721.61</ele>
        <time>2018-09-09T09:18:31Z</time>
      </trkpt>
      <trkpt lat="47.02905" lon="6.23157">
        <ele>722.09</ele>
        <time>2018-09-09T09:18:34Z</time>
      </trkpt>
      <trkpt lat="47.02901" lon="6.23152">
        <ele>723.05</ele>
        <time>2018-09-09T09:18:38Z</time>
      </trkpt>
      <trkpt lat="47.02899" lon="6.2315">
        <ele>723.05</ele>
        <time>2018-09-09T09:18:39Z</time>
      </trkpt>
      <trkpt lat="47.02898" lon="6.23149">
        <ele>723.05</ele>
        <time>2018-09-09T09:18:40Z</time>
      </trkpt>
      <trkpt lat="47.02882" lon="6.23136">
        <ele>725.45</ele>
        <time>2018-09-09T09:18:52Z</time>
      </trkpt>
      <trkpt lat="47.02868" lon="6.23127">
        <ele>728.34</ele>
        <time>2018-09-09T09:19:05Z</time>
      </trkpt>
      <trkpt lat="47.02857" lon="6.23119">
        <ele>730.26</ele>
        <time>2018-09-09T09:19:14Z</time>
      </trkpt>
      <trkpt lat="47.02856" lon="6.23118">
        <ele>730.26</ele>
        <time>2018-09-09T09:19:15Z</time>
      </trkpt>
      <trkpt lat="47.02855" lon="6.23117">
        <ele>730.74</ele>
        <time>2018-09-09T09:19:16Z</time>
      </trkpt>
      <trkpt lat="47.02854" lon="6.23116">
        <ele>730.74</ele>
        <time>2018-09-09T09:19:17Z</time>
      </trkpt>
      <trkpt lat="47.02853" lon="6.23115">
        <ele>731.22</ele>
        <time>2018-09-09T09:19:18Z</time>
      </trkpt>
      <trkpt lat="47.02851" lon="6.23114">
        <ele>731.22</ele>
        <time>2018-09-09T09:19:19Z</time>
      </trkpt>
      <trkpt lat="47.02836" lon="6.23106">
        <ele>733.62</ele>
        <time>2018-09-09T09:19:31Z</time>
      </trkpt>
      <trkpt lat="47.02825" lon="6.23102">
        <ele>735.55</ele>
        <time>2018-09-09T09:19:40Z</time>
      </trkpt>
      <trkpt lat="47.02824" lon="6.23102">
        <ele>735.55</ele>
        <time>2018-09-09T09:19:41Z</time>
      </trkpt>
      <trkpt lat="47.02823" lon="6.23101">
        <ele>736.03</ele>
        <time>2018-09-09T09:19:42Z</time>
      </trkpt>
      <trkpt lat="47.02807" lon="6.23095">
        <ele>738.43</ele>
        <time>2018-09-09T09:19:54Z</time>
      </trkpt>
      <trkpt lat="47.02785" lon="6.2308">
        <ele>739.87</ele>
        <time>2018-09-09T09:20:10Z</time>
      </trkpt>
      <trkpt lat="47.02763" lon="6.23063">
        <ele>741.79</ele>
        <time>2018-09-09T09:20:24Z</time>
      </trkpt>
      <trkpt lat="47.0276" lon="6.23061">
        <ele>741.79</ele>
        <time>2018-09-09T09:20:26Z</time>
      </trkpt>
      <trkpt lat="47.02759" lon="6.23059">
        <ele>741.79</ele>
        <time>2018-09-09T09:20:27Z</time>
      </trkpt>
      <trkpt lat="47.02734" lon="6.23032">
        <ele>744.2</ele>
        <time>2018-09-09T09:20:42Z</time>
      </trkpt>
      <trkpt lat="47.02715" lon="6.23006">
        <ele>746.12</ele>
        <time>2018-09-09T09:20:55Z</time>
      </trkpt>
      <trkpt lat="47.02713" lon="6.23006">
        <ele>746.12</ele>
        <time>2018-09-09T09:20:56Z</time>
      </trkpt>
      <trkpt lat="47.02711" lon="6.23008">
        <ele>746.12</ele>
        <time>2018-09-09T09:20:57Z</time>
      </trkpt>
      <trkpt lat="47.0271" lon="6.2301">
        <ele>746.6</ele>
        <time>2018-09-09T09:20:58Z</time>
      </trkpt>
      <trkpt lat="47.02709" lon="6.23012">
        <ele>747.08</ele>
        <time>2018-09-09T09:20:59Z</time>
      </trkpt>
      <trkpt lat="47.02709" lon="6.23015">
        <ele>747.08</ele>
        <time>2018-09-09T09:21:00Z</time>
      </trkpt>
      <trkpt lat="47.0271" lon="6.23018">
        <ele>747.56</ele>
        <time>2018-09-09T09:21:01Z</time>
      </trkpt>
      <trkpt lat="47.02711" lon="6.2302">
        <ele>747.56</ele>
        <time>2018-09-09T09:21:02Z</time>
      </trkpt>
      <trkpt lat="47.0273" lon="6.23056">
        <ele>749.49</ele>
        <time>2018-09-09T09:21:16Z</time>
      </trkpt>
      <trkpt lat="47.02758" lon="6.23091">
        <ele>751.89</ele>
        <time>2018-09-09T09:21:32Z</time>
      </trkpt>
      <trkpt lat="47.02781" lon="6.23122">
        <ele>753.81</ele>
        <time>2018-09-09T09:21:46Z</time>
      </trkpt>
      <trkpt lat="47.02797" lon="6.23149">
        <ele>755.73</ele>
        <time>2018-09-09T09:21:58Z</time>
      </trkpt>
      <trkpt lat="47.02817" lon="6.23182">
        <ele>757.66</ele>
        <time>2018-09-09T09:22:11Z</time>
      </trkpt>
      <trkpt lat="47.0284" lon="6.2323">
        <ele>759.58</ele>
        <time>2018-09-09T09:22:26Z</time>
      </trkpt>
      <trkpt lat="47.02847" lon="6.23253">
        <ele>759.1</ele>
        <time>2018-09-09T09:22:31Z</time>
      </trkpt>
      <trkpt lat="47.02874" lon="6.23301">
        <ele>760.54</ele>
        <time>2018-09-09T09:22:43Z</time>
      </trkpt>
      <trkpt lat="47.02901" lon="6.23359">
        <ele>760.54</ele>
        <time>2018-09-09T09:22:58Z</time>
      </trkpt>
      <trkpt lat="47.02902" lon="6.23365">
        <ele>760.06</ele>
        <time>2018-09-09T09:22:59Z</time>
      </trkpt>
      <trkpt lat="47.02904" lon="6.23371">
        <ele>760.06</ele>
        <time>2018-09-09T09:23:00Z</time>
      </trkpt>
      <trkpt lat="47.02916" lon="6.23407">
        <ele>761.5</ele>
        <time>2018-09-09T09:23:10Z</time>
      </trkpt>
      <trkpt lat="47.02929" lon="6.23444">
        <ele>762.94</ele>
        <time>2018-09-09T09:23:23Z</time>
      </trkpt>
      <trkpt lat="47.02948" lon="6.23487">
        <ele>765.35</ele>
        <time>2018-09-09T09:23:38Z</time>
      </trkpt>
      <trkpt lat="47.02968" lon="6.23521">
        <ele>766.31</ele>
        <time>2018-09-09T09:23:51Z</time>
      </trkpt>
      <trkpt lat="47.02993" lon="6.23543">
        <ele>768.23</ele>
        <time>2018-09-09T09:24:05Z</time>
      </trkpt>
      <trkpt lat="47.03017" lon="6.23559">
        <ele>770.63</ele>
        <time>2018-09-09T09:24:19Z</time>
      </trkpt>
      <trkpt lat="47.03038" lon="6.23575">
        <ele>772.56</ele>
        <time>2018-09-09T09:24:32Z</time>
      </trkpt>
      <trkpt lat="47.03043" lon="6.23579">
        <ele>773.04</ele>
        <time>2018-09-09T09:24:35Z</time>
      </trkpt>
      <trkpt lat="47.03045" lon="6.23578">
        <ele>773.52</ele>
        <time>2018-09-09T09:24:36Z</time>
      </trkpt>
      <trkpt lat="47.03046" lon="6.23579">
        <ele>773.52</ele>
        <time>2018-09-09T09:24:37Z</time>
      </trkpt>
      <trkpt lat="47.03047" lon="6.23579">
        <ele>773.52</ele>
        <time>2018-09-09T09:24:38Z</time>
      </trkpt>
      <trkpt lat="47.03049" lon="6.23581">
        <ele>773.52</ele>
        <time>2018-09-09T09:24:39Z</time>
      </trkpt>
      <trkpt lat="47.0305" lon="6.23583">
        <ele>774</ele>
        <time>2018-09-09T09:24:40Z</time>
      </trkpt>
      <trkpt lat="47.03052" lon="6.23585">
        <ele>774</ele>
        <time>2018-09-09T09:24:41Z</time>
      </trkpt>
      <trkpt lat="47.03053" lon="6.23588">
        <ele>774</ele>
        <time>2018-09-09T09:24:42Z</time>
      </trkpt>
      <trkpt lat="47.03054" lon="6.2359">
        <ele>774</ele>
        <time>2018-09-09T09:24:43Z</time>
      </trkpt>
      <trkpt lat="47.03055" lon="6.23593">
        <ele>774</ele>
        <time>2018-09-09T09:24:44Z</time>
      </trkpt>
      <trkpt lat="47.03056" lon="6.23596">
        <ele>774.48</ele>
        <time>2018-09-09T09:24:45Z</time>
      </trkpt>
      <trkpt lat="47.03057" lon="6.23599">
        <ele>774.48</ele>
        <time>2018-09-09T09:24:46Z</time>
      </trkpt>
      <trkpt lat="47.03058" lon="6.23601">
        <ele>774.48</ele>
        <time>2018-09-09T09:24:47Z</time>
      </trkpt>
      <trkpt lat="47.0306" lon="6.23604">
        <ele>774.48</ele>
        <time>2018-09-09T09:24:48Z</time>
      </trkpt>
      <trkpt lat="47.03061" lon="6.23607">
        <ele>774.48</ele>
        <time>2018-09-09T09:24:49Z</time>
      </trkpt>
      <trkpt lat="47.03062" lon="6.2361">
        <ele>774.96</ele>
        <time>2018-09-09T09:24:50Z</time>
      </trkpt>
      <trkpt lat="47.03063" lon="6.23612">
        <ele>774.96</ele>
        <time>2018-09-09T09:24:51Z</time>
      </trkpt>
      <trkpt lat="47.03065" lon="6.23615">
        <ele>775.44</ele>
        <time>2018-09-09T09:24:52Z</time>
      </trkpt>
      <trkpt lat="47.0308" lon="6.23654">
        <ele>776.4</ele>
        <time>2018-09-09T09:25:05Z</time>
      </trkpt>
      <trkpt lat="47.03081" lon="6.23657">
        <ele>776.4</ele>
        <time>2018-09-09T09:25:06Z</time>
      </trkpt>
      <trkpt lat="47.03082" lon="6.2366">
        <ele>776.4</ele>
        <time>2018-09-09T09:25:07Z</time>
      </trkpt>
      <trkpt lat="47.03084" lon="6.23662">
        <ele>776.4</ele>
        <time>2018-09-09T09:25:08Z</time>
      </trkpt>
      <trkpt lat="47.03085" lon="6.23665">
        <ele>776.4</ele>
        <time>2018-09-09T09:25:09Z</time>
      </trkpt>
      <trkpt lat="47.03089" lon="6.23674">
        <ele>776.88</ele>
        <time>2018-09-09T09:25:12Z</time>
      </trkpt>
      <trkpt lat="47.03102" lon="6.23727">
        <ele>775.92</ele>
        <time>2018-09-09T09:25:24Z</time>
      </trkpt>
      <trkpt lat="47.03105" lon="6.23744">
        <ele>774.96</ele>
        <time>2018-09-09T09:25:27Z</time>
      </trkpt>
      <trkpt lat="47.03107" lon="6.2375">
        <ele>774.48</ele>
        <time>2018-09-09T09:25:28Z</time>
      </trkpt>
      <trkpt lat="47.03108" lon="6.23755">
        <ele>774.96</ele>
        <time>2018-09-09T09:25:29Z</time>
      </trkpt>
      <trkpt lat="47.0311" lon="6.23761">
        <ele>774.48</ele>
        <time>2018-09-09T09:25:30Z</time>
      </trkpt>
      <trkpt lat="47.03111" lon="6.23767">
        <ele>774.48</ele>
        <time>2018-09-09T09:25:31Z</time>
      </trkpt>
      <trkpt lat="47.03112" lon="6.23773">
        <ele>774</ele>
        <time>2018-09-09T09:25:32Z</time>
      </trkpt>
      <trkpt lat="47.03129" lon="6.23848">
        <ele>771.11</ele>
        <time>2018-09-09T09:25:44Z</time>
      </trkpt>
      <trkpt lat="47.03134" lon="6.23874">
        <ele>770.63</ele>
        <time>2018-09-09T09:25:52Z</time>
      </trkpt>
      <trkpt lat="47.03133" lon="6.23875">
        <ele>771.11</ele>
        <time>2018-09-09T09:26:01Z</time>
      </trkpt>
      <trkpt lat="47.03134" lon="6.23878">
        <ele>770.63</ele>
        <time>2018-09-09T09:26:11Z</time>
      </trkpt>
      <trkpt lat="47.03135" lon="6.23879">
        <ele>770.63</ele>
        <time>2018-09-09T09:26:14Z</time>
      </trkpt>
      <trkpt lat="47.03134" lon="6.23882">
        <ele>770.63</ele>
        <time>2018-09-09T09:26:16Z</time>
      </trkpt>
      <trkpt lat="47.03148" lon="6.23924">
        <ele>768.23</ele>
        <time>2018-09-09T09:26:27Z</time>
      </trkpt>
      <trkpt lat="47.03175" lon="6.23987">
        <ele>766.31</ele>
        <time>2018-09-09T09:26:40Z</time>
      </trkpt>
      <trkpt lat="47.03181" lon="6.23999">
        <ele>765.83</ele>
        <time>2018-09-09T09:26:44Z</time>
      </trkpt>
      <trkpt lat="47.03182" lon="6.24002">
        <ele>765.35</ele>
        <time>2018-09-09T09:26:45Z</time>
      </trkpt>
      <trkpt lat="47.03184" lon="6.24004">
        <ele>765.35</ele>
        <time>2018-09-09T09:26:46Z</time>
      </trkpt>
      <trkpt lat="47.03198" lon="6.24052">
        <ele>763.42</ele>
        <time>2018-09-09T09:26:58Z</time>
      </trkpt>
      <trkpt lat="47.03198" lon="6.24056">
        <ele>763.42</ele>
        <time>2018-09-09T09:27:07Z</time>
      </trkpt>
      <trkpt lat="47.03198" lon="6.24058">
        <ele>762.94</ele>
        <time>2018-09-09T09:27:18Z</time>
      </trkpt>
      <trkpt lat="47.03199" lon="6.2406">
        <ele>762.94</ele>
        <time>2018-09-09T09:27:20Z</time>
      </trkpt>
      <trkpt lat="47.032" lon="6.24061">
        <ele>762.94</ele>
        <time>2018-09-09T09:27:21Z</time>
      </trkpt>
      <trkpt lat="47.03206" lon="6.24074">
        <ele>761.98</ele>
        <time>2018-09-09T09:27:25Z</time>
      </trkpt>
      <trkpt lat="47.03219" lon="6.24114">
        <ele>758.62</ele>
        <time>2018-09-09T09:27:31Z</time>
      </trkpt>
      <trkpt lat="47.03223" lon="6.24122">
        <ele>756.69</ele>
        <time>2018-09-09T09:27:32Z</time>
      </trkpt>
      <trkpt lat="47.03242" lon="6.2416">
        <ele>753.33</ele>
        <time>2018-09-09T09:27:36Z</time>
      </trkpt>
      <trkpt lat="47.03268" lon="6.24239">
        <ele>754.77</ele>
        <time>2018-09-09T09:27:46Z</time>
      </trkpt>
      <trkpt lat="47.03279" lon="6.24285">
        <ele>757.18</ele>
        <time>2018-09-09T09:27:59Z</time>
      </trkpt>
      <trkpt lat="47.03286" lon="6.24326">
        <ele>758.14</ele>
        <time>2018-09-09T09:28:11Z</time>
      </trkpt>
      <trkpt lat="47.03289" lon="6.24365">
        <ele>761.02</ele>
        <time>2018-09-09T09:28:26Z</time>
      </trkpt>
      <trkpt lat="47.03288" lon="6.24379">
        <ele>761.98</ele>
        <time>2018-09-09T09:28:32Z</time>
      </trkpt>
      <trkpt lat="47.03287" lon="6.24381">
        <ele>762.46</ele>
        <time>2018-09-09T09:28:33Z</time>
      </trkpt>
      <trkpt lat="47.03274" lon="6.24409">
        <ele>764.87</ele>
        <time>2018-09-09T09:28:48Z</time>
      </trkpt>
      <trkpt lat="47.0326" lon="6.24444">
        <ele>767.75</ele>
        <time>2018-09-09T09:29:06Z</time>
      </trkpt>
      <trkpt lat="47.03246" lon="6.24471">
        <ele>770.63</ele>
        <time>2018-09-09T09:29:22Z</time>
      </trkpt>
      <trkpt lat="47.03244" lon="6.24474">
        <ele>771.11</ele>
        <time>2018-09-09T09:29:24Z</time>
      </trkpt>
      <trkpt lat="47.03243" lon="6.24476">
        <ele>771.11</ele>
        <time>2018-09-09T09:29:25Z</time>
      </trkpt>
      <trkpt lat="47.03242" lon="6.24477">
        <ele>771.6</ele>
        <time>2018-09-09T09:29:26Z</time>
      </trkpt>
      <trkpt lat="47.03232" lon="6.24507">
        <ele>774</ele>
        <time>2018-09-09T09:29:41Z</time>
      </trkpt>
      <trkpt lat="47.03225" lon="6.24528">
        <ele>776.4</ele>
        <time>2018-09-09T09:29:54Z</time>
      </trkpt>
      <trkpt lat="47.03225" lon="6.24529">
        <ele>776.88</ele>
        <time>2018-09-09T09:29:55Z</time>
      </trkpt>
      <trkpt lat="47.03225" lon="6.24531">
        <ele>776.88</ele>
        <time>2018-09-09T09:29:56Z</time>
      </trkpt>
      <trkpt lat="47.03225" lon="6.24533">
        <ele>776.88</ele>
        <time>2018-09-09T09:29:57Z</time>
      </trkpt>
      <trkpt lat="47.03224" lon="6.24535">
        <ele>777.36</ele>
        <time>2018-09-09T09:29:58Z</time>
      </trkpt>
      <trkpt lat="47.03224" lon="6.24537">
        <ele>777.84</ele>
        <time>2018-09-09T09:29:59Z</time>
      </trkpt>
      <trkpt lat="47.03223" lon="6.2454">
        <ele>777.84</ele>
        <time>2018-09-09T09:30:00Z</time>
      </trkpt>
      <trkpt lat="47.03222" lon="6.24542">
        <ele>777.84</ele>
        <time>2018-09-09T09:30:01Z</time>
      </trkpt>
      <trkpt lat="47.03222" lon="6.24545">
        <ele>777.84</ele>
        <time>2018-09-09T09:30:02Z</time>
      </trkpt>
      <trkpt lat="47.03219" lon="6.24556">
        <ele>778.32</ele>
        <time>2018-09-09T09:30:06Z</time>
      </trkpt>
      <trkpt lat="47.03217" lon="6.24558">
        <ele>778.32</ele>
        <time>2018-09-09T09:30:07Z</time>
      </trkpt>
      <trkpt lat="47.03216" lon="6.24559">
        <ele>778.32</ele>
        <time>2018-09-09T09:30:08Z</time>
      </trkpt>
      <trkpt lat="47.03214" lon="6.24562">
        <ele>778.32</ele>
        <time>2018-09-09T09:30:09Z</time>
      </trkpt>
      <trkpt lat="47.03212" lon="6.24564">
        <ele>778.32</ele>
        <time>2018-09-09T09:30:10Z</time>
      </trkpt>
      <trkpt lat="47.03196" lon="6.24596">
        <ele>778.81</ele>
        <time>2018-09-09T09:30:22Z</time>
      </trkpt>
      <trkpt lat="47.03188" lon="6.24623">
        <ele>780.73</ele>
        <time>2018-09-09T09:30:35Z</time>
      </trkpt>
      <trkpt lat="47.03175" lon="6.24661">
        <ele>782.17</ele>
        <time>2018-09-09T09:30:49Z</time>
      </trkpt>
      <trkpt lat="47.03174" lon="6.24664">
        <ele>782.17</ele>
        <time>2018-09-09T09:30:50Z</time>
      </trkpt>
      <trkpt lat="47.0317" lon="6.24673">
        <ele>782.65</ele>
        <time>2018-09-09T09:30:54Z</time>
      </trkpt>
      <trkpt lat="47.0317" lon="6.24675">
        <ele>782.65</ele>
        <time>2018-09-09T09:30:55Z</time>
      </trkpt>
      <trkpt lat="47.03169" lon="6.24677">
        <ele>783.13</ele>
        <time>2018-09-09T09:30:56Z</time>
      </trkpt>
      <trkpt lat="47.03168" lon="6.24679">
        <ele>783.13</ele>
        <time>2018-09-09T09:30:57Z</time>
      </trkpt>
      <trkpt lat="47.03167" lon="6.24682">
        <ele>783.61</ele>
        <time>2018-09-09T09:30:58Z</time>
      </trkpt>
      <trkpt lat="47.03166" lon="6.24685">
        <ele>783.61</ele>
        <time>2018-09-09T09:30:59Z</time>
      </trkpt>
      <trkpt lat="47.03165" lon="6.24687">
        <ele>783.61</ele>
        <time>2018-09-09T09:31:00Z</time>
      </trkpt>
      <trkpt lat="47.03164" lon="6.24689">
        <ele>784.09</ele>
        <time>2018-09-09T09:31:01Z</time>
      </trkpt>
      <trkpt lat="47.03164" lon="6.24691">
        <ele>784.09</ele>
        <time>2018-09-09T09:31:02Z</time>
      </trkpt>
      <trkpt lat="47.03163" lon="6.24693">
        <ele>784.09</ele>
        <time>2018-09-09T09:31:03Z</time>
      </trkpt>
      <trkpt lat="47.03162" lon="6.24695">
        <ele>784.57</ele>
        <time>2018-09-09T09:31:04Z</time>
      </trkpt>
      <trkpt lat="47.03162" lon="6.24697">
        <ele>784.57</ele>
        <time>2018-09-09T09:31:05Z</time>
      </trkpt>
      <trkpt lat="47.03161" lon="6.24699">
        <ele>785.05</ele>
        <time>2018-09-09T09:31:06Z</time>
      </trkpt>
      <trkpt lat="47.03158" lon="6.24717">
        <ele>786.02</ele>
        <time>2018-09-09T09:31:14Z</time>
      </trkpt>
      <trkpt lat="47.03157" lon="6.24718">
        <ele>786.5</ele>
        <time>2018-09-09T09:31:15Z</time>
      </trkpt>
      <trkpt lat="47.03157" lon="6.2472">
        <ele>786.5</ele>
        <time>2018-09-09T09:31:16Z</time>
      </trkpt>
      <trkpt lat="47.03156" lon="6.24722">
        <ele>786.5</ele>
        <time>2018-09-09T09:31:17Z</time>
      </trkpt>
      <trkpt lat="47.03156" lon="6.24724">
        <ele>786.98</ele>
        <time>2018-09-09T09:31:18Z</time>
      </trkpt>
      <trkpt lat="47.03156" lon="6.24726">
        <ele>786.98</ele>
        <time>2018-09-09T09:31:19Z</time>
      </trkpt>
      <trkpt lat="47.03156" lon="6.24728">
        <ele>787.46</ele>
        <time>2018-09-09T09:31:20Z</time>
      </trkpt>
      <trkpt lat="47.03155" lon="6.2473">
        <ele>787.46</ele>
        <time>2018-09-09T09:31:21Z</time>
      </trkpt>
      <trkpt lat="47.03155" lon="6.24732">
        <ele>787.46</ele>
        <time>2018-09-09T09:31:22Z</time>
      </trkpt>
      <trkpt lat="47.03154" lon="6.24734">
        <ele>787.94</ele>
        <time>2018-09-09T09:31:23Z</time>
      </trkpt>
      <trkpt lat="47.03154" lon="6.24736">
        <ele>787.94</ele>
        <time>2018-09-09T09:31:24Z</time>
      </trkpt>
      <trkpt lat="47.03153" lon="6.24738">
        <ele>787.94</ele>
        <time>2018-09-09T09:31:25Z</time>
      </trkpt>
      <trkpt lat="47.03153" lon="6.24739">
        <ele>788.42</ele>
        <time>2018-09-09T09:31:26Z</time>
      </trkpt>
      <trkpt lat="47.0315" lon="6.24746">
        <ele>789.38</ele>
        <time>2018-09-09T09:31:37Z</time>
      </trkpt>
      <trkpt lat="47.03148" lon="6.24748">
        <ele>789.86</ele>
        <time>2018-09-09T09:31:46Z</time>
      </trkpt>
      <trkpt lat="47.03147" lon="6.2475">
        <ele>789.86</ele>
        <time>2018-09-09T09:31:47Z</time>
      </trkpt>
      <trkpt lat="47.03145" lon="6.24753">
        <ele>790.34</ele>
        <time>2018-09-09T09:31:49Z</time>
      </trkpt>
      <trkpt lat="47.03145" lon="6.24754">
        <ele>790.82</ele>
        <time>2018-09-09T09:31:50Z</time>
      </trkpt>
      <trkpt lat="47.03144" lon="6.24756">
        <ele>790.34</ele>
        <time>2018-09-09T09:31:51Z</time>
      </trkpt>
      <trkpt lat="47.03142" lon="6.24758">
        <ele>790.82</ele>
        <time>2018-09-09T09:31:52Z</time>
      </trkpt>
      <trkpt lat="47.03142" lon="6.24759">
        <ele>790.82</ele>
        <time>2018-09-09T09:31:53Z</time>
      </trkpt>
      <trkpt lat="47.03141" lon="6.24761">
        <ele>791.3</ele>
        <time>2018-09-09T09:31:54Z</time>
      </trkpt>
      <trkpt lat="47.0314" lon="6.24763">
        <ele>791.3</ele>
        <time>2018-09-09T09:31:55Z</time>
      </trkpt>
      <trkpt lat="47.03139" lon="6.24764">
        <ele>791.3</ele>
        <time>2018-09-09T09:31:56Z</time>
      </trkpt>
      <trkpt lat="47.03138" lon="6.24765">
        <ele>791.78</ele>
        <time>2018-09-09T09:31:57Z</time>
      </trkpt>
      <trkpt lat="47.03136" lon="6.24768">
        <ele>791.78</ele>
        <time>2018-09-09T09:31:59Z</time>
      </trkpt>
      <trkpt lat="47.03135" lon="6.2477">
        <ele>791.78</ele>
        <time>2018-09-09T09:32:00Z</time>
      </trkpt>
      <trkpt lat="47.03127" lon="6.2479">
        <ele>795.15</ele>
        <time>2018-09-09T09:32:12Z</time>
      </trkpt>
      <trkpt lat="47.03124" lon="6.24796">
        <ele>796.11</ele>
        <time>2018-09-09T09:32:16Z</time>
      </trkpt>
      <trkpt lat="47.03123" lon="6.24797">
        <ele>796.11</ele>
        <time>2018-09-09T09:32:17Z</time>
      </trkpt>
      <trkpt lat="47.03123" lon="6.24798">
        <ele>796.11</ele>
        <time>2018-09-09T09:32:18Z</time>
      </trkpt>
      <trkpt lat="47.03122" lon="6.248">
        <ele>796.59</ele>
        <time>2018-09-09T09:32:19Z</time>
      </trkpt>
      <trkpt lat="47.03121" lon="6.24802">
        <ele>796.59</ele>
        <time>2018-09-09T09:32:20Z</time>
      </trkpt>
      <trkpt lat="47.03121" lon="6.24804">
        <ele>796.59</ele>
        <time>2018-09-09T09:32:21Z</time>
      </trkpt>
      <trkpt lat="47.0311" lon="6.24822">
        <ele>799.95</ele>
        <time>2018-09-09T09:32:34Z</time>
      </trkpt>
      <trkpt lat="47.03097" lon="6.24843">
        <ele>802.84</ele>
        <time>2018-09-09T09:32:50Z</time>
      </trkpt>
      <trkpt lat="47.03095" lon="6.24844">
        <ele>803.32</ele>
        <time>2018-09-09T09:32:52Z</time>
      </trkpt>
      <trkpt lat="47.03086" lon="6.24848">
        <ele>804.28</ele>
        <time>2018-09-09T09:33:00Z</time>
      </trkpt>
      <trkpt lat="47.03084" lon="6.24847">
        <ele>803.8</ele>
        <time>2018-09-09T09:33:01Z</time>
      </trkpt>
      <trkpt lat="47.03077" lon="6.24838">
        <ele>803.32</ele>
        <time>2018-09-09T09:33:06Z</time>
      </trkpt>
      <trkpt lat="47.03066" lon="6.24832">
        <ele>801.88</ele>
        <time>2018-09-09T09:33:09Z</time>
      </trkpt>
      <trkpt lat="47.0306" lon="6.24832">
        <ele>801.88</ele>
        <time>2018-09-09T09:33:10Z</time>
      </trkpt>
      <trkpt lat="47.03055" lon="6.24833">
        <ele>801.4</ele>
        <time>2018-09-09T09:33:11Z</time>
      </trkpt>
      <trkpt lat="47.0305" lon="6.24834">
        <ele>801.4</ele>
        <time>2018-09-09T09:33:12Z</time>
      </trkpt>
      <trkpt lat="47.03046" lon="6.24835">
        <ele>801.88</ele>
        <time>2018-09-09T09:33:13Z</time>
      </trkpt>
      <trkpt lat="47.03038" lon="6.24838">
        <ele>802.84</ele>
        <time>2018-09-09T09:33:16Z</time>
      </trkpt>
      <trkpt lat="47.03014" lon="6.24853">
        <ele>805.24</ele>
        <time>2018-09-09T09:33:30Z</time>
      </trkpt>
      <trkpt lat="47.02995" lon="6.24872">
        <ele>807.16</ele>
        <time>2018-09-09T09:33:45Z</time>
      </trkpt>
      <trkpt lat="47.02979" lon="6.24892">
        <ele>810.53</ele>
        <time>2018-09-09T09:34:01Z</time>
      </trkpt>
      <trkpt lat="47.02966" lon="6.24908">
        <ele>813.41</ele>
        <time>2018-09-09T09:34:15Z</time>
      </trkpt>
      <trkpt lat="47.02965" lon="6.24908">
        <ele>813.41</ele>
        <time>2018-09-09T09:34:16Z</time>
      </trkpt>
      <trkpt lat="47.02964" lon="6.24909">
        <ele>813.89</ele>
        <time>2018-09-09T09:34:17Z</time>
      </trkpt>
      <trkpt lat="47.02955" lon="6.24914">
        <ele>817.26</ele>
        <time>2018-09-09T09:34:28Z</time>
      </trkpt>
      <trkpt lat="47.02953" lon="6.24914">
        <ele>818.7</ele>
        <time>2018-09-09T09:34:31Z</time>
      </trkpt>
      <trkpt lat="47.02948" lon="6.24919">
        <ele>819.66</ele>
        <time>2018-09-09T09:34:45Z</time>
      </trkpt>
      <trkpt lat="47.02946" lon="6.24921">
        <ele>821.1</ele>
        <time>2018-09-09T09:35:02Z</time>
      </trkpt>
      <trkpt lat="47.02938" lon="6.24924">
        <ele>823.51</ele>
        <time>2018-09-09T09:35:13Z</time>
      </trkpt>
      <trkpt lat="47.02932" lon="6.24931">
        <ele>825.91</ele>
        <time>2018-09-09T09:35:25Z</time>
      </trkpt>
      <trkpt lat="47.02924" lon="6.24935">
        <ele>827.83</ele>
        <time>2018-09-09T09:35:38Z</time>
      </trkpt>
      <trkpt lat="47.02918" lon="6.24939">
        <ele>830.72</ele>
        <time>2018-09-09T09:35:51Z</time>
      </trkpt>
      <trkpt lat="47.02912" lon="6.24943">
        <ele>832.64</ele>
        <time>2018-09-09T09:36:03Z</time>
      </trkpt>
      <trkpt lat="47.02905" lon="6.24953">
        <ele>834.56</ele>
        <time>2018-09-09T09:36:15Z</time>
      </trkpt>
      <trkpt lat="47.02898" lon="6.24964">
        <ele>836.96</ele>
        <time>2018-09-09T09:36:28Z</time>
      </trkpt>
      <trkpt lat="47.02894" lon="6.24973">
        <ele>838.89</ele>
        <time>2018-09-09T09:36:40Z</time>
      </trkpt>
      <trkpt lat="47.02891" lon="6.24984">
        <ele>841.29</ele>
        <time>2018-09-09T09:36:52Z</time>
      </trkpt>
      <trkpt lat="47.02885" lon="6.24996">
        <ele>843.21</ele>
        <time>2018-09-09T09:37:06Z</time>
      </trkpt>
      <trkpt lat="47.0288" lon="6.25002">
        <ele>844.66</ele>
        <time>2018-09-09T09:37:13Z</time>
      </trkpt>
      <trkpt lat="47.02879" lon="6.25004">
        <ele>844.66</ele>
        <time>2018-09-09T09:37:14Z</time>
      </trkpt>
      <trkpt lat="47.02879" lon="6.25011">
        <ele>845.62</ele>
        <time>2018-09-09T09:37:24Z</time>
      </trkpt>
      <trkpt lat="47.02869" lon="6.25023">
        <ele>847.06</ele>
        <time>2018-09-09T09:37:36Z</time>
      </trkpt>
      <trkpt lat="47.02861" lon="6.25034">
        <ele>848.5</ele>
        <time>2018-09-09T09:37:44Z</time>
      </trkpt>
      <trkpt lat="47.0285" lon="6.25051">
        <ele>850.42</ele>
        <time>2018-09-09T09:37:57Z</time>
      </trkpt>
      <trkpt lat="47.02848" lon="6.25054">
        <ele>851.38</ele>
        <time>2018-09-09T09:38:00Z</time>
      </trkpt>
      <trkpt lat="47.02846" lon="6.25059">
        <ele>851.38</ele>
        <time>2018-09-09T09:38:02Z</time>
      </trkpt>
      <trkpt lat="47.02844" lon="6.25079">
        <ele>852.35</ele>
        <time>2018-09-09T09:38:10Z</time>
      </trkpt>
      <trkpt lat="47.02831" lon="6.25108">
        <ele>854.75</ele>
        <time>2018-09-09T09:38:23Z</time>
      </trkpt>
      <trkpt lat="47.02827" lon="6.25115">
        <ele>855.23</ele>
        <time>2018-09-09T09:38:26Z</time>
      </trkpt>
      <trkpt lat="47.02803" lon="6.25157">
        <ele>856.19</ele>
        <time>2018-09-09T09:38:42Z</time>
      </trkpt>
      <trkpt lat="47.02792" lon="6.2521">
        <ele>857.63</ele>
        <time>2018-09-09T09:38:57Z</time>
      </trkpt>
      <trkpt lat="47.0278" lon="6.25245">
        <ele>859.08</ele>
        <time>2018-09-09T09:39:10Z</time>
      </trkpt>
      <trkpt lat="47.02774" lon="6.25256">
        <ele>858.59</ele>
        <time>2018-09-09T09:39:14Z</time>
      </trkpt>
      <trkpt lat="47.02772" lon="6.25271">
        <ele>858.11</ele>
        <time>2018-09-09T09:39:18Z</time>
      </trkpt>
      <trkpt lat="47.02755" lon="6.25305">
        <ele>857.15</ele>
        <time>2018-09-09T09:39:27Z</time>
      </trkpt>
      <trkpt lat="47.02753" lon="6.2531">
        <ele>857.15</ele>
        <time>2018-09-09T09:39:28Z</time>
      </trkpt>
      <trkpt lat="47.02747" lon="6.25346">
        <ele>857.15</ele>
        <time>2018-09-09T09:39:36Z</time>
      </trkpt>
      <trkpt lat="47.0274" lon="6.25388">
        <ele>855.23</ele>
        <time>2018-09-09T09:39:45Z</time>
      </trkpt>
      <trkpt lat="47.02736" lon="6.25389">
        <ele>855.23</ele>
        <time>2018-09-09T09:39:46Z</time>
      </trkpt>
      <trkpt lat="47.02732" lon="6.2539">
        <ele>855.23</ele>
        <time>2018-09-09T09:39:47Z</time>
      </trkpt>
      <trkpt lat="47.02729" lon="6.2539">
        <ele>855.23</ele>
        <time>2018-09-09T09:39:48Z</time>
      </trkpt>
      <trkpt lat="47.02726" lon="6.25391">
        <ele>854.75</ele>
        <time>2018-09-09T09:39:49Z</time>
      </trkpt>
      <trkpt lat="47.02722" lon="6.25392">
        <ele>855.23</ele>
        <time>2018-09-09T09:39:50Z</time>
      </trkpt>
      <trkpt lat="47.02713" lon="6.25395">
        <ele>855.71</ele>
        <time>2018-09-09T09:39:53Z</time>
      </trkpt>
      <trkpt lat="47.0271" lon="6.25396">
        <ele>856.19</ele>
        <time>2018-09-09T09:39:54Z</time>
      </trkpt>
      <trkpt lat="47.02708" lon="6.25397">
        <ele>856.19</ele>
        <time>2018-09-09T09:39:55Z</time>
      </trkpt>
      <trkpt lat="47.02706" lon="6.25398">
        <ele>855.71</ele>
        <time>2018-09-09T09:39:56Z</time>
      </trkpt>
      <trkpt lat="47.02703" lon="6.254">
        <ele>856.19</ele>
        <time>2018-09-09T09:39:57Z</time>
      </trkpt>
      <trkpt lat="47.02699" lon="6.254">
        <ele>855.71</ele>
        <time>2018-09-09T09:39:58Z</time>
      </trkpt>
      <trkpt lat="47.02685" lon="6.25405">
        <ele>854.75</ele>
        <time>2018-09-09T09:40:02Z</time>
      </trkpt>
      <trkpt lat="47.02682" lon="6.25409">
        <ele>854.27</ele>
        <time>2018-09-09T09:40:03Z</time>
      </trkpt>
      <trkpt lat="47.02673" lon="6.25416">
        <ele>853.31</ele>
        <time>2018-09-09T09:40:05Z</time>
      </trkpt>
      <trkpt lat="47.02663" lon="6.25427">
        <ele>854.27</ele>
        <time>2018-09-09T09:40:08Z</time>
      </trkpt>
      <trkpt lat="47.02662" lon="6.25431">
        <ele>854.75</ele>
        <time>2018-09-09T09:40:09Z</time>
      </trkpt>
      <trkpt lat="47.02661" lon="6.25437">
        <ele>854.75</ele>
        <time>2018-09-09T09:40:10Z</time>
      </trkpt>
      <trkpt lat="47.0266" lon="6.25442">
        <ele>854.75</ele>
        <time>2018-09-09T09:40:11Z</time>
      </trkpt>
      <trkpt lat="47.02658" lon="6.25448">
        <ele>854.75</ele>
        <time>2018-09-09T09:40:12Z</time>
      </trkpt>
      <trkpt lat="47.02634" lon="6.25507">
        <ele>855.71</ele>
        <time>2018-09-09T09:40:24Z</time>
      </trkpt>
      <trkpt lat="47.02621" lon="6.25536">
        <ele>855.71</ele>
        <time>2018-09-09T09:40:30Z</time>
      </trkpt>
      <trkpt lat="47.02615" lon="6.25548">
        <ele>855.23</ele>
        <time>2018-09-09T09:40:32Z</time>
      </trkpt>
      <trkpt lat="47.02612" lon="6.25552">
        <ele>855.23</ele>
        <time>2018-09-09T09:40:33Z</time>
      </trkpt>
      <trkpt lat="47.0261" lon="6.25556">
        <ele>855.23</ele>
        <time>2018-09-09T09:40:34Z</time>
      </trkpt>
      <trkpt lat="47.02609" lon="6.25559">
        <ele>855.23</ele>
        <time>2018-09-09T09:40:35Z</time>
      </trkpt>
      <trkpt lat="47.02609" lon="6.25563">
        <ele>854.75</ele>
        <time>2018-09-09T09:40:36Z</time>
      </trkpt>
      <trkpt lat="47.0261" lon="6.25567">
        <ele>854.27</ele>
        <time>2018-09-09T09:40:37Z</time>
      </trkpt>
      <trkpt lat="47.02611" lon="6.25572">
        <ele>852.83</ele>
        <time>2018-09-09T09:40:38Z</time>
      </trkpt>
      <trkpt lat="47.02612" lon="6.25578">
        <ele>851.38</ele>
        <time>2018-09-09T09:40:39Z</time>
      </trkpt>
      <trkpt lat="47.02612" lon="6.25584">
        <ele>850.42</ele>
        <time>2018-09-09T09:40:40Z</time>
      </trkpt>
      <trkpt lat="47.0261" lon="6.25589">
        <ele>849.46</ele>
        <time>2018-09-09T09:40:41Z</time>
      </trkpt>
      <trkpt lat="47.02607" lon="6.25593">
        <ele>848.98</ele>
        <time>2018-09-09T09:40:42Z</time>
      </trkpt>
      <trkpt lat="47.02604" lon="6.25595">
        <ele>848.5</ele>
        <time>2018-09-09T09:40:43Z</time>
      </trkpt>
      <trkpt lat="47.02602" lon="6.25598">
        <ele>848.02</ele>
        <time>2018-09-09T09:40:44Z</time>
      </trkpt>
      <trkpt lat="47.026" lon="6.25601">
        <ele>847.06</ele>
        <time>2018-09-09T09:40:45Z</time>
      </trkpt>
      <trkpt lat="47.02598" lon="6.25603">
        <ele>846.1</ele>
        <time>2018-09-09T09:40:46Z</time>
      </trkpt>
      <trkpt lat="47.02594" lon="6.25607">
        <ele>845.14</ele>
        <time>2018-09-09T09:40:48Z</time>
      </trkpt>
      <trkpt lat="47.02593" lon="6.2561">
        <ele>844.66</ele>
        <time>2018-09-09T09:40:49Z</time>
      </trkpt>
      <trkpt lat="47.02593" lon="6.25613">
        <ele>844.66</ele>
        <time>2018-09-09T09:40:50Z</time>
      </trkpt>
      <trkpt lat="47.02592" lon="6.25616">
        <ele>843.21</ele>
        <time>2018-09-09T09:40:51Z</time>
      </trkpt>
      <trkpt lat="47.02591" lon="6.2562">
        <ele>842.73</ele>
        <time>2018-09-09T09:40:52Z</time>
      </trkpt>
      <trkpt lat="47.02591" lon="6.25623">
        <ele>842.25</ele>
        <time>2018-09-09T09:40:53Z</time>
      </trkpt>
      <trkpt lat="47.02591" lon="6.25626">
        <ele>841.77</ele>
        <time>2018-09-09T09:40:54Z</time>
      </trkpt>
      <trkpt lat="47.02591" lon="6.25628">
        <ele>841.29</ele>
        <time>2018-09-09T09:40:55Z</time>
      </trkpt>
      <trkpt lat="47.02592" lon="6.25631">
        <ele>840.33</ele>
        <time>2018-09-09T09:40:56Z</time>
      </trkpt>
      <trkpt lat="47.02594" lon="6.25641">
        <ele>838.41</ele>
        <time>2018-09-09T09:40:59Z</time>
      </trkpt>
      <trkpt lat="47.02594" lon="6.25644">
        <ele>838.41</ele>
        <time>2018-09-09T09:41:00Z</time>
      </trkpt>
      <trkpt lat="47.02593" lon="6.25652">
        <ele>836.96</ele>
        <time>2018-09-09T09:41:03Z</time>
      </trkpt>
      <trkpt lat="47.02594" lon="6.25655">
        <ele>836</ele>
        <time>2018-09-09T09:41:04Z</time>
      </trkpt>
      <trkpt lat="47.02594" lon="6.25658">
        <ele>835.52</ele>
        <time>2018-09-09T09:41:05Z</time>
      </trkpt>
      <trkpt lat="47.02596" lon="6.25661">
        <ele>833.6</ele>
        <time>2018-09-09T09:41:09Z</time>
      </trkpt>
      <trkpt lat="47.02596" lon="6.25667">
        <ele>832.64</ele>
        <time>2018-09-09T09:41:18Z</time>
      </trkpt>
      <trkpt lat="47.02598" lon="6.25671">
        <ele>832.64</ele>
        <time>2018-09-09T09:41:22Z</time>
      </trkpt>
      <trkpt lat="47.02599" lon="6.25675">
        <ele>832.16</ele>
        <time>2018-09-09T09:41:23Z</time>
      </trkpt>
      <trkpt lat="47.026" lon="6.25679">
        <ele>831.2</ele>
        <time>2018-09-09T09:41:24Z</time>
      </trkpt>
      <trkpt lat="47.02601" lon="6.25684">
        <ele>830.24</ele>
        <time>2018-09-09T09:41:25Z</time>
      </trkpt>
      <trkpt lat="47.02602" lon="6.25689">
        <ele>829.27</ele>
        <time>2018-09-09T09:41:26Z</time>
      </trkpt>
      <trkpt lat="47.026" lon="6.25693">
        <ele>828.79</ele>
        <time>2018-09-09T09:41:27Z</time>
      </trkpt>
      <trkpt lat="47.02596" lon="6.25697">
        <ele>827.83</ele>
        <time>2018-09-09T09:41:28Z</time>
      </trkpt>
      <trkpt lat="47.02594" lon="6.25702">
        <ele>827.35</ele>
        <time>2018-09-09T09:41:29Z</time>
      </trkpt>
      <trkpt lat="47.02593" lon="6.2571">
        <ele>826.39</ele>
        <time>2018-09-09T09:41:30Z</time>
      </trkpt>
      <trkpt lat="47.02593" lon="6.25718">
        <ele>825.91</ele>
        <time>2018-09-09T09:41:31Z</time>
      </trkpt>
      <trkpt lat="47.02593" lon="6.25726">
        <ele>825.43</ele>
        <time>2018-09-09T09:41:32Z</time>
      </trkpt>
      <trkpt lat="47.02594" lon="6.25736">
        <ele>824.95</ele>
        <time>2018-09-09T09:41:33Z</time>
      </trkpt>
      <trkpt lat="47.02595" lon="6.25744">
        <ele>823.99</ele>
        <time>2018-09-09T09:41:34Z</time>
      </trkpt>
      <trkpt lat="47.02596" lon="6.25751">
        <ele>823.99</ele>
        <time>2018-09-09T09:41:35Z</time>
      </trkpt>
      <trkpt lat="47.02598" lon="6.25759">
        <ele>823.03</ele>
        <time>2018-09-09T09:41:36Z</time>
      </trkpt>
      <trkpt lat="47.02602" lon="6.25773">
        <ele>823.03</ele>
        <time>2018-09-09T09:41:38Z</time>
      </trkpt>
      <trkpt lat="47.02604" lon="6.25778">
        <ele>822.55</ele>
        <time>2018-09-09T09:41:39Z</time>
      </trkpt>
      <trkpt lat="47.02606" lon="6.25782">
        <ele>822.55</ele>
        <time>2018-09-09T09:41:40Z</time>
      </trkpt>
      <trkpt lat="47.02621" lon="6.25804">
        <ele>820.14</ele>
        <time>2018-09-09T09:41:46Z</time>
      </trkpt>
      <trkpt lat="47.02624" lon="6.25809">
        <ele>819.66</ele>
        <time>2018-09-09T09:41:47Z</time>
      </trkpt>
      <trkpt lat="47.02631" lon="6.25822">
        <ele>817.74</ele>
        <time>2018-09-09T09:41:50Z</time>
      </trkpt>
      <trkpt lat="47.02636" lon="6.25838">
        <ele>815.82</ele>
        <time>2018-09-09T09:41:54Z</time>
      </trkpt>
      <trkpt lat="47.02638" lon="6.25839">
        <ele>815.34</ele>
        <time>2018-09-09T09:41:55Z</time>
      </trkpt>
      <trkpt lat="47.0264" lon="6.25842">
        <ele>814.85</ele>
        <time>2018-09-09T09:41:56Z</time>
      </trkpt>
      <trkpt lat="47.02641" lon="6.25846">
        <ele>814.37</ele>
        <time>2018-09-09T09:41:57Z</time>
      </trkpt>
      <trkpt lat="47.02643" lon="6.25851">
        <ele>813.89</ele>
        <time>2018-09-09T09:41:58Z</time>
      </trkpt>
      <trkpt lat="47.02645" lon="6.25854">
        <ele>812.93</ele>
        <time>2018-09-09T09:41:59Z</time>
      </trkpt>
      <trkpt lat="47.02648" lon="6.25855">
        <ele>812.45</ele>
        <time>2018-09-09T09:42:00Z</time>
      </trkpt>
      <trkpt lat="47.0265" lon="6.25857">
        <ele>811.97</ele>
        <time>2018-09-09T09:42:01Z</time>
      </trkpt>
      <trkpt lat="47.02652" lon="6.2586">
        <ele>811.49</ele>
        <time>2018-09-09T09:42:02Z</time>
      </trkpt>
      <trkpt lat="47.02654" lon="6.25862">
        <ele>811.01</ele>
        <time>2018-09-09T09:42:03Z</time>
      </trkpt>
      <trkpt lat="47.02655" lon="6.25866">
        <ele>810.53</ele>
        <time>2018-09-09T09:42:04Z</time>
      </trkpt>
      <trkpt lat="47.02656" lon="6.25869">
        <ele>810.05</ele>
        <time>2018-09-09T09:42:05Z</time>
      </trkpt>
      <trkpt lat="47.02659" lon="6.25883">
        <ele>807.16</ele>
        <time>2018-09-09T09:42:09Z</time>
      </trkpt>
      <trkpt lat="47.02659" lon="6.25887">
        <ele>806.2</ele>
        <time>2018-09-09T09:42:10Z</time>
      </trkpt>
      <trkpt lat="47.02661" lon="6.2589">
        <ele>805.72</ele>
        <time>2018-09-09T09:42:11Z</time>
      </trkpt>
      <trkpt lat="47.02663" lon="6.25894">
        <ele>805.24</ele>
        <time>2018-09-09T09:42:12Z</time>
      </trkpt>
      <trkpt lat="47.02664" lon="6.25898">
        <ele>804.76</ele>
        <time>2018-09-09T09:42:13Z</time>
      </trkpt>
      <trkpt lat="47.02666" lon="6.25902">
        <ele>803.8</ele>
        <time>2018-09-09T09:42:14Z</time>
      </trkpt>
      <trkpt lat="47.02668" lon="6.25906">
        <ele>803.32</ele>
        <time>2018-09-09T09:42:15Z</time>
      </trkpt>
      <trkpt lat="47.02671" lon="6.25912">
        <ele>803.32</ele>
        <time>2018-09-09T09:42:16Z</time>
      </trkpt>
      <trkpt lat="47.02673" lon="6.25917">
        <ele>802.84</ele>
        <time>2018-09-09T09:42:17Z</time>
      </trkpt>
      <trkpt lat="47.02676" lon="6.25921">
        <ele>802.84</ele>
        <time>2018-09-09T09:42:18Z</time>
      </trkpt>
      <trkpt lat="47.02678" lon="6.25925">
        <ele>803.32</ele>
        <time>2018-09-09T09:42:19Z</time>
      </trkpt>
      <trkpt lat="47.0268" lon="6.2593">
        <ele>802.84</ele>
        <time>2018-09-09T09:42:20Z</time>
      </trkpt>
      <trkpt lat="47.02682" lon="6.25934">
        <ele>802.84</ele>
        <time>2018-09-09T09:42:21Z</time>
      </trkpt>
      <trkpt lat="47.02683" lon="6.25939">
        <ele>802.84</ele>
        <time>2018-09-09T09:42:22Z</time>
      </trkpt>
      <trkpt lat="47.02685" lon="6.25945">
        <ele>802.84</ele>
        <time>2018-09-09T09:42:23Z</time>
      </trkpt>
      <trkpt lat="47.02686" lon="6.25951">
        <ele>802.36</ele>
        <time>2018-09-09T09:42:24Z</time>
      </trkpt>
      <trkpt lat="47.02689" lon="6.25955">
        <ele>802.36</ele>
        <time>2018-09-09T09:42:25Z</time>
      </trkpt>
      <trkpt lat="47.02691" lon="6.25959">
        <ele>802.36</ele>
        <time>2018-09-09T09:42:26Z</time>
      </trkpt>
      <trkpt lat="47.02693" lon="6.25963">
        <ele>802.36</ele>
        <time>2018-09-09T09:42:27Z</time>
      </trkpt>
      <trkpt lat="47.02696" lon="6.25968">
        <ele>802.36</ele>
        <time>2018-09-09T09:42:28Z</time>
      </trkpt>
      <trkpt lat="47.02699" lon="6.25972">
        <ele>802.36</ele>
        <time>2018-09-09T09:42:29Z</time>
      </trkpt>
      <trkpt lat="47.02702" lon="6.25975">
        <ele>802.84</ele>
        <time>2018-09-09T09:42:30Z</time>
      </trkpt>
      <trkpt lat="47.02706" lon="6.25982">
        <ele>803.32</ele>
        <time>2018-09-09T09:42:32Z</time>
      </trkpt>
      <trkpt lat="47.02708" lon="6.25985">
        <ele>803.32</ele>
        <time>2018-09-09T09:42:33Z</time>
      </trkpt>
      <trkpt lat="47.02709" lon="6.25988">
        <ele>803.32</ele>
        <time>2018-09-09T09:42:34Z</time>
      </trkpt>
      <trkpt lat="47.02711" lon="6.2599">
        <ele>803.8</ele>
        <time>2018-09-09T09:42:35Z</time>
      </trkpt>
      <trkpt lat="47.02713" lon="6.25994">
        <ele>803.8</ele>
        <time>2018-09-09T09:42:36Z</time>
      </trkpt>
      <trkpt lat="47.02716" lon="6.25997">
        <ele>804.28</ele>
        <time>2018-09-09T09:42:37Z</time>
      </trkpt>
      <trkpt lat="47.02717" lon="6.26001">
        <ele>804.76</ele>
        <time>2018-09-09T09:42:38Z</time>
      </trkpt>
      <trkpt lat="47.02718" lon="6.26004">
        <ele>805.24</ele>
        <time>2018-09-09T09:42:39Z</time>
      </trkpt>
      <trkpt lat="47.02727" lon="6.26013">
        <ele>806.2</ele>
        <time>2018-09-09T09:42:44Z</time>
      </trkpt>
      <trkpt lat="47.02733" lon="6.26019">
        <ele>806.68</ele>
        <time>2018-09-09T09:42:47Z</time>
      </trkpt>
      <trkpt lat="47.02735" lon="6.26021">
        <ele>807.16</ele>
        <time>2018-09-09T09:42:48Z</time>
      </trkpt>
      <trkpt lat="47.02739" lon="6.26023">
        <ele>807.16</ele>
        <time>2018-09-09T09:42:49Z</time>
      </trkpt>
      <trkpt lat="47.02742" lon="6.26024">
        <ele>807.64</ele>
        <time>2018-09-09T09:42:50Z</time>
      </trkpt>
      <trkpt lat="47.02745" lon="6.26026">
        <ele>808.13</ele>
        <time>2018-09-09T09:42:51Z</time>
      </trkpt>
      <trkpt lat="47.02746" lon="6.26028">
        <ele>808.13</ele>
        <time>2018-09-09T09:42:52Z</time>
      </trkpt>
      <trkpt lat="47.02749" lon="6.2603">
        <ele>808.61</ele>
        <time>2018-09-09T09:42:53Z</time>
      </trkpt>
      <trkpt lat="47.0275" lon="6.26031">
        <ele>808.61</ele>
        <time>2018-09-09T09:42:54Z</time>
      </trkpt>
      <trkpt lat="47.02753" lon="6.26032">
        <ele>809.09</ele>
        <time>2018-09-09T09:42:55Z</time>
      </trkpt>
      <trkpt lat="47.02759" lon="6.26033">
        <ele>810.05</ele>
        <time>2018-09-09T09:42:59Z</time>
      </trkpt>
      <trkpt lat="47.02768" lon="6.26042">
        <ele>810.05</ele>
        <time>2018-09-09T09:43:03Z</time>
      </trkpt>
      <trkpt lat="47.02785" lon="6.2607">
        <ele>807.64</ele>
        <time>2018-09-09T09:43:12Z</time>
      </trkpt>
      <trkpt lat="47.0279" lon="6.26085">
        <ele>803.32</ele>
        <time>2018-09-09T09:43:17Z</time>
      </trkpt>
      <trkpt lat="47.02792" lon="6.26089">
        <ele>802.84</ele>
        <time>2018-09-09T09:43:18Z</time>
      </trkpt>
      <trkpt lat="47.02798" lon="6.26097">
        <ele>801.4</ele>
        <time>2018-09-09T09:43:20Z</time>
      </trkpt>
      <trkpt lat="47.02808" lon="6.26111">
        <ele>799.95</ele>
        <time>2018-09-09T09:43:23Z</time>
      </trkpt>
      <trkpt lat="47.0281" lon="6.26124">
        <ele>798.99</ele>
        <time>2018-09-09T09:43:25Z</time>
      </trkpt>
      <trkpt lat="47.0281" lon="6.26131">
        <ele>798.99</ele>
        <time>2018-09-09T09:43:26Z</time>
      </trkpt>
      <trkpt lat="47.0281" lon="6.26138">
        <ele>798.51</ele>
        <time>2018-09-09T09:43:27Z</time>
      </trkpt>
      <trkpt lat="47.02811" lon="6.26144">
        <ele>798.03</ele>
        <time>2018-09-09T09:43:28Z</time>
      </trkpt>
      <trkpt lat="47.02811" lon="6.26149">
        <ele>798.03</ele>
        <time>2018-09-09T09:43:29Z</time>
      </trkpt>
      <trkpt lat="47.02811" lon="6.26152">
        <ele>798.03</ele>
        <time>2018-09-09T09:43:30Z</time>
      </trkpt>
      <trkpt lat="47.02813" lon="6.26196">
        <ele>798.51</ele>
        <time>2018-09-09T09:43:36Z</time>
      </trkpt>
      <trkpt lat="47.02815" lon="6.262">
        <ele>798.51</ele>
        <time>2018-09-09T09:43:37Z</time>
      </trkpt>
      <trkpt lat="47.02817" lon="6.26204">
        <ele>798.51</ele>
        <time>2018-09-09T09:43:38Z</time>
      </trkpt>
      <trkpt lat="47.02817" lon="6.26209">
        <ele>798.99</ele>
        <time>2018-09-09T09:43:39Z</time>
      </trkpt>
      <trkpt lat="47.02818" lon="6.26214">
        <ele>798.99</ele>
        <time>2018-09-09T09:43:40Z</time>
      </trkpt>
      <trkpt lat="47.02818" lon="6.26219">
        <ele>798.99</ele>
        <time>2018-09-09T09:43:41Z</time>
      </trkpt>
      <trkpt lat="47.02819" lon="6.26223">
        <ele>799.47</ele>
        <time>2018-09-09T09:43:42Z</time>
      </trkpt>
      <trkpt lat="47.0282" lon="6.26226">
        <ele>799.47</ele>
        <time>2018-09-09T09:43:43Z</time>
      </trkpt>
      <trkpt lat="47.02821" lon="6.26229">
        <ele>799.47</ele>
        <time>2018-09-09T09:43:44Z</time>
      </trkpt>
      <trkpt lat="47.02822" lon="6.26233">
        <ele>799.95</ele>
        <time>2018-09-09T09:43:45Z</time>
      </trkpt>
      <trkpt lat="47.02824" lon="6.26237">
        <ele>799.95</ele>
        <time>2018-09-09T09:43:46Z</time>
      </trkpt>
      <trkpt lat="47.02826" lon="6.26241">
        <ele>799.95</ele>
        <time>2018-09-09T09:43:47Z</time>
      </trkpt>
      <trkpt lat="47.02844" lon="6.26288">
        <ele>800.92</ele>
        <time>2018-09-09T09:43:58Z</time>
      </trkpt>
      <trkpt lat="47.02844" lon="6.26298">
        <ele>800.92</ele>
        <time>2018-09-09T09:44:00Z</time>
      </trkpt>
      <trkpt lat="47.02845" lon="6.26302">
        <ele>801.4</ele>
        <time>2018-09-09T09:44:01Z</time>
      </trkpt>
      <trkpt lat="47.02845" lon="6.26305">
        <ele>801.4</ele>
        <time>2018-09-09T09:44:02Z</time>
      </trkpt>
      <trkpt lat="47.02844" lon="6.2634">
        <ele>800.92</ele>
        <time>2018-09-09T09:44:10Z</time>
      </trkpt>
      <trkpt lat="47.02838" lon="6.26356">
        <ele>798.51</ele>
        <time>2018-09-09T09:44:15Z</time>
      </trkpt>
      <trkpt lat="47.02838" lon="6.2636">
        <ele>798.03</ele>
        <time>2018-09-09T09:44:16Z</time>
      </trkpt>
      <trkpt lat="47.02839" lon="6.26365">
        <ele>798.03</ele>
        <time>2018-09-09T09:44:17Z</time>
      </trkpt>
      <trkpt lat="47.0284" lon="6.26369">
        <ele>798.03</ele>
        <time>2018-09-09T09:44:18Z</time>
      </trkpt>
      <trkpt lat="47.02841" lon="6.26374">
        <ele>798.03</ele>
        <time>2018-09-09T09:44:19Z</time>
      </trkpt>
      <trkpt lat="47.02842" lon="6.26391">
        <ele>797.55</ele>
        <time>2018-09-09T09:44:22Z</time>
      </trkpt>
      <trkpt lat="47.02844" lon="6.26403">
        <ele>797.55</ele>
        <time>2018-09-09T09:44:24Z</time>
      </trkpt>
      <trkpt lat="47.02844" lon="6.26409">
        <ele>797.55</ele>
        <time>2018-09-09T09:44:25Z</time>
      </trkpt>
      <trkpt lat="47.02844" lon="6.26414">
        <ele>797.07</ele>
        <time>2018-09-09T09:44:26Z</time>
      </trkpt>
      <trkpt lat="47.02845" lon="6.26418">
        <ele>797.07</ele>
        <time>2018-09-09T09:44:27Z</time>
      </trkpt>
      <trkpt lat="47.02845" lon="6.26423">
        <ele>797.07</ele>
        <time>2018-09-09T09:44:28Z</time>
      </trkpt>
      <trkpt lat="47.02846" lon="6.26429">
        <ele>796.59</ele>
        <time>2018-09-09T09:44:29Z</time>
      </trkpt>
      <trkpt lat="47.02849" lon="6.26445">
        <ele>795.63</ele>
        <time>2018-09-09T09:44:32Z</time>
      </trkpt>
      <trkpt lat="47.0285" lon="6.26449">
        <ele>795.15</ele>
        <time>2018-09-09T09:44:33Z</time>
      </trkpt>
      <trkpt lat="47.02852" lon="6.26453">
        <ele>795.15</ele>
        <time>2018-09-09T09:44:34Z</time>
      </trkpt>
      <trkpt lat="47.02854" lon="6.26457">
        <ele>795.63</ele>
        <time>2018-09-09T09:44:35Z</time>
      </trkpt>
      <trkpt lat="47.02855" lon="6.26462">
        <ele>795.63</ele>
        <time>2018-09-09T09:44:36Z</time>
      </trkpt>
      <trkpt lat="47.02857" lon="6.26468">
        <ele>795.63</ele>
        <time>2018-09-09T09:44:37Z</time>
      </trkpt>
      <trkpt lat="47.02857" lon="6.26474">
        <ele>795.15</ele>
        <time>2018-09-09T09:44:38Z</time>
      </trkpt>
      <trkpt lat="47.02857" lon="6.2648">
        <ele>794.67</ele>
        <time>2018-09-09T09:44:39Z</time>
      </trkpt>
      <trkpt lat="47.02857" lon="6.26486">
        <ele>794.19</ele>
        <time>2018-09-09T09:44:40Z</time>
      </trkpt>
      <trkpt lat="47.02857" lon="6.26493">
        <ele>793.71</ele>
        <time>2018-09-09T09:44:41Z</time>
      </trkpt>
      <trkpt lat="47.02857" lon="6.26498">
        <ele>793.22</ele>
        <time>2018-09-09T09:44:42Z</time>
      </trkpt>
      <trkpt lat="47.02858" lon="6.26503">
        <ele>792.74</ele>
        <time>2018-09-09T09:44:43Z</time>
      </trkpt>
      <trkpt lat="47.02858" lon="6.26509">
        <ele>792.74</ele>
        <time>2018-09-09T09:44:44Z</time>
      </trkpt>
      <trkpt lat="47.02858" lon="6.26514">
        <ele>792.26</ele>
        <time>2018-09-09T09:44:45Z</time>
      </trkpt>
      <trkpt lat="47.02859" lon="6.26519">
        <ele>792.26</ele>
        <time>2018-09-09T09:44:46Z</time>
      </trkpt>
      <trkpt lat="47.0286" lon="6.26525">
        <ele>791.78</ele>
        <time>2018-09-09T09:44:47Z</time>
      </trkpt>
      <trkpt lat="47.0286" lon="6.26531">
        <ele>791.78</ele>
        <time>2018-09-09T09:44:48Z</time>
      </trkpt>
      <trkpt lat="47.0286" lon="6.26536">
        <ele>791.3</ele>
        <time>2018-09-09T09:44:49Z</time>
      </trkpt>
      <trkpt lat="47.02862" lon="6.26542">
        <ele>790.82</ele>
        <time>2018-09-09T09:44:50Z</time>
      </trkpt>
      <trkpt lat="47.02864" lon="6.26548">
        <ele>789.86</ele>
        <time>2018-09-09T09:44:51Z</time>
      </trkpt>
      <trkpt lat="47.02866" lon="6.26555">
        <ele>789.38</ele>
        <time>2018-09-09T09:44:52Z</time>
      </trkpt>
      <trkpt lat="47.02867" lon="6.26562">
        <ele>789.38</ele>
        <time>2018-09-09T09:44:53Z</time>
      </trkpt>
      <trkpt lat="47.02869" lon="6.26568">
        <ele>789.38</ele>
        <time>2018-09-09T09:44:54Z</time>
      </trkpt>
      <trkpt lat="47.02871" lon="6.26573">
        <ele>789.86</ele>
        <time>2018-09-09T09:44:55Z</time>
      </trkpt>
      <trkpt lat="47.02872" lon="6.26577">
        <ele>789.86</ele>
        <time>2018-09-09T09:44:56Z</time>
      </trkpt>
      <trkpt lat="47.02874" lon="6.26581">
        <ele>789.86</ele>
        <time>2018-09-09T09:44:57Z</time>
      </trkpt>
      <trkpt lat="47.02878" lon="6.26591">
        <ele>790.34</ele>
        <time>2018-09-09T09:45:00Z</time>
      </trkpt>
      <trkpt lat="47.02879" lon="6.26594">
        <ele>789.86</ele>
        <time>2018-09-09T09:45:01Z</time>
      </trkpt>
      <trkpt lat="47.0288" lon="6.26597">
        <ele>789.86</ele>
        <time>2018-09-09T09:45:02Z</time>
      </trkpt>
      <trkpt lat="47.02881" lon="6.26599">
        <ele>789.38</ele>
        <time>2018-09-09T09:45:03Z</time>
      </trkpt>
      <trkpt lat="47.02887" lon="6.26606">
        <ele>787.94</ele>
        <time>2018-09-09T09:45:14Z</time>
      </trkpt>
      <trkpt lat="47.02891" lon="6.26608">
        <ele>786.02</ele>
        <time>2018-09-09T09:45:25Z</time>
      </trkpt>
      <trkpt lat="47.02892" lon="6.26608">
        <ele>785.53</ele>
        <time>2018-09-09T09:45:30Z</time>
      </trkpt>
      <trkpt lat="47.02898" lon="6.26606">
        <ele>785.53</ele>
        <time>2018-09-09T09:45:37Z</time>
      </trkpt>
      <trkpt lat="47.02905" lon="6.26615">
        <ele>786.02</ele>
        <time>2018-09-09T09:45:41Z</time>
      </trkpt>
      <trkpt lat="47.0292" lon="6.26645">
        <ele>788.42</ele>
        <time>2018-09-09T09:45:51Z</time>
      </trkpt>
      <trkpt lat="47.0293" lon="6.26663">
        <ele>789.38</ele>
        <time>2018-09-09T09:45:56Z</time>
      </trkpt>
      <trkpt lat="47.02934" lon="6.26676">
        <ele>790.34</ele>
        <time>2018-09-09T09:46:00Z</time>
      </trkpt>
      <trkpt lat="47.02942" lon="6.26714">
        <ele>791.78</ele>
        <time>2018-09-09T09:46:11Z</time>
      </trkpt>
      <trkpt lat="47.02946" lon="6.26723">
        <ele>792.74</ele>
        <time>2018-09-09T09:46:14Z</time>
      </trkpt>
      <trkpt lat="47.02948" lon="6.26734">
        <ele>793.71</ele>
        <time>2018-09-09T09:46:18Z</time>
      </trkpt>
      <trkpt lat="47.02953" lon="6.26752">
        <ele>793.71</ele>
        <time>2018-09-09T09:46:23Z</time>
      </trkpt>
      <trkpt lat="47.02954" lon="6.26758">
        <ele>793.71</ele>
        <time>2018-09-09T09:46:25Z</time>
      </trkpt>
      <trkpt lat="47.02955" lon="6.2677">
        <ele>793.71</ele>
        <time>2018-09-09T09:46:29Z</time>
      </trkpt>
      <trkpt lat="47.02957" lon="6.26796">
        <ele>791.78</ele>
        <time>2018-09-09T09:46:40Z</time>
      </trkpt>
      <trkpt lat="47.02964" lon="6.26809">
        <ele>788.42</ele>
        <time>2018-09-09T09:46:46Z</time>
      </trkpt>
      <trkpt lat="47.02967" lon="6.26819">
        <ele>786.02</ele>
        <time>2018-09-09T09:46:48Z</time>
      </trkpt>
      <trkpt lat="47.02968" lon="6.26826">
        <ele>785.53</ele>
        <time>2018-09-09T09:46:49Z</time>
      </trkpt>
      <trkpt lat="47.02969" lon="6.26832">
        <ele>785.05</ele>
        <time>2018-09-09T09:46:50Z</time>
      </trkpt>
      <trkpt lat="47.02971" lon="6.26837">
        <ele>785.05</ele>
        <time>2018-09-09T09:46:51Z</time>
      </trkpt>
      <trkpt lat="47.02974" lon="6.26841">
        <ele>785.53</ele>
        <time>2018-09-09T09:46:52Z</time>
      </trkpt>
      <trkpt lat="47.02976" lon="6.26844">
        <ele>786.5</ele>
        <time>2018-09-09T09:46:53Z</time>
      </trkpt>
      <trkpt lat="47.02979" lon="6.26846">
        <ele>786.98</ele>
        <time>2018-09-09T09:46:54Z</time>
      </trkpt>
      <trkpt lat="47.02981" lon="6.2685">
        <ele>787.46</ele>
        <time>2018-09-09T09:46:55Z</time>
      </trkpt>
      <trkpt lat="47.02982" lon="6.26854">
        <ele>787.94</ele>
        <time>2018-09-09T09:46:56Z</time>
      </trkpt>
      <trkpt lat="47.02983" lon="6.26858">
        <ele>788.42</ele>
        <time>2018-09-09T09:46:57Z</time>
      </trkpt>
      <trkpt lat="47.02984" lon="6.26862">
        <ele>788.42</ele>
        <time>2018-09-09T09:46:58Z</time>
      </trkpt>
      <trkpt lat="47.02988" lon="6.26891">
        <ele>787.94</ele>
        <time>2018-09-09T09:47:08Z</time>
      </trkpt>
      <trkpt lat="47.02989" lon="6.26892">
        <ele>787.94</ele>
        <time>2018-09-09T09:47:09Z</time>
      </trkpt>
      <trkpt lat="47.02991" lon="6.26895">
        <ele>787.94</ele>
        <time>2018-09-09T09:47:22Z</time>
      </trkpt>
      <trkpt lat="47.02992" lon="6.26895">
        <ele>787.94</ele>
        <time>2018-09-09T09:47:55Z</time>
      </trkpt>
      <trkpt lat="47.02992" lon="6.26895">
        <ele>788.42</ele>
        <time>2018-09-09T09:48:25Z</time>
      </trkpt>
      <trkpt lat="47.02993" lon="6.26896">
        <ele>787.94</ele>
        <time>2018-09-09T09:48:56Z</time>
      </trkpt>
      <trkpt lat="47.02992" lon="6.26896">
        <ele>788.42</ele>
        <time>2018-09-09T09:49:19Z</time>
      </trkpt>
      <trkpt lat="47.02992" lon="6.26896">
        <ele>788.42</ele>
        <time>2018-09-09T09:49:45Z</time>
      </trkpt>
      <trkpt lat="47.0299" lon="6.26895">
        <ele>787.94</ele>
        <time>2018-09-09T09:50:00Z</time>
      </trkpt>
      <trkpt lat="47.0299" lon="6.26893">
        <ele>788.42</ele>
        <time>2018-09-09T09:50:36Z</time>
      </trkpt>
      <trkpt lat="47.0299" lon="6.26893">
        <ele>788.42</ele>
        <time>2018-09-09T09:51:17Z</time>
      </trkpt>
      <trkpt lat="47.02989" lon="6.26891">
        <ele>788.42</ele>
        <time>2018-09-09T09:51:57Z</time>
      </trkpt>
      <trkpt lat="47.02988" lon="6.26894">
        <ele>788.42</ele>
        <time>2018-09-09T09:52:47Z</time>
      </trkpt>
      <trkpt lat="47.02987" lon="6.26896">
        <ele>788.9</ele>
        <time>2018-09-09T09:53:24Z</time>
      </trkpt>
      <trkpt lat="47.02988" lon="6.26895">
        <ele>788.9</ele>
        <time>2018-09-09T09:53:55Z</time>
      </trkpt>
      <trkpt lat="47.02988" lon="6.26892">
        <ele>788.9</ele>
        <time>2018-09-09T09:54:29Z</time>
      </trkpt>
      <trkpt lat="47.0299" lon="6.26891">
        <ele>788.9</ele>
        <time>2018-09-09T09:55:01Z</time>
      </trkpt>
      <trkpt lat="47.02991" lon="6.26889">
        <ele>788.9</ele>
        <time>2018-09-09T09:55:39Z</time>
      </trkpt>
      <trkpt lat="47.0299" lon="6.26891">
        <ele>788.9</ele>
        <time>2018-09-09T09:56:15Z</time>
      </trkpt>
      <trkpt lat="47.02989" lon="6.26892">
        <ele>788.9</ele>
        <time>2018-09-09T09:56:51Z</time>
      </trkpt>
      <trkpt lat="47.02988" lon="6.26891">
        <ele>788.9</ele>
        <time>2018-09-09T09:57:22Z</time>
      </trkpt>
      <trkpt lat="47.02989" lon="6.26891">
        <ele>788.9</ele>
        <time>2018-09-09T09:57:54Z</time>
      </trkpt>
      <trkpt lat="47.0299" lon="6.26891">
        <ele>788.9</ele>
        <time>2018-09-09T09:58:28Z</time>
      </trkpt>
      <trkpt lat="47.0299" lon="6.26893">
        <ele>788.9</ele>
        <time>2018-09-09T09:59:05Z</time>
      </trkpt>
      <trkpt lat="47.0299" lon="6.26894">
        <ele>788.9</ele>
        <time>2018-09-09T09:59:43Z</time>
      </trkpt>
      <trkpt lat="47.02989" lon="6.26893">
        <ele>788.9</ele>
        <time>2018-09-09T10:00:18Z</time>
      </trkpt>
      <trkpt lat="47.02986" lon="6.26894">
        <ele>788.42</ele>
        <time>2018-09-09T10:00:48Z</time>
      </trkpt>
      <trkpt lat="47.02985" lon="6.26894">
        <ele>788.42</ele>
        <time>2018-09-09T10:00:49Z</time>
      </trkpt>
      <trkpt lat="47.02982" lon="6.26896">
        <ele>787.94</ele>
        <time>2018-09-09T10:00:50Z</time>
      </trkpt>
      <trkpt lat="47.02966" lon="6.26909">
        <ele>786.5</ele>
        <time>2018-09-09T10:00:54Z</time>
      </trkpt>
      <trkpt lat="47.02961" lon="6.26912">
        <ele>786.02</ele>
        <time>2018-09-09T10:00:55Z</time>
      </trkpt>
      <trkpt lat="47.02956" lon="6.26914">
        <ele>786.5</ele>
        <time>2018-09-09T10:00:56Z</time>
      </trkpt>
      <trkpt lat="47.02952" lon="6.26913">
        <ele>786.5</ele>
        <time>2018-09-09T10:00:57Z</time>
      </trkpt>
      <trkpt lat="47.02949" lon="6.26911">
        <ele>786.5</ele>
        <time>2018-09-09T10:00:58Z</time>
      </trkpt>
      <trkpt lat="47.02947" lon="6.26907">
        <ele>786.02</ele>
        <time>2018-09-09T10:00:59Z</time>
      </trkpt>
      <trkpt lat="47.02945" lon="6.26903">
        <ele>786.02</ele>
        <time>2018-09-09T10:01:00Z</time>
      </trkpt>
      <trkpt lat="47.02943" lon="6.269">
        <ele>786.02</ele>
        <time>2018-09-09T10:01:01Z</time>
      </trkpt>
      <trkpt lat="47.02939" lon="6.26898">
        <ele>786.02</ele>
        <time>2018-09-09T10:01:02Z</time>
      </trkpt>
      <trkpt lat="47.02936" lon="6.26896">
        <ele>786.02</ele>
        <time>2018-09-09T10:01:03Z</time>
      </trkpt>
      <trkpt lat="47.02932" lon="6.26895">
        <ele>785.53</ele>
        <time>2018-09-09T10:01:04Z</time>
      </trkpt>
      <trkpt lat="47.02929" lon="6.26893">
        <ele>786.02</ele>
        <time>2018-09-09T10:01:05Z</time>
      </trkpt>
      <trkpt lat="47.02926" lon="6.2689">
        <ele>786.02</ele>
        <time>2018-09-09T10:01:06Z</time>
      </trkpt>
      <trkpt lat="47.02923" lon="6.26888">
        <ele>785.53</ele>
        <time>2018-09-09T10:01:07Z</time>
      </trkpt>
      <trkpt lat="47.0292" lon="6.26886">
        <ele>785.53</ele>
        <time>2018-09-09T10:01:08Z</time>
      </trkpt>
      <trkpt lat="47.02893" lon="6.26862">
        <ele>785.53</ele>
        <time>2018-09-09T10:01:17Z</time>
      </trkpt>
      <trkpt lat="47.02881" lon="6.26861">
        <ele>785.05</ele>
        <time>2018-09-09T10:01:20Z</time>
      </trkpt>
      <trkpt lat="47.02876" lon="6.26862">
        <ele>785.05</ele>
        <time>2018-09-09T10:01:21Z</time>
      </trkpt>
      <trkpt lat="47.02872" lon="6.26863">
        <ele>785.05</ele>
        <time>2018-09-09T10:01:22Z</time>
      </trkpt>
      <trkpt lat="47.02853" lon="6.26871">
        <ele>784.09</ele>
        <time>2018-09-09T10:01:26Z</time>
      </trkpt>
      <trkpt lat="47.02848" lon="6.26873">
        <ele>783.61</ele>
        <time>2018-09-09T10:01:27Z</time>
      </trkpt>
      <trkpt lat="47.02842" lon="6.26872">
        <ele>783.61</ele>
        <time>2018-09-09T10:01:28Z</time>
      </trkpt>
      <trkpt lat="47.02831" lon="6.26867">
        <ele>782.65</ele>
        <time>2018-09-09T10:01:30Z</time>
      </trkpt>
      <trkpt lat="47.02825" lon="6.26862">
        <ele>782.17</ele>
        <time>2018-09-09T10:01:31Z</time>
      </trkpt>
      <trkpt lat="47.02819" lon="6.26855">
        <ele>781.69</ele>
        <time>2018-09-09T10:01:32Z</time>
      </trkpt>
      <trkpt lat="47.02815" lon="6.26846">
        <ele>780.73</ele>
        <time>2018-09-09T10:01:33Z</time>
      </trkpt>
      <trkpt lat="47.0281" lon="6.26836">
        <ele>780.25</ele>
        <time>2018-09-09T10:01:34Z</time>
      </trkpt>
      <trkpt lat="47.02797" lon="6.26801">
        <ele>776.88</ele>
        <time>2018-09-09T10:01:37Z</time>
      </trkpt>
      <trkpt lat="47.02778" lon="6.26752">
        <ele>773.52</ele>
        <time>2018-09-09T10:01:41Z</time>
      </trkpt>
      <trkpt lat="47.02759" lon="6.26715">
        <ele>770.15</ele>
        <time>2018-09-09T10:01:44Z</time>
      </trkpt>
      <trkpt lat="47.0275" lon="6.26704">
        <ele>768.71</ele>
        <time>2018-09-09T10:01:45Z</time>
      </trkpt>
      <trkpt lat="47.02741" lon="6.26695">
        <ele>767.27</ele>
        <time>2018-09-09T10:01:46Z</time>
      </trkpt>
      <trkpt lat="47.02732" lon="6.26688">
        <ele>766.31</ele>
        <time>2018-09-09T10:01:47Z</time>
      </trkpt>
      <trkpt lat="47.02723" lon="6.26683">
        <ele>765.83</ele>
        <time>2018-09-09T10:01:48Z</time>
      </trkpt>
      <trkpt lat="47.02714" lon="6.26679">
        <ele>764.87</ele>
        <time>2018-09-09T10:01:49Z</time>
      </trkpt>
      <trkpt lat="47.02705" lon="6.26676">
        <ele>763.9</ele>
        <time>2018-09-09T10:01:50Z</time>
      </trkpt>
      <trkpt lat="47.02695" lon="6.26675">
        <ele>763.42</ele>
        <time>2018-09-09T10:01:51Z</time>
      </trkpt>
      <trkpt lat="47.02685" lon="6.26676">
        <ele>761.98</ele>
        <time>2018-09-09T10:01:52Z</time>
      </trkpt>
      <trkpt lat="47.02677" lon="6.26678">
        <ele>761.02</ele>
        <time>2018-09-09T10:01:53Z</time>
      </trkpt>
      <trkpt lat="47.0267" lon="6.26682">
        <ele>760.54</ele>
        <time>2018-09-09T10:01:54Z</time>
      </trkpt>
      <trkpt lat="47.02665" lon="6.26685">
        <ele>760.06</ele>
        <time>2018-09-09T10:01:55Z</time>
      </trkpt>
      <trkpt lat="47.02662" lon="6.26689">
        <ele>759.58</ele>
        <time>2018-09-09T10:01:56Z</time>
      </trkpt>
      <trkpt lat="47.02663" lon="6.26693">
        <ele>760.06</ele>
        <time>2018-09-09T10:01:57Z</time>
      </trkpt>
      <trkpt lat="47.02665" lon="6.26695">
        <ele>760.06</ele>
        <time>2018-09-09T10:01:58Z</time>
      </trkpt>
      <trkpt lat="47.02668" lon="6.26699">
        <ele>758.62</ele>
        <time>2018-09-09T10:01:59Z</time>
      </trkpt>
      <trkpt lat="47.0267" lon="6.26705">
        <ele>758.62</ele>
        <time>2018-09-09T10:02:00Z</time>
      </trkpt>
      <trkpt lat="47.02671" lon="6.26712">
        <ele>757.66</ele>
        <time>2018-09-09T10:02:01Z</time>
      </trkpt>
      <trkpt lat="47.02672" lon="6.26721">
        <ele>757.18</ele>
        <time>2018-09-09T10:02:02Z</time>
      </trkpt>
      <trkpt lat="47.02673" lon="6.26729">
        <ele>756.69</ele>
        <time>2018-09-09T10:02:03Z</time>
      </trkpt>
      <trkpt lat="47.02674" lon="6.26737">
        <ele>756.21</ele>
        <time>2018-09-09T10:02:04Z</time>
      </trkpt>
      <trkpt lat="47.02675" lon="6.26754">
        <ele>756.21</ele>
        <time>2018-09-09T10:02:06Z</time>
      </trkpt>
      <trkpt lat="47.02674" lon="6.26762">
        <ele>756.21</ele>
        <time>2018-09-09T10:02:07Z</time>
      </trkpt>
      <trkpt lat="47.02675" lon="6.2677">
        <ele>755.73</ele>
        <time>2018-09-09T10:02:08Z</time>
      </trkpt>
      <trkpt lat="47.02679" lon="6.26802">
        <ele>754.29</ele>
        <time>2018-09-09T10:02:12Z</time>
      </trkpt>
      <trkpt lat="47.02682" lon="6.26811">
        <ele>754.29</ele>
        <time>2018-09-09T10:02:13Z</time>
      </trkpt>
      <trkpt lat="47.02701" lon="6.2689">
        <ele>750.93</ele>
        <time>2018-09-09T10:02:22Z</time>
      </trkpt>
      <trkpt lat="47.02702" lon="6.26899">
        <ele>749.97</ele>
        <time>2018-09-09T10:02:23Z</time>
      </trkpt>
      <trkpt lat="47.02703" lon="6.26924">
        <ele>748.04</ele>
        <time>2018-09-09T10:02:26Z</time>
      </trkpt>
      <trkpt lat="47.02703" lon="6.26931">
        <ele>747.08</ele>
        <time>2018-09-09T10:02:27Z</time>
      </trkpt>
      <trkpt lat="47.02704" lon="6.26937">
        <ele>747.08</ele>
        <time>2018-09-09T10:02:28Z</time>
      </trkpt>
      <trkpt lat="47.02705" lon="6.26942">
        <ele>746.6</ele>
        <time>2018-09-09T10:02:29Z</time>
      </trkpt>
      <trkpt lat="47.02707" lon="6.26945">
        <ele>746.12</ele>
        <time>2018-09-09T10:02:30Z</time>
      </trkpt>
      <trkpt lat="47.02709" lon="6.26949">
        <ele>745.64</ele>
        <time>2018-09-09T10:02:31Z</time>
      </trkpt>
      <trkpt lat="47.02712" lon="6.26953">
        <ele>744.68</ele>
        <time>2018-09-09T10:02:32Z</time>
      </trkpt>
      <trkpt lat="47.02716" lon="6.26957">
        <ele>744.2</ele>
        <time>2018-09-09T10:02:33Z</time>
      </trkpt>
      <trkpt lat="47.0272" lon="6.26961">
        <ele>743.24</ele>
        <time>2018-09-09T10:02:34Z</time>
      </trkpt>
      <trkpt lat="47.02723" lon="6.26966">
        <ele>742.28</ele>
        <time>2018-09-09T10:02:35Z</time>
      </trkpt>
      <trkpt lat="47.02726" lon="6.26972">
        <ele>740.83</ele>
        <time>2018-09-09T10:02:36Z</time>
      </trkpt>
      <trkpt lat="47.02729" lon="6.26979">
        <ele>739.87</ele>
        <time>2018-09-09T10:02:37Z</time>
      </trkpt>
      <trkpt lat="47.02731" lon="6.26986">
        <ele>738.91</ele>
        <time>2018-09-09T10:02:38Z</time>
      </trkpt>
      <trkpt lat="47.02734" lon="6.26994">
        <ele>737.95</ele>
        <time>2018-09-09T10:02:39Z</time>
      </trkpt>
      <trkpt lat="47.02736" lon="6.27002">
        <ele>736.51</ele>
        <time>2018-09-09T10:02:40Z</time>
      </trkpt>
      <trkpt lat="47.02744" lon="6.27025">
        <ele>732.66</ele>
        <time>2018-09-09T10:02:43Z</time>
      </trkpt>
      <trkpt lat="47.02757" lon="6.27043">
        <ele>728.82</ele>
        <time>2018-09-09T10:02:47Z</time>
      </trkpt>
      <trkpt lat="47.02771" lon="6.27057">
        <ele>725.45</ele>
        <time>2018-09-09T10:02:50Z</time>
      </trkpt>
      <trkpt lat="47.02783" lon="6.27064">
        <ele>722.09</ele>
        <time>2018-09-09T10:02:53Z</time>
      </trkpt>
      <trkpt lat="47.02791" lon="6.27071">
        <ele>720.16</ele>
        <time>2018-09-09T10:02:55Z</time>
      </trkpt>
      <trkpt lat="47.02796" lon="6.27073">
        <ele>718.72</ele>
        <time>2018-09-09T10:02:56Z</time>
      </trkpt>
      <trkpt lat="47.02802" lon="6.27077">
        <ele>718.24</ele>
        <time>2018-09-09T10:02:57Z</time>
      </trkpt>
      <trkpt lat="47.02822" lon="6.27087">
        <ele>714.88</ele>
        <time>2018-09-09T10:03:00Z</time>
      </trkpt>
      <trkpt lat="47.0283" lon="6.27092">
        <ele>713.92</ele>
        <time>2018-09-09T10:03:01Z</time>
      </trkpt>
      <trkpt lat="47.02853" lon="6.27105">
        <ele>710.55</ele>
        <time>2018-09-09T10:03:04Z</time>
      </trkpt>
      <trkpt lat="47.02876" lon="6.27115">
        <ele>707.67</ele>
        <time>2018-09-09T10:03:07Z</time>
      </trkpt>
      <trkpt lat="47.02889" lon="6.27124">
        <ele>705.75</ele>
        <time>2018-09-09T10:03:09Z</time>
      </trkpt>
      <trkpt lat="47.02893" lon="6.27128">
        <ele>705.75</ele>
        <time>2018-09-09T10:03:10Z</time>
      </trkpt>
      <trkpt lat="47.02902" lon="6.27137">
        <ele>705.75</ele>
        <time>2018-09-09T10:03:17Z</time>
      </trkpt>
      <trkpt lat="47.02908" lon="6.27139">
        <ele>705.26</ele>
        <time>2018-09-09T10:03:24Z</time>
      </trkpt>
      <trkpt lat="47.02911" lon="6.27141">
        <ele>704.78</ele>
        <time>2018-09-09T10:03:26Z</time>
      </trkpt>
      <trkpt lat="47.02927" lon="6.2715">
        <ele>701.9</ele>
        <time>2018-09-09T10:03:34Z</time>
      </trkpt>
      <trkpt lat="47.02938" lon="6.27145">
        <ele>699.02</ele>
        <time>2018-09-09T10:03:38Z</time>
      </trkpt>
      <trkpt lat="47.02942" lon="6.27145">
        <ele>697.09</ele>
        <time>2018-09-09T10:03:39Z</time>
      </trkpt>
      <trkpt lat="47.02952" lon="6.27149">
        <ele>694.69</ele>
        <time>2018-09-09T10:03:42Z</time>
      </trkpt>
      <trkpt lat="47.02958" lon="6.27151">
        <ele>692.77</ele>
        <time>2018-09-09T10:03:44Z</time>
      </trkpt>
      <trkpt lat="47.02964" lon="6.27154">
        <ele>689.88</ele>
        <time>2018-09-09T10:03:49Z</time>
      </trkpt>
      <trkpt lat="47.02965" lon="6.27153">
        <ele>689.88</ele>
        <time>2018-09-09T10:03:50Z</time>
      </trkpt>
      <trkpt lat="47.02975" lon="6.27152">
        <ele>686.04</ele>
        <time>2018-09-09T10:03:54Z</time>
      </trkpt>
      <trkpt lat="47.02982" lon="6.27155">
        <ele>682.67</ele>
        <time>2018-09-09T10:03:57Z</time>
      </trkpt>
      <trkpt lat="47.02991" lon="6.27147">
        <ele>678.83</ele>
        <time>2018-09-09T10:04:02Z</time>
      </trkpt>
      <trkpt lat="47.02995" lon="6.27145">
        <ele>676.42</ele>
        <time>2018-09-09T10:04:05Z</time>
      </trkpt>
      <trkpt lat="47.03" lon="6.27146">
        <ele>674.02</ele>
        <time>2018-09-09T10:04:08Z</time>
      </trkpt>
      <trkpt lat="47.03008" lon="6.27151">
        <ele>670.18</ele>
        <time>2018-09-09T10:04:14Z</time>
      </trkpt>
      <trkpt lat="47.03015" lon="6.27151">
        <ele>667.29</ele>
        <time>2018-09-09T10:04:19Z</time>
      </trkpt>
      <trkpt lat="47.03018" lon="6.27157">
        <ele>663.93</ele>
        <time>2018-09-09T10:04:24Z</time>
      </trkpt>
      <trkpt lat="47.03026" lon="6.2716">
        <ele>662.01</ele>
        <time>2018-09-09T10:04:27Z</time>
      </trkpt>
      <trkpt lat="47.03034" lon="6.27164">
        <ele>659.12</ele>
        <time>2018-09-09T10:04:30Z</time>
      </trkpt>
      <trkpt lat="47.03035" lon="6.27156">
        <ele>656.24</ele>
        <time>2018-09-09T10:04:35Z</time>
      </trkpt>
      <trkpt lat="47.03038" lon="6.27143">
        <ele>651.91</ele>
        <time>2018-09-09T10:04:41Z</time>
      </trkpt>
      <trkpt lat="47.03036" lon="6.2714">
        <ele>651.43</ele>
        <time>2018-09-09T10:04:43Z</time>
      </trkpt>
      <trkpt lat="47.03044" lon="6.27129">
        <ele>649.99</ele>
        <time>2018-09-09T10:04:49Z</time>
      </trkpt>
      <trkpt lat="47.03044" lon="6.27121">
        <ele>647.59</ele>
        <time>2018-09-09T10:04:53Z</time>
      </trkpt>
      <trkpt lat="47.03051" lon="6.27112">
        <ele>644.7</ele>
        <time>2018-09-09T10:05:04Z</time>
      </trkpt>
      <trkpt lat="47.0306" lon="6.27109">
        <ele>644.7</ele>
        <time>2018-09-09T10:05:35Z</time>
      </trkpt>
      <trkpt lat="47.03061" lon="6.27108">
        <ele>644.22</ele>
        <time>2018-09-09T10:05:41Z</time>
      </trkpt>
      <trkpt lat="47.03071" lon="6.27113">
        <ele>640.38</ele>
        <time>2018-09-09T10:05:46Z</time>
      </trkpt>
      <trkpt lat="47.03079" lon="6.27117">
        <ele>637.97</ele>
        <time>2018-09-09T10:05:48Z</time>
      </trkpt>
      <trkpt lat="47.03084" lon="6.27121">
        <ele>637.01</ele>
        <time>2018-09-09T10:05:49Z</time>
      </trkpt>
      <trkpt lat="47.03088" lon="6.27124">
        <ele>636.53</ele>
        <time>2018-09-09T10:05:50Z</time>
      </trkpt>
      <trkpt lat="47.03092" lon="6.27126">
        <ele>636.05</ele>
        <time>2018-09-09T10:05:51Z</time>
      </trkpt>
      <trkpt lat="47.03095" lon="6.27128">
        <ele>635.09</ele>
        <time>2018-09-09T10:05:52Z</time>
      </trkpt>
      <trkpt lat="47.03097" lon="6.2713">
        <ele>634.61</ele>
        <time>2018-09-09T10:05:53Z</time>
      </trkpt>
      <trkpt lat="47.03099" lon="6.27132">
        <ele>633.65</ele>
        <time>2018-09-09T10:05:54Z</time>
      </trkpt>
      <trkpt lat="47.03101" lon="6.27133">
        <ele>632.2</ele>
        <time>2018-09-09T10:05:55Z</time>
      </trkpt>
      <trkpt lat="47.03107" lon="6.27119">
        <ele>629.32</ele>
        <time>2018-09-09T10:06:01Z</time>
      </trkpt>
      <trkpt lat="47.03107" lon="6.27113">
        <ele>628.84</ele>
        <time>2018-09-09T10:06:02Z</time>
      </trkpt>
      <trkpt lat="47.03106" lon="6.27107">
        <ele>627.88</ele>
        <time>2018-09-09T10:06:03Z</time>
      </trkpt>
      <trkpt lat="47.03105" lon="6.27101">
        <ele>627.4</ele>
        <time>2018-09-09T10:06:04Z</time>
      </trkpt>
      <trkpt lat="47.03104" lon="6.27095">
        <ele>626.44</ele>
        <time>2018-09-09T10:06:05Z</time>
      </trkpt>
      <trkpt lat="47.03104" lon="6.27091">
        <ele>625.96</ele>
        <time>2018-09-09T10:06:06Z</time>
      </trkpt>
      <trkpt lat="47.03102" lon="6.27087">
        <ele>625.47</ele>
        <time>2018-09-09T10:06:07Z</time>
      </trkpt>
      <trkpt lat="47.03099" lon="6.27083">
        <ele>624.03</ele>
        <time>2018-09-09T10:06:08Z</time>
      </trkpt>
      <trkpt lat="47.03096" lon="6.27079">
        <ele>623.07</ele>
        <time>2018-09-09T10:06:09Z</time>
      </trkpt>
      <trkpt lat="47.03093" lon="6.27077">
        <ele>622.11</ele>
        <time>2018-09-09T10:06:10Z</time>
      </trkpt>
      <trkpt lat="47.03091" lon="6.27074">
        <ele>620.67</ele>
        <time>2018-09-09T10:06:11Z</time>
      </trkpt>
      <trkpt lat="47.0309" lon="6.27067">
        <ele>619.23</ele>
        <time>2018-09-09T10:06:12Z</time>
      </trkpt>
      <trkpt lat="47.0309" lon="6.2706">
        <ele>617.78</ele>
        <time>2018-09-09T10:06:13Z</time>
      </trkpt>
      <trkpt lat="47.03089" lon="6.27052">
        <ele>616.82</ele>
        <time>2018-09-09T10:06:14Z</time>
      </trkpt>
      <trkpt lat="47.03089" lon="6.27045">
        <ele>616.34</ele>
        <time>2018-09-09T10:06:15Z</time>
      </trkpt>
      <trkpt lat="47.03089" lon="6.27039">
        <ele>615.38</ele>
        <time>2018-09-09T10:06:16Z</time>
      </trkpt>
      <trkpt lat="47.0309" lon="6.27025">
        <ele>613.46</ele>
        <time>2018-09-09T10:06:18Z</time>
      </trkpt>
      <trkpt lat="47.0309" lon="6.27017">
        <ele>613.46</ele>
        <time>2018-09-09T10:06:19Z</time>
      </trkpt>
      <trkpt lat="47.03088" lon="6.2701">
        <ele>612.5</ele>
        <time>2018-09-09T10:06:20Z</time>
      </trkpt>
      <trkpt lat="47.03088" lon="6.27003">
        <ele>612.02</ele>
        <time>2018-09-09T10:06:21Z</time>
      </trkpt>
      <trkpt lat="47.03087" lon="6.26996">
        <ele>611.54</ele>
        <time>2018-09-09T10:06:22Z</time>
      </trkpt>
      <trkpt lat="47.03087" lon="6.26989">
        <ele>611.06</ele>
        <time>2018-09-09T10:06:23Z</time>
      </trkpt>
      <trkpt lat="47.03088" lon="6.26981">
        <ele>611.06</ele>
        <time>2018-09-09T10:06:24Z</time>
      </trkpt>
      <trkpt lat="47.03089" lon="6.26974">
        <ele>610.57</ele>
        <time>2018-09-09T10:06:25Z</time>
      </trkpt>
      <trkpt lat="47.03092" lon="6.26967">
        <ele>610.57</ele>
        <time>2018-09-09T10:06:26Z</time>
      </trkpt>
      <trkpt lat="47.03094" lon="6.26961">
        <ele>609.61</ele>
        <time>2018-09-09T10:06:27Z</time>
      </trkpt>
      <trkpt lat="47.03094" lon="6.26954">
        <ele>609.13</ele>
        <time>2018-09-09T10:06:28Z</time>
      </trkpt>
      <trkpt lat="47.03098" lon="6.2694">
        <ele>608.17</ele>
        <time>2018-09-09T10:06:30Z</time>
      </trkpt>
      <trkpt lat="47.03099" lon="6.26935">
        <ele>608.17</ele>
        <time>2018-09-09T10:06:31Z</time>
      </trkpt>
      <trkpt lat="47.03105" lon="6.26912">
        <ele>605.77</ele>
        <time>2018-09-09T10:06:36Z</time>
      </trkpt>
      <trkpt lat="47.03106" lon="6.26906">
        <ele>605.29</ele>
        <time>2018-09-09T10:06:37Z</time>
      </trkpt>
      <trkpt lat="47.03107" lon="6.26898">
        <ele>604.33</ele>
        <time>2018-09-09T10:06:38Z</time>
      </trkpt>
      <trkpt lat="47.03109" lon="6.2689">
        <ele>604.33</ele>
        <time>2018-09-09T10:06:39Z</time>
      </trkpt>
      <trkpt lat="47.03111" lon="6.26883">
        <ele>603.85</ele>
        <time>2018-09-09T10:06:40Z</time>
      </trkpt>
      <trkpt lat="47.03114" lon="6.26875">
        <ele>603.36</ele>
        <time>2018-09-09T10:06:41Z</time>
      </trkpt>
      <trkpt lat="47.03132" lon="6.26837">
        <ele>601.44</ele>
        <time>2018-09-09T10:06:46Z</time>
      </trkpt>
      <trkpt lat="47.03136" lon="6.26831">
        <ele>601.44</ele>
        <time>2018-09-09T10:06:47Z</time>
      </trkpt>
      <trkpt lat="47.0314" lon="6.26826">
        <ele>600.96</ele>
        <time>2018-09-09T10:06:48Z</time>
      </trkpt>
      <trkpt lat="47.03144" lon="6.26821">
        <ele>600.96</ele>
        <time>2018-09-09T10:06:49Z</time>
      </trkpt>
      <trkpt lat="47.03149" lon="6.26816">
        <ele>600</ele>
        <time>2018-09-09T10:06:50Z</time>
      </trkpt>
      <trkpt lat="47.03155" lon="6.2681">
        <ele>598.56</ele>
        <time>2018-09-09T10:06:51Z</time>
      </trkpt>
      <trkpt lat="47.03161" lon="6.26802">
        <ele>597.6</ele>
        <time>2018-09-09T10:06:52Z</time>
      </trkpt>
      <trkpt lat="47.03172" lon="6.26784">
        <ele>595.67</ele>
        <time>2018-09-09T10:06:54Z</time>
      </trkpt>
      <trkpt lat="47.03177" lon="6.26775">
        <ele>594.71</ele>
        <time>2018-09-09T10:06:55Z</time>
      </trkpt>
      <trkpt lat="47.03181" lon="6.26766">
        <ele>594.23</ele>
        <time>2018-09-09T10:06:56Z</time>
      </trkpt>
      <trkpt lat="47.03192" lon="6.26738">
        <ele>589.91</ele>
        <time>2018-09-09T10:06:59Z</time>
      </trkpt>
      <trkpt lat="47.032" lon="6.26723">
        <ele>588.46</ele>
        <time>2018-09-09T10:07:01Z</time>
      </trkpt>
      <trkpt lat="47.03206" lon="6.26717">
        <ele>587.02</ele>
        <time>2018-09-09T10:07:02Z</time>
      </trkpt>
      <trkpt lat="47.03212" lon="6.26712">
        <ele>586.06</ele>
        <time>2018-09-09T10:07:03Z</time>
      </trkpt>
      <trkpt lat="47.03233" lon="6.267">
        <ele>583.18</ele>
        <time>2018-09-09T10:07:06Z</time>
      </trkpt>
      <trkpt lat="47.03248" lon="6.26693">
        <ele>581.25</ele>
        <time>2018-09-09T10:07:08Z</time>
      </trkpt>
      <trkpt lat="47.0326" lon="6.2669">
        <ele>580.77</ele>
        <time>2018-09-09T10:07:10Z</time>
      </trkpt>
      <trkpt lat="47.03264" lon="6.26688">
        <ele>580.29</ele>
        <time>2018-09-09T10:07:11Z</time>
      </trkpt>
      <trkpt lat="47.03267" lon="6.26686">
        <ele>579.81</ele>
        <time>2018-09-09T10:07:12Z</time>
      </trkpt>
      <trkpt lat="47.03269" lon="6.26683">
        <ele>578.85</ele>
        <time>2018-09-09T10:07:13Z</time>
      </trkpt>
      <trkpt lat="47.0327" lon="6.2668">
        <ele>577.89</ele>
        <time>2018-09-09T10:07:14Z</time>
      </trkpt>
      <trkpt lat="47.03274" lon="6.26673">
        <ele>574.53</ele>
        <time>2018-09-09T10:07:16Z</time>
      </trkpt>
      <trkpt lat="47.03277" lon="6.26666">
        <ele>570.2</ele>
        <time>2018-09-09T10:07:19Z</time>
      </trkpt>
      <trkpt lat="47.03278" lon="6.26663">
        <ele>568.76</ele>
        <time>2018-09-09T10:07:20Z</time>
      </trkpt>
      <trkpt lat="47.0328" lon="6.26658">
        <ele>566.83</ele>
        <time>2018-09-09T10:07:21Z</time>
      </trkpt>
      <trkpt lat="47.03284" lon="6.26649">
        <ele>565.87</ele>
        <time>2018-09-09T10:07:22Z</time>
      </trkpt>
      <trkpt lat="47.03292" lon="6.26635">
        <ele>564.43</ele>
        <time>2018-09-09T10:07:23Z</time>
      </trkpt>
      <trkpt lat="47.033" lon="6.26624">
        <ele>562.03</ele>
        <time>2018-09-09T10:07:24Z</time>
      </trkpt>
      <trkpt lat="47.03307" lon="6.26617">
        <ele>561.55</ele>
        <time>2018-09-09T10:07:25Z</time>
      </trkpt>
      <trkpt lat="47.03329" lon="6.26596">
        <ele>558.18</ele>
        <time>2018-09-09T10:07:28Z</time>
      </trkpt>
      <trkpt lat="47.03336" lon="6.26587">
        <ele>556.74</ele>
        <time>2018-09-09T10:07:29Z</time>
      </trkpt>
      <trkpt lat="47.03342" lon="6.2658">
        <ele>555.78</ele>
        <time>2018-09-09T10:07:30Z</time>
      </trkpt>
      <trkpt lat="47.03355" lon="6.26559">
        <ele>553.38</ele>
        <time>2018-09-09T10:07:32Z</time>
      </trkpt>
      <trkpt lat="47.0336" lon="6.26546">
        <ele>551.93</ele>
        <time>2018-09-09T10:07:33Z</time>
      </trkpt>
      <trkpt lat="47.03365" lon="6.26533">
        <ele>550.01</ele>
        <time>2018-09-09T10:07:34Z</time>
      </trkpt>
      <trkpt lat="47.0338" lon="6.26496">
        <ele>546.65</ele>
        <time>2018-09-09T10:07:37Z</time>
      </trkpt>
      <trkpt lat="47.03398" lon="6.26452">
        <ele>543.28</ele>
        <time>2018-09-09T10:07:41Z</time>
      </trkpt>
      <trkpt lat="47.03419" lon="6.26414">
        <ele>539.92</ele>
        <time>2018-09-09T10:07:45Z</time>
      </trkpt>
      <trkpt lat="47.03441" lon="6.26388">
        <ele>536.07</ele>
        <time>2018-09-09T10:07:48Z</time>
      </trkpt>
      <trkpt lat="47.0345" lon="6.26382">
        <ele>534.63</ele>
        <time>2018-09-09T10:07:49Z</time>
      </trkpt>
      <trkpt lat="47.03484" lon="6.26361">
        <ele>531.27</ele>
        <time>2018-09-09T10:07:53Z</time>
      </trkpt>
      <trkpt lat="47.03491" lon="6.26356">
        <ele>530.79</ele>
        <time>2018-09-09T10:07:54Z</time>
      </trkpt>
      <trkpt lat="47.03504" lon="6.26345">
        <ele>529.34</ele>
        <time>2018-09-09T10:07:56Z</time>
      </trkpt>
      <trkpt lat="47.03529" lon="6.26331">
        <ele>525.98</ele>
        <time>2018-09-09T10:08:00Z</time>
      </trkpt>
      <trkpt lat="47.03536" lon="6.26329">
        <ele>525.02</ele>
        <time>2018-09-09T10:08:01Z</time>
      </trkpt>
      <trkpt lat="47.03544" lon="6.2633">
        <ele>524.06</ele>
        <time>2018-09-09T10:08:02Z</time>
      </trkpt>
      <trkpt lat="47.03551" lon="6.26331">
        <ele>523.58</ele>
        <time>2018-09-09T10:08:03Z</time>
      </trkpt>
      <trkpt lat="47.03556" lon="6.26334">
        <ele>523.09</ele>
        <time>2018-09-09T10:08:04Z</time>
      </trkpt>
      <trkpt lat="47.03564" lon="6.26333">
        <ele>522.13</ele>
        <time>2018-09-09T10:08:06Z</time>
      </trkpt>
      <trkpt lat="47.03566" lon="6.26329">
        <ele>521.65</ele>
        <time>2018-09-09T10:08:07Z</time>
      </trkpt>
      <trkpt lat="47.03568" lon="6.26325">
        <ele>521.65</ele>
        <time>2018-09-09T10:08:08Z</time>
      </trkpt>
      <trkpt lat="47.03568" lon="6.2632">
        <ele>521.65</ele>
        <time>2018-09-09T10:08:09Z</time>
      </trkpt>
      <trkpt lat="47.03569" lon="6.26314">
        <ele>521.65</ele>
        <time>2018-09-09T10:08:10Z</time>
      </trkpt>
      <trkpt lat="47.03577" lon="6.26258">
        <ele>522.13</ele>
        <time>2018-09-09T10:08:21Z</time>
      </trkpt>
      <trkpt lat="47.03575" lon="6.26258">
        <ele>522.13</ele>
        <time>2018-09-09T10:08:25Z</time>
      </trkpt>
      <trkpt lat="47.03575" lon="6.26261">
        <ele>522.13</ele>
        <time>2018-09-09T10:08:26Z</time>
      </trkpt>
      <trkpt lat="47.03575" lon="6.26264">
        <ele>522.13</ele>
        <time>2018-09-09T10:08:27Z</time>
      </trkpt>
      <trkpt lat="47.03575" lon="6.26267">
        <ele>521.65</ele>
        <time>2018-09-09T10:08:28Z</time>
      </trkpt>
      <trkpt lat="47.03576" lon="6.2627">
        <ele>521.65</ele>
        <time>2018-09-09T10:08:29Z</time>
      </trkpt>
      <trkpt lat="47.03578" lon="6.26271">
        <ele>521.65</ele>
        <time>2018-09-09T10:08:30Z</time>
      </trkpt>
      <trkpt lat="47.03579" lon="6.2627">
        <ele>521.65</ele>
        <time>2018-09-09T10:08:31Z</time>
      </trkpt>
      <trkpt lat="47.03591" lon="6.26262">
        <ele>520.21</ele>
        <time>2018-09-09T10:08:35Z</time>
      </trkpt>
      <trkpt lat="47.03595" lon="6.26258">
        <ele>519.25</ele>
        <time>2018-09-09T10:08:36Z</time>
      </trkpt>
      <trkpt lat="47.03612" lon="6.26238">
        <ele>515.88</ele>
        <time>2018-09-09T10:08:40Z</time>
      </trkpt>
      <trkpt lat="47.03616" lon="6.26234">
        <ele>514.92</ele>
        <time>2018-09-09T10:08:41Z</time>
      </trkpt>
      <trkpt lat="47.0362" lon="6.26232">
        <ele>513.96</ele>
        <time>2018-09-09T10:08:42Z</time>
      </trkpt>
      <trkpt lat="47.03633" lon="6.26233">
        <ele>511.08</ele>
        <time>2018-09-09T10:08:45Z</time>
      </trkpt>
      <trkpt lat="47.03638" lon="6.26234">
        <ele>510.12</ele>
        <time>2018-09-09T10:08:46Z</time>
      </trkpt>
      <trkpt lat="47.03658" lon="6.26233">
        <ele>505.79</ele>
        <time>2018-09-09T10:08:50Z</time>
      </trkpt>
      <trkpt lat="47.03676" lon="6.26212">
        <ele>501.46</ele>
        <time>2018-09-09T10:08:55Z</time>
      </trkpt>
      <trkpt lat="47.03675" lon="6.26191">
        <ele>498.58</ele>
        <time>2018-09-09T10:08:58Z</time>
      </trkpt>
      <trkpt lat="47.03674" lon="6.26177">
        <ele>496.18</ele>
        <time>2018-09-09T10:09:00Z</time>
      </trkpt>
      <trkpt lat="47.03676" lon="6.26152">
        <ele>493.29</ele>
        <time>2018-09-09T10:09:03Z</time>
      </trkpt>
      <trkpt lat="47.03676" lon="6.26135">
        <ele>491.37</ele>
        <time>2018-09-09T10:09:05Z</time>
      </trkpt>
      <trkpt lat="47.03688" lon="6.26105">
        <ele>487.05</ele>
        <time>2018-09-09T10:09:10Z</time>
      </trkpt>
      <trkpt lat="47.03694" lon="6.26093">
        <ele>485.12</ele>
        <time>2018-09-09T10:09:13Z</time>
      </trkpt>
      <trkpt lat="47.03696" lon="6.26067">
        <ele>483.68</ele>
        <time>2018-09-09T10:09:25Z</time>
      </trkpt>
      <trkpt lat="47.03701" lon="6.2606">
        <ele>482.72</ele>
        <time>2018-09-09T10:09:37Z</time>
      </trkpt>
      <trkpt lat="47.03701" lon="6.26058">
        <ele>482.24</ele>
        <time>2018-09-09T10:09:39Z</time>
      </trkpt>
      <trkpt lat="47.03707" lon="6.26042">
        <ele>480.8</ele>
        <time>2018-09-09T10:09:43Z</time>
      </trkpt>
      <trkpt lat="47.03722" lon="6.26008">
        <ele>476.95</ele>
        <time>2018-09-09T10:09:49Z</time>
      </trkpt>
      <trkpt lat="47.03738" lon="6.25979">
        <ele>472.63</ele>
        <time>2018-09-09T10:09:53Z</time>
      </trkpt>
      <trkpt lat="47.03751" lon="6.25956">
        <ele>471.18</ele>
        <time>2018-09-09T10:09:56Z</time>
      </trkpt>
      <trkpt lat="47.03758" lon="6.25943">
        <ele>471.18</ele>
        <time>2018-09-09T10:09:58Z</time>
      </trkpt>
      <trkpt lat="47.03769" lon="6.25923">
        <ele>469.74</ele>
        <time>2018-09-09T10:10:01Z</time>
      </trkpt>
      <trkpt lat="47.03773" lon="6.25905">
        <ele>468.3</ele>
        <time>2018-09-09T10:10:03Z</time>
      </trkpt>
      <trkpt lat="47.03798" lon="6.25843">
        <ele>463.49</ele>
        <time>2018-09-09T10:10:09Z</time>
      </trkpt>
      <trkpt lat="47.03807" lon="6.25822">
        <ele>462.53</ele>
        <time>2018-09-09T10:10:11Z</time>
      </trkpt>
      <trkpt lat="47.03813" lon="6.25799">
        <ele>460.61</ele>
        <time>2018-09-09T10:10:13Z</time>
      </trkpt>
      <trkpt lat="47.03816" lon="6.25776">
        <ele>460.13</ele>
        <time>2018-09-09T10:10:15Z</time>
      </trkpt>
      <trkpt lat="47.03819" lon="6.25757">
        <ele>458.69</ele>
        <time>2018-09-09T10:10:17Z</time>
      </trkpt>
      <trkpt lat="47.03836" lon="6.25695">
        <ele>459.17</ele>
        <time>2018-09-09T10:10:28Z</time>
      </trkpt>
      <trkpt lat="47.03845" lon="6.25672">
        <ele>457.72</ele>
        <time>2018-09-09T10:10:32Z</time>
      </trkpt>
      <trkpt lat="47.03849" lon="6.25659">
        <ele>455.8</ele>
        <time>2018-09-09T10:10:34Z</time>
      </trkpt>
      <trkpt lat="47.03859" lon="6.25634">
        <ele>453.4</ele>
        <time>2018-09-09T10:10:38Z</time>
      </trkpt>
      <trkpt lat="47.03862" lon="6.25629">
        <ele>453.4</ele>
        <time>2018-09-09T10:10:39Z</time>
      </trkpt>
      <trkpt lat="47.03873" lon="6.25617">
        <ele>451.96</ele>
        <time>2018-09-09T10:10:42Z</time>
      </trkpt>
      <trkpt lat="47.03895" lon="6.25597">
        <ele>451.96</ele>
        <time>2018-09-09T10:10:48Z</time>
      </trkpt>
      <trkpt lat="47.03919" lon="6.25563">
        <ele>453.4</ele>
        <time>2018-09-09T10:10:58Z</time>
      </trkpt>
      <trkpt lat="47.03942" lon="6.25518">
        <ele>454.36</ele>
        <time>2018-09-09T10:11:10Z</time>
      </trkpt>
      <trkpt lat="47.03947" lon="6.25512">
        <ele>453.88</ele>
        <time>2018-09-09T10:11:12Z</time>
      </trkpt>
      <trkpt lat="47.0397" lon="6.25494">
        <ele>450.52</ele>
        <time>2018-09-09T10:11:17Z</time>
      </trkpt>
      <trkpt lat="47.03981" lon="6.25488">
        <ele>448.59</ele>
        <time>2018-09-09T10:11:19Z</time>
      </trkpt>
      <trkpt lat="47.04" lon="6.25487">
        <ele>444.75</ele>
        <time>2018-09-09T10:11:23Z</time>
      </trkpt>
      <trkpt lat="47.0402" lon="6.25482">
        <ele>439.94</ele>
        <time>2018-09-09T10:11:27Z</time>
      </trkpt>
      <trkpt lat="47.04023" lon="6.25472">
        <ele>438.98</ele>
        <time>2018-09-09T10:11:29Z</time>
      </trkpt>
      <trkpt lat="47.04024" lon="6.25451">
        <ele>437.06</ele>
        <time>2018-09-09T10:11:32Z</time>
      </trkpt>
      <trkpt lat="47.04021" lon="6.25421">
        <ele>432.25</ele>
        <time>2018-09-09T10:11:36Z</time>
      </trkpt>
      <trkpt lat="47.04021" lon="6.25396">
        <ele>428.4</ele>
        <time>2018-09-09T10:11:39Z</time>
      </trkpt>
      <trkpt lat="47.04023" lon="6.25374">
        <ele>426.48</ele>
        <time>2018-09-09T10:11:41Z</time>
      </trkpt>
      <trkpt lat="47.04026" lon="6.25331">
        <ele>420.71</ele>
        <time>2018-09-09T10:11:45Z</time>
      </trkpt>
      <trkpt lat="47.04027" lon="6.25321">
        <ele>419.27</ele>
        <time>2018-09-09T10:11:46Z</time>
      </trkpt>
      <trkpt lat="47.04031" lon="6.25303">
        <ele>416.87</ele>
        <time>2018-09-09T10:11:49Z</time>
      </trkpt>
      <trkpt lat="47.04046" lon="6.25328">
        <ele>413.02</ele>
        <time>2018-09-09T10:11:55Z</time>
      </trkpt>
      <trkpt lat="47.0405" lon="6.25339">
        <ele>411.1</ele>
        <time>2018-09-09T10:11:59Z</time>
      </trkpt>
      <trkpt lat="47.04052" lon="6.2534">
        <ele>411.1</ele>
        <time>2018-09-09T10:12:07Z</time>
      </trkpt>
      <trkpt lat="47.04059" lon="6.25356">
        <ele>408.7</ele>
        <time>2018-09-09T10:12:14Z</time>
      </trkpt>
      <trkpt lat="47.04068" lon="6.25384">
        <ele>404.37</ele>
        <time>2018-09-09T10:12:20Z</time>
      </trkpt>
      <trkpt lat="47.04072" lon="6.25394">
        <ele>401.49</ele>
        <time>2018-09-09T10:12:22Z</time>
      </trkpt>
      <trkpt lat="47.04074" lon="6.254">
        <ele>400.53</ele>
        <time>2018-09-09T10:12:23Z</time>
      </trkpt>
      <trkpt lat="47.04079" lon="6.25411">
        <ele>398.6</ele>
        <time>2018-09-09T10:12:25Z</time>
      </trkpt>
      <trkpt lat="47.04082" lon="6.25416">
        <ele>398.12</ele>
        <time>2018-09-09T10:12:26Z</time>
      </trkpt>
      <trkpt lat="47.04086" lon="6.2542">
        <ele>397.16</ele>
        <time>2018-09-09T10:12:27Z</time>
      </trkpt>
      <trkpt lat="47.0409" lon="6.25423">
        <ele>396.68</ele>
        <time>2018-09-09T10:12:28Z</time>
      </trkpt>
      <trkpt lat="47.04094" lon="6.25426">
        <ele>395.72</ele>
        <time>2018-09-09T10:12:29Z</time>
      </trkpt>
      <trkpt lat="47.041" lon="6.25428">
        <ele>395.24</ele>
        <time>2018-09-09T10:12:30Z</time>
      </trkpt>
      <trkpt lat="47.04106" lon="6.25429">
        <ele>394.76</ele>
        <time>2018-09-09T10:12:31Z</time>
      </trkpt>
      <trkpt lat="47.04111" lon="6.25429">
        <ele>393.8</ele>
        <time>2018-09-09T10:12:32Z</time>
      </trkpt>
      <trkpt lat="47.04117" lon="6.25429">
        <ele>393.32</ele>
        <time>2018-09-09T10:12:33Z</time>
      </trkpt>
      <trkpt lat="47.04128" lon="6.25429">
        <ele>392.84</ele>
        <time>2018-09-09T10:12:35Z</time>
      </trkpt>
      <trkpt lat="47.04138" lon="6.25428">
        <ele>392.36</ele>
        <time>2018-09-09T10:12:37Z</time>
      </trkpt>
      <trkpt lat="47.04143" lon="6.25426">
        <ele>391.87</ele>
        <time>2018-09-09T10:12:38Z</time>
      </trkpt>
      <trkpt lat="47.04146" lon="6.25422">
        <ele>391.39</ele>
        <time>2018-09-09T10:12:39Z</time>
      </trkpt>
      <trkpt lat="47.0415" lon="6.25418">
        <ele>391.39</ele>
        <time>2018-09-09T10:12:40Z</time>
      </trkpt>
      <trkpt lat="47.04153" lon="6.25413">
        <ele>390.91</ele>
        <time>2018-09-09T10:12:41Z</time>
      </trkpt>
      <trkpt lat="47.04156" lon="6.25408">
        <ele>390.91</ele>
        <time>2018-09-09T10:12:42Z</time>
      </trkpt>
      <trkpt lat="47.04158" lon="6.25401">
        <ele>390.43</ele>
        <time>2018-09-09T10:12:43Z</time>
      </trkpt>
      <trkpt lat="47.04159" lon="6.25394">
        <ele>389.95</ele>
        <time>2018-09-09T10:12:44Z</time>
      </trkpt>
      <trkpt lat="47.0416" lon="6.25388">
        <ele>389.95</ele>
        <time>2018-09-09T10:12:45Z</time>
      </trkpt>
      <trkpt lat="47.04167" lon="6.2536">
        <ele>389.47</ele>
        <time>2018-09-09T10:12:49Z</time>
      </trkpt>
      <trkpt lat="47.04168" lon="6.25353">
        <ele>388.99</ele>
        <time>2018-09-09T10:12:50Z</time>
      </trkpt>
      <trkpt lat="47.04177" lon="6.2527">
        <ele>387.55</ele>
        <time>2018-09-09T10:13:01Z</time>
      </trkpt>
      <trkpt lat="47.04177" lon="6.25249">
        <ele>387.55</ele>
        <time>2018-09-09T10:13:04Z</time>
      </trkpt>
      <trkpt lat="47.04177" lon="6.25236">
        <ele>388.03</ele>
        <time>2018-09-09T10:13:06Z</time>
      </trkpt>
      <trkpt lat="47.04176" lon="6.2523">
        <ele>387.55</ele>
        <time>2018-09-09T10:13:07Z</time>
      </trkpt>
      <trkpt lat="47.04177" lon="6.25166">
        <ele>387.55</ele>
        <time>2018-09-09T10:13:19Z</time>
      </trkpt>
      <trkpt lat="47.04179" lon="6.2516">
        <ele>387.07</ele>
        <time>2018-09-09T10:13:20Z</time>
      </trkpt>
      <trkpt lat="47.04182" lon="6.25154">
        <ele>387.07</ele>
        <time>2018-09-09T10:13:21Z</time>
      </trkpt>
      <trkpt lat="47.04222" lon="6.25077">
        <ele>387.07</ele>
        <time>2018-09-09T10:13:35Z</time>
      </trkpt>
      <trkpt lat="47.04238" lon="6.25058">
        <ele>387.07</ele>
        <time>2018-09-09T10:13:39Z</time>
      </trkpt>
      <trkpt lat="47.04242" lon="6.25054">
        <ele>387.07</ele>
        <time>2018-09-09T10:13:40Z</time>
      </trkpt>
      <trkpt lat="47.04246" lon="6.25049">
        <ele>387.07</ele>
        <time>2018-09-09T10:13:41Z</time>
      </trkpt>
      <trkpt lat="47.0425" lon="6.25044">
        <ele>387.07</ele>
        <time>2018-09-09T10:13:42Z</time>
      </trkpt>
      <trkpt lat="47.04252" lon="6.25041">
        <ele>387.55</ele>
        <time>2018-09-09T10:13:43Z</time>
      </trkpt>
      <trkpt lat="47.04258" lon="6.25036">
        <ele>387.55</ele>
        <time>2018-09-09T10:13:44Z</time>
      </trkpt>
      <trkpt lat="47.04282" lon="6.25024">
        <ele>388.03</ele>
        <time>2018-09-09T10:13:49Z</time>
      </trkpt>
      <trkpt lat="47.04286" lon="6.25021">
        <ele>388.03</ele>
        <time>2018-09-09T10:13:50Z</time>
      </trkpt>
      <trkpt lat="47.04301" lon="6.25006">
        <ele>388.51</ele>
        <time>2018-09-09T10:13:54Z</time>
      </trkpt>
      <trkpt lat="47.04315" lon="6.24991">
        <ele>388.51</ele>
        <time>2018-09-09T10:13:58Z</time>
      </trkpt>
      <trkpt lat="47.04316" lon="6.24987">
        <ele>388.51</ele>
        <time>2018-09-09T10:13:59Z</time>
      </trkpt>
      <trkpt lat="47.04319" lon="6.24982">
        <ele>388.51</ele>
        <time>2018-09-09T10:14:00Z</time>
      </trkpt>
      <trkpt lat="47.04336" lon="6.24959">
        <ele>388.99</ele>
        <time>2018-09-09T10:14:06Z</time>
      </trkpt>
      <trkpt lat="47.04339" lon="6.24961">
        <ele>388.99</ele>
        <time>2018-09-09T10:14:07Z</time>
      </trkpt>
      <trkpt lat="47.04341" lon="6.24965">
        <ele>388.99</ele>
        <time>2018-09-09T10:14:08Z</time>
      </trkpt>
      <trkpt lat="47.04363" lon="6.25005">
        <ele>387.07</ele>
        <time>2018-09-09T10:14:18Z</time>
      </trkpt>
      <trkpt lat="47.04367" lon="6.25004">
        <ele>386.59</ele>
        <time>2018-09-09T10:14:19Z</time>
      </trkpt>
      <trkpt lat="47.0437" lon="6.25001">
        <ele>386.11</ele>
        <time>2018-09-09T10:14:20Z</time>
      </trkpt>
      <trkpt lat="47.04395" lon="6.24981">
        <ele>386.59</ele>
        <time>2018-09-09T10:14:29Z</time>
      </trkpt>
      <trkpt lat="47.0441" lon="6.24977">
        <ele>388.03</ele>
        <time>2018-09-09T10:14:36Z</time>
      </trkpt>
      <trkpt lat="47.04425" lon="6.24947">
        <ele>389.47</ele>
        <time>2018-09-09T10:14:48Z</time>
      </trkpt>
      <trkpt lat="47.04447" lon="6.24917">
        <ele>392.36</ele>
        <time>2018-09-09T10:15:02Z</time>
      </trkpt>
      <trkpt lat="47.04453" lon="6.24891">
        <ele>395.24</ele>
        <time>2018-09-09T10:15:14Z</time>
      </trkpt>
      <trkpt lat="47.04454" lon="6.24886">
        <ele>395.24</ele>
        <time>2018-09-09T10:15:16Z</time>
      </trkpt>
      <trkpt lat="47.04453" lon="6.24877">
        <ele>396.68</ele>
        <time>2018-09-09T10:15:20Z</time>
      </trkpt>
      <trkpt lat="47.04458" lon="6.24841">
        <ele>400.05</ele>
        <time>2018-09-09T10:15:36Z</time>
      </trkpt>
      <trkpt lat="47.0446" lon="6.2482">
        <ele>402.45</ele>
        <time>2018-09-09T10:15:46Z</time>
      </trkpt>
      <trkpt lat="47.04459" lon="6.24812">
        <ele>403.41</ele>
        <time>2018-09-09T10:15:50Z</time>
      </trkpt>
      <trkpt lat="47.04462" lon="6.24788">
        <ele>406.29</ele>
        <time>2018-09-09T10:16:03Z</time>
      </trkpt>
      <trkpt lat="47.04467" lon="6.24783">
        <ele>408.22</ele>
        <time>2018-09-09T10:16:12Z</time>
      </trkpt>
      <trkpt lat="47.04468" lon="6.24775">
        <ele>410.14</ele>
        <time>2018-09-09T10:16:20Z</time>
      </trkpt>
      <trkpt lat="47.04486" lon="6.2478">
        <ele>410.62</ele>
        <time>2018-09-09T10:16:26Z</time>
      </trkpt>
      <trkpt lat="47.04489" lon="6.24784">
        <ele>411.1</ele>
        <time>2018-09-09T10:16:29Z</time>
      </trkpt>
      <trkpt lat="47.04498" lon="6.24793">
        <ele>413.02</ele>
        <time>2018-09-09T10:16:38Z</time>
      </trkpt>
      <trkpt lat="47.04512" lon="6.24815">
        <ele>415.91</ele>
        <time>2018-09-09T10:16:53Z</time>
      </trkpt>
      <trkpt lat="47.04521" lon="6.24831">
        <ele>417.83</ele>
        <time>2018-09-09T10:17:05Z</time>
      </trkpt>
      <trkpt lat="47.0453" lon="6.24845">
        <ele>420.23</ele>
        <time>2018-09-09T10:17:17Z</time>
      </trkpt>
      <trkpt lat="47.0453" lon="6.24854">
        <ele>421.19</ele>
        <time>2018-09-09T10:17:23Z</time>
      </trkpt>
      <trkpt lat="47.04514" lon="6.24897">
        <ele>419.75</ele>
        <time>2018-09-09T10:17:35Z</time>
      </trkpt>
      <trkpt lat="47.0448" lon="6.24951">
        <ele>419.75</ele>
        <time>2018-09-09T10:17:49Z</time>
      </trkpt>
      <trkpt lat="47.04462" lon="6.25">
        <ele>418.79</ele>
        <time>2018-09-09T10:18:00Z</time>
      </trkpt>
      <trkpt lat="47.04455" lon="6.25022">
        <ele>418.79</ele>
        <time>2018-09-09T10:18:04Z</time>
      </trkpt>
      <trkpt lat="47.04436" lon="6.25077">
        <ele>418.79</ele>
        <time>2018-09-09T10:18:16Z</time>
      </trkpt>
      <trkpt lat="47.04418" lon="6.25136">
        <ele>417.83</ele>
        <time>2018-09-09T10:18:28Z</time>
      </trkpt>
      <trkpt lat="47.04409" lon="6.25178">
        <ele>419.75</ele>
        <time>2018-09-09T10:18:39Z</time>
      </trkpt>
      <trkpt lat="47.04397" lon="6.2521">
        <ele>422.16</ele>
        <time>2018-09-09T10:18:54Z</time>
      </trkpt>
      <trkpt lat="47.04388" lon="6.25232">
        <ele>425.04</ele>
        <time>2018-09-09T10:19:06Z</time>
      </trkpt>
      <trkpt lat="47.04387" lon="6.25235">
        <ele>425.52</ele>
        <time>2018-09-09T10:19:08Z</time>
      </trkpt>
      <trkpt lat="47.04386" lon="6.25237">
        <ele>425.52</ele>
        <time>2018-09-09T10:19:09Z</time>
      </trkpt>
      <trkpt lat="47.04385" lon="6.25239">
        <ele>425.52</ele>
        <time>2018-09-09T10:19:10Z</time>
      </trkpt>
      <trkpt lat="47.04385" lon="6.25241">
        <ele>425.52</ele>
        <time>2018-09-09T10:19:11Z</time>
      </trkpt>
      <trkpt lat="47.04384" lon="6.25242">
        <ele>426</ele>
        <time>2018-09-09T10:19:12Z</time>
      </trkpt>
      <trkpt lat="47.04383" lon="6.25244">
        <ele>426.48</ele>
        <time>2018-09-09T10:19:13Z</time>
      </trkpt>
      <trkpt lat="47.04375" lon="6.25264">
        <ele>428.89</ele>
        <time>2018-09-09T10:19:26Z</time>
      </trkpt>
      <trkpt lat="47.04364" lon="6.25284">
        <ele>431.77</ele>
        <time>2018-09-09T10:19:39Z</time>
      </trkpt>
      <trkpt lat="47.04355" lon="6.25303">
        <ele>434.17</ele>
        <time>2018-09-09T10:19:52Z</time>
      </trkpt>
      <trkpt lat="47.04354" lon="6.25316">
        <ele>436.1</ele>
        <time>2018-09-09T10:20:00Z</time>
      </trkpt>
      <trkpt lat="47.04353" lon="6.25325">
        <ele>437.06</ele>
        <time>2018-09-09T10:20:05Z</time>
      </trkpt>
      <trkpt lat="47.04349" lon="6.25347">
        <ele>439.94</ele>
        <time>2018-09-09T10:20:18Z</time>
      </trkpt>
      <trkpt lat="47.04346" lon="6.25369">
        <ele>442.82</ele>
        <time>2018-09-09T10:20:31Z</time>
      </trkpt>
      <trkpt lat="47.04343" lon="6.25374">
        <ele>443.79</ele>
        <time>2018-09-09T10:20:35Z</time>
      </trkpt>
      <trkpt lat="47.04342" lon="6.25391">
        <ele>446.67</ele>
        <time>2018-09-09T10:20:46Z</time>
      </trkpt>
      <trkpt lat="47.04341" lon="6.25401">
        <ele>448.11</ele>
        <time>2018-09-09T10:20:52Z</time>
      </trkpt>
      <trkpt lat="47.04345" lon="6.25417">
        <ele>450.52</ele>
        <time>2018-09-09T10:21:01Z</time>
      </trkpt>
      <trkpt lat="47.04346" lon="6.25428">
        <ele>451.96</ele>
        <time>2018-09-09T10:21:07Z</time>
      </trkpt>
      <trkpt lat="47.04348" lon="6.2545">
        <ele>455.32</ele>
        <time>2018-09-09T10:21:21Z</time>
      </trkpt>
      <trkpt lat="47.04348" lon="6.2547">
        <ele>458.21</ele>
        <time>2018-09-09T10:21:33Z</time>
      </trkpt>
      <trkpt lat="47.04347" lon="6.25489">
        <ele>461.09</ele>
        <time>2018-09-09T10:21:44Z</time>
      </trkpt>
      <trkpt lat="47.04343" lon="6.25512">
        <ele>463.97</ele>
        <time>2018-09-09T10:21:57Z</time>
      </trkpt>
      <trkpt lat="47.04341" lon="6.25521">
        <ele>464.93</ele>
        <time>2018-09-09T10:22:02Z</time>
      </trkpt>
      <trkpt lat="47.04341" lon="6.2553">
        <ele>465.9</ele>
        <time>2018-09-09T10:22:07Z</time>
      </trkpt>
      <trkpt lat="47.0434" lon="6.25544">
        <ele>467.82</ele>
        <time>2018-09-09T10:22:14Z</time>
      </trkpt>
      <trkpt lat="47.04335" lon="6.25568">
        <ele>471.18</ele>
        <time>2018-09-09T10:22:27Z</time>
      </trkpt>
      <trkpt lat="47.04323" lon="6.2559">
        <ele>474.55</ele>
        <time>2018-09-09T10:22:43Z</time>
      </trkpt>
      <trkpt lat="47.04313" lon="6.25602">
        <ele>476.47</ele>
        <time>2018-09-09T10:22:52Z</time>
      </trkpt>
      <trkpt lat="47.04311" lon="6.25616">
        <ele>477.91</ele>
        <time>2018-09-09T10:22:59Z</time>
      </trkpt>
      <trkpt lat="47.0431" lon="6.25655">
        <ele>479.84</ele>
        <time>2018-09-09T10:23:14Z</time>
      </trkpt>
      <trkpt lat="47.04308" lon="6.2568">
        <ele>479.84</ele>
        <time>2018-09-09T10:23:21Z</time>
      </trkpt>
      <trkpt lat="47.04301" lon="6.25701">
        <ele>479.84</ele>
        <time>2018-09-09T10:23:27Z</time>
      </trkpt>
      <trkpt lat="47.04295" lon="6.25749">
        <ele>478.87</ele>
        <time>2018-09-09T10:23:39Z</time>
      </trkpt>
      <trkpt lat="47.04294" lon="6.25765">
        <ele>477.91</ele>
        <time>2018-09-09T10:23:41Z</time>
      </trkpt>
      <trkpt lat="47.04292" lon="6.25797">
        <ele>477.43</ele>
        <time>2018-09-09T10:23:46Z</time>
      </trkpt>
      <trkpt lat="47.04295" lon="6.25826">
        <ele>477.91</ele>
        <time>2018-09-09T10:23:51Z</time>
      </trkpt>
      <trkpt lat="47.04301" lon="6.25884">
        <ele>477.91</ele>
        <time>2018-09-09T10:24:04Z</time>
      </trkpt>
      <trkpt lat="47.04304" lon="6.25939">
        <ele>476.95</ele>
        <time>2018-09-09T10:24:15Z</time>
      </trkpt>
      <trkpt lat="47.04313" lon="6.26013">
        <ele>476.47</ele>
        <time>2018-09-09T10:24:30Z</time>
      </trkpt>
      <trkpt lat="47.04325" lon="6.26069">
        <ele>475.99</ele>
        <time>2018-09-09T10:24:41Z</time>
      </trkpt>
      <trkpt lat="47.04326" lon="6.26088">
        <ele>475.51</ele>
        <time>2018-09-09T10:24:44Z</time>
      </trkpt>
      <trkpt lat="47.04326" lon="6.26095">
        <ele>475.03</ele>
        <time>2018-09-09T10:24:45Z</time>
      </trkpt>
      <trkpt lat="47.04327" lon="6.26102">
        <ele>474.55</ele>
        <time>2018-09-09T10:24:46Z</time>
      </trkpt>
      <trkpt lat="47.0433" lon="6.26133">
        <ele>473.59</ele>
        <time>2018-09-09T10:24:50Z</time>
      </trkpt>
      <trkpt lat="47.04331" lon="6.2614">
        <ele>474.07</ele>
        <time>2018-09-09T10:24:51Z</time>
      </trkpt>
      <trkpt lat="47.04332" lon="6.26153">
        <ele>474.07</ele>
        <time>2018-09-09T10:24:53Z</time>
      </trkpt>
      <trkpt lat="47.04332" lon="6.2616">
        <ele>473.59</ele>
        <time>2018-09-09T10:24:54Z</time>
      </trkpt>
      <trkpt lat="47.04336" lon="6.26204">
        <ele>475.51</ele>
        <time>2018-09-09T10:25:04Z</time>
      </trkpt>
      <trkpt lat="47.04337" lon="6.2621">
        <ele>475.51</ele>
        <time>2018-09-09T10:25:06Z</time>
      </trkpt>
      <trkpt lat="47.04335" lon="6.2625">
        <ele>471.66</ele>
        <time>2018-09-09T10:25:12Z</time>
      </trkpt>
      <trkpt lat="47.04336" lon="6.26273">
        <ele>468.3</ele>
        <time>2018-09-09T10:25:14Z</time>
      </trkpt>
      <trkpt lat="47.04341" lon="6.26322">
        <ele>464.45</ele>
        <time>2018-09-09T10:25:18Z</time>
      </trkpt>
      <trkpt lat="47.0434" lon="6.26335">
        <ele>463.97</ele>
        <time>2018-09-09T10:25:19Z</time>
      </trkpt>
      <trkpt lat="47.04337" lon="6.26346">
        <ele>463.01</ele>
        <time>2018-09-09T10:25:20Z</time>
      </trkpt>
      <trkpt lat="47.04333" lon="6.26355">
        <ele>463.01</ele>
        <time>2018-09-09T10:25:21Z</time>
      </trkpt>
      <trkpt lat="47.04327" lon="6.26362">
        <ele>463.01</ele>
        <time>2018-09-09T10:25:22Z</time>
      </trkpt>
      <trkpt lat="47.04322" lon="6.26368">
        <ele>463.49</ele>
        <time>2018-09-09T10:25:23Z</time>
      </trkpt>
      <trkpt lat="47.04301" lon="6.26389">
        <ele>463.49</ele>
        <time>2018-09-09T10:25:27Z</time>
      </trkpt>
      <trkpt lat="47.04272" lon="6.26429">
        <ele>463.49</ele>
        <time>2018-09-09T10:25:34Z</time>
      </trkpt>
      <trkpt lat="47.04268" lon="6.26434">
        <ele>463.49</ele>
        <time>2018-09-09T10:25:35Z</time>
      </trkpt>
      <trkpt lat="47.04264" lon="6.2644">
        <ele>463.49</ele>
        <time>2018-09-09T10:25:36Z</time>
      </trkpt>
      <trkpt lat="47.04257" lon="6.26451">
        <ele>463.01</ele>
        <time>2018-09-09T10:25:38Z</time>
      </trkpt>
      <trkpt lat="47.04254" lon="6.26458">
        <ele>463.49</ele>
        <time>2018-09-09T10:25:39Z</time>
      </trkpt>
      <trkpt lat="47.04253" lon="6.26465">
        <ele>463.49</ele>
        <time>2018-09-09T10:25:40Z</time>
      </trkpt>
      <trkpt lat="47.04246" lon="6.26499">
        <ele>463.97</ele>
        <time>2018-09-09T10:25:45Z</time>
      </trkpt>
      <trkpt lat="47.04244" lon="6.26504">
        <ele>464.45</ele>
        <time>2018-09-09T10:25:46Z</time>
      </trkpt>
      <trkpt lat="47.04241" lon="6.26509">
        <ele>464.45</ele>
        <time>2018-09-09T10:25:47Z</time>
      </trkpt>
      <trkpt lat="47.04238" lon="6.26512">
        <ele>464.93</ele>
        <time>2018-09-09T10:25:48Z</time>
      </trkpt>
      <trkpt lat="47.04235" lon="6.26514">
        <ele>464.93</ele>
        <time>2018-09-09T10:25:49Z</time>
      </trkpt>
      <trkpt lat="47.04232" lon="6.26516">
        <ele>465.42</ele>
        <time>2018-09-09T10:25:50Z</time>
      </trkpt>
      <trkpt lat="47.04199" lon="6.26524">
        <ele>468.3</ele>
        <time>2018-09-09T10:26:03Z</time>
      </trkpt>
      <trkpt lat="47.04171" lon="6.26532">
        <ele>471.66</ele>
        <time>2018-09-09T10:26:16Z</time>
      </trkpt>
      <trkpt lat="47.04147" lon="6.26551">
        <ele>474.07</ele>
        <time>2018-09-09T10:26:29Z</time>
      </trkpt>
      <trkpt lat="47.04131" lon="6.26577">
        <ele>476.95</ele>
        <time>2018-09-09T10:26:41Z</time>
      </trkpt>
      <trkpt lat="47.0413" lon="6.2658">
        <ele>476.95</ele>
        <time>2018-09-09T10:26:42Z</time>
      </trkpt>
      <trkpt lat="47.04126" lon="6.26628">
        <ele>478.87</ele>
        <time>2018-09-09T10:26:56Z</time>
      </trkpt>
      <trkpt lat="47.0413" lon="6.26692">
        <ele>478.87</ele>
        <time>2018-09-09T10:27:09Z</time>
      </trkpt>
      <trkpt lat="47.04123" lon="6.26748">
        <ele>479.84</ele>
        <time>2018-09-09T10:27:21Z</time>
      </trkpt>
      <trkpt lat="47.04125" lon="6.26752">
        <ele>479.84</ele>
        <time>2018-09-09T10:27:22Z</time>
      </trkpt>
      <trkpt lat="47.04127" lon="6.26754">
        <ele>479.84</ele>
        <time>2018-09-09T10:27:23Z</time>
      </trkpt>
      <trkpt lat="47.0413" lon="6.26754">
        <ele>480.32</ele>
        <time>2018-09-09T10:27:24Z</time>
      </trkpt>
      <trkpt lat="47.04132" lon="6.26753">
        <ele>480.32</ele>
        <time>2018-09-09T10:27:25Z</time>
      </trkpt>
      <trkpt lat="47.04134" lon="6.26752">
        <ele>480.8</ele>
        <time>2018-09-09T10:27:26Z</time>
      </trkpt>
      <trkpt lat="47.04135" lon="6.2675">
        <ele>481.28</ele>
        <time>2018-09-09T10:27:27Z</time>
      </trkpt>
      <trkpt lat="47.04156" lon="6.26726">
        <ele>484.16</ele>
        <time>2018-09-09T10:27:42Z</time>
      </trkpt>
      <trkpt lat="47.04174" lon="6.26693">
        <ele>487.53</ele>
        <time>2018-09-09T10:27:58Z</time>
      </trkpt>
      <trkpt lat="47.04179" lon="6.26684">
        <ele>488.01</ele>
        <time>2018-09-09T10:28:03Z</time>
      </trkpt>
      <trkpt lat="47.0418" lon="6.26682">
        <ele>488.49</ele>
        <time>2018-09-09T10:28:04Z</time>
      </trkpt>
      <trkpt lat="47.04188" lon="6.26665">
        <ele>489.93</ele>
        <time>2018-09-09T10:28:12Z</time>
      </trkpt>
      <trkpt lat="47.04189" lon="6.26664">
        <ele>490.41</ele>
        <time>2018-09-09T10:28:13Z</time>
      </trkpt>
      <trkpt lat="47.04204" lon="6.26639">
        <ele>493.29</ele>
        <time>2018-09-09T10:28:26Z</time>
      </trkpt>
      <trkpt lat="47.04225" lon="6.26624">
        <ele>496.66</ele>
        <time>2018-09-09T10:28:40Z</time>
      </trkpt>
      <trkpt lat="47.0424" lon="6.26645">
        <ele>499.06</ele>
        <time>2018-09-09T10:28:53Z</time>
      </trkpt>
      <trkpt lat="47.04241" lon="6.26647">
        <ele>499.06</ele>
        <time>2018-09-09T10:28:54Z</time>
      </trkpt>
      <trkpt lat="47.04241" lon="6.2665">
        <ele>499.54</ele>
        <time>2018-09-09T10:28:55Z</time>
      </trkpt>
      <trkpt lat="47.0424" lon="6.26652">
        <ele>499.54</ele>
        <time>2018-09-09T10:28:56Z</time>
      </trkpt>
      <trkpt lat="47.0424" lon="6.26654">
        <ele>500.02</ele>
        <time>2018-09-09T10:28:57Z</time>
      </trkpt>
      <trkpt lat="47.0424" lon="6.26656">
        <ele>500.02</ele>
        <time>2018-09-09T10:28:58Z</time>
      </trkpt>
      <trkpt lat="47.0424" lon="6.26659">
        <ele>500.5</ele>
        <time>2018-09-09T10:28:59Z</time>
      </trkpt>
      <trkpt lat="47.0424" lon="6.26662">
        <ele>500.5</ele>
        <time>2018-09-09T10:29:00Z</time>
      </trkpt>
      <trkpt lat="47.0424" lon="6.26664">
        <ele>500.98</ele>
        <time>2018-09-09T10:29:01Z</time>
      </trkpt>
      <trkpt lat="47.04239" lon="6.26667">
        <ele>501.46</ele>
        <time>2018-09-09T10:29:02Z</time>
      </trkpt>
      <trkpt lat="47.04239" lon="6.26669">
        <ele>501.46</ele>
        <time>2018-09-09T10:29:03Z</time>
      </trkpt>
      <trkpt lat="47.04231" lon="6.26706">
        <ele>503.87</ele>
        <time>2018-09-09T10:29:18Z</time>
      </trkpt>
      <trkpt lat="47.04228" lon="6.26729">
        <ele>505.79</ele>
        <time>2018-09-09T10:29:27Z</time>
      </trkpt>
      <trkpt lat="47.04229" lon="6.26732">
        <ele>505.79</ele>
        <time>2018-09-09T10:29:28Z</time>
      </trkpt>
      <trkpt lat="47.0423" lon="6.26734">
        <ele>505.79</ele>
        <time>2018-09-09T10:29:29Z</time>
      </trkpt>
      <trkpt lat="47.0423" lon="6.26741">
        <ele>506.75</ele>
        <time>2018-09-09T10:29:32Z</time>
      </trkpt>
      <trkpt lat="47.0423" lon="6.26743">
        <ele>506.75</ele>
        <time>2018-09-09T10:29:33Z</time>
      </trkpt>
      <trkpt lat="47.04245" lon="6.26774">
        <ele>509.16</ele>
        <time>2018-09-09T10:29:48Z</time>
      </trkpt>
      <trkpt lat="47.0427" lon="6.26789">
        <ele>511.08</ele>
        <time>2018-09-09T10:30:02Z</time>
      </trkpt>
      <trkpt lat="47.04296" lon="6.26777">
        <ele>513</ele>
        <time>2018-09-09T10:30:16Z</time>
      </trkpt>
      <trkpt lat="47.04322" lon="6.26748">
        <ele>514.92</ele>
        <time>2018-09-09T10:30:31Z</time>
      </trkpt>
      <trkpt lat="47.04337" lon="6.26718">
        <ele>517.33</ele>
        <time>2018-09-09T10:30:43Z</time>
      </trkpt>
      <trkpt lat="47.04358" lon="6.26683">
        <ele>519.25</ele>
        <time>2018-09-09T10:30:56Z</time>
      </trkpt>
      <trkpt lat="47.04394" lon="6.26641">
        <ele>520.69</ele>
        <time>2018-09-09T10:31:12Z</time>
      </trkpt>
      <trkpt lat="47.04427" lon="6.26596">
        <ele>521.65</ele>
        <time>2018-09-09T10:31:27Z</time>
      </trkpt>
      <trkpt lat="47.0445" lon="6.26552">
        <ele>524.54</ele>
        <time>2018-09-09T10:31:42Z</time>
      </trkpt>
      <trkpt lat="47.04477" lon="6.26536">
        <ele>527.42</ele>
        <time>2018-09-09T10:31:56Z</time>
      </trkpt>
      <trkpt lat="47.04498" lon="6.26541">
        <ele>529.82</ele>
        <time>2018-09-09T10:32:08Z</time>
      </trkpt>
      <trkpt lat="47.04521" lon="6.26547">
        <ele>533.19</ele>
        <time>2018-09-09T10:32:20Z</time>
      </trkpt>
      <trkpt lat="47.04534" lon="6.26574">
        <ele>536.07</ele>
        <time>2018-09-09T10:32:33Z</time>
      </trkpt>
      <trkpt lat="47.04515" lon="6.26607">
        <ele>539.44</ele>
        <time>2018-09-09T10:32:48Z</time>
      </trkpt>
      <trkpt lat="47.04511" lon="6.26622">
        <ele>540.4</ele>
        <time>2018-09-09T10:32:55Z</time>
      </trkpt>
      <trkpt lat="47.04512" lon="6.26624">
        <ele>540.4</ele>
        <time>2018-09-09T10:32:56Z</time>
      </trkpt>
      <trkpt lat="47.04513" lon="6.26626">
        <ele>540.88</ele>
        <time>2018-09-09T10:32:57Z</time>
      </trkpt>
      <trkpt lat="47.04515" lon="6.26627">
        <ele>541.36</ele>
        <time>2018-09-09T10:32:59Z</time>
      </trkpt>
      <trkpt lat="47.04516" lon="6.26628">
        <ele>541.36</ele>
        <time>2018-09-09T10:33:00Z</time>
      </trkpt>
      <trkpt lat="47.04517" lon="6.26628">
        <ele>541.84</ele>
        <time>2018-09-09T10:33:01Z</time>
      </trkpt>
      <trkpt lat="47.04519" lon="6.26628">
        <ele>541.84</ele>
        <time>2018-09-09T10:33:02Z</time>
      </trkpt>
      <trkpt lat="47.0452" lon="6.26628">
        <ele>541.84</ele>
        <time>2018-09-09T10:33:03Z</time>
      </trkpt>
      <trkpt lat="47.04534" lon="6.26623">
        <ele>543.76</ele>
        <time>2018-09-09T10:33:13Z</time>
      </trkpt>
      <trkpt lat="47.04553" lon="6.26616">
        <ele>546.65</ele>
        <time>2018-09-09T10:33:26Z</time>
      </trkpt>
      <trkpt lat="47.04572" lon="6.2661">
        <ele>548.09</ele>
        <time>2018-09-09T10:33:37Z</time>
      </trkpt>
      <trkpt lat="47.04593" lon="6.26603">
        <ele>550.49</ele>
        <time>2018-09-09T10:33:49Z</time>
      </trkpt>
      <trkpt lat="47.04595" lon="6.26602">
        <ele>550.49</ele>
        <time>2018-09-09T10:33:50Z</time>
      </trkpt>
      <trkpt lat="47.04596" lon="6.26601">
        <ele>550.49</ele>
        <time>2018-09-09T10:33:51Z</time>
      </trkpt>
      <trkpt lat="47.04597" lon="6.266">
        <ele>550.97</ele>
        <time>2018-09-09T10:33:52Z</time>
      </trkpt>
      <trkpt lat="47.04599" lon="6.26599">
        <ele>550.97</ele>
        <time>2018-09-09T10:33:53Z</time>
      </trkpt>
      <trkpt lat="47.046" lon="6.26598">
        <ele>550.97</ele>
        <time>2018-09-09T10:33:54Z</time>
      </trkpt>
      <trkpt lat="47.04619" lon="6.26594">
        <ele>552.9</ele>
        <time>2018-09-09T10:34:05Z</time>
      </trkpt>
      <trkpt lat="47.04636" lon="6.26596">
        <ele>554.82</ele>
        <time>2018-09-09T10:34:17Z</time>
      </trkpt>
      <trkpt lat="47.04654" lon="6.26604">
        <ele>556.74</ele>
        <time>2018-09-09T10:34:29Z</time>
      </trkpt>
      <trkpt lat="47.04661" lon="6.26608">
        <ele>557.7</ele>
        <time>2018-09-09T10:34:34Z</time>
      </trkpt>
      <trkpt lat="47.04662" lon="6.26608">
        <ele>558.18</ele>
        <time>2018-09-09T10:34:35Z</time>
      </trkpt>
      <trkpt lat="47.04664" lon="6.26609">
        <ele>558.18</ele>
        <time>2018-09-09T10:34:36Z</time>
      </trkpt>
      <trkpt lat="47.04666" lon="6.2661">
        <ele>558.18</ele>
        <time>2018-09-09T10:34:37Z</time>
      </trkpt>
      <trkpt lat="47.04668" lon="6.26612">
        <ele>558.18</ele>
        <time>2018-09-09T10:34:38Z</time>
      </trkpt>
      <trkpt lat="47.0467" lon="6.26613">
        <ele>558.18</ele>
        <time>2018-09-09T10:34:39Z</time>
      </trkpt>
      <trkpt lat="47.04671" lon="6.26614">
        <ele>558.66</ele>
        <time>2018-09-09T10:34:40Z</time>
      </trkpt>
      <trkpt lat="47.04673" lon="6.26614">
        <ele>558.66</ele>
        <time>2018-09-09T10:34:41Z</time>
      </trkpt>
      <trkpt lat="47.04675" lon="6.26615">
        <ele>559.14</ele>
        <time>2018-09-09T10:34:42Z</time>
      </trkpt>
      <trkpt lat="47.04691" lon="6.26623">
        <ele>561.55</ele>
        <time>2018-09-09T10:34:55Z</time>
      </trkpt>
      <trkpt lat="47.04709" lon="6.2663">
        <ele>563.95</ele>
        <time>2018-09-09T10:35:07Z</time>
      </trkpt>
      <trkpt lat="47.0471" lon="6.2663">
        <ele>563.95</ele>
        <time>2018-09-09T10:35:08Z</time>
      </trkpt>
      <trkpt lat="47.04716" lon="6.2663">
        <ele>564.91</ele>
        <time>2018-09-09T10:35:12Z</time>
      </trkpt>
      <trkpt lat="47.04718" lon="6.26631">
        <ele>564.91</ele>
        <time>2018-09-09T10:35:13Z</time>
      </trkpt>
      <trkpt lat="47.04735" lon="6.26636">
        <ele>567.32</ele>
        <time>2018-09-09T10:35:25Z</time>
      </trkpt>
      <trkpt lat="47.04737" lon="6.26636">
        <ele>567.32</ele>
        <time>2018-09-09T10:35:26Z</time>
      </trkpt>
      <trkpt lat="47.04755" lon="6.26641">
        <ele>569.72</ele>
        <time>2018-09-09T10:35:38Z</time>
      </trkpt>
      <trkpt lat="47.04769" lon="6.26647">
        <ele>571.16</ele>
        <time>2018-09-09T10:35:49Z</time>
      </trkpt>
      <trkpt lat="47.04785" lon="6.2665">
        <ele>573.08</ele>
        <time>2018-09-09T10:35:59Z</time>
      </trkpt>
      <trkpt lat="47.04808" lon="6.26652">
        <ele>575.49</ele>
        <time>2018-09-09T10:36:13Z</time>
      </trkpt>
      <trkpt lat="47.04832" lon="6.26657">
        <ele>577.89</ele>
        <time>2018-09-09T10:36:26Z</time>
      </trkpt>
      <trkpt lat="47.04852" lon="6.26663">
        <ele>579.81</ele>
        <time>2018-09-09T10:36:38Z</time>
      </trkpt>
      <trkpt lat="47.04863" lon="6.26666">
        <ele>580.77</ele>
        <time>2018-09-09T10:36:45Z</time>
      </trkpt>
      <trkpt lat="47.04865" lon="6.26668">
        <ele>580.77</ele>
        <time>2018-09-09T10:36:46Z</time>
      </trkpt>
      <trkpt lat="47.04879" lon="6.2667">
        <ele>582.7</ele>
        <time>2018-09-09T10:36:56Z</time>
      </trkpt>
      <trkpt lat="47.04898" lon="6.26673">
        <ele>584.14</ele>
        <time>2018-09-09T10:37:07Z</time>
      </trkpt>
      <trkpt lat="47.04924" lon="6.26677">
        <ele>587.02</ele>
        <time>2018-09-09T10:37:21Z</time>
      </trkpt>
      <trkpt lat="47.04943" lon="6.26684">
        <ele>588.46</ele>
        <time>2018-09-09T10:37:32Z</time>
      </trkpt>
      <trkpt lat="47.04958" lon="6.2669">
        <ele>590.87</ele>
        <time>2018-09-09T10:37:42Z</time>
      </trkpt>
      <trkpt lat="47.04974" lon="6.26696">
        <ele>592.79</ele>
        <time>2018-09-09T10:37:53Z</time>
      </trkpt>
      <trkpt lat="47.04987" lon="6.26699">
        <ele>594.71</ele>
        <time>2018-09-09T10:38:03Z</time>
      </trkpt>
      <trkpt lat="47.04989" lon="6.26699">
        <ele>595.19</ele>
        <time>2018-09-09T10:38:04Z</time>
      </trkpt>
      <trkpt lat="47.0499" lon="6.26698">
        <ele>595.19</ele>
        <time>2018-09-09T10:38:05Z</time>
      </trkpt>
      <trkpt lat="47.04992" lon="6.26698">
        <ele>595.67</ele>
        <time>2018-09-09T10:38:06Z</time>
      </trkpt>
      <trkpt lat="47.04994" lon="6.26698">
        <ele>596.15</ele>
        <time>2018-09-09T10:38:07Z</time>
      </trkpt>
      <trkpt lat="47.04996" lon="6.26698">
        <ele>596.15</ele>
        <time>2018-09-09T10:38:08Z</time>
      </trkpt>
      <trkpt lat="47.04999" lon="6.26699">
        <ele>596.64</ele>
        <time>2018-09-09T10:38:11Z</time>
      </trkpt>
      <trkpt lat="47.0502" lon="6.26687">
        <ele>599.04</ele>
        <time>2018-09-09T10:38:22Z</time>
      </trkpt>
      <trkpt lat="47.05038" lon="6.26664">
        <ele>601.44</ele>
        <time>2018-09-09T10:38:35Z</time>
      </trkpt>
      <trkpt lat="47.05058" lon="6.26639">
        <ele>604.33</ele>
        <time>2018-09-09T10:38:50Z</time>
      </trkpt>
      <trkpt lat="47.05077" lon="6.26627">
        <ele>607.69</ele>
        <time>2018-09-09T10:39:02Z</time>
      </trkpt>
      <trkpt lat="47.05088" lon="6.26624">
        <ele>608.65</ele>
        <time>2018-09-09T10:39:09Z</time>
      </trkpt>
      <trkpt lat="47.0509" lon="6.26623">
        <ele>609.13</ele>
        <time>2018-09-09T10:39:10Z</time>
      </trkpt>
      <trkpt lat="47.05091" lon="6.26623">
        <ele>609.13</ele>
        <time>2018-09-09T10:39:11Z</time>
      </trkpt>
      <trkpt lat="47.05093" lon="6.26622">
        <ele>609.61</ele>
        <time>2018-09-09T10:39:12Z</time>
      </trkpt>
      <trkpt lat="47.05095" lon="6.26621">
        <ele>609.61</ele>
        <time>2018-09-09T10:39:13Z</time>
      </trkpt>
      <trkpt lat="47.05097" lon="6.26621">
        <ele>609.61</ele>
        <time>2018-09-09T10:39:14Z</time>
      </trkpt>
      <trkpt lat="47.05099" lon="6.2662">
        <ele>610.09</ele>
        <time>2018-09-09T10:39:15Z</time>
      </trkpt>
      <trkpt lat="47.05101" lon="6.2662">
        <ele>610.09</ele>
        <time>2018-09-09T10:39:16Z</time>
      </trkpt>
      <trkpt lat="47.05103" lon="6.26619">
        <ele>610.57</ele>
        <time>2018-09-09T10:39:17Z</time>
      </trkpt>
      <trkpt lat="47.05105" lon="6.26619">
        <ele>610.57</ele>
        <time>2018-09-09T10:39:18Z</time>
      </trkpt>
      <trkpt lat="47.05107" lon="6.26619">
        <ele>610.57</ele>
        <time>2018-09-09T10:39:19Z</time>
      </trkpt>
      <trkpt lat="47.05109" lon="6.26619">
        <ele>611.06</ele>
        <time>2018-09-09T10:39:20Z</time>
      </trkpt>
      <trkpt lat="47.05134" lon="6.26618">
        <ele>612.5</ele>
        <time>2018-09-09T10:39:33Z</time>
      </trkpt>
      <trkpt lat="47.05146" lon="6.26616">
        <ele>613.46</ele>
        <time>2018-09-09T10:39:45Z</time>
      </trkpt>
      <trkpt lat="47.05148" lon="6.26615">
        <ele>613.46</ele>
        <time>2018-09-09T10:39:58Z</time>
      </trkpt>
      <trkpt lat="47.05152" lon="6.26615">
        <ele>613.46</ele>
        <time>2018-09-09T10:40:12Z</time>
      </trkpt>
      <trkpt lat="47.05156" lon="6.26612">
        <ele>613.46</ele>
        <time>2018-09-09T10:40:17Z</time>
      </trkpt>
      <trkpt lat="47.05157" lon="6.26609">
        <ele>612.98</ele>
        <time>2018-09-09T10:40:28Z</time>
      </trkpt>
      <trkpt lat="47.05158" lon="6.2661">
        <ele>612.98</ele>
        <time>2018-09-09T10:40:57Z</time>
      </trkpt>
      <trkpt lat="47.05159" lon="6.26612">
        <ele>612.98</ele>
        <time>2018-09-09T10:41:37Z</time>
      </trkpt>
      <trkpt lat="47.05158" lon="6.2661">
        <ele>612.98</ele>
        <time>2018-09-09T10:42:04Z</time>
      </trkpt>
      <trkpt lat="47.05158" lon="6.26611">
        <ele>613.46</ele>
        <time>2018-09-09T10:42:36Z</time>
      </trkpt>
      <trkpt lat="47.05159" lon="6.26609">
        <ele>612.98</ele>
        <time>2018-09-09T10:43:11Z</time>
      </trkpt>
      <trkpt lat="47.05159" lon="6.26609">
        <ele>612.98</ele>
        <time>2018-09-09T10:43:39Z</time>
      </trkpt>
      <trkpt lat="47.05159" lon="6.26609">
        <ele>612.98</ele>
        <time>2018-09-09T10:44:13Z</time>
      </trkpt>
      <trkpt lat="47.05159" lon="6.2661">
        <ele>612.98</ele>
        <time>2018-09-09T10:44:37Z</time>
      </trkpt>
      <trkpt lat="47.05157" lon="6.26614">
        <ele>613.94</ele>
        <time>2018-09-09T10:44:56Z</time>
      </trkpt>
      <trkpt lat="47.05157" lon="6.26615">
        <ele>613.94</ele>
        <time>2018-09-09T10:44:57Z</time>
      </trkpt>
      <trkpt lat="47.05157" lon="6.26617">
        <ele>613.94</ele>
        <time>2018-09-09T10:44:58Z</time>
      </trkpt>
      <trkpt lat="47.05157" lon="6.26628">
        <ele>614.42</ele>
        <time>2018-09-09T10:45:04Z</time>
      </trkpt>
      <trkpt lat="47.05157" lon="6.26631">
        <ele>614.42</ele>
        <time>2018-09-09T10:45:05Z</time>
      </trkpt>
      <trkpt lat="47.05157" lon="6.26633">
        <ele>614.9</ele>
        <time>2018-09-09T10:45:06Z</time>
      </trkpt>
      <trkpt lat="47.05157" lon="6.26635">
        <ele>614.9</ele>
        <time>2018-09-09T10:45:07Z</time>
      </trkpt>
      <trkpt lat="47.05157" lon="6.26637">
        <ele>614.9</ele>
        <time>2018-09-09T10:45:08Z</time>
      </trkpt>
      <trkpt lat="47.05156" lon="6.2665">
        <ele>616.82</ele>
        <time>2018-09-09T10:45:15Z</time>
      </trkpt>
      <trkpt lat="47.05156" lon="6.26652">
        <ele>616.82</ele>
        <time>2018-09-09T10:45:16Z</time>
      </trkpt>
      <trkpt lat="47.05156" lon="6.26653">
        <ele>616.82</ele>
        <time>2018-09-09T10:45:17Z</time>
      </trkpt>
      <trkpt lat="47.05156" lon="6.26655">
        <ele>617.3</ele>
        <time>2018-09-09T10:45:18Z</time>
      </trkpt>
      <trkpt lat="47.05156" lon="6.26657">
        <ele>617.3</ele>
        <time>2018-09-09T10:45:19Z</time>
      </trkpt>
      <trkpt lat="47.05156" lon="6.2668">
        <ele>620.67</ele>
        <time>2018-09-09T10:45:33Z</time>
      </trkpt>
      <trkpt lat="47.05156" lon="6.26687">
        <ele>621.63</ele>
        <time>2018-09-09T10:45:37Z</time>
      </trkpt>
      <trkpt lat="47.05156" lon="6.26689">
        <ele>621.63</ele>
        <time>2018-09-09T10:45:38Z</time>
      </trkpt>
      <trkpt lat="47.05156" lon="6.26691">
        <ele>622.11</ele>
        <time>2018-09-09T10:45:39Z</time>
      </trkpt>
      <trkpt lat="47.05156" lon="6.26692">
        <ele>622.59</ele>
        <time>2018-09-09T10:45:40Z</time>
      </trkpt>
      <trkpt lat="47.05156" lon="6.26694">
        <ele>622.59</ele>
        <time>2018-09-09T10:45:41Z</time>
      </trkpt>
      <trkpt lat="47.05156" lon="6.26696">
        <ele>622.59</ele>
        <time>2018-09-09T10:45:42Z</time>
      </trkpt>
      <trkpt lat="47.05156" lon="6.26698">
        <ele>623.07</ele>
        <time>2018-09-09T10:45:43Z</time>
      </trkpt>
      <trkpt lat="47.05156" lon="6.26699">
        <ele>623.07</ele>
        <time>2018-09-09T10:45:44Z</time>
      </trkpt>
      <trkpt lat="47.05155" lon="6.26701">
        <ele>623.55</ele>
        <time>2018-09-09T10:45:45Z</time>
      </trkpt>
      <trkpt lat="47.05155" lon="6.26716">
        <ele>625.47</ele>
        <time>2018-09-09T10:45:54Z</time>
      </trkpt>
      <trkpt lat="47.05155" lon="6.26718">
        <ele>625.96</ele>
        <time>2018-09-09T10:45:55Z</time>
      </trkpt>
      <trkpt lat="47.05155" lon="6.2672">
        <ele>625.96</ele>
        <time>2018-09-09T10:45:56Z</time>
      </trkpt>
      <trkpt lat="47.05154" lon="6.26728">
        <ele>627.4</ele>
        <time>2018-09-09T10:46:01Z</time>
      </trkpt>
      <trkpt lat="47.05154" lon="6.26729">
        <ele>627.4</ele>
        <time>2018-09-09T10:46:02Z</time>
      </trkpt>
      <trkpt lat="47.05154" lon="6.26731">
        <ele>627.4</ele>
        <time>2018-09-09T10:46:03Z</time>
      </trkpt>
      <trkpt lat="47.05154" lon="6.26732">
        <ele>627.88</ele>
        <time>2018-09-09T10:46:04Z</time>
      </trkpt>
      <trkpt lat="47.05153" lon="6.26734">
        <ele>627.88</ele>
        <time>2018-09-09T10:46:05Z</time>
      </trkpt>
      <trkpt lat="47.05153" lon="6.26735">
        <ele>628.36</ele>
        <time>2018-09-09T10:46:06Z</time>
      </trkpt>
      <trkpt lat="47.05153" lon="6.26737">
        <ele>628.36</ele>
        <time>2018-09-09T10:46:07Z</time>
      </trkpt>
      <trkpt lat="47.05153" lon="6.26738">
        <ele>628.84</ele>
        <time>2018-09-09T10:46:08Z</time>
      </trkpt>
      <trkpt lat="47.05149" lon="6.26754">
        <ele>630.76</ele>
        <time>2018-09-09T10:46:19Z</time>
      </trkpt>
      <trkpt lat="47.05148" lon="6.26756">
        <ele>631.24</ele>
        <time>2018-09-09T10:46:20Z</time>
      </trkpt>
      <trkpt lat="47.05148" lon="6.26757">
        <ele>631.24</ele>
        <time>2018-09-09T10:46:21Z</time>
      </trkpt>
      <trkpt lat="47.05145" lon="6.26774">
        <ele>634.61</ele>
        <time>2018-09-09T10:46:32Z</time>
      </trkpt>
      <trkpt lat="47.05144" lon="6.26777">
        <ele>635.09</ele>
        <time>2018-09-09T10:46:34Z</time>
      </trkpt>
      <trkpt lat="47.05144" lon="6.26779">
        <ele>635.09</ele>
        <time>2018-09-09T10:46:35Z</time>
      </trkpt>
      <trkpt lat="47.05144" lon="6.26781">
        <ele>636.05</ele>
        <time>2018-09-09T10:46:36Z</time>
      </trkpt>
      <trkpt lat="47.05144" lon="6.26797">
        <ele>638.93</ele>
        <time>2018-09-09T10:46:47Z</time>
      </trkpt>
      <trkpt lat="47.05145" lon="6.26801">
        <ele>639.89</ele>
        <time>2018-09-09T10:46:50Z</time>
      </trkpt>
      <trkpt lat="47.05154" lon="6.26822">
        <ele>641.82</ele>
        <time>2018-09-09T10:47:04Z</time>
      </trkpt>
      <trkpt lat="47.05156" lon="6.2683">
        <ele>643.26</ele>
        <time>2018-09-09T10:47:09Z</time>
      </trkpt>
      <trkpt lat="47.05159" lon="6.2684">
        <ele>644.22</ele>
        <time>2018-09-09T10:47:15Z</time>
      </trkpt>
      <trkpt lat="47.05161" lon="6.26851">
        <ele>645.66</ele>
        <time>2018-09-09T10:47:22Z</time>
      </trkpt>
      <trkpt lat="47.05166" lon="6.26885">
        <ele>648.07</ele>
        <time>2018-09-09T10:47:39Z</time>
      </trkpt>
      <trkpt lat="47.05175" lon="6.26929">
        <ele>649.03</ele>
        <time>2018-09-09T10:47:55Z</time>
      </trkpt>
      <trkpt lat="47.05176" lon="6.26937">
        <ele>649.51</ele>
        <time>2018-09-09T10:47:59Z</time>
      </trkpt>
      <trkpt lat="47.05176" lon="6.26947">
        <ele>650.95</ele>
        <time>2018-09-09T10:48:04Z</time>
      </trkpt>
      <trkpt lat="47.05175" lon="6.26977">
        <ele>652.87</ele>
        <time>2018-09-09T10:48:18Z</time>
      </trkpt>
      <trkpt lat="47.0517" lon="6.26999">
        <ele>656.72</ele>
        <time>2018-09-09T10:48:29Z</time>
      </trkpt>
      <trkpt lat="47.0517" lon="6.27001">
        <ele>656.72</ele>
        <time>2018-09-09T10:48:30Z</time>
      </trkpt>
      <trkpt lat="47.05166" lon="6.27026">
        <ele>660.08</ele>
        <time>2018-09-09T10:48:43Z</time>
      </trkpt>
      <trkpt lat="47.05164" lon="6.27039">
        <ele>660.56</ele>
        <time>2018-09-09T10:48:49Z</time>
      </trkpt>
      <trkpt lat="47.05157" lon="6.27076">
        <ele>662.97</ele>
        <time>2018-09-09T10:49:05Z</time>
      </trkpt>
      <trkpt lat="47.05149" lon="6.2711">
        <ele>664.41</ele>
        <time>2018-09-09T10:49:20Z</time>
      </trkpt>
      <trkpt lat="47.05142" lon="6.27139">
        <ele>666.81</ele>
        <time>2018-09-09T10:49:33Z</time>
      </trkpt>
      <trkpt lat="47.05135" lon="6.27169">
        <ele>668.25</ele>
        <time>2018-09-09T10:49:46Z</time>
      </trkpt>
      <trkpt lat="47.05134" lon="6.27188">
        <ele>669.7</ele>
        <time>2018-09-09T10:49:54Z</time>
      </trkpt>
      <trkpt lat="47.05134" lon="6.27215">
        <ele>671.62</ele>
        <time>2018-09-09T10:50:05Z</time>
      </trkpt>
      <trkpt lat="47.05128" lon="6.27254">
        <ele>674.98</ele>
        <time>2018-09-09T10:50:21Z</time>
      </trkpt>
      <trkpt lat="47.05124" lon="6.27283">
        <ele>677.39</ele>
        <time>2018-09-09T10:50:33Z</time>
      </trkpt>
      <trkpt lat="47.05122" lon="6.27299">
        <ele>678.83</ele>
        <time>2018-09-09T10:50:40Z</time>
      </trkpt>
      <trkpt lat="47.05119" lon="6.27332">
        <ele>681.23</ele>
        <time>2018-09-09T10:50:54Z</time>
      </trkpt>
      <trkpt lat="47.05119" lon="6.27347">
        <ele>682.67</ele>
        <time>2018-09-09T10:51:00Z</time>
      </trkpt>
      <trkpt lat="47.05116" lon="6.27383">
        <ele>685.56</ele>
        <time>2018-09-09T10:51:15Z</time>
      </trkpt>
      <trkpt lat="47.05116" lon="6.274">
        <ele>686.52</ele>
        <time>2018-09-09T10:51:21Z</time>
      </trkpt>
      <trkpt lat="47.05114" lon="6.27439">
        <ele>689.4</ele>
        <time>2018-09-09T10:51:37Z</time>
      </trkpt>
      <trkpt lat="47.05112" lon="6.27458">
        <ele>690.36</ele>
        <time>2018-09-09T10:51:45Z</time>
      </trkpt>
      <trkpt lat="47.05113" lon="6.27472">
        <ele>692.29</ele>
        <time>2018-09-09T10:51:52Z</time>
      </trkpt>
      <trkpt lat="47.05107" lon="6.27509">
        <ele>694.69</ele>
        <time>2018-09-09T10:52:07Z</time>
      </trkpt>
      <trkpt lat="47.051" lon="6.27533">
        <ele>696.61</ele>
        <time>2018-09-09T10:52:18Z</time>
      </trkpt>
      <trkpt lat="47.05091" lon="6.27558">
        <ele>699.5</ele>
        <time>2018-09-09T10:52:30Z</time>
      </trkpt>
      <trkpt lat="47.05082" lon="6.27584">
        <ele>702.38</ele>
        <time>2018-09-09T10:52:43Z</time>
      </trkpt>
      <trkpt lat="47.05073" lon="6.2761">
        <ele>705.26</ele>
        <time>2018-09-09T10:52:56Z</time>
      </trkpt>
      <trkpt lat="47.0507" lon="6.27618">
        <ele>705.75</ele>
        <time>2018-09-09T10:53:00Z</time>
      </trkpt>
      <trkpt lat="47.05068" lon="6.27625">
        <ele>706.71</ele>
        <time>2018-09-09T10:53:04Z</time>
      </trkpt>
      <trkpt lat="47.05055" lon="6.27652">
        <ele>710.07</ele>
        <time>2018-09-09T10:53:19Z</time>
      </trkpt>
      <trkpt lat="47.05045" lon="6.27668">
        <ele>711.99</ele>
        <time>2018-09-09T10:53:28Z</time>
      </trkpt>
      <trkpt lat="47.05036" lon="6.27678">
        <ele>714.4</ele>
        <time>2018-09-09T10:53:37Z</time>
      </trkpt>
      <trkpt lat="47.05034" lon="6.27684">
        <ele>714.88</ele>
        <time>2018-09-09T10:53:40Z</time>
      </trkpt>
      <trkpt lat="47.05015" lon="6.27703">
        <ele>717.76</ele>
        <time>2018-09-09T10:53:54Z</time>
      </trkpt>
      <trkpt lat="47.05006" lon="6.27716">
        <ele>720.16</ele>
        <time>2018-09-09T10:54:05Z</time>
      </trkpt>
      <trkpt lat="47.04996" lon="6.27731">
        <ele>721.61</ele>
        <time>2018-09-09T10:54:14Z</time>
      </trkpt>
      <trkpt lat="47.04979" lon="6.27748">
        <ele>724.01</ele>
        <time>2018-09-09T10:54:26Z</time>
      </trkpt>
      <trkpt lat="47.04975" lon="6.27754">
        <ele>724.97</ele>
        <time>2018-09-09T10:54:30Z</time>
      </trkpt>
      <trkpt lat="47.04973" lon="6.27758">
        <ele>725.45</ele>
        <time>2018-09-09T10:54:33Z</time>
      </trkpt>
      <trkpt lat="47.04968" lon="6.27765">
        <ele>726.41</ele>
        <time>2018-09-09T10:54:37Z</time>
      </trkpt>
      <trkpt lat="47.04953" lon="6.27787">
        <ele>728.34</ele>
        <time>2018-09-09T10:54:50Z</time>
      </trkpt>
      <trkpt lat="47.0494" lon="6.27803">
        <ele>730.26</ele>
        <time>2018-09-09T10:55:01Z</time>
      </trkpt>
      <trkpt lat="47.04933" lon="6.27808">
        <ele>730.74</ele>
        <time>2018-09-09T10:55:05Z</time>
      </trkpt>
      <trkpt lat="47.04926" lon="6.27829">
        <ele>733.62</ele>
        <time>2018-09-09T10:55:18Z</time>
      </trkpt>
      <trkpt lat="47.04921" lon="6.27839">
        <ele>735.55</ele>
        <time>2018-09-09T10:55:28Z</time>
      </trkpt>
      <trkpt lat="47.04917" lon="6.27846">
        <ele>735.55</ele>
        <time>2018-09-09T10:55:32Z</time>
      </trkpt>
      <trkpt lat="47.04915" lon="6.27849">
        <ele>736.99</ele>
        <time>2018-09-09T10:55:34Z</time>
      </trkpt>
      <trkpt lat="47.04906" lon="6.27865">
        <ele>739.87</ele>
        <time>2018-09-09T10:55:47Z</time>
      </trkpt>
      <trkpt lat="47.0489" lon="6.27876">
        <ele>741.79</ele>
        <time>2018-09-09T10:55:58Z</time>
      </trkpt>
      <trkpt lat="47.04877" lon="6.27883">
        <ele>743.72</ele>
        <time>2018-09-09T10:56:08Z</time>
      </trkpt>
      <trkpt lat="47.04876" lon="6.27884">
        <ele>743.72</ele>
        <time>2018-09-09T10:56:09Z</time>
      </trkpt>
      <trkpt lat="47.04873" lon="6.27886">
        <ele>744.68</ele>
        <time>2018-09-09T10:56:12Z</time>
      </trkpt>
      <trkpt lat="47.04865" lon="6.2789">
        <ele>745.64</ele>
        <time>2018-09-09T10:56:24Z</time>
      </trkpt>
      <trkpt lat="47.04858" lon="6.27894">
        <ele>747.08</ele>
        <time>2018-09-09T10:56:31Z</time>
      </trkpt>
      <trkpt lat="47.04854" lon="6.27896">
        <ele>748.04</ele>
        <time>2018-09-09T10:56:34Z</time>
      </trkpt>
      <trkpt lat="47.04847" lon="6.27902">
        <ele>749.49</ele>
        <time>2018-09-09T10:56:41Z</time>
      </trkpt>
      <trkpt lat="47.04844" lon="6.27906">
        <ele>749.97</ele>
        <time>2018-09-09T10:56:45Z</time>
      </trkpt>
      <trkpt lat="47.04834" lon="6.27914">
        <ele>752.37</ele>
        <time>2018-09-09T10:56:55Z</time>
      </trkpt>
      <trkpt lat="47.04828" lon="6.27923">
        <ele>752.85</ele>
        <time>2018-09-09T10:57:01Z</time>
      </trkpt>
      <trkpt lat="47.04829" lon="6.27927">
        <ele>753.33</ele>
        <time>2018-09-09T10:57:04Z</time>
      </trkpt>
      <trkpt lat="47.04823" lon="6.27941">
        <ele>754.29</ele>
        <time>2018-09-09T10:57:12Z</time>
      </trkpt>
      <trkpt lat="47.0482" lon="6.27947">
        <ele>754.77</ele>
        <time>2018-09-09T10:57:16Z</time>
      </trkpt>
      <trkpt lat="47.04817" lon="6.27953">
        <ele>755.25</ele>
        <time>2018-09-09T10:57:20Z</time>
      </trkpt>
      <trkpt lat="47.04816" lon="6.27957">
        <ele>755.73</ele>
        <time>2018-09-09T10:57:22Z</time>
      </trkpt>
      <trkpt lat="47.04815" lon="6.27963">
        <ele>756.21</ele>
        <time>2018-09-09T10:57:26Z</time>
      </trkpt>
      <trkpt lat="47.0481" lon="6.27973">
        <ele>757.18</ele>
        <time>2018-09-09T10:57:34Z</time>
      </trkpt>
      <trkpt lat="47.04809" lon="6.27983">
        <ele>758.14</ele>
        <time>2018-09-09T10:57:46Z</time>
      </trkpt>
      <trkpt lat="47.04808" lon="6.27986">
        <ele>758.14</ele>
        <time>2018-09-09T10:57:48Z</time>
      </trkpt>
      <trkpt lat="47.04803" lon="6.27996">
        <ele>759.1</ele>
        <time>2018-09-09T10:57:56Z</time>
      </trkpt>
      <trkpt lat="47.04803" lon="6.28003">
        <ele>759.58</ele>
        <time>2018-09-09T10:58:00Z</time>
      </trkpt>
      <trkpt lat="47.04801" lon="6.28007">
        <ele>760.06</ele>
        <time>2018-09-09T10:58:02Z</time>
      </trkpt>
      <trkpt lat="47.048" lon="6.28009">
        <ele>760.54</ele>
        <time>2018-09-09T10:58:04Z</time>
      </trkpt>
      <trkpt lat="47.04801" lon="6.28015">
        <ele>760.54</ele>
        <time>2018-09-09T10:58:07Z</time>
      </trkpt>
      <trkpt lat="47.04795" lon="6.28038">
        <ele>762.46</ele>
        <time>2018-09-09T10:58:20Z</time>
      </trkpt>
      <trkpt lat="47.04792" lon="6.28063">
        <ele>764.39</ele>
        <time>2018-09-09T10:58:34Z</time>
      </trkpt>
      <trkpt lat="47.04788" lon="6.28085">
        <ele>766.31</ele>
        <time>2018-09-09T10:58:45Z</time>
      </trkpt>
      <trkpt lat="47.04782" lon="6.28109">
        <ele>768.23</ele>
        <time>2018-09-09T10:58:57Z</time>
      </trkpt>
      <trkpt lat="47.04773" lon="6.28128">
        <ele>770.15</ele>
        <time>2018-09-09T10:59:08Z</time>
      </trkpt>
      <trkpt lat="47.04773" lon="6.28136">
        <ele>771.11</ele>
        <time>2018-09-09T10:59:12Z</time>
      </trkpt>
      <trkpt lat="47.04772" lon="6.28144">
        <ele>771.6</ele>
        <time>2018-09-09T10:59:16Z</time>
      </trkpt>
      <trkpt lat="47.04771" lon="6.28149">
        <ele>772.08</ele>
        <time>2018-09-09T10:59:19Z</time>
      </trkpt>
      <trkpt lat="47.04769" lon="6.28163">
        <ele>772.56</ele>
        <time>2018-09-09T10:59:25Z</time>
      </trkpt>
      <trkpt lat="47.04767" lon="6.28171">
        <ele>773.52</ele>
        <time>2018-09-09T10:59:29Z</time>
      </trkpt>
      <trkpt lat="47.04754" lon="6.28205">
        <ele>775.44</ele>
        <time>2018-09-09T10:59:44Z</time>
      </trkpt>
      <trkpt lat="47.04753" lon="6.2821">
        <ele>775.44</ele>
        <time>2018-09-09T10:59:46Z</time>
      </trkpt>
      <trkpt lat="47.04749" lon="6.28219">
        <ele>775.92</ele>
        <time>2018-09-09T10:59:50Z</time>
      </trkpt>
      <trkpt lat="47.04746" lon="6.28224">
        <ele>776.4</ele>
        <time>2018-09-09T10:59:52Z</time>
      </trkpt>
      <trkpt lat="47.04744" lon="6.28248">
        <ele>777.84</ele>
        <time>2018-09-09T11:00:02Z</time>
      </trkpt>
      <trkpt lat="47.04745" lon="6.28253">
        <ele>778.32</ele>
        <time>2018-09-09T11:00:04Z</time>
      </trkpt>
      <trkpt lat="47.04753" lon="6.28284">
        <ele>780.25</ele>
        <time>2018-09-09T11:00:16Z</time>
      </trkpt>
      <trkpt lat="47.04755" lon="6.28291">
        <ele>780.73</ele>
        <time>2018-09-09T11:00:19Z</time>
      </trkpt>
      <trkpt lat="47.04763" lon="6.28326">
        <ele>783.61</ele>
        <time>2018-09-09T11:00:36Z</time>
      </trkpt>
      <trkpt lat="47.04768" lon="6.28343">
        <ele>784.57</ele>
        <time>2018-09-09T11:00:45Z</time>
      </trkpt>
      <trkpt lat="47.0477" lon="6.28348">
        <ele>785.53</ele>
        <time>2018-09-09T11:00:48Z</time>
      </trkpt>
      <trkpt lat="47.04771" lon="6.28352">
        <ele>786.02</ele>
        <time>2018-09-09T11:00:50Z</time>
      </trkpt>
      <trkpt lat="47.04776" lon="6.28364">
        <ele>786.98</ele>
        <time>2018-09-09T11:00:56Z</time>
      </trkpt>
      <trkpt lat="47.04782" lon="6.28398">
        <ele>789.38</ele>
        <time>2018-09-09T11:01:10Z</time>
      </trkpt>
      <trkpt lat="47.0479" lon="6.28434">
        <ele>791.78</ele>
        <time>2018-09-09T11:01:26Z</time>
      </trkpt>
      <trkpt lat="47.04794" lon="6.28479">
        <ele>793.71</ele>
        <time>2018-09-09T11:01:43Z</time>
      </trkpt>
      <trkpt lat="47.04793" lon="6.2851">
        <ele>795.15</ele>
        <time>2018-09-09T11:01:54Z</time>
      </trkpt>
      <trkpt lat="47.04788" lon="6.28546">
        <ele>797.55</ele>
        <time>2018-09-09T11:02:09Z</time>
      </trkpt>
      <trkpt lat="47.04785" lon="6.28554">
        <ele>798.51</ele>
        <time>2018-09-09T11:02:13Z</time>
      </trkpt>
      <trkpt lat="47.04774" lon="6.28593">
        <ele>801.4</ele>
        <time>2018-09-09T11:02:31Z</time>
      </trkpt>
      <trkpt lat="47.04773" lon="6.28597">
        <ele>801.4</ele>
        <time>2018-09-09T11:02:33Z</time>
      </trkpt>
      <trkpt lat="47.04775" lon="6.28608">
        <ele>802.84</ele>
        <time>2018-09-09T11:02:38Z</time>
      </trkpt>
      <trkpt lat="47.04779" lon="6.28612">
        <ele>803.32</ele>
        <time>2018-09-09T11:02:41Z</time>
      </trkpt>
      <trkpt lat="47.04792" lon="6.28609">
        <ele>804.76</ele>
        <time>2018-09-09T11:02:51Z</time>
      </trkpt>
      <trkpt lat="47.04802" lon="6.28606">
        <ele>806.68</ele>
        <time>2018-09-09T11:03:00Z</time>
      </trkpt>
      <trkpt lat="47.04807" lon="6.28605">
        <ele>807.16</ele>
        <time>2018-09-09T11:03:04Z</time>
      </trkpt>
      <trkpt lat="47.04812" lon="6.28604">
        <ele>807.64</ele>
        <time>2018-09-09T11:03:07Z</time>
      </trkpt>
      <trkpt lat="47.0482" lon="6.28606">
        <ele>808.61</ele>
        <time>2018-09-09T11:03:13Z</time>
      </trkpt>
      <trkpt lat="47.04838" lon="6.28617">
        <ele>811.01</ele>
        <time>2018-09-09T11:03:27Z</time>
      </trkpt>
      <trkpt lat="47.04846" lon="6.28639">
        <ele>813.41</ele>
        <time>2018-09-09T11:03:41Z</time>
      </trkpt>
      <trkpt lat="47.04846" lon="6.28641">
        <ele>813.41</ele>
        <time>2018-09-09T11:03:55Z</time>
      </trkpt>
      <trkpt lat="47.04846" lon="6.28641">
        <ele>813.41</ele>
        <time>2018-09-09T11:04:05Z</time>
      </trkpt>
      <trkpt lat="47.04846" lon="6.28642">
        <ele>813.89</ele>
        <time>2018-09-09T11:04:36Z</time>
      </trkpt>
      <trkpt lat="47.04847" lon="6.2864">
        <ele>813.41</ele>
        <time>2018-09-09T11:05:08Z</time>
      </trkpt>
      <trkpt lat="47.04846" lon="6.2864">
        <ele>813.89</ele>
        <time>2018-09-09T11:05:39Z</time>
      </trkpt>
      <trkpt lat="47.04845" lon="6.28641">
        <ele>813.89</ele>
        <time>2018-09-09T11:06:07Z</time>
      </trkpt>
      <trkpt lat="47.04845" lon="6.28641">
        <ele>814.37</ele>
        <time>2018-09-09T11:06:28Z</time>
      </trkpt>
      <trkpt lat="47.04844" lon="6.28639">
        <ele>813.89</ele>
        <time>2018-09-09T11:06:57Z</time>
      </trkpt>
      <trkpt lat="47.04844" lon="6.28639">
        <ele>814.37</ele>
        <time>2018-09-09T11:07:23Z</time>
      </trkpt>
      <trkpt lat="47.04844" lon="6.28639">
        <ele>814.85</ele>
        <time>2018-09-09T11:07:55Z</time>
      </trkpt>
      <trkpt lat="47.04844" lon="6.2864">
        <ele>814.85</ele>
        <time>2018-09-09T11:08:28Z</time>
      </trkpt>
      <trkpt lat="47.04845" lon="6.28639">
        <ele>814.85</ele>
        <time>2018-09-09T11:09:00Z</time>
      </trkpt>
      <trkpt lat="47.04845" lon="6.2864">
        <ele>814.85</ele>
        <time>2018-09-09T11:09:38Z</time>
      </trkpt>
      <trkpt lat="47.04846" lon="6.2864">
        <ele>815.34</ele>
        <time>2018-09-09T11:10:09Z</time>
      </trkpt>
      <trkpt lat="47.04846" lon="6.2864">
        <ele>815.34</ele>
        <time>2018-09-09T11:10:36Z</time>
      </trkpt>
      <trkpt lat="47.04847" lon="6.2864">
        <ele>815.34</ele>
        <time>2018-09-09T11:11:05Z</time>
      </trkpt>
      <trkpt lat="47.04848" lon="6.28639">
        <ele>815.34</ele>
        <time>2018-09-09T11:11:34Z</time>
      </trkpt>
      <trkpt lat="47.04848" lon="6.28639">
        <ele>815.34</ele>
        <time>2018-09-09T11:12:01Z</time>
      </trkpt>
      <trkpt lat="47.04848" lon="6.28639">
        <ele>815.82</ele>
        <time>2018-09-09T11:12:28Z</time>
      </trkpt>
      <trkpt lat="47.0485" lon="6.28636">
        <ele>815.82</ele>
        <time>2018-09-09T11:12:47Z</time>
      </trkpt>
      <trkpt lat="47.04855" lon="6.28628">
        <ele>816.3</ele>
        <time>2018-09-09T11:12:58Z</time>
      </trkpt>
      <trkpt lat="47.04859" lon="6.2863">
        <ele>816.78</ele>
        <time>2018-09-09T11:13:07Z</time>
      </trkpt>
      <trkpt lat="47.04874" lon="6.28642">
        <ele>818.7</ele>
        <time>2018-09-09T11:13:20Z</time>
      </trkpt>
      <trkpt lat="47.04887" lon="6.28647">
        <ele>821.58</ele>
        <time>2018-09-09T11:13:34Z</time>
      </trkpt>
      <trkpt lat="47.04896" lon="6.28652">
        <ele>823.99</ele>
        <time>2018-09-09T11:13:47Z</time>
      </trkpt>
      <trkpt lat="47.049" lon="6.28656">
        <ele>825.91</ele>
        <time>2018-09-09T11:13:57Z</time>
      </trkpt>
      <trkpt lat="47.04905" lon="6.28659">
        <ele>828.31</ele>
        <time>2018-09-09T11:14:09Z</time>
      </trkpt>
      <trkpt lat="47.04908" lon="6.28659">
        <ele>830.24</ele>
        <time>2018-09-09T11:14:20Z</time>
      </trkpt>
      <trkpt lat="47.0491" lon="6.28659">
        <ele>832.16</ele>
        <time>2018-09-09T11:14:32Z</time>
      </trkpt>
      <trkpt lat="47.04913" lon="6.28661">
        <ele>834.08</ele>
        <time>2018-09-09T11:14:44Z</time>
      </trkpt>
      <trkpt lat="47.04914" lon="6.28661">
        <ele>836</ele>
        <time>2018-09-09T11:14:51Z</time>
      </trkpt>
      <trkpt lat="47.04919" lon="6.28651">
        <ele>837.45</ele>
        <time>2018-09-09T11:15:04Z</time>
      </trkpt>
      <trkpt lat="47.04923" lon="6.28643">
        <ele>839.37</ele>
        <time>2018-09-09T11:15:15Z</time>
      </trkpt>
      <trkpt lat="47.04926" lon="6.28635">
        <ele>840.81</ele>
        <time>2018-09-09T11:15:27Z</time>
      </trkpt>
      <trkpt lat="47.04928" lon="6.28632">
        <ele>842.73</ele>
        <time>2018-09-09T11:15:38Z</time>
      </trkpt>
      <trkpt lat="47.0493" lon="6.28625">
        <ele>844.66</ele>
        <time>2018-09-09T11:15:50Z</time>
      </trkpt>
      <trkpt lat="47.04932" lon="6.28612">
        <ele>846.1</ele>
        <time>2018-09-09T11:16:01Z</time>
      </trkpt>
      <trkpt lat="47.04933" lon="6.28598">
        <ele>847.54</ele>
        <time>2018-09-09T11:16:12Z</time>
      </trkpt>
      <trkpt lat="47.04933" lon="6.28591">
        <ele>848.02</ele>
        <time>2018-09-09T11:16:17Z</time>
      </trkpt>
      <trkpt lat="47.04933" lon="6.28576">
        <ele>849.46</ele>
        <time>2018-09-09T11:16:29Z</time>
      </trkpt>
      <trkpt lat="47.04935" lon="6.28564">
        <ele>851.38</ele>
        <time>2018-09-09T11:16:40Z</time>
      </trkpt>
      <trkpt lat="47.04937" lon="6.28554">
        <ele>852.83</ele>
        <time>2018-09-09T11:16:53Z</time>
      </trkpt>
      <trkpt lat="47.0494" lon="6.28541">
        <ele>855.23</ele>
        <time>2018-09-09T11:17:07Z</time>
      </trkpt>
      <trkpt lat="47.04944" lon="6.28529">
        <ele>857.63</ele>
        <time>2018-09-09T11:17:19Z</time>
      </trkpt>
      <trkpt lat="47.04945" lon="6.28511">
        <ele>859.08</ele>
        <time>2018-09-09T11:17:33Z</time>
      </trkpt>
      <trkpt lat="47.04948" lon="6.28501">
        <ele>861</ele>
        <time>2018-09-09T11:17:45Z</time>
      </trkpt>
      <trkpt lat="47.04948" lon="6.28495">
        <ele>861.48</ele>
        <time>2018-09-09T11:17:50Z</time>
      </trkpt>
      <trkpt lat="47.04948" lon="6.28493">
        <ele>861.96</ele>
        <time>2018-09-09T11:17:52Z</time>
      </trkpt>
      <trkpt lat="47.04948" lon="6.28489">
        <ele>861.48</ele>
        <time>2018-09-09T11:17:54Z</time>
      </trkpt>
      <trkpt lat="47.0494" lon="6.2845">
        <ele>861</ele>
        <time>2018-09-09T11:18:05Z</time>
      </trkpt>
      <trkpt lat="47.04937" lon="6.28424">
        <ele>861.48</ele>
        <time>2018-09-09T11:18:14Z</time>
      </trkpt>
      <trkpt lat="47.04936" lon="6.28418">
        <ele>861.48</ele>
        <time>2018-09-09T11:18:16Z</time>
      </trkpt>
      <trkpt lat="47.04935" lon="6.28412">
        <ele>861.96</ele>
        <time>2018-09-09T11:18:19Z</time>
      </trkpt>
      <trkpt lat="47.04934" lon="6.28398">
        <ele>863.4</ele>
        <time>2018-09-09T11:18:26Z</time>
      </trkpt>
      <trkpt lat="47.04934" lon="6.28392">
        <ele>863.88</ele>
        <time>2018-09-09T11:18:29Z</time>
      </trkpt>
      <trkpt lat="47.04935" lon="6.28385">
        <ele>864.84</ele>
        <time>2018-09-09T11:18:33Z</time>
      </trkpt>
      <trkpt lat="47.04934" lon="6.28378">
        <ele>865.32</ele>
        <time>2018-09-09T11:18:37Z</time>
      </trkpt>
      <trkpt lat="47.04933" lon="6.28375">
        <ele>866.29</ele>
        <time>2018-09-09T11:18:39Z</time>
      </trkpt>
      <trkpt lat="47.0493" lon="6.28365">
        <ele>866.29</ele>
        <time>2018-09-09T11:18:45Z</time>
      </trkpt>
      <trkpt lat="47.04927" lon="6.28352">
        <ele>867.73</ele>
        <time>2018-09-09T11:18:53Z</time>
      </trkpt>
      <trkpt lat="47.04924" lon="6.28334">
        <ele>870.13</ele>
        <time>2018-09-09T11:19:03Z</time>
      </trkpt>
      <trkpt lat="47.04922" lon="6.28329">
        <ele>870.61</ele>
        <time>2018-09-09T11:19:06Z</time>
      </trkpt>
      <trkpt lat="47.04925" lon="6.28307">
        <ele>872.53</ele>
        <time>2018-09-09T11:19:19Z</time>
      </trkpt>
      <trkpt lat="47.04921" lon="6.28279">
        <ele>874.94</ele>
        <time>2018-09-09T11:19:35Z</time>
      </trkpt>
      <trkpt lat="47.0492" lon="6.28275">
        <ele>874.94</ele>
        <time>2018-09-09T11:19:37Z</time>
      </trkpt>
      <trkpt lat="47.04925" lon="6.28246">
        <ele>876.38</ele>
        <time>2018-09-09T11:19:52Z</time>
      </trkpt>
      <trkpt lat="47.04931" lon="6.28221">
        <ele>877.82</ele>
        <time>2018-09-09T11:20:05Z</time>
      </trkpt>
      <trkpt lat="47.04932" lon="6.28209">
        <ele>878.3</ele>
        <time>2018-09-09T11:20:12Z</time>
      </trkpt>
      <trkpt lat="47.04932" lon="6.28198">
        <ele>879.26</ele>
        <time>2018-09-09T11:20:23Z</time>
      </trkpt>
      <trkpt lat="47.04935" lon="6.28193">
        <ele>877.82</ele>
        <time>2018-09-09T11:20:36Z</time>
      </trkpt>
      <trkpt lat="47.04941" lon="6.28165">
        <ele>876.38</ele>
        <time>2018-09-09T11:20:47Z</time>
      </trkpt>
      <trkpt lat="47.04944" lon="6.28157">
        <ele>875.9</ele>
        <time>2018-09-09T11:20:55Z</time>
      </trkpt>
      <trkpt lat="47.04951" lon="6.2812">
        <ele>872.53</ele>
        <time>2018-09-09T11:21:05Z</time>
      </trkpt>
      <trkpt lat="47.04952" lon="6.28115">
        <ele>872.53</ele>
        <time>2018-09-09T11:21:06Z</time>
      </trkpt>
      <trkpt lat="47.04955" lon="6.28091">
        <ele>869.17</ele>
        <time>2018-09-09T11:21:09Z</time>
      </trkpt>
      <trkpt lat="47.04962" lon="6.28054">
        <ele>869.17</ele>
        <time>2018-09-09T11:21:14Z</time>
      </trkpt>
      <trkpt lat="47.04961" lon="6.28051">
        <ele>870.13</ele>
        <time>2018-09-09T11:21:15Z</time>
      </trkpt>
      <trkpt lat="47.04961" lon="6.28049">
        <ele>870.61</ele>
        <time>2018-09-09T11:21:16Z</time>
      </trkpt>
      <trkpt lat="47.04961" lon="6.28047">
        <ele>870.61</ele>
        <time>2018-09-09T11:21:17Z</time>
      </trkpt>
      <trkpt lat="47.04961" lon="6.28045">
        <ele>871.09</ele>
        <time>2018-09-09T11:21:18Z</time>
      </trkpt>
      <trkpt lat="47.04962" lon="6.28043">
        <ele>871.09</ele>
        <time>2018-09-09T11:21:19Z</time>
      </trkpt>
      <trkpt lat="47.04962" lon="6.2804">
        <ele>871.09</ele>
        <time>2018-09-09T11:21:20Z</time>
      </trkpt>
      <trkpt lat="47.04963" lon="6.28013">
        <ele>870.13</ele>
        <time>2018-09-09T11:21:32Z</time>
      </trkpt>
      <trkpt lat="47.04963" lon="6.28012">
        <ele>866.77</ele>
        <time>2018-09-09T11:21:34Z</time>
      </trkpt>
      <trkpt lat="47.04963" lon="6.28012">
        <ele>870.13</ele>
        <time>2018-09-09T11:21:35Z</time>
      </trkpt>
      <trkpt lat="47.04963" lon="6.28012">
        <ele>873.98</ele>
        <time>2018-09-09T11:21:37Z</time>
      </trkpt>
      <trkpt lat="47.04963" lon="6.28012">
        <ele>866.29</ele>
        <time>2018-09-09T11:21:38Z</time>
      </trkpt>
      <trkpt lat="47.04963" lon="6.28012">
        <ele>872.53</ele>
        <time>2018-09-09T11:21:39Z</time>
      </trkpt>
      <trkpt lat="47.04962" lon="6.28012">
        <ele>868.69</ele>
        <time>2018-09-09T11:21:43Z</time>
      </trkpt>
      <trkpt lat="47.04962" lon="6.28012">
        <ele>873.01</ele>
        <time>2018-09-09T11:21:46Z</time>
      </trkpt>
      <trkpt lat="47.04962" lon="6.28012">
        <ele>869.65</ele>
        <time>2018-09-09T11:21:47Z</time>
      </trkpt>
      <trkpt lat="47.04962" lon="6.28006">
        <ele>869.65</ele>
        <time>2018-09-09T11:21:57Z</time>
      </trkpt>
      <trkpt lat="47.04963" lon="6.28005">
        <ele>870.13</ele>
        <time>2018-09-09T11:21:58Z</time>
      </trkpt>
      <trkpt lat="47.04964" lon="6.28002">
        <ele>870.13</ele>
        <time>2018-09-09T11:21:59Z</time>
      </trkpt>
      <trkpt lat="47.04966" lon="6.28">
        <ele>870.13</ele>
        <time>2018-09-09T11:22:00Z</time>
      </trkpt>
      <trkpt lat="47.04967" lon="6.27997">
        <ele>869.17</ele>
        <time>2018-09-09T11:22:01Z</time>
      </trkpt>
      <trkpt lat="47.04968" lon="6.27994">
        <ele>868.69</ele>
        <time>2018-09-09T11:22:02Z</time>
      </trkpt>
      <trkpt lat="47.04974" lon="6.27979">
        <ele>866.77</ele>
        <time>2018-09-09T11:22:07Z</time>
      </trkpt>
      <trkpt lat="47.04975" lon="6.27967">
        <ele>865.32</ele>
        <time>2018-09-09T11:22:10Z</time>
      </trkpt>
      <trkpt lat="47.04987" lon="6.27943">
        <ele>861.48</ele>
        <time>2018-09-09T11:22:17Z</time>
      </trkpt>
      <trkpt lat="47.04996" lon="6.27931">
        <ele>858.11</ele>
        <time>2018-09-09T11:22:21Z</time>
      </trkpt>
      <trkpt lat="47.04999" lon="6.27927">
        <ele>857.63</ele>
        <time>2018-09-09T11:22:22Z</time>
      </trkpt>
      <trkpt lat="47.05009" lon="6.27909">
        <ele>854.75</ele>
        <time>2018-09-09T11:22:25Z</time>
      </trkpt>
      <trkpt lat="47.05021" lon="6.27894">
        <ele>851.87</ele>
        <time>2018-09-09T11:22:28Z</time>
      </trkpt>
      <trkpt lat="47.05034" lon="6.27883">
        <ele>848.98</ele>
        <time>2018-09-09T11:22:32Z</time>
      </trkpt>
      <trkpt lat="47.05049" lon="6.27865">
        <ele>845.14</ele>
        <time>2018-09-09T11:22:36Z</time>
      </trkpt>
      <trkpt lat="47.05078" lon="6.27854">
        <ele>838.89</ele>
        <time>2018-09-09T11:22:41Z</time>
      </trkpt>
      <trkpt lat="47.05111" lon="6.27844">
        <ele>834.08</ele>
        <time>2018-09-09T11:22:46Z</time>
      </trkpt>
      <trkpt lat="47.05123" lon="6.27817">
        <ele>833.12</ele>
        <time>2018-09-09T11:22:50Z</time>
      </trkpt>
      <trkpt lat="47.05127" lon="6.27805">
        <ele>833.6</ele>
        <time>2018-09-09T11:22:52Z</time>
      </trkpt>
      <trkpt lat="47.05152" lon="6.27773">
        <ele>831.2</ele>
        <time>2018-09-09T11:22:59Z</time>
      </trkpt>
      <trkpt lat="47.05172" lon="6.27751">
        <ele>827.35</ele>
        <time>2018-09-09T11:23:03Z</time>
      </trkpt>
      <trkpt lat="47.05188" lon="6.27737">
        <ele>827.35</ele>
        <time>2018-09-09T11:23:06Z</time>
      </trkpt>
      <trkpt lat="47.05207" lon="6.27699">
        <ele>826.39</ele>
        <time>2018-09-09T11:23:13Z</time>
      </trkpt>
      <trkpt lat="47.05227" lon="6.27703">
        <ele>824.95</ele>
        <time>2018-09-09T11:23:20Z</time>
      </trkpt>
      <trkpt lat="47.05234" lon="6.27696">
        <ele>823.03</ele>
        <time>2018-09-09T11:23:23Z</time>
      </trkpt>
      <trkpt lat="47.05244" lon="6.27686">
        <ele>821.1</ele>
        <time>2018-09-09T11:23:27Z</time>
      </trkpt>
      <trkpt lat="47.05255" lon="6.27677">
        <ele>819.66</ele>
        <time>2018-09-09T11:23:32Z</time>
      </trkpt>
      <trkpt lat="47.0526" lon="6.27675">
        <ele>817.74</ele>
        <time>2018-09-09T11:23:35Z</time>
      </trkpt>
      <trkpt lat="47.05262" lon="6.27673">
        <ele>817.26</ele>
        <time>2018-09-09T11:23:36Z</time>
      </trkpt>
      <trkpt lat="47.05268" lon="6.27668">
        <ele>815.82</ele>
        <time>2018-09-09T11:23:39Z</time>
      </trkpt>
      <trkpt lat="47.05275" lon="6.27662">
        <ele>814.37</ele>
        <time>2018-09-09T11:23:43Z</time>
      </trkpt>
      <trkpt lat="47.0528" lon="6.27655">
        <ele>812.45</ele>
        <time>2018-09-09T11:23:53Z</time>
      </trkpt>
      <trkpt lat="47.05281" lon="6.27657">
        <ele>812.45</ele>
        <time>2018-09-09T11:24:05Z</time>
      </trkpt>
      <trkpt lat="47.05282" lon="6.2766">
        <ele>812.93</ele>
        <time>2018-09-09T11:24:19Z</time>
      </trkpt>
      <trkpt lat="47.05283" lon="6.27661">
        <ele>812.93</ele>
        <time>2018-09-09T11:24:23Z</time>
      </trkpt>
      <trkpt lat="47.05296" lon="6.27672">
        <ele>811.97</ele>
        <time>2018-09-09T11:24:30Z</time>
      </trkpt>
      <trkpt lat="47.05317" lon="6.2773">
        <ele>811.97</ele>
        <time>2018-09-09T11:24:47Z</time>
      </trkpt>
      <trkpt lat="47.05322" lon="6.27796">
        <ele>811.49</ele>
        <time>2018-09-09T11:25:02Z</time>
      </trkpt>
      <trkpt lat="47.0533" lon="6.27864">
        <ele>811.01</ele>
        <time>2018-09-09T11:25:16Z</time>
      </trkpt>
      <trkpt lat="47.05338" lon="6.27925">
        <ele>810.05</ele>
        <time>2018-09-09T11:25:28Z</time>
      </trkpt>
      <trkpt lat="47.05349" lon="6.27991">
        <ele>809.57</ele>
        <time>2018-09-09T11:25:41Z</time>
      </trkpt>
      <trkpt lat="47.05357" lon="6.2807">
        <ele>809.57</ele>
        <time>2018-09-09T11:25:57Z</time>
      </trkpt>
      <trkpt lat="47.05352" lon="6.28135">
        <ele>809.57</ele>
        <time>2018-09-09T11:26:10Z</time>
      </trkpt>
      <trkpt lat="47.05348" lon="6.28153">
        <ele>809.57</ele>
        <time>2018-09-09T11:26:19Z</time>
      </trkpt>
      <trkpt lat="47.05349" lon="6.28155">
        <ele>810.05</ele>
        <time>2018-09-09T11:26:30Z</time>
      </trkpt>
      <trkpt lat="47.05348" lon="6.28156">
        <ele>810.05</ele>
        <time>2018-09-09T11:26:35Z</time>
      </trkpt>
      <trkpt lat="47.05331" lon="6.28156">
        <ele>810.05</ele>
        <time>2018-09-09T11:26:43Z</time>
      </trkpt>
      <trkpt lat="47.05294" lon="6.28166">
        <ele>811.49</ele>
        <time>2018-09-09T11:26:56Z</time>
      </trkpt>
      <trkpt lat="47.05263" lon="6.2819">
        <ele>814.37</ele>
        <time>2018-09-09T11:27:10Z</time>
      </trkpt>
      <trkpt lat="47.05224" lon="6.28187">
        <ele>816.3</ele>
        <time>2018-09-09T11:27:25Z</time>
      </trkpt>
      <trkpt lat="47.05191" lon="6.28212">
        <ele>818.22</ele>
        <time>2018-09-09T11:27:39Z</time>
      </trkpt>
      <trkpt lat="47.05169" lon="6.28238">
        <ele>821.58</ele>
        <time>2018-09-09T11:27:53Z</time>
      </trkpt>
      <trkpt lat="47.05156" lon="6.28266">
        <ele>824.47</ele>
        <time>2018-09-09T11:28:06Z</time>
      </trkpt>
      <trkpt lat="47.05149" lon="6.28286">
        <ele>826.39</ele>
        <time>2018-09-09T11:28:15Z</time>
      </trkpt>
      <trkpt lat="47.05145" lon="6.28295">
        <ele>828.31</ele>
        <time>2018-09-09T11:28:20Z</time>
      </trkpt>
      <trkpt lat="47.05143" lon="6.28303">
        <ele>829.27</ele>
        <time>2018-09-09T11:28:24Z</time>
      </trkpt>
      <trkpt lat="47.05135" lon="6.28343">
        <ele>832.64</ele>
        <time>2018-09-09T11:28:38Z</time>
      </trkpt>
      <trkpt lat="47.05134" lon="6.28392">
        <ele>834.08</ele>
        <time>2018-09-09T11:28:51Z</time>
      </trkpt>
      <trkpt lat="47.05137" lon="6.28448">
        <ele>835.04</ele>
        <time>2018-09-09T11:29:04Z</time>
      </trkpt>
      <trkpt lat="47.05143" lon="6.28504">
        <ele>837.45</ele>
        <time>2018-09-09T11:29:17Z</time>
      </trkpt>
      <trkpt lat="47.05141" lon="6.28556">
        <ele>838.41</ele>
        <time>2018-09-09T11:29:29Z</time>
      </trkpt>
      <trkpt lat="47.05116" lon="6.28604">
        <ele>836</ele>
        <time>2018-09-09T11:29:39Z</time>
      </trkpt>
      <trkpt lat="47.05107" lon="6.28617">
        <ele>835.04</ele>
        <time>2018-09-09T11:29:41Z</time>
      </trkpt>
      <trkpt lat="47.05102" lon="6.28624">
        <ele>834.56</ele>
        <time>2018-09-09T11:29:42Z</time>
      </trkpt>
      <trkpt lat="47.05097" lon="6.28631">
        <ele>834.08</ele>
        <time>2018-09-09T11:29:43Z</time>
      </trkpt>
      <trkpt lat="47.05085" lon="6.28644">
        <ele>833.12</ele>
        <time>2018-09-09T11:29:45Z</time>
      </trkpt>
      <trkpt lat="47.0508" lon="6.28651">
        <ele>833.12</ele>
        <time>2018-09-09T11:29:46Z</time>
      </trkpt>
      <trkpt lat="47.05076" lon="6.28659">
        <ele>833.6</ele>
        <time>2018-09-09T11:29:47Z</time>
      </trkpt>
      <trkpt lat="47.05074" lon="6.28668">
        <ele>833.6</ele>
        <time>2018-09-09T11:29:48Z</time>
      </trkpt>
      <trkpt lat="47.05072" lon="6.28678">
        <ele>833.6</ele>
        <time>2018-09-09T11:29:49Z</time>
      </trkpt>
      <trkpt lat="47.05071" lon="6.28687">
        <ele>833.6</ele>
        <time>2018-09-09T11:29:50Z</time>
      </trkpt>
      <trkpt lat="47.05071" lon="6.28696">
        <ele>833.6</ele>
        <time>2018-09-09T11:29:51Z</time>
      </trkpt>
      <trkpt lat="47.05072" lon="6.28705">
        <ele>833.6</ele>
        <time>2018-09-09T11:29:52Z</time>
      </trkpt>
      <trkpt lat="47.05073" lon="6.28714">
        <ele>833.6</ele>
        <time>2018-09-09T11:29:53Z</time>
      </trkpt>
      <trkpt lat="47.05075" lon="6.28723">
        <ele>833.12</ele>
        <time>2018-09-09T11:29:54Z</time>
      </trkpt>
      <trkpt lat="47.05078" lon="6.28732">
        <ele>833.12</ele>
        <time>2018-09-09T11:29:55Z</time>
      </trkpt>
      <trkpt lat="47.05081" lon="6.28742">
        <ele>832.16</ele>
        <time>2018-09-09T11:29:56Z</time>
      </trkpt>
      <trkpt lat="47.05092" lon="6.28775">
        <ele>830.24</ele>
        <time>2018-09-09T11:29:59Z</time>
      </trkpt>
      <trkpt lat="47.05094" lon="6.28787">
        <ele>829.27</ele>
        <time>2018-09-09T11:30:00Z</time>
      </trkpt>
      <trkpt lat="47.05094" lon="6.288">
        <ele>828.79</ele>
        <time>2018-09-09T11:30:01Z</time>
      </trkpt>
      <trkpt lat="47.05092" lon="6.28812">
        <ele>828.79</ele>
        <time>2018-09-09T11:30:02Z</time>
      </trkpt>
      <trkpt lat="47.05089" lon="6.28824">
        <ele>828.31</ele>
        <time>2018-09-09T11:30:03Z</time>
      </trkpt>
      <trkpt lat="47.05085" lon="6.28835">
        <ele>827.83</ele>
        <time>2018-09-09T11:30:04Z</time>
      </trkpt>
      <trkpt lat="47.0508" lon="6.28847">
        <ele>826.87</ele>
        <time>2018-09-09T11:30:05Z</time>
      </trkpt>
      <trkpt lat="47.05077" lon="6.28859">
        <ele>825.91</ele>
        <time>2018-09-09T11:30:06Z</time>
      </trkpt>
      <trkpt lat="47.05074" lon="6.28873">
        <ele>825.43</ele>
        <time>2018-09-09T11:30:07Z</time>
      </trkpt>
      <trkpt lat="47.05073" lon="6.28887">
        <ele>824.95</ele>
        <time>2018-09-09T11:30:08Z</time>
      </trkpt>
      <trkpt lat="47.05072" lon="6.28901">
        <ele>824.47</ele>
        <time>2018-09-09T11:30:09Z</time>
      </trkpt>
      <trkpt lat="47.0507" lon="6.28966">
        <ele>823.99</ele>
        <time>2018-09-09T11:30:14Z</time>
      </trkpt>
      <trkpt lat="47.05071" lon="6.28977">
        <ele>824.95</ele>
        <time>2018-09-09T11:30:15Z</time>
      </trkpt>
      <trkpt lat="47.05074" lon="6.28995">
        <ele>825.91</ele>
        <time>2018-09-09T11:30:17Z</time>
      </trkpt>
      <trkpt lat="47.05073" lon="6.29003">
        <ele>826.87</ele>
        <time>2018-09-09T11:30:18Z</time>
      </trkpt>
      <trkpt lat="47.05071" lon="6.2901">
        <ele>827.35</ele>
        <time>2018-09-09T11:30:19Z</time>
      </trkpt>
      <trkpt lat="47.05067" lon="6.29014">
        <ele>827.83</ele>
        <time>2018-09-09T11:30:20Z</time>
      </trkpt>
      <trkpt lat="47.05062" lon="6.29016">
        <ele>827.83</ele>
        <time>2018-09-09T11:30:21Z</time>
      </trkpt>
      <trkpt lat="47.05057" lon="6.29017">
        <ele>827.35</ele>
        <time>2018-09-09T11:30:22Z</time>
      </trkpt>
      <trkpt lat="47.05052" lon="6.29017">
        <ele>827.35</ele>
        <time>2018-09-09T11:30:23Z</time>
      </trkpt>
      <trkpt lat="47.05047" lon="6.29016">
        <ele>826.87</ele>
        <time>2018-09-09T11:30:24Z</time>
      </trkpt>
      <trkpt lat="47.05041" lon="6.29014">
        <ele>826.39</ele>
        <time>2018-09-09T11:30:25Z</time>
      </trkpt>
      <trkpt lat="47.05035" lon="6.29012">
        <ele>825.43</ele>
        <time>2018-09-09T11:30:26Z</time>
      </trkpt>
      <trkpt lat="47.04993" lon="6.28996">
        <ele>822.06</ele>
        <time>2018-09-09T11:30:32Z</time>
      </trkpt>
      <trkpt lat="47.04979" lon="6.2899">
        <ele>821.1</ele>
        <time>2018-09-09T11:30:34Z</time>
      </trkpt>
      <trkpt lat="47.04973" lon="6.28985">
        <ele>820.62</ele>
        <time>2018-09-09T11:30:35Z</time>
      </trkpt>
      <trkpt lat="47.04966" lon="6.28979">
        <ele>819.66</ele>
        <time>2018-09-09T11:30:36Z</time>
      </trkpt>
      <trkpt lat="47.04933" lon="6.28936">
        <ele>815.82</ele>
        <time>2018-09-09T11:30:41Z</time>
      </trkpt>
      <trkpt lat="47.04927" lon="6.28926">
        <ele>815.34</ele>
        <time>2018-09-09T11:30:42Z</time>
      </trkpt>
      <trkpt lat="47.04921" lon="6.28915">
        <ele>814.37</ele>
        <time>2018-09-09T11:30:43Z</time>
      </trkpt>
      <trkpt lat="47.04898" lon="6.28872">
        <ele>812.45</ele>
        <time>2018-09-09T11:30:47Z</time>
      </trkpt>
      <trkpt lat="47.0488" lon="6.28846">
        <ele>811.01</ele>
        <time>2018-09-09T11:30:50Z</time>
      </trkpt>
      <trkpt lat="47.0486" lon="6.28821">
        <ele>810.05</ele>
        <time>2018-09-09T11:30:54Z</time>
      </trkpt>
      <trkpt lat="47.04849" lon="6.28809">
        <ele>808.61</ele>
        <time>2018-09-09T11:30:56Z</time>
      </trkpt>
      <trkpt lat="47.04845" lon="6.28802">
        <ele>808.61</ele>
        <time>2018-09-09T11:30:57Z</time>
      </trkpt>
      <trkpt lat="47.04842" lon="6.28794">
        <ele>808.13</ele>
        <time>2018-09-09T11:30:58Z</time>
      </trkpt>
      <trkpt lat="47.0483" lon="6.28755">
        <ele>808.13</ele>
        <time>2018-09-09T11:31:03Z</time>
      </trkpt>
      <trkpt lat="47.04801" lon="6.28705">
        <ele>808.61</ele>
        <time>2018-09-09T11:31:12Z</time>
      </trkpt>
      <trkpt lat="47.04796" lon="6.28703">
        <ele>808.13</ele>
        <time>2018-09-09T11:31:13Z</time>
      </trkpt>
      <trkpt lat="47.04791" lon="6.28704">
        <ele>808.13</ele>
        <time>2018-09-09T11:31:14Z</time>
      </trkpt>
      <trkpt lat="47.04785" lon="6.28707">
        <ele>807.64</ele>
        <time>2018-09-09T11:31:15Z</time>
      </trkpt>
      <trkpt lat="47.04779" lon="6.28713">
        <ele>805.72</ele>
        <time>2018-09-09T11:31:16Z</time>
      </trkpt>
      <trkpt lat="47.04773" lon="6.28719">
        <ele>804.28</ele>
        <time>2018-09-09T11:31:17Z</time>
      </trkpt>
      <trkpt lat="47.04755" lon="6.28735">
        <ele>802.84</ele>
        <time>2018-09-09T11:31:20Z</time>
      </trkpt>
      <trkpt lat="47.04751" lon="6.28738">
        <ele>802.36</ele>
        <time>2018-09-09T11:31:21Z</time>
      </trkpt>
      <trkpt lat="47.04748" lon="6.28743">
        <ele>801.88</ele>
        <time>2018-09-09T11:31:22Z</time>
      </trkpt>
      <trkpt lat="47.04747" lon="6.2875">
        <ele>801.4</ele>
        <time>2018-09-09T11:31:23Z</time>
      </trkpt>
      <trkpt lat="47.04748" lon="6.28758">
        <ele>801.4</ele>
        <time>2018-09-09T11:31:24Z</time>
      </trkpt>
      <trkpt lat="47.0475" lon="6.28765">
        <ele>800.92</ele>
        <time>2018-09-09T11:31:25Z</time>
      </trkpt>
      <trkpt lat="47.04752" lon="6.28773">
        <ele>800.44</ele>
        <time>2018-09-09T11:31:26Z</time>
      </trkpt>
      <trkpt lat="47.04755" lon="6.2878">
        <ele>800.44</ele>
        <time>2018-09-09T11:31:27Z</time>
      </trkpt>
      <trkpt lat="47.04787" lon="6.28874">
        <ele>799.47</ele>
        <time>2018-09-09T11:31:40Z</time>
      </trkpt>
      <trkpt lat="47.04788" lon="6.28881">
        <ele>798.99</ele>
        <time>2018-09-09T11:31:41Z</time>
      </trkpt>
      <trkpt lat="47.04788" lon="6.28889">
        <ele>798.99</ele>
        <time>2018-09-09T11:31:42Z</time>
      </trkpt>
      <trkpt lat="47.04787" lon="6.28897">
        <ele>798.51</ele>
        <time>2018-09-09T11:31:43Z</time>
      </trkpt>
      <trkpt lat="47.04786" lon="6.28905">
        <ele>798.51</ele>
        <time>2018-09-09T11:31:44Z</time>
      </trkpt>
      <trkpt lat="47.04785" lon="6.28914">
        <ele>798.03</ele>
        <time>2018-09-09T11:31:45Z</time>
      </trkpt>
      <trkpt lat="47.04783" lon="6.28923">
        <ele>797.55</ele>
        <time>2018-09-09T11:31:46Z</time>
      </trkpt>
      <trkpt lat="47.04781" lon="6.28931">
        <ele>797.07</ele>
        <time>2018-09-09T11:31:47Z</time>
      </trkpt>
      <trkpt lat="47.04778" lon="6.28939">
        <ele>796.59</ele>
        <time>2018-09-09T11:31:48Z</time>
      </trkpt>
      <trkpt lat="47.04769" lon="6.28962">
        <ele>794.19</ele>
        <time>2018-09-09T11:31:51Z</time>
      </trkpt>
      <trkpt lat="47.04764" lon="6.28979">
        <ele>792.74</ele>
        <time>2018-09-09T11:31:53Z</time>
      </trkpt>
      <trkpt lat="47.04762" lon="6.28988">
        <ele>792.26</ele>
        <time>2018-09-09T11:31:54Z</time>
      </trkpt>
      <trkpt lat="47.04757" lon="6.29004">
        <ele>790.82</ele>
        <time>2018-09-09T11:31:56Z</time>
      </trkpt>
      <trkpt lat="47.04755" lon="6.29012">
        <ele>789.86</ele>
        <time>2018-09-09T11:31:57Z</time>
      </trkpt>
      <trkpt lat="47.04752" lon="6.29018">
        <ele>789.86</ele>
        <time>2018-09-09T11:31:58Z</time>
      </trkpt>
      <trkpt lat="47.04748" lon="6.29022">
        <ele>788.9</ele>
        <time>2018-09-09T11:31:59Z</time>
      </trkpt>
      <trkpt lat="47.04744" lon="6.29025">
        <ele>788.42</ele>
        <time>2018-09-09T11:32:00Z</time>
      </trkpt>
      <trkpt lat="47.04741" lon="6.29027">
        <ele>787.94</ele>
        <time>2018-09-09T11:32:01Z</time>
      </trkpt>
      <trkpt lat="47.04738" lon="6.29029">
        <ele>787.46</ele>
        <time>2018-09-09T11:32:02Z</time>
      </trkpt>
      <trkpt lat="47.04735" lon="6.29032">
        <ele>786.98</ele>
        <time>2018-09-09T11:32:03Z</time>
      </trkpt>
      <trkpt lat="47.04716" lon="6.29049">
        <ele>784.57</ele>
        <time>2018-09-09T11:32:07Z</time>
      </trkpt>
      <trkpt lat="47.04689" lon="6.29072">
        <ele>783.13</ele>
        <time>2018-09-09T11:32:12Z</time>
      </trkpt>
      <trkpt lat="47.04684" lon="6.29076">
        <ele>782.17</ele>
        <time>2018-09-09T11:32:13Z</time>
      </trkpt>
      <trkpt lat="47.04679" lon="6.29079">
        <ele>782.17</ele>
        <time>2018-09-09T11:32:14Z</time>
      </trkpt>
      <trkpt lat="47.04674" lon="6.29081">
        <ele>781.69</ele>
        <time>2018-09-09T11:32:15Z</time>
      </trkpt>
      <trkpt lat="47.04668" lon="6.29084">
        <ele>781.69</ele>
        <time>2018-09-09T11:32:16Z</time>
      </trkpt>
      <trkpt lat="47.04662" lon="6.29086">
        <ele>780.73</ele>
        <time>2018-09-09T11:32:17Z</time>
      </trkpt>
      <trkpt lat="47.04656" lon="6.2909">
        <ele>779.77</ele>
        <time>2018-09-09T11:32:18Z</time>
      </trkpt>
      <trkpt lat="47.0465" lon="6.29095">
        <ele>779.29</ele>
        <time>2018-09-09T11:32:19Z</time>
      </trkpt>
      <trkpt lat="47.04639" lon="6.29106">
        <ele>778.32</ele>
        <time>2018-09-09T11:32:21Z</time>
      </trkpt>
      <trkpt lat="47.04635" lon="6.29113">
        <ele>778.32</ele>
        <time>2018-09-09T11:32:22Z</time>
      </trkpt>
      <trkpt lat="47.04631" lon="6.2912">
        <ele>778.32</ele>
        <time>2018-09-09T11:32:23Z</time>
      </trkpt>
      <trkpt lat="47.04627" lon="6.29127">
        <ele>777.84</ele>
        <time>2018-09-09T11:32:24Z</time>
      </trkpt>
      <trkpt lat="47.04623" lon="6.29133">
        <ele>777.84</ele>
        <time>2018-09-09T11:32:25Z</time>
      </trkpt>
      <trkpt lat="47.0461" lon="6.29149">
        <ele>777.36</ele>
        <time>2018-09-09T11:32:28Z</time>
      </trkpt>
      <trkpt lat="47.04605" lon="6.29153">
        <ele>777.36</ele>
        <time>2018-09-09T11:32:29Z</time>
      </trkpt>
      <trkpt lat="47.04589" lon="6.29171">
        <ele>777.84</ele>
        <time>2018-09-09T11:32:36Z</time>
      </trkpt>
      <trkpt lat="47.04588" lon="6.29173">
        <ele>777.84</ele>
        <time>2018-09-09T11:32:47Z</time>
      </trkpt>
      <trkpt lat="47.04588" lon="6.29174">
        <ele>778.32</ele>
        <time>2018-09-09T11:33:00Z</time>
      </trkpt>
      <trkpt lat="47.04582" lon="6.2918">
        <ele>777.84</ele>
        <time>2018-09-09T11:33:09Z</time>
      </trkpt>
      <trkpt lat="47.04572" lon="6.29186">
        <ele>777.36</ele>
        <time>2018-09-09T11:33:15Z</time>
      </trkpt>
      <trkpt lat="47.04556" lon="6.29194">
        <ele>775.44</ele>
        <time>2018-09-09T11:33:19Z</time>
      </trkpt>
      <trkpt lat="47.04537" lon="6.29203">
        <ele>772.56</ele>
        <time>2018-09-09T11:33:23Z</time>
      </trkpt>
      <trkpt lat="47.04531" lon="6.29205">
        <ele>771.6</ele>
        <time>2018-09-09T11:33:24Z</time>
      </trkpt>
      <trkpt lat="47.04525" lon="6.29207">
        <ele>770.63</ele>
        <time>2018-09-09T11:33:25Z</time>
      </trkpt>
      <trkpt lat="47.04518" lon="6.29212">
        <ele>770.15</ele>
        <time>2018-09-09T11:33:26Z</time>
      </trkpt>
      <trkpt lat="47.04512" lon="6.29216">
        <ele>769.19</ele>
        <time>2018-09-09T11:33:27Z</time>
      </trkpt>
      <trkpt lat="47.04506" lon="6.2922">
        <ele>768.23</ele>
        <time>2018-09-09T11:33:28Z</time>
      </trkpt>
      <trkpt lat="47.045" lon="6.29222">
        <ele>767.27</ele>
        <time>2018-09-09T11:33:29Z</time>
      </trkpt>
      <trkpt lat="47.04489" lon="6.29227">
        <ele>765.83</ele>
        <time>2018-09-09T11:33:32Z</time>
      </trkpt>
      <trkpt lat="47.04489" lon="6.29226">
        <ele>765.83</ele>
        <time>2018-09-09T11:33:33Z</time>
      </trkpt>
      <trkpt lat="47.04486" lon="6.29225">
        <ele>764.39</ele>
        <time>2018-09-09T11:33:37Z</time>
      </trkpt>
      <trkpt lat="47.04483" lon="6.29224">
        <ele>763.9</ele>
        <time>2018-09-09T11:33:38Z</time>
      </trkpt>
      <trkpt lat="47.0448" lon="6.29222">
        <ele>762.94</ele>
        <time>2018-09-09T11:33:39Z</time>
      </trkpt>
      <trkpt lat="47.04477" lon="6.2922">
        <ele>761.98</ele>
        <time>2018-09-09T11:33:40Z</time>
      </trkpt>
      <trkpt lat="47.04474" lon="6.29218">
        <ele>761.98</ele>
        <time>2018-09-09T11:33:41Z</time>
      </trkpt>
      <trkpt lat="47.04471" lon="6.29216">
        <ele>761.02</ele>
        <time>2018-09-09T11:33:42Z</time>
      </trkpt>
      <trkpt lat="47.04469" lon="6.29216">
        <ele>760.54</ele>
        <time>2018-09-09T11:33:43Z</time>
      </trkpt>
      <trkpt lat="47.04466" lon="6.29216">
        <ele>760.06</ele>
        <time>2018-09-09T11:33:44Z</time>
      </trkpt>
      <trkpt lat="47.04463" lon="6.29214">
        <ele>758.62</ele>
        <time>2018-09-09T11:33:45Z</time>
      </trkpt>
      <trkpt lat="47.04461" lon="6.29212">
        <ele>758.14</ele>
        <time>2018-09-09T11:33:46Z</time>
      </trkpt>
      <trkpt lat="47.04459" lon="6.2921">
        <ele>757.66</ele>
        <time>2018-09-09T11:33:47Z</time>
      </trkpt>
      <trkpt lat="47.04457" lon="6.29207">
        <ele>757.18</ele>
        <time>2018-09-09T11:33:48Z</time>
      </trkpt>
      <trkpt lat="47.04455" lon="6.29204">
        <ele>757.18</ele>
        <time>2018-09-09T11:33:49Z</time>
      </trkpt>
      <trkpt lat="47.0445" lon="6.29193">
        <ele>754.77</ele>
        <time>2018-09-09T11:33:53Z</time>
      </trkpt>
      <trkpt lat="47.04449" lon="6.2919">
        <ele>754.29</ele>
        <time>2018-09-09T11:33:54Z</time>
      </trkpt>
      <trkpt lat="47.04447" lon="6.29189">
        <ele>753.33</ele>
        <time>2018-09-09T11:33:55Z</time>
      </trkpt>
      <trkpt lat="47.04445" lon="6.29187">
        <ele>752.85</ele>
        <time>2018-09-09T11:33:56Z</time>
      </trkpt>
      <trkpt lat="47.04444" lon="6.29185">
        <ele>751.89</ele>
        <time>2018-09-09T11:33:57Z</time>
      </trkpt>
      <trkpt lat="47.04439" lon="6.29181">
        <ele>749.97</ele>
        <time>2018-09-09T11:34:00Z</time>
      </trkpt>
      <trkpt lat="47.04433" lon="6.2918">
        <ele>748.52</ele>
        <time>2018-09-09T11:34:03Z</time>
      </trkpt>
      <trkpt lat="47.04418" lon="6.29182">
        <ele>746.12</ele>
        <time>2018-09-09T11:34:08Z</time>
      </trkpt>
      <trkpt lat="47.04411" lon="6.2918">
        <ele>745.16</ele>
        <time>2018-09-09T11:34:09Z</time>
      </trkpt>
      <trkpt lat="47.04403" lon="6.2918">
        <ele>743.24</ele>
        <time>2018-09-09T11:34:10Z</time>
      </trkpt>
      <trkpt lat="47.04395" lon="6.29179">
        <ele>742.76</ele>
        <time>2018-09-09T11:34:11Z</time>
      </trkpt>
      <trkpt lat="47.04388" lon="6.29179">
        <ele>742.76</ele>
        <time>2018-09-09T11:34:12Z</time>
      </trkpt>
      <trkpt lat="47.04381" lon="6.29178">
        <ele>742.76</ele>
        <time>2018-09-09T11:34:13Z</time>
      </trkpt>
      <trkpt lat="47.04375" lon="6.29177">
        <ele>743.24</ele>
        <time>2018-09-09T11:34:14Z</time>
      </trkpt>
      <trkpt lat="47.04349" lon="6.29175">
        <ele>744.68</ele>
        <time>2018-09-09T11:34:20Z</time>
      </trkpt>
      <trkpt lat="47.04347" lon="6.29174">
        <ele>745.16</ele>
        <time>2018-09-09T11:34:21Z</time>
      </trkpt>
      <trkpt lat="47.04345" lon="6.29174">
        <ele>745.64</ele>
        <time>2018-09-09T11:34:22Z</time>
      </trkpt>
      <trkpt lat="47.04343" lon="6.29174">
        <ele>745.64</ele>
        <time>2018-09-09T11:34:23Z</time>
      </trkpt>
      <trkpt lat="47.0434" lon="6.29173">
        <ele>745.64</ele>
        <time>2018-09-09T11:34:24Z</time>
      </trkpt>
      <trkpt lat="47.04337" lon="6.29171">
        <ele>745.16</ele>
        <time>2018-09-09T11:34:25Z</time>
      </trkpt>
      <trkpt lat="47.04334" lon="6.29167">
        <ele>744.2</ele>
        <time>2018-09-09T11:34:26Z</time>
      </trkpt>
      <trkpt lat="47.04327" lon="6.2916">
        <ele>742.28</ele>
        <time>2018-09-09T11:34:28Z</time>
      </trkpt>
      <trkpt lat="47.04321" lon="6.29157">
        <ele>741.79</ele>
        <time>2018-09-09T11:34:30Z</time>
      </trkpt>
      <trkpt lat="47.04319" lon="6.29153">
        <ele>741.31</ele>
        <time>2018-09-09T11:34:31Z</time>
      </trkpt>
      <trkpt lat="47.04312" lon="6.29139">
        <ele>738.91</ele>
        <time>2018-09-09T11:34:34Z</time>
      </trkpt>
      <trkpt lat="47.0431" lon="6.29135">
        <ele>738.43</ele>
        <time>2018-09-09T11:34:35Z</time>
      </trkpt>
      <trkpt lat="47.04307" lon="6.29131">
        <ele>738.43</ele>
        <time>2018-09-09T11:34:36Z</time>
      </trkpt>
      <trkpt lat="47.04304" lon="6.29128">
        <ele>737.47</ele>
        <time>2018-09-09T11:34:37Z</time>
      </trkpt>
      <trkpt lat="47.04301" lon="6.29124">
        <ele>737.47</ele>
        <time>2018-09-09T11:34:38Z</time>
      </trkpt>
      <trkpt lat="47.04297" lon="6.2912">
        <ele>736.99</ele>
        <time>2018-09-09T11:34:39Z</time>
      </trkpt>
      <trkpt lat="47.04293" lon="6.29118">
        <ele>736.51</ele>
        <time>2018-09-09T11:34:40Z</time>
      </trkpt>
      <trkpt lat="47.04289" lon="6.29117">
        <ele>735.55</ele>
        <time>2018-09-09T11:34:41Z</time>
      </trkpt>
      <trkpt lat="47.04285" lon="6.29115">
        <ele>735.07</ele>
        <time>2018-09-09T11:34:42Z</time>
      </trkpt>
      <trkpt lat="47.04282" lon="6.29113">
        <ele>735.07</ele>
        <time>2018-09-09T11:34:43Z</time>
      </trkpt>
      <trkpt lat="47.04281" lon="6.29111">
        <ele>734.58</ele>
        <time>2018-09-09T11:34:44Z</time>
      </trkpt>
      <trkpt lat="47.04279" lon="6.29108">
        <ele>734.1</ele>
        <time>2018-09-09T11:34:45Z</time>
      </trkpt>
      <trkpt lat="47.04278" lon="6.29105">
        <ele>734.1</ele>
        <time>2018-09-09T11:34:46Z</time>
      </trkpt>
      <trkpt lat="47.04277" lon="6.29102">
        <ele>733.62</ele>
        <time>2018-09-09T11:34:47Z</time>
      </trkpt>
      <trkpt lat="47.04275" lon="6.29099">
        <ele>733.14</ele>
        <time>2018-09-09T11:34:48Z</time>
      </trkpt>
      <trkpt lat="47.04273" lon="6.29093">
        <ele>732.66</ele>
        <time>2018-09-09T11:34:49Z</time>
      </trkpt>
      <trkpt lat="47.04271" lon="6.29089">
        <ele>732.18</ele>
        <time>2018-09-09T11:34:50Z</time>
      </trkpt>
      <trkpt lat="47.04267" lon="6.29086">
        <ele>731.7</ele>
        <time>2018-09-09T11:34:51Z</time>
      </trkpt>
      <trkpt lat="47.04263" lon="6.29083">
        <ele>731.22</ele>
        <time>2018-09-09T11:34:52Z</time>
      </trkpt>
      <trkpt lat="47.0426" lon="6.29081">
        <ele>731.22</ele>
        <time>2018-09-09T11:34:53Z</time>
      </trkpt>
      <trkpt lat="47.04256" lon="6.2908">
        <ele>731.22</ele>
        <time>2018-09-09T11:34:54Z</time>
      </trkpt>
      <trkpt lat="47.0424" lon="6.29072">
        <ele>730.26</ele>
        <time>2018-09-09T11:34:59Z</time>
      </trkpt>
      <trkpt lat="47.04221" lon="6.29086">
        <ele>730.26</ele>
        <time>2018-09-09T11:35:07Z</time>
      </trkpt>
      <trkpt lat="47.04214" lon="6.29099">
        <ele>729.3</ele>
        <time>2018-09-09T11:35:11Z</time>
      </trkpt>
      <trkpt lat="47.04202" lon="6.29129">
        <ele>725.93</ele>
        <time>2018-09-09T11:35:19Z</time>
      </trkpt>
      <trkpt lat="47.04201" lon="6.29135">
        <ele>724.01</ele>
        <time>2018-09-09T11:35:22Z</time>
      </trkpt>
      <trkpt lat="47.04187" lon="6.29141">
        <ele>720.16</ele>
        <time>2018-09-09T11:35:29Z</time>
      </trkpt>
      <trkpt lat="47.04154" lon="6.2914">
        <ele>718.72</ele>
        <time>2018-09-09T11:35:39Z</time>
      </trkpt>
      <trkpt lat="47.04149" lon="6.29137">
        <ele>719.2</ele>
        <time>2018-09-09T11:35:41Z</time>
      </trkpt>
      <trkpt lat="47.04141" lon="6.29145">
        <ele>720.65</ele>
        <time>2018-09-09T11:35:52Z</time>
      </trkpt>
      <trkpt lat="47.04135" lon="6.29134">
        <ele>719.68</ele>
        <time>2018-09-09T11:35:56Z</time>
      </trkpt>
      <trkpt lat="47.04122" lon="6.29118">
        <ele>718.72</ele>
        <time>2018-09-09T11:36:01Z</time>
      </trkpt>
      <trkpt lat="47.04095" lon="6.29089">
        <ele>718.24</ele>
        <time>2018-09-09T11:36:10Z</time>
      </trkpt>
      <trkpt lat="47.04084" lon="6.29059">
        <ele>715.36</ele>
        <time>2018-09-09T11:36:18Z</time>
      </trkpt>
      <trkpt lat="47.04075" lon="6.29048">
        <ele>713.44</ele>
        <time>2018-09-09T11:36:21Z</time>
      </trkpt>
      <trkpt lat="47.04063" lon="6.29036">
        <ele>711.03</ele>
        <time>2018-09-09T11:36:26Z</time>
      </trkpt>
      <trkpt lat="47.04058" lon="6.29037">
        <ele>709.59</ele>
        <time>2018-09-09T11:36:28Z</time>
      </trkpt>
      <trkpt lat="47.04055" lon="6.29038">
        <ele>709.11</ele>
        <time>2018-09-09T11:36:30Z</time>
      </trkpt>
      <trkpt lat="47.0404" lon="6.29031">
        <ele>704.3</ele>
        <time>2018-09-09T11:36:34Z</time>
      </trkpt>
      <trkpt lat="47.04036" lon="6.29031">
        <ele>703.34</ele>
        <time>2018-09-09T11:36:35Z</time>
      </trkpt>
      <trkpt lat="47.04029" lon="6.29032">
        <ele>703.34</ele>
        <time>2018-09-09T11:36:37Z</time>
      </trkpt>
      <trkpt lat="47.04013" lon="6.29031">
        <ele>701.9</ele>
        <time>2018-09-09T11:36:42Z</time>
      </trkpt>
      <trkpt lat="47.03994" lon="6.29028">
        <ele>704.3</ele>
        <time>2018-09-09T11:36:52Z</time>
      </trkpt>
      <trkpt lat="47.03993" lon="6.29027">
        <ele>704.3</ele>
        <time>2018-09-09T11:36:53Z</time>
      </trkpt>
      <trkpt lat="47.03983" lon="6.29023">
        <ele>706.71</ele>
        <time>2018-09-09T11:37:05Z</time>
      </trkpt>
      <trkpt lat="47.03977" lon="6.2902">
        <ele>706.71</ele>
        <time>2018-09-09T11:37:13Z</time>
      </trkpt>
      <trkpt lat="47.03977" lon="6.29017">
        <ele>706.23</ele>
        <time>2018-09-09T11:37:15Z</time>
      </trkpt>
      <trkpt lat="47.0397" lon="6.29011">
        <ele>703.34</ele>
        <time>2018-09-09T11:37:20Z</time>
      </trkpt>
      <trkpt lat="47.03955" lon="6.29028">
        <ele>701.9</ele>
        <time>2018-09-09T11:37:30Z</time>
      </trkpt>
      <trkpt lat="47.03951" lon="6.29039">
        <ele>701.9</ele>
        <time>2018-09-09T11:37:39Z</time>
      </trkpt>
      <trkpt lat="47.03949" lon="6.29046">
        <ele>700.46</ele>
        <time>2018-09-09T11:37:52Z</time>
      </trkpt>
      <trkpt lat="47.03929" lon="6.29064">
        <ele>698.05</ele>
        <time>2018-09-09T11:38:00Z</time>
      </trkpt>
      <trkpt lat="47.03924" lon="6.29067">
        <ele>696.61</ele>
        <time>2018-09-09T11:38:01Z</time>
      </trkpt>
      <trkpt lat="47.03919" lon="6.29068">
        <ele>695.17</ele>
        <time>2018-09-09T11:38:02Z</time>
      </trkpt>
      <trkpt lat="47.03914" lon="6.2907">
        <ele>694.21</ele>
        <time>2018-09-09T11:38:03Z</time>
      </trkpt>
      <trkpt lat="47.03909" lon="6.2907">
        <ele>693.25</ele>
        <time>2018-09-09T11:38:04Z</time>
      </trkpt>
      <trkpt lat="47.03904" lon="6.29071">
        <ele>693.25</ele>
        <time>2018-09-09T11:38:05Z</time>
      </trkpt>
      <trkpt lat="47.039" lon="6.29069">
        <ele>693.73</ele>
        <time>2018-09-09T11:38:06Z</time>
      </trkpt>
      <trkpt lat="47.03896" lon="6.29065">
        <ele>693.25</ele>
        <time>2018-09-09T11:38:07Z</time>
      </trkpt>
      <trkpt lat="47.03892" lon="6.2906">
        <ele>692.29</ele>
        <time>2018-09-09T11:38:08Z</time>
      </trkpt>
      <trkpt lat="47.03875" lon="6.29039">
        <ele>688.44</ele>
        <time>2018-09-09T11:38:12Z</time>
      </trkpt>
      <trkpt lat="47.03859" lon="6.2902">
        <ele>685.08</ele>
        <time>2018-09-09T11:38:15Z</time>
      </trkpt>
      <trkpt lat="47.03848" lon="6.29009">
        <ele>682.67</ele>
        <time>2018-09-09T11:38:17Z</time>
      </trkpt>
      <trkpt lat="47.03842" lon="6.29005">
        <ele>680.75</ele>
        <time>2018-09-09T11:38:18Z</time>
      </trkpt>
      <trkpt lat="47.03836" lon="6.29001">
        <ele>679.31</ele>
        <time>2018-09-09T11:38:19Z</time>
      </trkpt>
      <trkpt lat="47.03829" lon="6.28999">
        <ele>677.87</ele>
        <time>2018-09-09T11:38:20Z</time>
      </trkpt>
      <trkpt lat="47.03821" lon="6.28999">
        <ele>676.42</ele>
        <time>2018-09-09T11:38:21Z</time>
      </trkpt>
      <trkpt lat="47.03793" lon="6.28993">
        <ele>673.06</ele>
        <time>2018-09-09T11:38:25Z</time>
      </trkpt>
      <trkpt lat="47.03788" lon="6.28993">
        <ele>673.06</ele>
        <time>2018-09-09T11:38:26Z</time>
      </trkpt>
      <trkpt lat="47.03786" lon="6.28994">
        <ele>673.06</ele>
        <time>2018-09-09T11:38:27Z</time>
      </trkpt>
      <trkpt lat="47.0378" lon="6.29001">
        <ele>672.58</ele>
        <time>2018-09-09T11:38:39Z</time>
      </trkpt>
      <trkpt lat="47.03778" lon="6.29004">
        <ele>672.58</ele>
        <time>2018-09-09T11:38:48Z</time>
      </trkpt>
      <trkpt lat="47.03776" lon="6.29004">
        <ele>672.58</ele>
        <time>2018-09-09T11:38:49Z</time>
      </trkpt>
      <trkpt lat="47.03774" lon="6.29005">
        <ele>672.1</ele>
        <time>2018-09-09T11:38:50Z</time>
      </trkpt>
      <trkpt lat="47.03772" lon="6.29005">
        <ele>672.1</ele>
        <time>2018-09-09T11:38:51Z</time>
      </trkpt>
      <trkpt lat="47.0377" lon="6.29004">
        <ele>671.14</ele>
        <time>2018-09-09T11:38:52Z</time>
      </trkpt>
      <trkpt lat="47.0376" lon="6.29002">
        <ele>668.73</ele>
        <time>2018-09-09T11:38:54Z</time>
      </trkpt>
      <trkpt lat="47.03748" lon="6.29">
        <ele>665.37</ele>
        <time>2018-09-09T11:38:56Z</time>
      </trkpt>
      <trkpt lat="47.0373" lon="6.28998">
        <ele>662.01</ele>
        <time>2018-09-09T11:38:59Z</time>
      </trkpt>
      <trkpt lat="47.03726" lon="6.28999">
        <ele>660.56</ele>
        <time>2018-09-09T11:39:02Z</time>
      </trkpt>
      <trkpt lat="47.03713" lon="6.29008">
        <ele>657.2</ele>
        <time>2018-09-09T11:39:07Z</time>
      </trkpt>
      <trkpt lat="47.03703" lon="6.29014">
        <ele>653.83</ele>
        <time>2018-09-09T11:39:10Z</time>
      </trkpt>
      <trkpt lat="47.03691" lon="6.29024">
        <ele>649.51</ele>
        <time>2018-09-09T11:39:13Z</time>
      </trkpt>
      <trkpt lat="47.03687" lon="6.29029">
        <ele>648.07</ele>
        <time>2018-09-09T11:39:14Z</time>
      </trkpt>
      <trkpt lat="47.03683" lon="6.29035">
        <ele>646.62</ele>
        <time>2018-09-09T11:39:15Z</time>
      </trkpt>
      <trkpt lat="47.03677" lon="6.29043">
        <ele>645.66</ele>
        <time>2018-09-09T11:39:16Z</time>
      </trkpt>
      <trkpt lat="47.03672" lon="6.29051">
        <ele>645.18</ele>
        <time>2018-09-09T11:39:17Z</time>
      </trkpt>
      <trkpt lat="47.03669" lon="6.2906">
        <ele>644.7</ele>
        <time>2018-09-09T11:39:18Z</time>
      </trkpt>
      <trkpt lat="47.03667" lon="6.29068">
        <ele>644.7</ele>
        <time>2018-09-09T11:39:19Z</time>
      </trkpt>
      <trkpt lat="47.03665" lon="6.29077">
        <ele>644.7</ele>
        <time>2018-09-09T11:39:20Z</time>
      </trkpt>
      <trkpt lat="47.03662" lon="6.29085">
        <ele>645.66</ele>
        <time>2018-09-09T11:39:21Z</time>
      </trkpt>
      <trkpt lat="47.03661" lon="6.2909">
        <ele>647.1</ele>
        <time>2018-09-09T11:39:22Z</time>
      </trkpt>
      <trkpt lat="47.0366" lon="6.29094">
        <ele>648.07</ele>
        <time>2018-09-09T11:39:23Z</time>
      </trkpt>
      <trkpt lat="47.0366" lon="6.29097">
        <ele>648.55</ele>
        <time>2018-09-09T11:39:24Z</time>
      </trkpt>
      <trkpt lat="47.03659" lon="6.291">
        <ele>648.55</ele>
        <time>2018-09-09T11:39:25Z</time>
      </trkpt>
      <trkpt lat="47.03658" lon="6.29103">
        <ele>649.03</ele>
        <time>2018-09-09T11:39:26Z</time>
      </trkpt>
      <trkpt lat="47.03657" lon="6.29106">
        <ele>649.51</ele>
        <time>2018-09-09T11:39:27Z</time>
      </trkpt>
      <trkpt lat="47.03656" lon="6.29108">
        <ele>649.51</ele>
        <time>2018-09-09T11:39:28Z</time>
      </trkpt>
      <trkpt lat="47.03656" lon="6.29112">
        <ele>649.99</ele>
        <time>2018-09-09T11:39:29Z</time>
      </trkpt>
      <trkpt lat="47.03655" lon="6.29116">
        <ele>649.99</ele>
        <time>2018-09-09T11:39:30Z</time>
      </trkpt>
      <trkpt lat="47.03654" lon="6.2912">
        <ele>650.47</ele>
        <time>2018-09-09T11:39:31Z</time>
      </trkpt>
      <trkpt lat="47.03653" lon="6.29124">
        <ele>649.99</ele>
        <time>2018-09-09T11:39:32Z</time>
      </trkpt>
      <trkpt lat="47.03652" lon="6.29129">
        <ele>649.51</ele>
        <time>2018-09-09T11:39:33Z</time>
      </trkpt>
      <trkpt lat="47.03646" lon="6.29151">
        <ele>649.99</ele>
        <time>2018-09-09T11:39:37Z</time>
      </trkpt>
      <trkpt lat="47.03645" lon="6.29155">
        <ele>650.47</ele>
        <time>2018-09-09T11:39:38Z</time>
      </trkpt>
      <trkpt lat="47.03643" lon="6.2919">
        <ele>653.35</ele>
        <time>2018-09-09T11:39:47Z</time>
      </trkpt>
      <trkpt lat="47.03631" lon="6.29236">
        <ele>656.24</ele>
        <time>2018-09-09T11:39:58Z</time>
      </trkpt>
      <trkpt lat="47.03626" lon="6.2925">
        <ele>655.28</ele>
        <time>2018-09-09T11:40:01Z</time>
      </trkpt>
      <trkpt lat="47.03624" lon="6.29256">
        <ele>654.8</ele>
        <time>2018-09-09T11:40:02Z</time>
      </trkpt>
      <trkpt lat="47.03622" lon="6.29263">
        <ele>654.31</ele>
        <time>2018-09-09T11:40:03Z</time>
      </trkpt>
      <trkpt lat="47.03618" lon="6.29272">
        <ele>653.35</ele>
        <time>2018-09-09T11:40:05Z</time>
      </trkpt>
      <trkpt lat="47.03614" lon="6.29277">
        <ele>651.91</ele>
        <time>2018-09-09T11:40:08Z</time>
      </trkpt>
      <trkpt lat="47.0361" lon="6.29261">
        <ele>648.07</ele>
        <time>2018-09-09T11:40:13Z</time>
      </trkpt>
      <trkpt lat="47.03608" lon="6.29256">
        <ele>647.1</ele>
        <time>2018-09-09T11:40:14Z</time>
      </trkpt>
      <trkpt lat="47.03606" lon="6.29252">
        <ele>646.62</ele>
        <time>2018-09-09T11:40:15Z</time>
      </trkpt>
      <trkpt lat="47.03598" lon="6.29233">
        <ele>643.26</ele>
        <time>2018-09-09T11:40:18Z</time>
      </trkpt>
      <trkpt lat="47.0359" lon="6.29221">
        <ele>642.3</ele>
        <time>2018-09-09T11:40:20Z</time>
      </trkpt>
      <trkpt lat="47.03581" lon="6.29212">
        <ele>644.22</ele>
        <time>2018-09-09T11:40:22Z</time>
      </trkpt>
      <trkpt lat="47.03576" lon="6.29206">
        <ele>646.14</ele>
        <time>2018-09-09T11:40:24Z</time>
      </trkpt>
      <trkpt lat="47.03573" lon="6.29202">
        <ele>647.59</ele>
        <time>2018-09-09T11:40:26Z</time>
      </trkpt>
      <trkpt lat="47.0357" lon="6.29201">
        <ele>648.55</ele>
        <time>2018-09-09T11:40:28Z</time>
      </trkpt>
      <trkpt lat="47.0355" lon="6.29188">
        <ele>649.99</ele>
        <time>2018-09-09T11:40:36Z</time>
      </trkpt>
      <trkpt lat="47.03548" lon="6.29185">
        <ele>649.99</ele>
        <time>2018-09-09T11:40:37Z</time>
      </trkpt>
      <trkpt lat="47.03544" lon="6.29181">
        <ele>650.95</ele>
        <time>2018-09-09T11:40:41Z</time>
      </trkpt>
      <trkpt lat="47.03521" lon="6.29167">
        <ele>652.39</ele>
        <time>2018-09-09T11:40:52Z</time>
      </trkpt>
      <trkpt lat="47.03502" lon="6.2916">
        <ele>653.35</ele>
        <time>2018-09-09T11:41:00Z</time>
      </trkpt>
      <trkpt lat="47.03479" lon="6.29153">
        <ele>655.28</ele>
        <time>2018-09-09T11:41:11Z</time>
      </trkpt>
      <trkpt lat="47.03454" lon="6.29141">
        <ele>657.68</ele>
        <time>2018-09-09T11:41:24Z</time>
      </trkpt>
      <trkpt lat="47.03444" lon="6.29135">
        <ele>658.16</ele>
        <time>2018-09-09T11:41:27Z</time>
      </trkpt>
      <trkpt lat="47.03442" lon="6.29134">
        <ele>658.16</ele>
        <time>2018-09-09T11:41:28Z</time>
      </trkpt>
      <trkpt lat="47.0344" lon="6.29133">
        <ele>658.16</ele>
        <time>2018-09-09T11:41:29Z</time>
      </trkpt>
      <trkpt lat="47.03436" lon="6.29131">
        <ele>657.68</ele>
        <time>2018-09-09T11:41:30Z</time>
      </trkpt>
      <trkpt lat="47.03431" lon="6.29128">
        <ele>657.68</ele>
        <time>2018-09-09T11:41:31Z</time>
      </trkpt>
      <trkpt lat="47.03428" lon="6.29125">
        <ele>658.16</ele>
        <time>2018-09-09T11:41:32Z</time>
      </trkpt>
      <trkpt lat="47.03425" lon="6.29122">
        <ele>658.16</ele>
        <time>2018-09-09T11:41:33Z</time>
      </trkpt>
      <trkpt lat="47.03401" lon="6.2911">
        <ele>657.2</ele>
        <time>2018-09-09T11:41:40Z</time>
      </trkpt>
      <trkpt lat="47.03361" lon="6.29098">
        <ele>656.24</ele>
        <time>2018-09-09T11:41:49Z</time>
      </trkpt>
      <trkpt lat="47.0334" lon="6.29105">
        <ele>657.68</ele>
        <time>2018-09-09T11:41:58Z</time>
      </trkpt>
      <trkpt lat="47.03328" lon="6.29111">
        <ele>659.12</ele>
        <time>2018-09-09T11:42:03Z</time>
      </trkpt>
      <trkpt lat="47.03326" lon="6.29113">
        <ele>659.12</ele>
        <time>2018-09-09T11:42:04Z</time>
      </trkpt>
      <trkpt lat="47.03302" lon="6.29132">
        <ele>662.01</ele>
        <time>2018-09-09T11:42:16Z</time>
      </trkpt>
      <trkpt lat="47.03301" lon="6.29134">
        <ele>662.01</ele>
        <time>2018-09-09T11:42:17Z</time>
      </trkpt>
      <trkpt lat="47.03299" lon="6.29137">
        <ele>662.01</ele>
        <time>2018-09-09T11:42:18Z</time>
      </trkpt>
      <trkpt lat="47.03297" lon="6.29138">
        <ele>662.49</ele>
        <time>2018-09-09T11:42:19Z</time>
      </trkpt>
      <trkpt lat="47.03296" lon="6.29139">
        <ele>662.49</ele>
        <time>2018-09-09T11:42:20Z</time>
      </trkpt>
      <trkpt lat="47.03294" lon="6.29141">
        <ele>662.49</ele>
        <time>2018-09-09T11:42:21Z</time>
      </trkpt>
      <trkpt lat="47.03291" lon="6.29143">
        <ele>662.49</ele>
        <time>2018-09-09T11:42:22Z</time>
      </trkpt>
      <trkpt lat="47.0328" lon="6.29152">
        <ele>660.08</ele>
        <time>2018-09-09T11:42:28Z</time>
      </trkpt>
      <trkpt lat="47.03264" lon="6.29162">
        <ele>656.72</ele>
        <time>2018-09-09T11:42:33Z</time>
      </trkpt>
      <trkpt lat="47.03251" lon="6.29175">
        <ele>653.83</ele>
        <time>2018-09-09T11:42:36Z</time>
      </trkpt>
      <trkpt lat="47.03246" lon="6.29177">
        <ele>652.39</ele>
        <time>2018-09-09T11:42:37Z</time>
      </trkpt>
      <trkpt lat="47.03242" lon="6.29179">
        <ele>651.91</ele>
        <time>2018-09-09T11:42:38Z</time>
      </trkpt>
      <trkpt lat="47.03238" lon="6.2918">
        <ele>650.95</ele>
        <time>2018-09-09T11:42:39Z</time>
      </trkpt>
      <trkpt lat="47.03233" lon="6.29181">
        <ele>650.47</ele>
        <time>2018-09-09T11:42:40Z</time>
      </trkpt>
      <trkpt lat="47.03229" lon="6.29182">
        <ele>649.51</ele>
        <time>2018-09-09T11:42:41Z</time>
      </trkpt>
      <trkpt lat="47.03225" lon="6.29185">
        <ele>647.59</ele>
        <time>2018-09-09T11:42:43Z</time>
      </trkpt>
      <trkpt lat="47.03224" lon="6.29189">
        <ele>646.62</ele>
        <time>2018-09-09T11:42:44Z</time>
      </trkpt>
      <trkpt lat="47.03224" lon="6.29194">
        <ele>645.66</ele>
        <time>2018-09-09T11:42:45Z</time>
      </trkpt>
      <trkpt lat="47.03223" lon="6.29199">
        <ele>645.18</ele>
        <time>2018-09-09T11:42:46Z</time>
      </trkpt>
      <trkpt lat="47.03222" lon="6.29204">
        <ele>643.74</ele>
        <time>2018-09-09T11:42:47Z</time>
      </trkpt>
      <trkpt lat="47.03221" lon="6.29208">
        <ele>643.26</ele>
        <time>2018-09-09T11:42:48Z</time>
      </trkpt>
      <trkpt lat="47.03218" lon="6.29231">
        <ele>638.93</ele>
        <time>2018-09-09T11:42:52Z</time>
      </trkpt>
      <trkpt lat="47.03218" lon="6.29238">
        <ele>637.97</ele>
        <time>2018-09-09T11:42:53Z</time>
      </trkpt>
      <trkpt lat="47.03217" lon="6.29246">
        <ele>635.09</ele>
        <time>2018-09-09T11:42:54Z</time>
      </trkpt>
      <trkpt lat="47.03216" lon="6.29253">
        <ele>634.13</ele>
        <time>2018-09-09T11:42:55Z</time>
      </trkpt>
      <trkpt lat="47.03215" lon="6.2926">
        <ele>633.17</ele>
        <time>2018-09-09T11:42:56Z</time>
      </trkpt>
      <trkpt lat="47.03215" lon="6.29267">
        <ele>632.2</ele>
        <time>2018-09-09T11:42:57Z</time>
      </trkpt>
      <trkpt lat="47.03214" lon="6.29272">
        <ele>631.72</ele>
        <time>2018-09-09T11:42:58Z</time>
      </trkpt>
      <trkpt lat="47.03215" lon="6.29276">
        <ele>630.76</ele>
        <time>2018-09-09T11:42:59Z</time>
      </trkpt>
      <trkpt lat="47.03215" lon="6.29279">
        <ele>629.8</ele>
        <time>2018-09-09T11:43:00Z</time>
      </trkpt>
      <trkpt lat="47.03215" lon="6.29283">
        <ele>628.84</ele>
        <time>2018-09-09T11:43:01Z</time>
      </trkpt>
      <trkpt lat="47.03215" lon="6.29285">
        <ele>627.88</ele>
        <time>2018-09-09T11:43:02Z</time>
      </trkpt>
      <trkpt lat="47.03215" lon="6.29292">
        <ele>625.47</ele>
        <time>2018-09-09T11:43:05Z</time>
      </trkpt>
      <trkpt lat="47.03214" lon="6.29297">
        <ele>624.51</ele>
        <time>2018-09-09T11:43:06Z</time>
      </trkpt>
      <trkpt lat="47.03211" lon="6.29302">
        <ele>623.55</ele>
        <time>2018-09-09T11:43:07Z</time>
      </trkpt>
      <trkpt lat="47.03208" lon="6.29307">
        <ele>622.11</ele>
        <time>2018-09-09T11:43:08Z</time>
      </trkpt>
      <trkpt lat="47.03205" lon="6.29314">
        <ele>621.15</ele>
        <time>2018-09-09T11:43:09Z</time>
      </trkpt>
      <trkpt lat="47.03201" lon="6.29322">
        <ele>620.67</ele>
        <time>2018-09-09T11:43:10Z</time>
      </trkpt>
      <trkpt lat="47.03197" lon="6.2933">
        <ele>619.23</ele>
        <time>2018-09-09T11:43:11Z</time>
      </trkpt>
      <trkpt lat="47.03193" lon="6.29338">
        <ele>618.26</ele>
        <time>2018-09-09T11:43:12Z</time>
      </trkpt>
      <trkpt lat="47.03182" lon="6.29357">
        <ele>615.86</ele>
        <time>2018-09-09T11:43:16Z</time>
      </trkpt>
      <trkpt lat="47.03176" lon="6.29362">
        <ele>612.5</ele>
        <time>2018-09-09T11:43:18Z</time>
      </trkpt>
      <trkpt lat="47.03165" lon="6.29373">
        <ele>611.54</ele>
        <time>2018-09-09T11:43:21Z</time>
      </trkpt>
      <trkpt lat="47.03166" lon="6.2937">
        <ele>610.57</ele>
        <time>2018-09-09T11:43:22Z</time>
      </trkpt>
      <trkpt lat="47.03169" lon="6.29366">
        <ele>609.61</ele>
        <time>2018-09-09T11:43:23Z</time>
      </trkpt>
      <trkpt lat="47.03173" lon="6.29362">
        <ele>608.65</ele>
        <time>2018-09-09T11:43:24Z</time>
      </trkpt>
      <trkpt lat="47.03179" lon="6.29357">
        <ele>607.21</ele>
        <time>2018-09-09T11:43:25Z</time>
      </trkpt>
      <trkpt lat="47.03184" lon="6.2935">
        <ele>605.29</ele>
        <time>2018-09-09T11:43:26Z</time>
      </trkpt>
      <trkpt lat="47.03188" lon="6.29341">
        <ele>604.33</ele>
        <time>2018-09-09T11:43:27Z</time>
      </trkpt>
      <trkpt lat="47.0319" lon="6.29332">
        <ele>602.88</ele>
        <time>2018-09-09T11:43:28Z</time>
      </trkpt>
      <trkpt lat="47.03191" lon="6.29321">
        <ele>601.92</ele>
        <time>2018-09-09T11:43:29Z</time>
      </trkpt>
      <trkpt lat="47.0319" lon="6.29312">
        <ele>600.96</ele>
        <time>2018-09-09T11:43:30Z</time>
      </trkpt>
      <trkpt lat="47.03189" lon="6.29303">
        <ele>600.48</ele>
        <time>2018-09-09T11:43:31Z</time>
      </trkpt>
      <trkpt lat="47.03186" lon="6.29295">
        <ele>599.04</ele>
        <time>2018-09-09T11:43:32Z</time>
      </trkpt>
      <trkpt lat="47.03183" lon="6.29286">
        <ele>598.08</ele>
        <time>2018-09-09T11:43:33Z</time>
      </trkpt>
      <trkpt lat="47.03178" lon="6.29276">
        <ele>596.64</ele>
        <time>2018-09-09T11:43:34Z</time>
      </trkpt>
      <trkpt lat="47.03164" lon="6.29242">
        <ele>591.83</ele>
        <time>2018-09-09T11:43:37Z</time>
      </trkpt>
      <trkpt lat="47.03159" lon="6.29233">
        <ele>590.87</ele>
        <time>2018-09-09T11:43:38Z</time>
      </trkpt>
      <trkpt lat="47.03141" lon="6.292">
        <ele>586.54</ele>
        <time>2018-09-09T11:43:41Z</time>
      </trkpt>
      <trkpt lat="47.03136" lon="6.29188">
        <ele>585.1</ele>
        <time>2018-09-09T11:43:42Z</time>
      </trkpt>
      <trkpt lat="47.03131" lon="6.29178">
        <ele>582.7</ele>
        <time>2018-09-09T11:43:43Z</time>
      </trkpt>
      <trkpt lat="47.03116" lon="6.29149">
        <ele>578.85</ele>
        <time>2018-09-09T11:43:46Z</time>
      </trkpt>
      <trkpt lat="47.03112" lon="6.2914">
        <ele>577.41</ele>
        <time>2018-09-09T11:43:47Z</time>
      </trkpt>
      <trkpt lat="47.03104" lon="6.29122">
        <ele>575.49</ele>
        <time>2018-09-09T11:43:49Z</time>
      </trkpt>
      <trkpt lat="47.03095" lon="6.29098">
        <ele>572.12</ele>
        <time>2018-09-09T11:43:52Z</time>
      </trkpt>
      <trkpt lat="47.03092" lon="6.29092">
        <ele>571.64</ele>
        <time>2018-09-09T11:43:53Z</time>
      </trkpt>
      <trkpt lat="47.03084" lon="6.29077">
        <ele>569.72</ele>
        <time>2018-09-09T11:43:57Z</time>
      </trkpt>
      <trkpt lat="47.03082" lon="6.29073">
        <ele>569.24</ele>
        <time>2018-09-09T11:43:58Z</time>
      </trkpt>
      <trkpt lat="47.0308" lon="6.2907">
        <ele>568.76</ele>
        <time>2018-09-09T11:43:59Z</time>
      </trkpt>
      <trkpt lat="47.03075" lon="6.29059">
        <ele>567.32</ele>
        <time>2018-09-09T11:44:01Z</time>
      </trkpt>
      <trkpt lat="47.03073" lon="6.29052">
        <ele>565.87</ele>
        <time>2018-09-09T11:44:02Z</time>
      </trkpt>
      <trkpt lat="47.03071" lon="6.29044">
        <ele>564.43</ele>
        <time>2018-09-09T11:44:03Z</time>
      </trkpt>
      <trkpt lat="47.03066" lon="6.29025">
        <ele>561.07</ele>
        <time>2018-09-09T11:44:05Z</time>
      </trkpt>
      <trkpt lat="47.03061" lon="6.29013">
        <ele>557.7</ele>
        <time>2018-09-09T11:44:06Z</time>
      </trkpt>
      <trkpt lat="47.03047" lon="6.28979">
        <ele>553.86</ele>
        <time>2018-09-09T11:44:09Z</time>
      </trkpt>
      <trkpt lat="47.0304" lon="6.28945">
        <ele>550.97</ele>
        <time>2018-09-09T11:44:12Z</time>
      </trkpt>
      <trkpt lat="47.03042" lon="6.28928">
        <ele>549.53</ele>
        <time>2018-09-09T11:44:14Z</time>
      </trkpt>
      <trkpt lat="47.03045" lon="6.2892">
        <ele>549.05</ele>
        <time>2018-09-09T11:44:15Z</time>
      </trkpt>
      <trkpt lat="47.03049" lon="6.28913">
        <ele>548.09</ele>
        <time>2018-09-09T11:44:16Z</time>
      </trkpt>
      <trkpt lat="47.03069" lon="6.28881">
        <ele>544.24</ele>
        <time>2018-09-09T11:44:20Z</time>
      </trkpt>
      <trkpt lat="47.03081" lon="6.2886">
        <ele>541.36</ele>
        <time>2018-09-09T11:44:22Z</time>
      </trkpt>
      <trkpt lat="47.03101" lon="6.28827">
        <ele>537.51</ele>
        <time>2018-09-09T11:44:25Z</time>
      </trkpt>
      <trkpt lat="47.03118" lon="6.28796">
        <ele>533.19</ele>
        <time>2018-09-09T11:44:28Z</time>
      </trkpt>
      <trkpt lat="47.0313" lon="6.28776">
        <ele>529.82</ele>
        <time>2018-09-09T11:44:30Z</time>
      </trkpt>
      <trkpt lat="47.03143" lon="6.28757">
        <ele>525.98</ele>
        <time>2018-09-09T11:44:32Z</time>
      </trkpt>
      <trkpt lat="47.03156" lon="6.28736">
        <ele>522.61</ele>
        <time>2018-09-09T11:44:34Z</time>
      </trkpt>
      <trkpt lat="47.03179" lon="6.28706">
        <ele>518.29</ele>
        <time>2018-09-09T11:44:37Z</time>
      </trkpt>
      <trkpt lat="47.03202" lon="6.28682">
        <ele>515.88</ele>
        <time>2018-09-09T11:44:40Z</time>
      </trkpt>
      <trkpt lat="47.0321" lon="6.28675">
        <ele>514.92</ele>
        <time>2018-09-09T11:44:41Z</time>
      </trkpt>
      <trkpt lat="47.03217" lon="6.2867">
        <ele>514.44</ele>
        <time>2018-09-09T11:44:42Z</time>
      </trkpt>
      <trkpt lat="47.0323" lon="6.28661">
        <ele>513</ele>
        <time>2018-09-09T11:44:44Z</time>
      </trkpt>
      <trkpt lat="47.03234" lon="6.28656">
        <ele>512.04</ele>
        <time>2018-09-09T11:44:45Z</time>
      </trkpt>
      <trkpt lat="47.03235" lon="6.2865">
        <ele>511.56</ele>
        <time>2018-09-09T11:44:46Z</time>
      </trkpt>
      <trkpt lat="47.03229" lon="6.28643">
        <ele>510.6</ele>
        <time>2018-09-09T11:44:48Z</time>
      </trkpt>
      <trkpt lat="47.03225" lon="6.28641">
        <ele>509.64</ele>
        <time>2018-09-09T11:44:49Z</time>
      </trkpt>
      <trkpt lat="47.03222" lon="6.28642">
        <ele>508.67</ele>
        <time>2018-09-09T11:44:50Z</time>
      </trkpt>
      <trkpt lat="47.03219" lon="6.28643">
        <ele>507.71</ele>
        <time>2018-09-09T11:44:51Z</time>
      </trkpt>
      <trkpt lat="47.03202" lon="6.28653">
        <ele>504.83</ele>
        <time>2018-09-09T11:44:54Z</time>
      </trkpt>
      <trkpt lat="47.03178" lon="6.28667">
        <ele>500.98</ele>
        <time>2018-09-09T11:44:58Z</time>
      </trkpt>
      <trkpt lat="47.03172" lon="6.2867">
        <ele>500.5</ele>
        <time>2018-09-09T11:45:00Z</time>
      </trkpt>
      <trkpt lat="47.03171" lon="6.2867">
        <ele>500.5</ele>
        <time>2018-09-09T11:45:01Z</time>
      </trkpt>
      <trkpt lat="47.03156" lon="6.28671">
        <ele>497.62</ele>
        <time>2018-09-09T11:45:10Z</time>
      </trkpt>
      <trkpt lat="47.03151" lon="6.28673">
        <ele>496.66</ele>
        <time>2018-09-09T11:45:11Z</time>
      </trkpt>
      <trkpt lat="47.03145" lon="6.28675">
        <ele>495.22</ele>
        <time>2018-09-09T11:45:12Z</time>
      </trkpt>
      <trkpt lat="47.03139" lon="6.28676">
        <ele>493.77</ele>
        <time>2018-09-09T11:45:13Z</time>
      </trkpt>
      <trkpt lat="47.03132" lon="6.28676">
        <ele>492.81</ele>
        <time>2018-09-09T11:45:14Z</time>
      </trkpt>
      <trkpt lat="47.03125" lon="6.28678">
        <ele>492.33</ele>
        <time>2018-09-09T11:45:15Z</time>
      </trkpt>
      <trkpt lat="47.03119" lon="6.28681">
        <ele>491.37</ele>
        <time>2018-09-09T11:45:16Z</time>
      </trkpt>
      <trkpt lat="47.03101" lon="6.28687">
        <ele>488.97</ele>
        <time>2018-09-09T11:45:20Z</time>
      </trkpt>
      <trkpt lat="47.03099" lon="6.28681">
        <ele>487.05</ele>
        <time>2018-09-09T11:45:22Z</time>
      </trkpt>
      <trkpt lat="47.03101" lon="6.28676">
        <ele>486.56</ele>
        <time>2018-09-09T11:45:23Z</time>
      </trkpt>
      <trkpt lat="47.03105" lon="6.28671">
        <ele>485.6</ele>
        <time>2018-09-09T11:45:24Z</time>
      </trkpt>
      <trkpt lat="47.03109" lon="6.28668">
        <ele>484.16</ele>
        <time>2018-09-09T11:45:25Z</time>
      </trkpt>
      <trkpt lat="47.03113" lon="6.28665">
        <ele>483.68</ele>
        <time>2018-09-09T11:45:26Z</time>
      </trkpt>
      <trkpt lat="47.03121" lon="6.28658">
        <ele>481.76</ele>
        <time>2018-09-09T11:45:28Z</time>
      </trkpt>
      <trkpt lat="47.03125" lon="6.28653">
        <ele>480.8</ele>
        <time>2018-09-09T11:45:29Z</time>
      </trkpt>
      <trkpt lat="47.03129" lon="6.28648">
        <ele>479.35</ele>
        <time>2018-09-09T11:45:30Z</time>
      </trkpt>
      <trkpt lat="47.03133" lon="6.28643">
        <ele>478.87</ele>
        <time>2018-09-09T11:45:31Z</time>
      </trkpt>
      <trkpt lat="47.03137" lon="6.28639">
        <ele>477.91</ele>
        <time>2018-09-09T11:45:32Z</time>
      </trkpt>
      <trkpt lat="47.03145" lon="6.28627">
        <ele>475.51</ele>
        <time>2018-09-09T11:45:34Z</time>
      </trkpt>
      <trkpt lat="47.03148" lon="6.2862">
        <ele>474.55</ele>
        <time>2018-09-09T11:45:35Z</time>
      </trkpt>
      <trkpt lat="47.03152" lon="6.28615">
        <ele>473.59</ele>
        <time>2018-09-09T11:45:36Z</time>
      </trkpt>
      <trkpt lat="47.03156" lon="6.2861">
        <ele>472.63</ele>
        <time>2018-09-09T11:45:37Z</time>
      </trkpt>
      <trkpt lat="47.03161" lon="6.28605">
        <ele>471.18</ele>
        <time>2018-09-09T11:45:38Z</time>
      </trkpt>
      <trkpt lat="47.03167" lon="6.286">
        <ele>470.7</ele>
        <time>2018-09-09T11:45:39Z</time>
      </trkpt>
      <trkpt lat="47.03171" lon="6.28596">
        <ele>469.74</ele>
        <time>2018-09-09T11:45:40Z</time>
      </trkpt>
      <trkpt lat="47.03176" lon="6.28592">
        <ele>468.78</ele>
        <time>2018-09-09T11:45:41Z</time>
      </trkpt>
      <trkpt lat="47.0318" lon="6.28588">
        <ele>468.3</ele>
        <time>2018-09-09T11:45:42Z</time>
      </trkpt>
      <trkpt lat="47.0319" lon="6.28581">
        <ele>464.93</ele>
        <time>2018-09-09T11:45:45Z</time>
      </trkpt>
      <trkpt lat="47.03195" lon="6.28578">
        <ele>463.49</ele>
        <time>2018-09-09T11:45:46Z</time>
      </trkpt>
      <trkpt lat="47.032" lon="6.28574">
        <ele>463.01</ele>
        <time>2018-09-09T11:45:47Z</time>
      </trkpt>
      <trkpt lat="47.03204" lon="6.2857">
        <ele>463.49</ele>
        <time>2018-09-09T11:45:48Z</time>
      </trkpt>
      <trkpt lat="47.03207" lon="6.28567">
        <ele>463.49</ele>
        <time>2018-09-09T11:45:49Z</time>
      </trkpt>
      <trkpt lat="47.03211" lon="6.28563">
        <ele>463.01</ele>
        <time>2018-09-09T11:45:50Z</time>
      </trkpt>
      <trkpt lat="47.03216" lon="6.28558">
        <ele>462.05</ele>
        <time>2018-09-09T11:45:51Z</time>
      </trkpt>
      <trkpt lat="47.03222" lon="6.28553">
        <ele>460.61</ele>
        <time>2018-09-09T11:45:52Z</time>
      </trkpt>
      <trkpt lat="47.03229" lon="6.28549">
        <ele>459.65</ele>
        <time>2018-09-09T11:45:53Z</time>
      </trkpt>
      <trkpt lat="47.03248" lon="6.28537">
        <ele>455.8</ele>
        <time>2018-09-09T11:45:56Z</time>
      </trkpt>
      <trkpt lat="47.03254" lon="6.28531">
        <ele>454.84</ele>
        <time>2018-09-09T11:45:57Z</time>
      </trkpt>
      <trkpt lat="47.03259" lon="6.28525">
        <ele>453.88</ele>
        <time>2018-09-09T11:45:58Z</time>
      </trkpt>
      <trkpt lat="47.03271" lon="6.28514">
        <ele>452.44</ele>
        <time>2018-09-09T11:46:00Z</time>
      </trkpt>
      <trkpt lat="47.03276" lon="6.28506">
        <ele>451.48</ele>
        <time>2018-09-09T11:46:01Z</time>
      </trkpt>
      <trkpt lat="47.03282" lon="6.28498">
        <ele>450.52</ele>
        <time>2018-09-09T11:46:02Z</time>
      </trkpt>
      <trkpt lat="47.03286" lon="6.2849">
        <ele>449.55</ele>
        <time>2018-09-09T11:46:03Z</time>
      </trkpt>
      <trkpt lat="47.03289" lon="6.28482">
        <ele>449.07</ele>
        <time>2018-09-09T11:46:04Z</time>
      </trkpt>
      <trkpt lat="47.03293" lon="6.28474">
        <ele>448.59</ele>
        <time>2018-09-09T11:46:05Z</time>
      </trkpt>
      <trkpt lat="47.03298" lon="6.28468">
        <ele>446.67</ele>
        <time>2018-09-09T11:46:06Z</time>
      </trkpt>
      <trkpt lat="47.03304" lon="6.28463">
        <ele>446.19</ele>
        <time>2018-09-09T11:46:07Z</time>
      </trkpt>
      <trkpt lat="47.03311" lon="6.28458">
        <ele>445.23</ele>
        <time>2018-09-09T11:46:08Z</time>
      </trkpt>
      <trkpt lat="47.03319" lon="6.28454">
        <ele>443.79</ele>
        <time>2018-09-09T11:46:09Z</time>
      </trkpt>
      <trkpt lat="47.03334" lon="6.28449">
        <ele>441.38</ele>
        <time>2018-09-09T11:46:11Z</time>
      </trkpt>
      <trkpt lat="47.03359" lon="6.28446">
        <ele>438.5</ele>
        <time>2018-09-09T11:46:14Z</time>
      </trkpt>
      <trkpt lat="47.03366" lon="6.28448">
        <ele>438.02</ele>
        <time>2018-09-09T11:46:15Z</time>
      </trkpt>
      <trkpt lat="47.03373" lon="6.28449">
        <ele>437.54</ele>
        <time>2018-09-09T11:46:16Z</time>
      </trkpt>
      <trkpt lat="47.0338" lon="6.28451">
        <ele>437.06</ele>
        <time>2018-09-09T11:46:17Z</time>
      </trkpt>
      <trkpt lat="47.03386" lon="6.28454">
        <ele>436.1</ele>
        <time>2018-09-09T11:46:18Z</time>
      </trkpt>
      <trkpt lat="47.03391" lon="6.28455">
        <ele>435.61</ele>
        <time>2018-09-09T11:46:19Z</time>
      </trkpt>
      <trkpt lat="47.03395" lon="6.28451">
        <ele>435.13</ele>
        <time>2018-09-09T11:46:20Z</time>
      </trkpt>
      <trkpt lat="47.03397" lon="6.28445">
        <ele>434.17</ele>
        <time>2018-09-09T11:46:21Z</time>
      </trkpt>
      <trkpt lat="47.03394" lon="6.2844">
        <ele>433.69</ele>
        <time>2018-09-09T11:46:22Z</time>
      </trkpt>
      <trkpt lat="47.03388" lon="6.28436">
        <ele>432.73</ele>
        <time>2018-09-09T11:46:23Z</time>
      </trkpt>
      <trkpt lat="47.03382" lon="6.28433">
        <ele>431.29</ele>
        <time>2018-09-09T11:46:24Z</time>
      </trkpt>
      <trkpt lat="47.03375" lon="6.28432">
        <ele>430.81</ele>
        <time>2018-09-09T11:46:25Z</time>
      </trkpt>
      <trkpt lat="47.03368" lon="6.2843">
        <ele>430.33</ele>
        <time>2018-09-09T11:46:26Z</time>
      </trkpt>
      <trkpt lat="47.03361" lon="6.28428">
        <ele>429.37</ele>
        <time>2018-09-09T11:46:27Z</time>
      </trkpt>
      <trkpt lat="47.03322" lon="6.28415">
        <ele>426</ele>
        <time>2018-09-09T11:46:32Z</time>
      </trkpt>
      <trkpt lat="47.03315" lon="6.28411">
        <ele>425.52</ele>
        <time>2018-09-09T11:46:33Z</time>
      </trkpt>
      <trkpt lat="47.033" lon="6.28405">
        <ele>424.08</ele>
        <time>2018-09-09T11:46:35Z</time>
      </trkpt>
      <trkpt lat="47.03293" lon="6.28404">
        <ele>423.6</ele>
        <time>2018-09-09T11:46:36Z</time>
      </trkpt>
      <trkpt lat="47.03287" lon="6.28404">
        <ele>423.12</ele>
        <time>2018-09-09T11:46:37Z</time>
      </trkpt>
      <trkpt lat="47.03276" lon="6.28405">
        <ele>422.64</ele>
        <time>2018-09-09T11:46:39Z</time>
      </trkpt>
      <trkpt lat="47.03271" lon="6.28403">
        <ele>421.68</ele>
        <time>2018-09-09T11:46:40Z</time>
      </trkpt>
      <trkpt lat="47.0327" lon="6.28399">
        <ele>421.68</ele>
        <time>2018-09-09T11:46:41Z</time>
      </trkpt>
      <trkpt lat="47.03272" lon="6.28393">
        <ele>420.71</ele>
        <time>2018-09-09T11:46:42Z</time>
      </trkpt>
      <trkpt lat="47.03275" lon="6.28389">
        <ele>419.75</ele>
        <time>2018-09-09T11:46:43Z</time>
      </trkpt>
      <trkpt lat="47.03278" lon="6.28387">
        <ele>418.79</ele>
        <time>2018-09-09T11:46:44Z</time>
      </trkpt>
      <trkpt lat="47.03283" lon="6.28387">
        <ele>418.31</ele>
        <time>2018-09-09T11:46:45Z</time>
      </trkpt>
      <trkpt lat="47.03289" lon="6.28386">
        <ele>417.35</ele>
        <time>2018-09-09T11:46:46Z</time>
      </trkpt>
      <trkpt lat="47.03296" lon="6.28386">
        <ele>416.39</ele>
        <time>2018-09-09T11:46:47Z</time>
      </trkpt>
      <trkpt lat="47.03303" lon="6.28387">
        <ele>414.95</ele>
        <time>2018-09-09T11:46:48Z</time>
      </trkpt>
      <trkpt lat="47.0331" lon="6.28389">
        <ele>414.47</ele>
        <time>2018-09-09T11:46:49Z</time>
      </trkpt>
      <trkpt lat="47.03317" lon="6.28392">
        <ele>413.5</ele>
        <time>2018-09-09T11:46:50Z</time>
      </trkpt>
      <trkpt lat="47.03326" lon="6.28393">
        <ele>412.54</ele>
        <time>2018-09-09T11:46:51Z</time>
      </trkpt>
      <trkpt lat="47.03334" lon="6.28392">
        <ele>411.58</ele>
        <time>2018-09-09T11:46:52Z</time>
      </trkpt>
      <trkpt lat="47.03342" lon="6.28392">
        <ele>411.1</ele>
        <time>2018-09-09T11:46:53Z</time>
      </trkpt>
      <trkpt lat="47.03355" lon="6.28392">
        <ele>410.62</ele>
        <time>2018-09-09T11:46:55Z</time>
      </trkpt>
      <trkpt lat="47.03366" lon="6.28394">
        <ele>410.62</ele>
        <time>2018-09-09T11:46:57Z</time>
      </trkpt>
      <trkpt lat="47.03371" lon="6.28395">
        <ele>410.14</ele>
        <time>2018-09-09T11:46:58Z</time>
      </trkpt>
      <trkpt lat="47.03376" lon="6.28396">
        <ele>409.66</ele>
        <time>2018-09-09T11:46:59Z</time>
      </trkpt>
      <trkpt lat="47.03382" lon="6.28396">
        <ele>408.7</ele>
        <time>2018-09-09T11:47:00Z</time>
      </trkpt>
      <trkpt lat="47.03387" lon="6.28396">
        <ele>408.22</ele>
        <time>2018-09-09T11:47:01Z</time>
      </trkpt>
      <trkpt lat="47.03393" lon="6.28395">
        <ele>405.81</ele>
        <time>2018-09-09T11:47:02Z</time>
      </trkpt>
      <trkpt lat="47.034" lon="6.28393">
        <ele>404.85</ele>
        <time>2018-09-09T11:47:03Z</time>
      </trkpt>
      <trkpt lat="47.03408" lon="6.2839">
        <ele>404.37</ele>
        <time>2018-09-09T11:47:04Z</time>
      </trkpt>
      <trkpt lat="47.03415" lon="6.28389">
        <ele>403.89</ele>
        <time>2018-09-09T11:47:05Z</time>
      </trkpt>
      <trkpt lat="47.03422" lon="6.28389">
        <ele>402.93</ele>
        <time>2018-09-09T11:47:06Z</time>
      </trkpt>
      <trkpt lat="47.03429" lon="6.2839">
        <ele>401.97</ele>
        <time>2018-09-09T11:47:07Z</time>
      </trkpt>
      <trkpt lat="47.03434" lon="6.28393">
        <ele>400.53</ele>
        <time>2018-09-09T11:47:08Z</time>
      </trkpt>
      <trkpt lat="47.03438" lon="6.28395">
        <ele>400.53</ele>
        <time>2018-09-09T11:47:09Z</time>
      </trkpt>
      <trkpt lat="47.03441" lon="6.28398">
        <ele>400.05</ele>
        <time>2018-09-09T11:47:10Z</time>
      </trkpt>
      <trkpt lat="47.03444" lon="6.28402">
        <ele>399.57</ele>
        <time>2018-09-09T11:47:11Z</time>
      </trkpt>
      <trkpt lat="47.03447" lon="6.28405">
        <ele>399.08</ele>
        <time>2018-09-09T11:47:12Z</time>
      </trkpt>
      <trkpt lat="47.03451" lon="6.28409">
        <ele>398.6</ele>
        <time>2018-09-09T11:47:13Z</time>
      </trkpt>
      <trkpt lat="47.03456" lon="6.28412">
        <ele>398.12</ele>
        <time>2018-09-09T11:47:14Z</time>
      </trkpt>
      <trkpt lat="47.03459" lon="6.28412">
        <ele>397.64</ele>
        <time>2018-09-09T11:47:15Z</time>
      </trkpt>
      <trkpt lat="47.03464" lon="6.28411">
        <ele>398.6</ele>
        <time>2018-09-09T11:47:16Z</time>
      </trkpt>
      <trkpt lat="47.03468" lon="6.28409">
        <ele>398.6</ele>
        <time>2018-09-09T11:47:17Z</time>
      </trkpt>
      <trkpt lat="47.03474" lon="6.28405">
        <ele>399.08</ele>
        <time>2018-09-09T11:47:18Z</time>
      </trkpt>
      <trkpt lat="47.03479" lon="6.28403">
        <ele>399.08</ele>
        <time>2018-09-09T11:47:19Z</time>
      </trkpt>
      <trkpt lat="47.03484" lon="6.284">
        <ele>399.08</ele>
        <time>2018-09-09T11:47:20Z</time>
      </trkpt>
      <trkpt lat="47.03488" lon="6.28398">
        <ele>399.08</ele>
        <time>2018-09-09T11:47:21Z</time>
      </trkpt>
      <trkpt lat="47.03496" lon="6.28395">
        <ele>398.6</ele>
        <time>2018-09-09T11:47:23Z</time>
      </trkpt>
      <trkpt lat="47.035" lon="6.28392">
        <ele>398.6</ele>
        <time>2018-09-09T11:47:24Z</time>
      </trkpt>
      <trkpt lat="47.03515" lon="6.28378">
        <ele>399.57</ele>
        <time>2018-09-09T11:47:33Z</time>
      </trkpt>
      <trkpt lat="47.03516" lon="6.28378">
        <ele>399.08</ele>
        <time>2018-09-09T11:47:50Z</time>
      </trkpt>
      <trkpt lat="47.03517" lon="6.28376">
        <ele>399.08</ele>
        <time>2018-09-09T11:47:51Z</time>
      </trkpt>
      <trkpt lat="47.03519" lon="6.28373">
        <ele>399.08</ele>
        <time>2018-09-09T11:47:52Z</time>
      </trkpt>
      <trkpt lat="47.03522" lon="6.28371">
        <ele>398.6</ele>
        <time>2018-09-09T11:47:53Z</time>
      </trkpt>
      <trkpt lat="47.03524" lon="6.28367">
        <ele>398.6</ele>
        <time>2018-09-09T11:47:54Z</time>
      </trkpt>
      <trkpt lat="47.03527" lon="6.28363">
        <ele>398.12</ele>
        <time>2018-09-09T11:47:55Z</time>
      </trkpt>
      <trkpt lat="47.03531" lon="6.2836">
        <ele>398.12</ele>
        <time>2018-09-09T11:47:56Z</time>
      </trkpt>
      <trkpt lat="47.03534" lon="6.28356">
        <ele>397.64</ele>
        <time>2018-09-09T11:47:57Z</time>
      </trkpt>
      <trkpt lat="47.03538" lon="6.28352">
        <ele>397.64</ele>
        <time>2018-09-09T11:47:58Z</time>
      </trkpt>
      <trkpt lat="47.03541" lon="6.28348">
        <ele>397.16</ele>
        <time>2018-09-09T11:47:59Z</time>
      </trkpt>
      <trkpt lat="47.03544" lon="6.28343">
        <ele>397.16</ele>
        <time>2018-09-09T11:48:00Z</time>
      </trkpt>
      <trkpt lat="47.03556" lon="6.28329">
        <ele>396.68</ele>
        <time>2018-09-09T11:48:03Z</time>
      </trkpt>
      <trkpt lat="47.03565" lon="6.28322">
        <ele>396.2</ele>
        <time>2018-09-09T11:48:05Z</time>
      </trkpt>
      <trkpt lat="47.03569" lon="6.28318">
        <ele>396.2</ele>
        <time>2018-09-09T11:48:06Z</time>
      </trkpt>
      <trkpt lat="47.03599" lon="6.28286">
        <ele>396.2</ele>
        <time>2018-09-09T11:48:14Z</time>
      </trkpt>
      <trkpt lat="47.03602" lon="6.28284">
        <ele>396.2</ele>
        <time>2018-09-09T11:48:15Z</time>
      </trkpt>
      <trkpt lat="47.03605" lon="6.28281">
        <ele>396.2</ele>
        <time>2018-09-09T11:48:16Z</time>
      </trkpt>
      <trkpt lat="47.03632" lon="6.28252">
        <ele>395.72</ele>
        <time>2018-09-09T11:48:26Z</time>
      </trkpt>
      <trkpt lat="47.03636" lon="6.28247">
        <ele>395.72</ele>
        <time>2018-09-09T11:48:27Z</time>
      </trkpt>
      <trkpt lat="47.03649" lon="6.28213">
        <ele>393.8</ele>
        <time>2018-09-09T11:48:32Z</time>
      </trkpt>
      <trkpt lat="47.03652" lon="6.28205">
        <ele>393.8</ele>
        <time>2018-09-09T11:48:33Z</time>
      </trkpt>
      <trkpt lat="47.03656" lon="6.28179">
        <ele>392.36</ele>
        <time>2018-09-09T11:48:36Z</time>
      </trkpt>
      <trkpt lat="47.03659" lon="6.28171">
        <ele>392.36</ele>
        <time>2018-09-09T11:48:37Z</time>
      </trkpt>
      <trkpt lat="47.03664" lon="6.28156">
        <ele>392.36</ele>
        <time>2018-09-09T11:48:39Z</time>
      </trkpt>
      <trkpt lat="47.03667" lon="6.28149">
        <ele>392.36</ele>
        <time>2018-09-09T11:48:40Z</time>
      </trkpt>
      <trkpt lat="47.03707" lon="6.28064">
        <ele>391.39</ele>
        <time>2018-09-09T11:48:53Z</time>
      </trkpt>
      <trkpt lat="47.03709" lon="6.28057">
        <ele>391.87</ele>
        <time>2018-09-09T11:48:54Z</time>
      </trkpt>
      <trkpt lat="47.03718" lon="6.28033">
        <ele>391.87</ele>
        <time>2018-09-09T11:48:58Z</time>
      </trkpt>
      <trkpt lat="47.0372" lon="6.28027">
        <ele>391.87</ele>
        <time>2018-09-09T11:48:59Z</time>
      </trkpt>
      <trkpt lat="47.03722" lon="6.2802">
        <ele>391.87</ele>
        <time>2018-09-09T11:49:00Z</time>
      </trkpt>
      <trkpt lat="47.0373" lon="6.27986">
        <ele>391.39</ele>
        <time>2018-09-09T11:49:05Z</time>
      </trkpt>
      <trkpt lat="47.03734" lon="6.27966">
        <ele>391.39</ele>
        <time>2018-09-09T11:49:08Z</time>
      </trkpt>
      <trkpt lat="47.03735" lon="6.27959">
        <ele>391.39</ele>
        <time>2018-09-09T11:49:09Z</time>
      </trkpt>
      <trkpt lat="47.03739" lon="6.27946">
        <ele>391.39</ele>
        <time>2018-09-09T11:49:11Z</time>
      </trkpt>
      <trkpt lat="47.03741" lon="6.2794">
        <ele>391.87</ele>
        <time>2018-09-09T11:49:12Z</time>
      </trkpt>
      <trkpt lat="47.03752" lon="6.2791">
        <ele>393.32</ele>
        <time>2018-09-09T11:49:18Z</time>
      </trkpt>
      <trkpt lat="47.03765" lon="6.27866">
        <ele>395.24</ele>
        <time>2018-09-09T11:49:28Z</time>
      </trkpt>
      <trkpt lat="47.03774" lon="6.27791">
        <ele>396.2</ele>
        <time>2018-09-09T11:49:43Z</time>
      </trkpt>
      <trkpt lat="47.03776" lon="6.27713">
        <ele>394.76</ele>
        <time>2018-09-09T11:49:57Z</time>
      </trkpt>
      <trkpt lat="47.0377" lon="6.27652">
        <ele>392.84</ele>
        <time>2018-09-09T11:50:05Z</time>
      </trkpt>
      <trkpt lat="47.0377" lon="6.27644">
        <ele>392.36</ele>
        <time>2018-09-09T11:50:06Z</time>
      </trkpt>
      <trkpt lat="47.0377" lon="6.27636">
        <ele>392.84</ele>
        <time>2018-09-09T11:50:07Z</time>
      </trkpt>
      <trkpt lat="47.03767" lon="6.27593">
        <ele>390.91</ele>
        <time>2018-09-09T11:50:12Z</time>
      </trkpt>
      <trkpt lat="47.03765" lon="6.27584">
        <ele>390.91</ele>
        <time>2018-09-09T11:50:13Z</time>
      </trkpt>
      <trkpt lat="47.03762" lon="6.27576">
        <ele>390.43</ele>
        <time>2018-09-09T11:50:14Z</time>
      </trkpt>
      <trkpt lat="47.03758" lon="6.27571">
        <ele>389.95</ele>
        <time>2018-09-09T11:50:15Z</time>
      </trkpt>
      <trkpt lat="47.03754" lon="6.27568">
        <ele>389.95</ele>
        <time>2018-09-09T11:50:16Z</time>
      </trkpt>
      <trkpt lat="47.03749" lon="6.27567">
        <ele>390.43</ele>
        <time>2018-09-09T11:50:17Z</time>
      </trkpt>
      <trkpt lat="47.03715" lon="6.27556">
        <ele>390.91</ele>
        <time>2018-09-09T11:50:27Z</time>
      </trkpt>
      <trkpt lat="47.03713" lon="6.27551">
        <ele>391.39</ele>
        <time>2018-09-09T11:50:28Z</time>
      </trkpt>
      <trkpt lat="47.03712" lon="6.27546">
        <ele>389.47</ele>
        <time>2018-09-09T11:50:29Z</time>
      </trkpt>
      <trkpt lat="47.03712" lon="6.27541">
        <ele>392.36</ele>
        <time>2018-09-09T11:50:30Z</time>
      </trkpt>
      <trkpt lat="47.03712" lon="6.27538">
        <ele>391.39</ele>
        <time>2018-09-09T11:50:31Z</time>
      </trkpt>
      <trkpt lat="47.03712" lon="6.27534">
        <ele>391.39</ele>
        <time>2018-09-09T11:50:32Z</time>
      </trkpt>
      <trkpt lat="47.03705" lon="6.27498">
        <ele>394.76</ele>
        <time>2018-09-09T11:50:45Z</time>
      </trkpt>
      <trkpt lat="47.03696" lon="6.27472">
        <ele>397.64</ele>
        <time>2018-09-09T11:50:57Z</time>
      </trkpt>
      <trkpt lat="47.03694" lon="6.27466">
        <ele>398.6</ele>
        <time>2018-09-09T11:51:00Z</time>
      </trkpt>
      <trkpt lat="47.03693" lon="6.27464">
        <ele>398.6</ele>
        <time>2018-09-09T11:51:01Z</time>
      </trkpt>
      <trkpt lat="47.03692" lon="6.27462">
        <ele>399.08</ele>
        <time>2018-09-09T11:51:02Z</time>
      </trkpt>
      <trkpt lat="47.03691" lon="6.2746">
        <ele>399.08</ele>
        <time>2018-09-09T11:51:03Z</time>
      </trkpt>
      <trkpt lat="47.0369" lon="6.27459">
        <ele>399.57</ele>
        <time>2018-09-09T11:51:04Z</time>
      </trkpt>
      <trkpt lat="47.03673" lon="6.2745">
        <ele>402.45</ele>
        <time>2018-09-09T11:51:16Z</time>
      </trkpt>
      <trkpt lat="47.03658" lon="6.27445">
        <ele>405.33</ele>
        <time>2018-09-09T11:51:27Z</time>
      </trkpt>
      <trkpt lat="47.0365" lon="6.27428">
        <ele>408.22</ele>
        <time>2018-09-09T11:51:38Z</time>
      </trkpt>
      <trkpt lat="47.0365" lon="6.27426">
        <ele>408.22</ele>
        <time>2018-09-09T11:51:39Z</time>
      </trkpt>
      <trkpt lat="47.0365" lon="6.27424">
        <ele>408.7</ele>
        <time>2018-09-09T11:51:40Z</time>
      </trkpt>
      <trkpt lat="47.03651" lon="6.27421">
        <ele>408.7</ele>
        <time>2018-09-09T11:51:41Z</time>
      </trkpt>
      <trkpt lat="47.03651" lon="6.27419">
        <ele>409.18</ele>
        <time>2018-09-09T11:51:42Z</time>
      </trkpt>
      <trkpt lat="47.03652" lon="6.27418">
        <ele>409.18</ele>
        <time>2018-09-09T11:51:43Z</time>
      </trkpt>
      <trkpt lat="47.03652" lon="6.27416">
        <ele>409.18</ele>
        <time>2018-09-09T11:51:44Z</time>
      </trkpt>
      <trkpt lat="47.03652" lon="6.27414">
        <ele>409.66</ele>
        <time>2018-09-09T11:51:45Z</time>
      </trkpt>
      <trkpt lat="47.03652" lon="6.27412">
        <ele>409.66</ele>
        <time>2018-09-09T11:51:46Z</time>
      </trkpt>
      <trkpt lat="47.03652" lon="6.2741">
        <ele>410.14</ele>
        <time>2018-09-09T11:51:47Z</time>
      </trkpt>
      <trkpt lat="47.03652" lon="6.27407">
        <ele>410.14</ele>
        <time>2018-09-09T11:51:48Z</time>
      </trkpt>
      <trkpt lat="47.03652" lon="6.27405">
        <ele>410.14</ele>
        <time>2018-09-09T11:51:49Z</time>
      </trkpt>
      <trkpt lat="47.03652" lon="6.27403">
        <ele>410.62</ele>
        <time>2018-09-09T11:51:50Z</time>
      </trkpt>
      <trkpt lat="47.03652" lon="6.27401">
        <ele>410.62</ele>
        <time>2018-09-09T11:51:51Z</time>
      </trkpt>
      <trkpt lat="47.03653" lon="6.27398">
        <ele>411.1</ele>
        <time>2018-09-09T11:51:52Z</time>
      </trkpt>
      <trkpt lat="47.03653" lon="6.27396">
        <ele>411.1</ele>
        <time>2018-09-09T11:51:53Z</time>
      </trkpt>
      <trkpt lat="47.03653" lon="6.27394">
        <ele>411.58</ele>
        <time>2018-09-09T11:51:54Z</time>
      </trkpt>
      <trkpt lat="47.03653" lon="6.27392">
        <ele>411.58</ele>
        <time>2018-09-09T11:51:55Z</time>
      </trkpt>
      <trkpt lat="47.03652" lon="6.27391">
        <ele>411.58</ele>
        <time>2018-09-09T11:51:56Z</time>
      </trkpt>
      <trkpt lat="47.03652" lon="6.27389">
        <ele>412.06</ele>
        <time>2018-09-09T11:51:57Z</time>
      </trkpt>
      <trkpt lat="47.03652" lon="6.27387">
        <ele>412.06</ele>
        <time>2018-09-09T11:51:58Z</time>
      </trkpt>
      <trkpt lat="47.03652" lon="6.27385">
        <ele>412.54</ele>
        <time>2018-09-09T11:51:59Z</time>
      </trkpt>
      <trkpt lat="47.03652" lon="6.27379">
        <ele>413.02</ele>
        <time>2018-09-09T11:52:02Z</time>
      </trkpt>
      <trkpt lat="47.03653" lon="6.27377">
        <ele>413.5</ele>
        <time>2018-09-09T11:52:03Z</time>
      </trkpt>
      <trkpt lat="47.03653" lon="6.27376">
        <ele>413.5</ele>
        <time>2018-09-09T11:52:04Z</time>
      </trkpt>
      <trkpt lat="47.03654" lon="6.27367">
        <ele>414.47</ele>
        <time>2018-09-09T11:52:10Z</time>
      </trkpt>
      <trkpt lat="47.03653" lon="6.27364">
        <ele>414.95</ele>
        <time>2018-09-09T11:52:11Z</time>
      </trkpt>
      <trkpt lat="47.03654" lon="6.27356">
        <ele>415.43</ele>
        <time>2018-09-09T11:52:15Z</time>
      </trkpt>
      <trkpt lat="47.03654" lon="6.27354">
        <ele>415.43</ele>
        <time>2018-09-09T11:52:16Z</time>
      </trkpt>
      <trkpt lat="47.03654" lon="6.27352">
        <ele>415.91</ele>
        <time>2018-09-09T11:52:17Z</time>
      </trkpt>
      <trkpt lat="47.03654" lon="6.27347">
        <ele>416.39</ele>
        <time>2018-09-09T11:52:20Z</time>
      </trkpt>
      <trkpt lat="47.03655" lon="6.27346">
        <ele>416.39</ele>
        <time>2018-09-09T11:52:21Z</time>
      </trkpt>
      <trkpt lat="47.03655" lon="6.27344">
        <ele>416.87</ele>
        <time>2018-09-09T11:52:22Z</time>
      </trkpt>
      <trkpt lat="47.03655" lon="6.27332">
        <ele>418.31</ele>
        <time>2018-09-09T11:52:28Z</time>
      </trkpt>
      <trkpt lat="47.03655" lon="6.27331">
        <ele>418.31</ele>
        <time>2018-09-09T11:52:29Z</time>
      </trkpt>
      <trkpt lat="47.03655" lon="6.27326">
        <ele>418.79</ele>
        <time>2018-09-09T11:52:32Z</time>
      </trkpt>
      <trkpt lat="47.03656" lon="6.27317">
        <ele>420.23</ele>
        <time>2018-09-09T11:52:37Z</time>
      </trkpt>
      <trkpt lat="47.03656" lon="6.27315">
        <ele>420.23</ele>
        <time>2018-09-09T11:52:38Z</time>
      </trkpt>
      <trkpt lat="47.03657" lon="6.27301">
        <ele>421.68</ele>
        <time>2018-09-09T11:52:47Z</time>
      </trkpt>
      <trkpt lat="47.03656" lon="6.27295">
        <ele>422.64</ele>
        <time>2018-09-09T11:52:50Z</time>
      </trkpt>
      <trkpt lat="47.03656" lon="6.27293">
        <ele>422.64</ele>
        <time>2018-09-09T11:52:51Z</time>
      </trkpt>
      <trkpt lat="47.03656" lon="6.27291">
        <ele>423.12</ele>
        <time>2018-09-09T11:52:52Z</time>
      </trkpt>
      <trkpt lat="47.03653" lon="6.27279">
        <ele>424.56</ele>
        <time>2018-09-09T11:53:01Z</time>
      </trkpt>
      <trkpt lat="47.03642" lon="6.27259">
        <ele>427.44</ele>
        <time>2018-09-09T11:53:13Z</time>
      </trkpt>
      <trkpt lat="47.03633" lon="6.27237">
        <ele>430.81</ele>
        <time>2018-09-09T11:53:27Z</time>
      </trkpt>
      <trkpt lat="47.03631" lon="6.27221">
        <ele>433.21</ele>
        <time>2018-09-09T11:53:39Z</time>
      </trkpt>
      <trkpt lat="47.03631" lon="6.2722">
        <ele>433.69</ele>
        <time>2018-09-09T11:53:40Z</time>
      </trkpt>
      <trkpt lat="47.03627" lon="6.27206">
        <ele>435.13</ele>
        <time>2018-09-09T11:53:47Z</time>
      </trkpt>
      <trkpt lat="47.03626" lon="6.27198">
        <ele>436.1</ele>
        <time>2018-09-09T11:53:51Z</time>
      </trkpt>
      <trkpt lat="47.03626" lon="6.27193">
        <ele>436.1</ele>
        <time>2018-09-09T11:53:53Z</time>
      </trkpt>
      <trkpt lat="47.03626" lon="6.27185">
        <ele>437.06</ele>
        <time>2018-09-09T11:53:57Z</time>
      </trkpt>
      <trkpt lat="47.03627" lon="6.27174">
        <ele>438.5</ele>
        <time>2018-09-09T11:54:03Z</time>
      </trkpt>
      <trkpt lat="47.03628" lon="6.27158">
        <ele>439.46</ele>
        <time>2018-09-09T11:54:10Z</time>
      </trkpt>
      <trkpt lat="47.03632" lon="6.27141">
        <ele>440.9</ele>
        <time>2018-09-09T11:54:17Z</time>
      </trkpt>
      <trkpt lat="47.03637" lon="6.27133">
        <ele>441.86</ele>
        <time>2018-09-09T11:54:22Z</time>
      </trkpt>
      <trkpt lat="47.03639" lon="6.27108">
        <ele>443.79</ele>
        <time>2018-09-09T11:54:31Z</time>
      </trkpt>
      <trkpt lat="47.03643" lon="6.27075">
        <ele>446.19</ele>
        <time>2018-09-09T11:54:43Z</time>
      </trkpt>
      <trkpt lat="47.03644" lon="6.2705">
        <ele>448.11</ele>
        <time>2018-09-09T11:54:53Z</time>
      </trkpt>
      <trkpt lat="47.03635" lon="6.27011">
        <ele>451.48</ele>
        <time>2018-09-09T11:55:09Z</time>
      </trkpt>
      <trkpt lat="47.03627" lon="6.26976">
        <ele>453.4</ele>
        <time>2018-09-09T11:55:22Z</time>
      </trkpt>
      <trkpt lat="47.03623" lon="6.26951">
        <ele>455.8</ele>
        <time>2018-09-09T11:55:32Z</time>
      </trkpt>
      <trkpt lat="47.03622" lon="6.26934">
        <ele>456.76</ele>
        <time>2018-09-09T11:55:38Z</time>
      </trkpt>
      <trkpt lat="47.03627" lon="6.269">
        <ele>460.61</ele>
        <time>2018-09-09T11:55:52Z</time>
      </trkpt>
      <trkpt lat="47.03632" lon="6.26886">
        <ele>462.05</ele>
        <time>2018-09-09T11:55:59Z</time>
      </trkpt>
      <trkpt lat="47.03633" lon="6.26884">
        <ele>462.53</ele>
        <time>2018-09-09T11:56:00Z</time>
      </trkpt>
      <trkpt lat="47.03635" lon="6.26867">
        <ele>463.97</ele>
        <time>2018-09-09T11:56:07Z</time>
      </trkpt>
      <trkpt lat="47.03637" lon="6.26851">
        <ele>467.34</ele>
        <time>2018-09-09T11:56:17Z</time>
      </trkpt>
      <trkpt lat="47.0363" lon="6.26839">
        <ele>468.78</ele>
        <time>2018-09-09T11:56:22Z</time>
      </trkpt>
      <trkpt lat="47.03611" lon="6.26815">
        <ele>472.14</ele>
        <time>2018-09-09T11:56:34Z</time>
      </trkpt>
      <trkpt lat="47.036" lon="6.26788">
        <ele>475.51</ele>
        <time>2018-09-09T11:56:47Z</time>
      </trkpt>
      <trkpt lat="47.03597" lon="6.26777">
        <ele>476.47</ele>
        <time>2018-09-09T11:56:52Z</time>
      </trkpt>
      <trkpt lat="47.03595" lon="6.26769">
        <ele>477.43</ele>
        <time>2018-09-09T11:56:56Z</time>
      </trkpt>
      <trkpt lat="47.03592" lon="6.26757">
        <ele>479.35</ele>
        <time>2018-09-09T11:57:02Z</time>
      </trkpt>
      <trkpt lat="47.03592" lon="6.26746">
        <ele>480.32</ele>
        <time>2018-09-09T11:57:07Z</time>
      </trkpt>
      <trkpt lat="47.03593" lon="6.26732">
        <ele>481.28</ele>
        <time>2018-09-09T11:57:13Z</time>
      </trkpt>
      <trkpt lat="47.03595" lon="6.26716">
        <ele>483.2</ele>
        <time>2018-09-09T11:57:21Z</time>
      </trkpt>
      <trkpt lat="47.03593" lon="6.26689">
        <ele>485.12</ele>
        <time>2018-09-09T11:57:32Z</time>
      </trkpt>
      <trkpt lat="47.03592" lon="6.26681">
        <ele>485.6</ele>
        <time>2018-09-09T11:57:35Z</time>
      </trkpt>
      <trkpt lat="47.03592" lon="6.26672">
        <ele>486.56</ele>
        <time>2018-09-09T11:57:39Z</time>
      </trkpt>
      <trkpt lat="47.03589" lon="6.26634">
        <ele>489.45</ele>
        <time>2018-09-09T11:57:55Z</time>
      </trkpt>
      <trkpt lat="47.03585" lon="6.26597">
        <ele>491.37</ele>
        <time>2018-09-09T11:58:11Z</time>
      </trkpt>
      <trkpt lat="47.03581" lon="6.26569">
        <ele>494.74</ele>
        <time>2018-09-09T11:58:24Z</time>
      </trkpt>
      <trkpt lat="47.03581" lon="6.26554">
        <ele>496.18</ele>
        <time>2018-09-09T11:58:31Z</time>
      </trkpt>
      <trkpt lat="47.03583" lon="6.26544">
        <ele>497.14</ele>
        <time>2018-09-09T11:58:36Z</time>
      </trkpt>
      <trkpt lat="47.03587" lon="6.26521">
        <ele>500.02</ele>
        <time>2018-09-09T11:58:48Z</time>
      </trkpt>
      <trkpt lat="47.03589" lon="6.26495">
        <ele>502.43</ele>
        <time>2018-09-09T11:58:59Z</time>
      </trkpt>
      <trkpt lat="47.03589" lon="6.26487">
        <ele>503.87</ele>
        <time>2018-09-09T11:59:03Z</time>
      </trkpt>
      <trkpt lat="47.03586" lon="6.26471">
        <ele>505.31</ele>
        <time>2018-09-09T11:59:10Z</time>
      </trkpt>
      <trkpt lat="47.03583" lon="6.26454">
        <ele>506.75</ele>
        <time>2018-09-09T11:59:17Z</time>
      </trkpt>
      <trkpt lat="47.03582" lon="6.26444">
        <ele>507.23</ele>
        <time>2018-09-09T11:59:21Z</time>
      </trkpt>
      <trkpt lat="47.03578" lon="6.26417">
        <ele>510.12</ele>
        <time>2018-09-09T11:59:31Z</time>
      </trkpt>
      <trkpt lat="47.03577" lon="6.26407">
        <ele>510.6</ele>
        <time>2018-09-09T11:59:35Z</time>
      </trkpt>
      <trkpt lat="47.03572" lon="6.26367">
        <ele>513.48</ele>
        <time>2018-09-09T11:59:49Z</time>
      </trkpt>
      <trkpt lat="47.0357" lon="6.26333">
        <ele>514.92</ele>
        <time>2018-09-09T12:00:02Z</time>
      </trkpt>
      <trkpt lat="47.03574" lon="6.26287">
        <ele>514.92</ele>
        <time>2018-09-09T12:00:13Z</time>
      </trkpt>
      <trkpt lat="47.03577" lon="6.26274">
        <ele>514.92</ele>
        <time>2018-09-09T12:00:16Z</time>
      </trkpt>
      <trkpt lat="47.03584" lon="6.2627">
        <ele>514.92</ele>
        <time>2018-09-09T12:00:20Z</time>
      </trkpt>
      <trkpt lat="47.03601" lon="6.26256">
        <ele>512.52</ele>
        <time>2018-09-09T12:00:25Z</time>
      </trkpt>
      <trkpt lat="47.03619" lon="6.2624">
        <ele>509.16</ele>
        <time>2018-09-09T12:00:29Z</time>
      </trkpt>
      <trkpt lat="47.03628" lon="6.26237">
        <ele>507.71</ele>
        <time>2018-09-09T12:00:31Z</time>
      </trkpt>
      <trkpt lat="47.03646" lon="6.26243">
        <ele>502.43</ele>
        <time>2018-09-09T12:00:35Z</time>
      </trkpt>
      <trkpt lat="47.03665" lon="6.26232">
        <ele>497.14</ele>
        <time>2018-09-09T12:00:39Z</time>
      </trkpt>
      <trkpt lat="47.03675" lon="6.26195">
        <ele>492.81</ele>
        <time>2018-09-09T12:00:44Z</time>
      </trkpt>
      <trkpt lat="47.03671" lon="6.26177">
        <ele>489.45</ele>
        <time>2018-09-09T12:00:46Z</time>
      </trkpt>
      <trkpt lat="47.03678" lon="6.26129">
        <ele>484.16</ele>
        <time>2018-09-09T12:00:52Z</time>
      </trkpt>
      <trkpt lat="47.03691" lon="6.26105">
        <ele>480.8</ele>
        <time>2018-09-09T12:00:57Z</time>
      </trkpt>
      <trkpt lat="47.03697" lon="6.26086">
        <ele>477.91</ele>
        <time>2018-09-09T12:01:01Z</time>
      </trkpt>
      <trkpt lat="47.03696" lon="6.26077">
        <ele>476.95</ele>
        <time>2018-09-09T12:01:03Z</time>
      </trkpt>
      <trkpt lat="47.03696" lon="6.26065">
        <ele>477.43</ele>
        <time>2018-09-09T12:01:17Z</time>
      </trkpt>
      <trkpt lat="47.03701" lon="6.26061">
        <ele>476.47</ele>
        <time>2018-09-09T12:01:29Z</time>
      </trkpt>
      <trkpt lat="47.03705" lon="6.26055">
        <ele>475.03</ele>
        <time>2018-09-09T12:01:33Z</time>
      </trkpt>
      <trkpt lat="47.0372" lon="6.26026">
        <ele>471.66</ele>
        <time>2018-09-09T12:01:38Z</time>
      </trkpt>
      <trkpt lat="47.03744" lon="6.25978">
        <ele>466.38</ele>
        <time>2018-09-09T12:01:44Z</time>
      </trkpt>
      <trkpt lat="47.03753" lon="6.2596">
        <ele>464.45</ele>
        <time>2018-09-09T12:01:46Z</time>
      </trkpt>
      <trkpt lat="47.03779" lon="6.25899">
        <ele>460.61</ele>
        <time>2018-09-09T12:01:53Z</time>
      </trkpt>
      <trkpt lat="47.038" lon="6.25846">
        <ele>456.28</ele>
        <time>2018-09-09T12:01:58Z</time>
      </trkpt>
      <trkpt lat="47.03808" lon="6.25824">
        <ele>454.84</ele>
        <time>2018-09-09T12:02:00Z</time>
      </trkpt>
      <trkpt lat="47.03823" lon="6.25754">
        <ele>451.48</ele>
        <time>2018-09-09T12:02:06Z</time>
      </trkpt>
      <trkpt lat="47.0383" lon="6.25729">
        <ele>451.96</ele>
        <time>2018-09-09T12:02:09Z</time>
      </trkpt>
      <trkpt lat="47.03837" lon="6.25701">
        <ele>452.92</ele>
        <time>2018-09-09T12:02:13Z</time>
      </trkpt>
      <trkpt lat="47.03844" lon="6.25681">
        <ele>451.48</ele>
        <time>2018-09-09T12:02:16Z</time>
      </trkpt>
      <trkpt lat="47.03856" lon="6.25637">
        <ele>446.67</ele>
        <time>2018-09-09T12:02:21Z</time>
      </trkpt>
      <trkpt lat="47.03879" lon="6.25608">
        <ele>444.75</ele>
        <time>2018-09-09T12:02:27Z</time>
      </trkpt>
      <trkpt lat="47.03896" lon="6.25593">
        <ele>445.23</ele>
        <time>2018-09-09T12:02:32Z</time>
      </trkpt>
      <trkpt lat="47.03898" lon="6.2559">
        <ele>445.71</ele>
        <time>2018-09-09T12:02:33Z</time>
      </trkpt>
      <trkpt lat="47.03923" lon="6.25557">
        <ele>447.15</ele>
        <time>2018-09-09T12:02:44Z</time>
      </trkpt>
      <trkpt lat="47.03942" lon="6.2552">
        <ele>448.11</ele>
        <time>2018-09-09T12:02:54Z</time>
      </trkpt>
      <trkpt lat="47.03951" lon="6.25508">
        <ele>447.63</ele>
        <time>2018-09-09T12:02:58Z</time>
      </trkpt>
      <trkpt lat="47.03979" lon="6.25491">
        <ele>443.31</ele>
        <time>2018-09-09T12:03:04Z</time>
      </trkpt>
      <trkpt lat="47.04002" lon="6.25488">
        <ele>439.46</ele>
        <time>2018-09-09T12:03:08Z</time>
      </trkpt>
      <trkpt lat="47.04023" lon="6.25481">
        <ele>433.69</ele>
        <time>2018-09-09T12:03:12Z</time>
      </trkpt>
      <trkpt lat="47.04026" lon="6.25444">
        <ele>428.89</ele>
        <time>2018-09-09T12:03:17Z</time>
      </trkpt>
      <trkpt lat="47.04025" lon="6.2543">
        <ele>427.92</ele>
        <time>2018-09-09T12:03:19Z</time>
      </trkpt>
      <trkpt lat="47.04022" lon="6.25411">
        <ele>425.04</ele>
        <time>2018-09-09T12:03:21Z</time>
      </trkpt>
      <trkpt lat="47.04022" lon="6.25389">
        <ele>422.16</ele>
        <time>2018-09-09T12:03:23Z</time>
      </trkpt>
      <trkpt lat="47.04028" lon="6.25337">
        <ele>416.39</ele>
        <time>2018-09-09T12:03:28Z</time>
      </trkpt>
      <trkpt lat="47.0403" lon="6.25326">
        <ele>414.47</ele>
        <time>2018-09-09T12:03:29Z</time>
      </trkpt>
      <trkpt lat="47.04037" lon="6.25301">
        <ele>411.1</ele>
        <time>2018-09-09T12:03:33Z</time>
      </trkpt>
      <trkpt lat="47.04051" lon="6.25322">
        <ele>407.26</ele>
        <time>2018-09-09T12:03:38Z</time>
      </trkpt>
      <trkpt lat="47.04053" lon="6.25328">
        <ele>406.29</ele>
        <time>2018-09-09T12:03:39Z</time>
      </trkpt>
      <trkpt lat="47.04055" lon="6.25337">
        <ele>405.81</ele>
        <time>2018-09-09T12:03:41Z</time>
      </trkpt>
      <trkpt lat="47.04055" lon="6.25339">
        <ele>405.33</ele>
        <time>2018-09-09T12:03:49Z</time>
      </trkpt>
      <trkpt lat="47.04055" lon="6.25339">
        <ele>405.33</ele>
        <time>2018-09-09T12:03:50Z</time>
      </trkpt>
      <trkpt lat="47.04063" lon="6.25364">
        <ele>401.49</ele>
        <time>2018-09-09T12:03:58Z</time>
      </trkpt>
      <trkpt lat="47.0407" lon="6.25383">
        <ele>398.12</ele>
        <time>2018-09-09T12:04:02Z</time>
      </trkpt>
      <trkpt lat="47.04076" lon="6.254">
        <ele>394.76</ele>
        <time>2018-09-09T12:04:05Z</time>
      </trkpt>
      <trkpt lat="47.04086" lon="6.25418">
        <ele>391.39</ele>
        <time>2018-09-09T12:04:08Z</time>
      </trkpt>
      <trkpt lat="47.0409" lon="6.25423">
        <ele>390.91</ele>
        <time>2018-09-09T12:04:09Z</time>
      </trkpt>
      <trkpt lat="47.04095" lon="6.25426">
        <ele>389.95</ele>
        <time>2018-09-09T12:04:10Z</time>
      </trkpt>
      <trkpt lat="47.04101" lon="6.25429">
        <ele>388.99</ele>
        <time>2018-09-09T12:04:11Z</time>
      </trkpt>
      <trkpt lat="47.04106" lon="6.2543">
        <ele>388.51</ele>
        <time>2018-09-09T12:04:12Z</time>
      </trkpt>
      <trkpt lat="47.04112" lon="6.2543">
        <ele>388.51</ele>
        <time>2018-09-09T12:04:13Z</time>
      </trkpt>
      <trkpt lat="47.04117" lon="6.2543">
        <ele>388.03</ele>
        <time>2018-09-09T12:04:14Z</time>
      </trkpt>
      <trkpt lat="47.04122" lon="6.25429">
        <ele>387.55</ele>
        <time>2018-09-09T12:04:15Z</time>
      </trkpt>
      <trkpt lat="47.04133" lon="6.25428">
        <ele>387.07</ele>
        <time>2018-09-09T12:04:17Z</time>
      </trkpt>
      <trkpt lat="47.04143" lon="6.25424">
        <ele>386.11</ele>
        <time>2018-09-09T12:04:19Z</time>
      </trkpt>
      <trkpt lat="47.04147" lon="6.2542">
        <ele>385.63</ele>
        <time>2018-09-09T12:04:20Z</time>
      </trkpt>
      <trkpt lat="47.04151" lon="6.25415">
        <ele>385.63</ele>
        <time>2018-09-09T12:04:21Z</time>
      </trkpt>
      <trkpt lat="47.04154" lon="6.25409">
        <ele>385.15</ele>
        <time>2018-09-09T12:04:22Z</time>
      </trkpt>
      <trkpt lat="47.04157" lon="6.25402">
        <ele>385.15</ele>
        <time>2018-09-09T12:04:23Z</time>
      </trkpt>
      <trkpt lat="47.04159" lon="6.25395">
        <ele>384.66</ele>
        <time>2018-09-09T12:04:24Z</time>
      </trkpt>
      <trkpt lat="47.04175" lon="6.25289">
        <ele>382.26</ele>
        <time>2018-09-09T12:04:37Z</time>
      </trkpt>
      <trkpt lat="47.04175" lon="6.25221">
        <ele>381.78</ele>
        <time>2018-09-09T12:04:46Z</time>
      </trkpt>
      <trkpt lat="47.0417" lon="6.25197">
        <ele>382.26</ele>
        <time>2018-09-09T12:04:50Z</time>
      </trkpt>
      <trkpt lat="47.0417" lon="6.2519">
        <ele>382.26</ele>
        <time>2018-09-09T12:04:51Z</time>
      </trkpt>
      <trkpt lat="47.04171" lon="6.25184">
        <ele>382.26</ele>
        <time>2018-09-09T12:04:52Z</time>
      </trkpt>
      <trkpt lat="47.04172" lon="6.25179">
        <ele>382.26</ele>
        <time>2018-09-09T12:04:53Z</time>
      </trkpt>
      <trkpt lat="47.04174" lon="6.25173">
        <ele>382.26</ele>
        <time>2018-09-09T12:04:54Z</time>
      </trkpt>
      <trkpt lat="47.04176" lon="6.25167">
        <ele>382.26</ele>
        <time>2018-09-09T12:04:55Z</time>
      </trkpt>
      <trkpt lat="47.04183" lon="6.2515">
        <ele>381.78</ele>
        <time>2018-09-09T12:04:58Z</time>
      </trkpt>
      <trkpt lat="47.04193" lon="6.25128">
        <ele>381.78</ele>
        <time>2018-09-09T12:05:02Z</time>
      </trkpt>
      <trkpt lat="47.04195" lon="6.25123">
        <ele>381.78</ele>
        <time>2018-09-09T12:05:03Z</time>
      </trkpt>
      <trkpt lat="47.04198" lon="6.25118">
        <ele>381.78</ele>
        <time>2018-09-09T12:05:04Z</time>
      </trkpt>
      <trkpt lat="47.04201" lon="6.25113">
        <ele>381.3</ele>
        <time>2018-09-09T12:05:05Z</time>
      </trkpt>
      <trkpt lat="47.04203" lon="6.25108">
        <ele>381.78</ele>
        <time>2018-09-09T12:05:06Z</time>
      </trkpt>
      <trkpt lat="47.04206" lon="6.25102">
        <ele>381.78</ele>
        <time>2018-09-09T12:05:07Z</time>
      </trkpt>
      <trkpt lat="47.04212" lon="6.25092">
        <ele>381.78</ele>
        <time>2018-09-09T12:05:09Z</time>
      </trkpt>
      <trkpt lat="47.04255" lon="6.25042">
        <ele>382.26</ele>
        <time>2018-09-09T12:05:20Z</time>
      </trkpt>
      <trkpt lat="47.04272" lon="6.25031">
        <ele>382.74</ele>
        <time>2018-09-09T12:05:24Z</time>
      </trkpt>
      <trkpt lat="47.0428" lon="6.25027">
        <ele>382.74</ele>
        <time>2018-09-09T12:05:26Z</time>
      </trkpt>
      <trkpt lat="47.04293" lon="6.25019">
        <ele>383.22</ele>
        <time>2018-09-09T12:05:29Z</time>
      </trkpt>
      <trkpt lat="47.04296" lon="6.25016">
        <ele>383.22</ele>
        <time>2018-09-09T12:05:30Z</time>
      </trkpt>
      <trkpt lat="47.043" lon="6.25013">
        <ele>383.22</ele>
        <time>2018-09-09T12:05:31Z</time>
      </trkpt>
      <trkpt lat="47.04304" lon="6.25009">
        <ele>383.22</ele>
        <time>2018-09-09T12:05:32Z</time>
      </trkpt>
      <trkpt lat="47.04307" lon="6.25006">
        <ele>383.22</ele>
        <time>2018-09-09T12:05:33Z</time>
      </trkpt>
      <trkpt lat="47.04311" lon="6.25003">
        <ele>383.22</ele>
        <time>2018-09-09T12:05:34Z</time>
      </trkpt>
      <trkpt lat="47.04318" lon="6.24995">
        <ele>383.7</ele>
        <time>2018-09-09T12:05:36Z</time>
      </trkpt>
      <trkpt lat="47.04321" lon="6.24991">
        <ele>383.22</ele>
        <time>2018-09-09T12:05:37Z</time>
      </trkpt>
      <trkpt lat="47.04323" lon="6.24986">
        <ele>383.22</ele>
        <time>2018-09-09T12:05:38Z</time>
      </trkpt>
      <trkpt lat="47.04325" lon="6.24979">
        <ele>383.22</ele>
        <time>2018-09-09T12:05:39Z</time>
      </trkpt>
      <trkpt lat="47.04327" lon="6.24973">
        <ele>383.22</ele>
        <time>2018-09-09T12:05:40Z</time>
      </trkpt>
      <trkpt lat="47.04332" lon="6.24961">
        <ele>383.22</ele>
        <time>2018-09-09T12:05:42Z</time>
      </trkpt>
      <trkpt lat="47.04356" lon="6.24907">
        <ele>384.18</ele>
        <time>2018-09-09T12:05:54Z</time>
      </trkpt>
      <trkpt lat="47.0437" lon="6.24861">
        <ele>384.18</ele>
        <time>2018-09-09T12:06:05Z</time>
      </trkpt>
      <trkpt lat="47.04372" lon="6.24856">
        <ele>384.18</ele>
        <time>2018-09-09T12:06:06Z</time>
      </trkpt>
      <trkpt lat="47.04374" lon="6.24851">
        <ele>384.18</ele>
        <time>2018-09-09T12:06:07Z</time>
      </trkpt>
      <trkpt lat="47.04375" lon="6.24845">
        <ele>384.18</ele>
        <time>2018-09-09T12:06:08Z</time>
      </trkpt>
      <trkpt lat="47.04377" lon="6.2484">
        <ele>384.66</ele>
        <time>2018-09-09T12:06:09Z</time>
      </trkpt>
      <trkpt lat="47.04377" lon="6.24834">
        <ele>384.66</ele>
        <time>2018-09-09T12:06:10Z</time>
      </trkpt>
      <trkpt lat="47.04378" lon="6.24828">
        <ele>384.66</ele>
        <time>2018-09-09T12:06:11Z</time>
      </trkpt>
      <trkpt lat="47.04381" lon="6.24797">
        <ele>385.15</ele>
        <time>2018-09-09T12:06:16Z</time>
      </trkpt>
      <trkpt lat="47.04381" lon="6.24791">
        <ele>385.15</ele>
        <time>2018-09-09T12:06:17Z</time>
      </trkpt>
      <trkpt lat="47.04382" lon="6.24779">
        <ele>384.66</ele>
        <time>2018-09-09T12:06:19Z</time>
      </trkpt>
      <trkpt lat="47.04382" lon="6.24773">
        <ele>384.66</ele>
        <time>2018-09-09T12:06:20Z</time>
      </trkpt>
      <trkpt lat="47.04384" lon="6.24713">
        <ele>381.78</ele>
        <time>2018-09-09T12:06:27Z</time>
      </trkpt>
      <trkpt lat="47.04383" lon="6.24693">
        <ele>380.82</ele>
        <time>2018-09-09T12:06:29Z</time>
      </trkpt>
      <trkpt lat="47.04372" lon="6.24555">
        <ele>377.94</ele>
        <time>2018-09-09T12:06:43Z</time>
      </trkpt>
      <trkpt lat="47.04377" lon="6.24514">
        <ele>376.49</ele>
        <time>2018-09-09T12:06:47Z</time>
      </trkpt>
      <trkpt lat="47.04377" lon="6.24503">
        <ele>376.01</ele>
        <time>2018-09-09T12:06:48Z</time>
      </trkpt>
      <trkpt lat="47.04376" lon="6.24492">
        <ele>376.01</ele>
        <time>2018-09-09T12:06:49Z</time>
      </trkpt>
      <trkpt lat="47.04374" lon="6.24451">
        <ele>375.53</ele>
        <time>2018-09-09T12:06:53Z</time>
      </trkpt>
      <trkpt lat="47.04372" lon="6.24441">
        <ele>375.53</ele>
        <time>2018-09-09T12:06:54Z</time>
      </trkpt>
      <trkpt lat="47.0437" lon="6.24432">
        <ele>375.53</ele>
        <time>2018-09-09T12:06:55Z</time>
      </trkpt>
      <trkpt lat="47.04367" lon="6.24424">
        <ele>375.53</ele>
        <time>2018-09-09T12:06:56Z</time>
      </trkpt>
      <trkpt lat="47.04365" lon="6.24415">
        <ele>375.53</ele>
        <time>2018-09-09T12:06:57Z</time>
      </trkpt>
      <trkpt lat="47.04364" lon="6.24406">
        <ele>376.01</ele>
        <time>2018-09-09T12:06:58Z</time>
      </trkpt>
      <trkpt lat="47.04364" lon="6.24397">
        <ele>376.01</ele>
        <time>2018-09-09T12:06:59Z</time>
      </trkpt>
      <trkpt lat="47.04365" lon="6.24388">
        <ele>376.01</ele>
        <time>2018-09-09T12:07:00Z</time>
      </trkpt>
      <trkpt lat="47.04366" lon="6.24379">
        <ele>376.01</ele>
        <time>2018-09-09T12:07:01Z</time>
      </trkpt>
      <trkpt lat="47.04368" lon="6.2437">
        <ele>376.01</ele>
        <time>2018-09-09T12:07:02Z</time>
      </trkpt>
      <trkpt lat="47.0437" lon="6.24362">
        <ele>376.01</ele>
        <time>2018-09-09T12:07:03Z</time>
      </trkpt>
      <trkpt lat="47.04387" lon="6.24304">
        <ele>375.53</ele>
        <time>2018-09-09T12:07:10Z</time>
      </trkpt>
      <trkpt lat="47.04391" lon="6.24297">
        <ele>375.53</ele>
        <time>2018-09-09T12:07:11Z</time>
      </trkpt>
      <trkpt lat="47.04401" lon="6.24275">
        <ele>376.01</ele>
        <time>2018-09-09T12:07:14Z</time>
      </trkpt>
      <trkpt lat="47.04407" lon="6.2426">
        <ele>376.01</ele>
        <time>2018-09-09T12:07:16Z</time>
      </trkpt>
      <trkpt lat="47.04411" lon="6.24254">
        <ele>376.49</ele>
        <time>2018-09-09T12:07:17Z</time>
      </trkpt>
      <trkpt lat="47.04413" lon="6.24248">
        <ele>376.49</ele>
        <time>2018-09-09T12:07:18Z</time>
      </trkpt>
      <trkpt lat="47.04415" lon="6.24241">
        <ele>376.49</ele>
        <time>2018-09-09T12:07:19Z</time>
      </trkpt>
      <trkpt lat="47.04416" lon="6.24234">
        <ele>376.49</ele>
        <time>2018-09-09T12:07:20Z</time>
      </trkpt>
      <trkpt lat="47.04417" lon="6.24226">
        <ele>376.49</ele>
        <time>2018-09-09T12:07:21Z</time>
      </trkpt>
      <trkpt lat="47.04427" lon="6.24144">
        <ele>375.05</ele>
        <time>2018-09-09T12:07:30Z</time>
      </trkpt>
      <trkpt lat="47.0443" lon="6.24135">
        <ele>374.09</ele>
        <time>2018-09-09T12:07:31Z</time>
      </trkpt>
      <trkpt lat="47.04436" lon="6.24117">
        <ele>373.61</ele>
        <time>2018-09-09T12:07:33Z</time>
      </trkpt>
      <trkpt lat="47.04452" lon="6.24088">
        <ele>375.05</ele>
        <time>2018-09-09T12:07:37Z</time>
      </trkpt>
      <trkpt lat="47.04457" lon="6.24082">
        <ele>375.53</ele>
        <time>2018-09-09T12:07:38Z</time>
      </trkpt>
      <trkpt lat="47.04522" lon="6.2403">
        <ele>375.05</ele>
        <time>2018-09-09T12:07:50Z</time>
      </trkpt>
      <trkpt lat="47.04542" lon="6.24007">
        <ele>374.57</ele>
        <time>2018-09-09T12:07:54Z</time>
      </trkpt>
      <trkpt lat="47.04545" lon="6.23999">
        <ele>374.57</ele>
        <time>2018-09-09T12:07:55Z</time>
      </trkpt>
      <trkpt lat="47.04547" lon="6.23991">
        <ele>374.09</ele>
        <time>2018-09-09T12:07:56Z</time>
      </trkpt>
      <trkpt lat="47.04547" lon="6.23984">
        <ele>374.09</ele>
        <time>2018-09-09T12:07:57Z</time>
      </trkpt>
      <trkpt lat="47.04547" lon="6.23979">
        <ele>374.09</ele>
        <time>2018-09-09T12:07:58Z</time>
      </trkpt>
      <trkpt lat="47.04547" lon="6.23976">
        <ele>374.09</ele>
        <time>2018-09-09T12:07:59Z</time>
      </trkpt>
      <trkpt lat="47.04547" lon="6.23974">
        <ele>374.57</ele>
        <time>2018-09-09T12:08:00Z</time>
      </trkpt>
      <trkpt lat="47.04545" lon="6.23973">
        <ele>374.57</ele>
        <time>2018-09-09T12:08:10Z</time>
      </trkpt>
      <trkpt lat="47.04545" lon="6.23975">
        <ele>374.57</ele>
        <time>2018-09-09T12:08:11Z</time>
      </trkpt>
      <trkpt lat="47.04545" lon="6.23977">
        <ele>374.57</ele>
        <time>2018-09-09T12:08:12Z</time>
      </trkpt>
      <trkpt lat="47.04546" lon="6.23979">
        <ele>374.57</ele>
        <time>2018-09-09T12:08:13Z</time>
      </trkpt>
      <trkpt lat="47.04546" lon="6.23981">
        <ele>374.57</ele>
        <time>2018-09-09T12:08:14Z</time>
      </trkpt>
      <trkpt lat="47.04546" lon="6.23983">
        <ele>374.57</ele>
        <time>2018-09-09T12:08:15Z</time>
      </trkpt>
      <trkpt lat="47.04547" lon="6.23995">
        <ele>375.05</ele>
        <time>2018-09-09T12:08:27Z</time>
      </trkpt>
      <trkpt lat="47.04546" lon="6.24">
        <ele>372.17</ele>
        <time>2018-09-09T12:08:35Z</time>
      </trkpt>
      <trkpt lat="47.04547" lon="6.24">
        <ele>371.69</ele>
        <time>2018-09-09T12:08:37Z</time>
      </trkpt>
      <trkpt lat="47.0455" lon="6.23996">
        <ele>371.21</ele>
        <time>2018-09-09T12:08:41Z</time>
      </trkpt>
      <trkpt lat="47.04551" lon="6.23996">
        <ele>371.21</ele>
        <time>2018-09-09T12:08:42Z</time>
      </trkpt>
      <trkpt lat="47.04553" lon="6.23996">
        <ele>371.21</ele>
        <time>2018-09-09T12:08:43Z</time>
      </trkpt>
      <trkpt lat="47.04555" lon="6.23996">
        <ele>371.21</ele>
        <time>2018-09-09T12:08:44Z</time>
      </trkpt>
      <trkpt lat="47.04558" lon="6.23996">
        <ele>370.73</ele>
        <time>2018-09-09T12:08:45Z</time>
      </trkpt>
      <trkpt lat="47.04561" lon="6.23994">
        <ele>370.73</ele>
        <time>2018-09-09T12:08:46Z</time>
      </trkpt>
      <trkpt lat="47.04564" lon="6.23991">
        <ele>370.24</ele>
        <time>2018-09-09T12:08:47Z</time>
      </trkpt>
      <trkpt lat="47.04566" lon="6.23988">
        <ele>370.24</ele>
        <time>2018-09-09T12:08:48Z</time>
      </trkpt>
      <trkpt lat="47.04569" lon="6.23984">
        <ele>370.24</ele>
        <time>2018-09-09T12:08:49Z</time>
      </trkpt>
      <trkpt lat="47.04577" lon="6.23974">
        <ele>369.76</ele>
        <time>2018-09-09T12:08:52Z</time>
      </trkpt>
      <trkpt lat="47.0458" lon="6.23969">
        <ele>369.76</ele>
        <time>2018-09-09T12:08:53Z</time>
      </trkpt>
      <trkpt lat="47.04582" lon="6.23965">
        <ele>369.76</ele>
        <time>2018-09-09T12:08:54Z</time>
      </trkpt>
      <trkpt lat="47.04584" lon="6.23961">
        <ele>369.76</ele>
        <time>2018-09-09T12:08:55Z</time>
      </trkpt>
      <trkpt lat="47.04586" lon="6.23956">
        <ele>369.76</ele>
        <time>2018-09-09T12:08:56Z</time>
      </trkpt>
      <trkpt lat="47.04588" lon="6.23951">
        <ele>369.76</ele>
        <time>2018-09-09T12:08:57Z</time>
      </trkpt>
      <trkpt lat="47.04589" lon="6.23945">
        <ele>369.76</ele>
        <time>2018-09-09T12:08:58Z</time>
      </trkpt>
      <trkpt lat="47.0459" lon="6.2394">
        <ele>369.76</ele>
        <time>2018-09-09T12:08:59Z</time>
      </trkpt>
      <trkpt lat="47.04599" lon="6.23912">
        <ele>369.76</ele>
        <time>2018-09-09T12:09:04Z</time>
      </trkpt>
      <trkpt lat="47.046" lon="6.23906">
        <ele>369.76</ele>
        <time>2018-09-09T12:09:05Z</time>
      </trkpt>
      <trkpt lat="47.04602" lon="6.239">
        <ele>369.76</ele>
        <time>2018-09-09T12:09:06Z</time>
      </trkpt>
      <trkpt lat="47.04604" lon="6.23894">
        <ele>369.76</ele>
        <time>2018-09-09T12:09:07Z</time>
      </trkpt>
      <trkpt lat="47.04606" lon="6.23889">
        <ele>369.76</ele>
        <time>2018-09-09T12:09:08Z</time>
      </trkpt>
      <trkpt lat="47.04619" lon="6.23844">
        <ele>370.24</ele>
        <time>2018-09-09T12:09:15Z</time>
      </trkpt>
      <trkpt lat="47.0462" lon="6.23837">
        <ele>370.24</ele>
        <time>2018-09-09T12:09:16Z</time>
      </trkpt>
      <trkpt lat="47.04622" lon="6.23831">
        <ele>370.24</ele>
        <time>2018-09-09T12:09:17Z</time>
      </trkpt>
      <trkpt lat="47.0463" lon="6.23802">
        <ele>370.24</ele>
        <time>2018-09-09T12:09:21Z</time>
      </trkpt>
      <trkpt lat="47.04641" lon="6.2376">
        <ele>370.73</ele>
        <time>2018-09-09T12:09:27Z</time>
      </trkpt>
      <trkpt lat="47.04671" lon="6.23693">
        <ele>370.24</ele>
        <time>2018-09-09T12:09:37Z</time>
      </trkpt>
      <trkpt lat="47.04734" lon="6.23631">
        <ele>370.24</ele>
        <time>2018-09-09T12:09:51Z</time>
      </trkpt>
      <trkpt lat="47.04744" lon="6.23627">
        <ele>370.24</ele>
        <time>2018-09-09T12:09:53Z</time>
      </trkpt>
      <trkpt lat="47.04749" lon="6.23626">
        <ele>370.24</ele>
        <time>2018-09-09T12:09:54Z</time>
      </trkpt>
      <trkpt lat="47.04754" lon="6.23626">
        <ele>370.24</ele>
        <time>2018-09-09T12:09:55Z</time>
      </trkpt>
      <trkpt lat="47.04762" lon="6.23627">
        <ele>369.76</ele>
        <time>2018-09-09T12:09:57Z</time>
      </trkpt>
      <trkpt lat="47.04774" lon="6.23631">
        <ele>369.28</ele>
        <time>2018-09-09T12:10:00Z</time>
      </trkpt>
      <trkpt lat="47.04778" lon="6.23633">
        <ele>369.28</ele>
        <time>2018-09-09T12:10:01Z</time>
      </trkpt>
      <trkpt lat="47.0482" lon="6.2366">
        <ele>367.84</ele>
        <time>2018-09-09T12:10:11Z</time>
      </trkpt>
      <trkpt lat="47.04826" lon="6.23666">
        <ele>367.84</ele>
        <time>2018-09-09T12:10:13Z</time>
      </trkpt>
      <trkpt lat="47.0483" lon="6.23666">
        <ele>367.84</ele>
        <time>2018-09-09T12:10:14Z</time>
      </trkpt>
      <trkpt lat="47.04833" lon="6.23667">
        <ele>367.84</ele>
        <time>2018-09-09T12:10:15Z</time>
      </trkpt>
      <trkpt lat="47.04838" lon="6.23668">
        <ele>367.84</ele>
        <time>2018-09-09T12:10:16Z</time>
      </trkpt>
      <trkpt lat="47.04842" lon="6.23668">
        <ele>367.84</ele>
        <time>2018-09-09T12:10:17Z</time>
      </trkpt>
      <trkpt lat="47.04873" lon="6.23668">
        <ele>368.32</ele>
        <time>2018-09-09T12:10:26Z</time>
      </trkpt>
      <trkpt lat="47.04887" lon="6.23664">
        <ele>369.28</ele>
        <time>2018-09-09T12:10:29Z</time>
      </trkpt>
      <trkpt lat="47.04893" lon="6.23661">
        <ele>369.28</ele>
        <time>2018-09-09T12:10:30Z</time>
      </trkpt>
      <trkpt lat="47.04896" lon="6.23657">
        <ele>369.28</ele>
        <time>2018-09-09T12:10:31Z</time>
      </trkpt>
      <trkpt lat="47.049" lon="6.23652">
        <ele>369.28</ele>
        <time>2018-09-09T12:10:32Z</time>
      </trkpt>
      <trkpt lat="47.04904" lon="6.23647">
        <ele>369.28</ele>
        <time>2018-09-09T12:10:33Z</time>
      </trkpt>
      <trkpt lat="47.04908" lon="6.23642">
        <ele>369.28</ele>
        <time>2018-09-09T12:10:34Z</time>
      </trkpt>
      <trkpt lat="47.04912" lon="6.23638">
        <ele>369.28</ele>
        <time>2018-09-09T12:10:35Z</time>
      </trkpt>
      <trkpt lat="47.04915" lon="6.23633">
        <ele>369.76</ele>
        <time>2018-09-09T12:10:36Z</time>
      </trkpt>
      <trkpt lat="47.04931" lon="6.23609">
        <ele>370.73</ele>
        <time>2018-09-09T12:10:42Z</time>
      </trkpt>
      <trkpt lat="47.04932" lon="6.23605">
        <ele>371.69</ele>
        <time>2018-09-09T12:10:43Z</time>
      </trkpt>
      <trkpt lat="47.04934" lon="6.23602">
        <ele>371.69</ele>
        <time>2018-09-09T12:10:44Z</time>
      </trkpt>
      <trkpt lat="47.04943" lon="6.23542">
        <ele>374.57</ele>
        <time>2018-09-09T12:10:57Z</time>
      </trkpt>
      <trkpt lat="47.04941" lon="6.23527">
        <ele>375.05</ele>
        <time>2018-09-09T12:11:01Z</time>
      </trkpt>
      <trkpt lat="47.0494" lon="6.23524">
        <ele>375.53</ele>
        <time>2018-09-09T12:11:02Z</time>
      </trkpt>
      <trkpt lat="47.04937" lon="6.23506">
        <ele>376.97</ele>
        <time>2018-09-09T12:11:08Z</time>
      </trkpt>
      <trkpt lat="47.04952" lon="6.23483">
        <ele>376.49</ele>
        <time>2018-09-09T12:11:15Z</time>
      </trkpt>
      <trkpt lat="47.04955" lon="6.23478">
        <ele>376.01</ele>
        <time>2018-09-09T12:11:16Z</time>
      </trkpt>
      <trkpt lat="47.04958" lon="6.23474">
        <ele>376.01</ele>
        <time>2018-09-09T12:11:17Z</time>
      </trkpt>
      <trkpt lat="47.04969" lon="6.23453">
        <ele>376.49</ele>
        <time>2018-09-09T12:11:24Z</time>
      </trkpt>
      <trkpt lat="47.04961" lon="6.23436">
        <ele>376.49</ele>
        <time>2018-09-09T12:11:26Z</time>
      </trkpt>
      <trkpt lat="47.04958" lon="6.23441">
        <ele>376.01</ele>
        <time>2018-09-09T12:11:29Z</time>
      </trkpt>
      <trkpt lat="47.04966" lon="6.23434">
        <ele>373.13</ele>
        <time>2018-09-09T12:11:34Z</time>
      </trkpt>
      <trkpt lat="47.04975" lon="6.23426">
        <ele>370.24</ele>
        <time>2018-09-09T12:11:36Z</time>
      </trkpt>
      <trkpt lat="47.04981" lon="6.23422">
        <ele>368.8</ele>
        <time>2018-09-09T12:11:37Z</time>
      </trkpt>
      <trkpt lat="47.05" lon="6.23401">
        <ele>367.84</ele>
        <time>2018-09-09T12:11:40Z</time>
      </trkpt>
      <trkpt lat="47.05005" lon="6.23395">
        <ele>367.84</ele>
        <time>2018-09-09T12:11:41Z</time>
      </trkpt>
      <trkpt lat="47.0501" lon="6.23389">
        <ele>368.32</ele>
        <time>2018-09-09T12:11:42Z</time>
      </trkpt>
      <trkpt lat="47.05014" lon="6.23383">
        <ele>368.32</ele>
        <time>2018-09-09T12:11:43Z</time>
      </trkpt>
      <trkpt lat="47.05017" lon="6.23376">
        <ele>368.32</ele>
        <time>2018-09-09T12:11:44Z</time>
      </trkpt>
      <trkpt lat="47.05028" lon="6.23353">
        <ele>368.8</ele>
        <time>2018-09-09T12:11:47Z</time>
      </trkpt>
      <trkpt lat="47.05035" lon="6.23339">
        <ele>368.8</ele>
        <time>2018-09-09T12:11:49Z</time>
      </trkpt>
      <trkpt lat="47.05039" lon="6.23332">
        <ele>368.32</ele>
        <time>2018-09-09T12:11:50Z</time>
      </trkpt>
      <trkpt lat="47.05044" lon="6.23325">
        <ele>368.32</ele>
        <time>2018-09-09T12:11:51Z</time>
      </trkpt>
      <trkpt lat="47.05048" lon="6.23318">
        <ele>368.32</ele>
        <time>2018-09-09T12:11:52Z</time>
      </trkpt>
      <trkpt lat="47.05052" lon="6.23312">
        <ele>368.32</ele>
        <time>2018-09-09T12:11:53Z</time>
      </trkpt>
      <trkpt lat="47.05057" lon="6.23307">
        <ele>368.32</ele>
        <time>2018-09-09T12:11:54Z</time>
      </trkpt>
      <trkpt lat="47.05062" lon="6.23301">
        <ele>368.8</ele>
        <time>2018-09-09T12:11:55Z</time>
      </trkpt>
      <trkpt lat="47.05066" lon="6.23296">
        <ele>368.8</ele>
        <time>2018-09-09T12:11:56Z</time>
      </trkpt>
      <trkpt lat="47.05071" lon="6.23291">
        <ele>368.8</ele>
        <time>2018-09-09T12:11:57Z</time>
      </trkpt>
      <trkpt lat="47.05083" lon="6.23276">
        <ele>369.28</ele>
        <time>2018-09-09T12:12:00Z</time>
      </trkpt>
      <trkpt lat="47.05087" lon="6.23272">
        <ele>368.8</ele>
        <time>2018-09-09T12:12:01Z</time>
      </trkpt>
      <trkpt lat="47.05091" lon="6.23269">
        <ele>368.8</ele>
        <time>2018-09-09T12:12:02Z</time>
      </trkpt>
      <trkpt lat="47.05098" lon="6.23261">
        <ele>368.8</ele>
        <time>2018-09-09T12:12:04Z</time>
      </trkpt>
      <trkpt lat="47.05105" lon="6.23252">
        <ele>368.8</ele>
        <time>2018-09-09T12:12:06Z</time>
      </trkpt>
      <trkpt lat="47.05138" lon="6.23224">
        <ele>368.8</ele>
        <time>2018-09-09T12:12:13Z</time>
      </trkpt>
      <trkpt lat="47.05174" lon="6.23205">
        <ele>368.8</ele>
        <time>2018-09-09T12:12:20Z</time>
      </trkpt>
      <trkpt lat="47.0518" lon="6.23203">
        <ele>368.32</ele>
        <time>2018-09-09T12:12:21Z</time>
      </trkpt>
      <trkpt lat="47.05185" lon="6.232">
        <ele>368.8</ele>
        <time>2018-09-09T12:12:22Z</time>
      </trkpt>
      <trkpt lat="47.052" lon="6.23191">
        <ele>368.32</ele>
        <time>2018-09-09T12:12:25Z</time>
      </trkpt>
      <trkpt lat="47.05205" lon="6.23189">
        <ele>368.8</ele>
        <time>2018-09-09T12:12:26Z</time>
      </trkpt>
      <trkpt lat="47.05216" lon="6.23183">
        <ele>368.8</ele>
        <time>2018-09-09T12:12:28Z</time>
      </trkpt>
      <trkpt lat="47.05222" lon="6.23181">
        <ele>368.32</ele>
        <time>2018-09-09T12:12:29Z</time>
      </trkpt>
      <trkpt lat="47.05262" lon="6.23162">
        <ele>368.8</ele>
        <time>2018-09-09T12:12:36Z</time>
      </trkpt>
      <trkpt lat="47.05267" lon="6.2316">
        <ele>368.8</ele>
        <time>2018-09-09T12:12:37Z</time>
      </trkpt>
      <trkpt lat="47.05273" lon="6.23157">
        <ele>368.8</ele>
        <time>2018-09-09T12:12:38Z</time>
      </trkpt>
      <trkpt lat="47.05279" lon="6.23155">
        <ele>368.8</ele>
        <time>2018-09-09T12:12:39Z</time>
      </trkpt>
      <trkpt lat="47.05286" lon="6.23152">
        <ele>368.8</ele>
        <time>2018-09-09T12:12:40Z</time>
      </trkpt>
      <trkpt lat="47.05291" lon="6.23148">
        <ele>368.8</ele>
        <time>2018-09-09T12:12:41Z</time>
      </trkpt>
      <trkpt lat="47.05297" lon="6.23144">
        <ele>368.8</ele>
        <time>2018-09-09T12:12:42Z</time>
      </trkpt>
      <trkpt lat="47.05308" lon="6.23134">
        <ele>369.28</ele>
        <time>2018-09-09T12:12:44Z</time>
      </trkpt>
      <trkpt lat="47.05333" lon="6.2311">
        <ele>368.8</ele>
        <time>2018-09-09T12:12:49Z</time>
      </trkpt>
      <trkpt lat="47.05346" lon="6.23092">
        <ele>368.8</ele>
        <time>2018-09-09T12:12:52Z</time>
      </trkpt>
      <trkpt lat="47.05363" lon="6.2306">
        <ele>368.8</ele>
        <time>2018-09-09T12:12:57Z</time>
      </trkpt>
      <trkpt lat="47.05371" lon="6.23047">
        <ele>368.8</ele>
        <time>2018-09-09T12:12:59Z</time>
      </trkpt>
      <trkpt lat="47.05375" lon="6.23041">
        <ele>368.32</ele>
        <time>2018-09-09T12:13:00Z</time>
      </trkpt>
      <trkpt lat="47.05379" lon="6.23034">
        <ele>368.32</ele>
        <time>2018-09-09T12:13:01Z</time>
      </trkpt>
      <trkpt lat="47.05381" lon="6.23025">
        <ele>368.32</ele>
        <time>2018-09-09T12:13:02Z</time>
      </trkpt>
      <trkpt lat="47.05383" lon="6.23017">
        <ele>368.32</ele>
        <time>2018-09-09T12:13:03Z</time>
      </trkpt>
      <trkpt lat="47.05386" lon="6.2301">
        <ele>368.32</ele>
        <time>2018-09-09T12:13:04Z</time>
      </trkpt>
      <trkpt lat="47.05389" lon="6.23002">
        <ele>368.8</ele>
        <time>2018-09-09T12:13:05Z</time>
      </trkpt>
      <trkpt lat="47.05393" lon="6.22994">
        <ele>368.32</ele>
        <time>2018-09-09T12:13:06Z</time>
      </trkpt>
      <trkpt lat="47.05397" lon="6.22988">
        <ele>368.8</ele>
        <time>2018-09-09T12:13:07Z</time>
      </trkpt>
      <trkpt lat="47.05413" lon="6.22949">
        <ele>368.32</ele>
        <time>2018-09-09T12:13:12Z</time>
      </trkpt>
      <trkpt lat="47.05417" lon="6.22941">
        <ele>368.32</ele>
        <time>2018-09-09T12:13:13Z</time>
      </trkpt>
      <trkpt lat="47.05419" lon="6.22933">
        <ele>368.32</ele>
        <time>2018-09-09T12:13:14Z</time>
      </trkpt>
      <trkpt lat="47.0542" lon="6.22925">
        <ele>367.84</ele>
        <time>2018-09-09T12:13:15Z</time>
      </trkpt>
      <trkpt lat="47.05423" lon="6.22916">
        <ele>367.84</ele>
        <time>2018-09-09T12:13:16Z</time>
      </trkpt>
      <trkpt lat="47.05426" lon="6.22908">
        <ele>367.84</ele>
        <time>2018-09-09T12:13:17Z</time>
      </trkpt>
      <trkpt lat="47.0543" lon="6.229">
        <ele>368.32</ele>
        <time>2018-09-09T12:13:18Z</time>
      </trkpt>
      <trkpt lat="47.05439" lon="6.22876">
        <ele>368.8</ele>
        <time>2018-09-09T12:13:21Z</time>
      </trkpt>
      <trkpt lat="47.05442" lon="6.22869">
        <ele>368.32</ele>
        <time>2018-09-09T12:13:22Z</time>
      </trkpt>
      <trkpt lat="47.05444" lon="6.22861">
        <ele>368.32</ele>
        <time>2018-09-09T12:13:23Z</time>
      </trkpt>
      <trkpt lat="47.05454" lon="6.2284">
        <ele>368.32</ele>
        <time>2018-09-09T12:13:26Z</time>
      </trkpt>
      <trkpt lat="47.05462" lon="6.22826">
        <ele>368.32</ele>
        <time>2018-09-09T12:13:28Z</time>
      </trkpt>
      <trkpt lat="47.05469" lon="6.22812">
        <ele>368.32</ele>
        <time>2018-09-09T12:13:30Z</time>
      </trkpt>
      <trkpt lat="47.05473" lon="6.22806">
        <ele>368.32</ele>
        <time>2018-09-09T12:13:31Z</time>
      </trkpt>
      <trkpt lat="47.05476" lon="6.228">
        <ele>368.32</ele>
        <time>2018-09-09T12:13:32Z</time>
      </trkpt>
      <trkpt lat="47.0548" lon="6.22795">
        <ele>368.32</ele>
        <time>2018-09-09T12:13:33Z</time>
      </trkpt>
      <trkpt lat="47.05484" lon="6.22789">
        <ele>368.32</ele>
        <time>2018-09-09T12:13:34Z</time>
      </trkpt>
      <trkpt lat="47.05487" lon="6.22782">
        <ele>368.32</ele>
        <time>2018-09-09T12:13:35Z</time>
      </trkpt>
      <trkpt lat="47.05492" lon="6.22777">
        <ele>368.8</ele>
        <time>2018-09-09T12:13:36Z</time>
      </trkpt>
      <trkpt lat="47.05496" lon="6.22772">
        <ele>368.8</ele>
        <time>2018-09-09T12:13:37Z</time>
      </trkpt>
      <trkpt lat="47.05501" lon="6.22767">
        <ele>368.32</ele>
        <time>2018-09-09T12:13:38Z</time>
      </trkpt>
      <trkpt lat="47.05505" lon="6.22761">
        <ele>368.32</ele>
        <time>2018-09-09T12:13:39Z</time>
      </trkpt>
      <trkpt lat="47.05508" lon="6.22756">
        <ele>368.32</ele>
        <time>2018-09-09T12:13:40Z</time>
      </trkpt>
      <trkpt lat="47.05512" lon="6.2275">
        <ele>368.32</ele>
        <time>2018-09-09T12:13:41Z</time>
      </trkpt>
      <trkpt lat="47.05526" lon="6.22726">
        <ele>368.32</ele>
        <time>2018-09-09T12:13:45Z</time>
      </trkpt>
      <trkpt lat="47.05536" lon="6.22712">
        <ele>368.32</ele>
        <time>2018-09-09T12:13:47Z</time>
      </trkpt>
      <trkpt lat="47.05553" lon="6.22686">
        <ele>368.8</ele>
        <time>2018-09-09T12:13:54Z</time>
      </trkpt>
      <trkpt lat="47.05554" lon="6.22681">
        <ele>368.8</ele>
        <time>2018-09-09T12:14:03Z</time>
      </trkpt>
      <trkpt lat="47.05557" lon="6.22677">
        <ele>371.69</ele>
        <time>2018-09-09T12:14:14Z</time>
      </trkpt>
      <trkpt lat="47.05556" lon="6.22674">
        <ele>373.13</ele>
        <time>2018-09-09T12:14:25Z</time>
      </trkpt>
      <trkpt lat="47.05558" lon="6.22672">
        <ele>376.01</ele>
        <time>2018-09-09T12:14:36Z</time>
      </trkpt>
      <trkpt lat="47.05563" lon="6.22674">
        <ele>376.01</ele>
        <time>2018-09-09T12:14:43Z</time>
      </trkpt>
      <trkpt lat="47.05565" lon="6.22673">
        <ele>375.53</ele>
        <time>2018-09-09T12:14:44Z</time>
      </trkpt>
      <trkpt lat="47.05567" lon="6.22673">
        <ele>375.53</ele>
        <time>2018-09-09T12:14:45Z</time>
      </trkpt>
      <trkpt lat="47.05569" lon="6.22674">
        <ele>375.05</ele>
        <time>2018-09-09T12:14:46Z</time>
      </trkpt>
      <trkpt lat="47.05571" lon="6.22676">
        <ele>374.09</ele>
        <time>2018-09-09T12:14:48Z</time>
      </trkpt>
      <trkpt lat="47.05573" lon="6.22677">
        <ele>372.65</ele>
        <time>2018-09-09T12:14:50Z</time>
      </trkpt>
      <trkpt lat="47.05583" lon="6.22686">
        <ele>369.76</ele>
        <time>2018-09-09T12:14:54Z</time>
      </trkpt>
      <trkpt lat="47.05606" lon="6.22693">
        <ele>367.36</ele>
        <time>2018-09-09T12:15:03Z</time>
      </trkpt>
      <trkpt lat="47.05613" lon="6.22693">
        <ele>365.92</ele>
        <time>2018-09-09T12:15:07Z</time>
      </trkpt>
      <trkpt lat="47.05617" lon="6.22697">
        <ele>364</ele>
        <time>2018-09-09T12:15:09Z</time>
      </trkpt>
      <trkpt lat="47.05619" lon="6.22699">
        <ele>362.55</ele>
        <time>2018-09-09T12:15:10Z</time>
      </trkpt>
      <trkpt lat="47.05622" lon="6.227">
        <ele>361.59</ele>
        <time>2018-09-09T12:15:11Z</time>
      </trkpt>
      <trkpt lat="47.05628" lon="6.227">
        <ele>360.63</ele>
        <time>2018-09-09T12:15:13Z</time>
      </trkpt>
      <trkpt lat="47.05645" lon="6.22699">
        <ele>360.15</ele>
        <time>2018-09-09T12:15:19Z</time>
      </trkpt>
      <trkpt lat="47.05649" lon="6.22699">
        <ele>360.15</ele>
        <time>2018-09-09T12:15:20Z</time>
      </trkpt>
      <trkpt lat="47.05653" lon="6.22699">
        <ele>360.15</ele>
        <time>2018-09-09T12:15:21Z</time>
      </trkpt>
      <trkpt lat="47.05656" lon="6.227">
        <ele>360.15</ele>
        <time>2018-09-09T12:15:22Z</time>
      </trkpt>
      <trkpt lat="47.0566" lon="6.22701">
        <ele>360.15</ele>
        <time>2018-09-09T12:15:23Z</time>
      </trkpt>
      <trkpt lat="47.05663" lon="6.22699">
        <ele>360.15</ele>
        <time>2018-09-09T12:15:24Z</time>
      </trkpt>
      <trkpt lat="47.05667" lon="6.22696">
        <ele>359.67</ele>
        <time>2018-09-09T12:15:25Z</time>
      </trkpt>
      <trkpt lat="47.05671" lon="6.22694">
        <ele>359.67</ele>
        <time>2018-09-09T12:15:26Z</time>
      </trkpt>
      <trkpt lat="47.05682" lon="6.22688">
        <ele>359.67</ele>
        <time>2018-09-09T12:15:29Z</time>
      </trkpt>
      <trkpt lat="47.05685" lon="6.22684">
        <ele>360.15</ele>
        <time>2018-09-09T12:15:30Z</time>
      </trkpt>
      <trkpt lat="47.05687" lon="6.22681">
        <ele>359.67</ele>
        <time>2018-09-09T12:15:31Z</time>
      </trkpt>
      <trkpt lat="47.05696" lon="6.22659">
        <ele>359.67</ele>
        <time>2018-09-09T12:15:36Z</time>
      </trkpt>
      <trkpt lat="47.05701" lon="6.22651">
        <ele>359.67</ele>
        <time>2018-09-09T12:15:47Z</time>
      </trkpt>
      <trkpt lat="47.05703" lon="6.22643">
        <ele>359.67</ele>
        <time>2018-09-09T12:15:59Z</time>
      </trkpt>
      <trkpt lat="47.05702" lon="6.22621">
        <ele>359.19</ele>
        <time>2018-09-09T12:16:07Z</time>
      </trkpt>
      <trkpt lat="47.05696" lon="6.22604">
        <ele>359.19</ele>
        <time>2018-09-09T12:16:12Z</time>
      </trkpt>
      <trkpt lat="47.05697" lon="6.2258">
        <ele>359.19</ele>
        <time>2018-09-09T12:16:18Z</time>
      </trkpt>
      <trkpt lat="47.05701" lon="6.22568">
        <ele>359.19</ele>
        <time>2018-09-09T12:16:21Z</time>
      </trkpt>
      <trkpt lat="47.05704" lon="6.22552">
        <ele>361.11</ele>
        <time>2018-09-09T12:16:26Z</time>
      </trkpt>
      <trkpt lat="47.05703" lon="6.22525">
        <ele>364.96</ele>
        <time>2018-09-09T12:16:38Z</time>
      </trkpt>
      <trkpt lat="47.05704" lon="6.22524">
        <ele>365.44</ele>
        <time>2018-09-09T12:16:39Z</time>
      </trkpt>
      <trkpt lat="47.05705" lon="6.2252">
        <ele>366.4</ele>
        <time>2018-09-09T12:16:42Z</time>
      </trkpt>
      <trkpt lat="47.05705" lon="6.22514">
        <ele>366.4</ele>
        <time>2018-09-09T12:16:45Z</time>
      </trkpt>
      <trkpt lat="47.05707" lon="6.22497">
        <ele>367.36</ele>
        <time>2018-09-09T12:16:50Z</time>
      </trkpt>
      <trkpt lat="47.05712" lon="6.2247">
        <ele>367.84</ele>
        <time>2018-09-09T12:16:57Z</time>
      </trkpt>
      <trkpt lat="47.05744" lon="6.22427">
        <ele>366.88</ele>
        <time>2018-09-09T12:17:09Z</time>
      </trkpt>
      <trkpt lat="47.05759" lon="6.22407">
        <ele>366.88</ele>
        <time>2018-09-09T12:17:14Z</time>
      </trkpt>
      <trkpt lat="47.05787" lon="6.22368">
        <ele>366.88</ele>
        <time>2018-09-09T12:17:23Z</time>
      </trkpt>
      <trkpt lat="47.05791" lon="6.22365">
        <ele>366.88</ele>
        <time>2018-09-09T12:17:24Z</time>
      </trkpt>
      <trkpt lat="47.05801" lon="6.22355">
        <ele>366.88</ele>
        <time>2018-09-09T12:17:27Z</time>
      </trkpt>
      <trkpt lat="47.05809" lon="6.22349">
        <ele>367.36</ele>
        <time>2018-09-09T12:17:29Z</time>
      </trkpt>
      <trkpt lat="47.0582" lon="6.22341">
        <ele>366.88</ele>
        <time>2018-09-09T12:17:32Z</time>
      </trkpt>
      <trkpt lat="47.05824" lon="6.22338">
        <ele>366.88</ele>
        <time>2018-09-09T12:17:33Z</time>
      </trkpt>
      <trkpt lat="47.05829" lon="6.22336">
        <ele>366.88</ele>
        <time>2018-09-09T12:17:34Z</time>
      </trkpt>
      <trkpt lat="47.05864" lon="6.22319">
        <ele>366.88</ele>
        <time>2018-09-09T12:17:42Z</time>
      </trkpt>
      <trkpt lat="47.05869" lon="6.22317">
        <ele>366.88</ele>
        <time>2018-09-09T12:17:43Z</time>
      </trkpt>
      <trkpt lat="47.05898" lon="6.22309">
        <ele>366.88</ele>
        <time>2018-09-09T12:17:49Z</time>
      </trkpt>
      <trkpt lat="47.05913" lon="6.22307">
        <ele>366.88</ele>
        <time>2018-09-09T12:17:52Z</time>
      </trkpt>
      <trkpt lat="47.0596" lon="6.22304">
        <ele>366.4</ele>
        <time>2018-09-09T12:18:01Z</time>
      </trkpt>
      <trkpt lat="47.05965" lon="6.22302">
        <ele>366.4</ele>
        <time>2018-09-09T12:18:02Z</time>
      </trkpt>
      <trkpt lat="47.05975" lon="6.223">
        <ele>366.4</ele>
        <time>2018-09-09T12:18:04Z</time>
      </trkpt>
      <trkpt lat="47.05981" lon="6.223">
        <ele>366.4</ele>
        <time>2018-09-09T12:18:05Z</time>
      </trkpt>
      <trkpt lat="47.06036" lon="6.22298">
        <ele>365.44</ele>
        <time>2018-09-09T12:18:15Z</time>
      </trkpt>
      <trkpt lat="47.06047" lon="6.22297">
        <ele>365.44</ele>
        <time>2018-09-09T12:18:17Z</time>
      </trkpt>
      <trkpt lat="47.06086" lon="6.22293">
        <ele>364.96</ele>
        <time>2018-09-09T12:18:24Z</time>
      </trkpt>
      <trkpt lat="47.0611" lon="6.22286">
        <ele>364.48</ele>
        <time>2018-09-09T12:18:28Z</time>
      </trkpt>
      <trkpt lat="47.06139" lon="6.22272">
        <ele>364.48</ele>
        <time>2018-09-09T12:18:33Z</time>
      </trkpt>
      <trkpt lat="47.06145" lon="6.22268">
        <ele>364</ele>
        <time>2018-09-09T12:18:34Z</time>
      </trkpt>
      <trkpt lat="47.0616" lon="6.22254">
        <ele>364</ele>
        <time>2018-09-09T12:18:37Z</time>
      </trkpt>
      <trkpt lat="47.06166" lon="6.2225">
        <ele>364</ele>
        <time>2018-09-09T12:18:38Z</time>
      </trkpt>
      <trkpt lat="47.06185" lon="6.22233">
        <ele>363.52</ele>
        <time>2018-09-09T12:18:42Z</time>
      </trkpt>
      <trkpt lat="47.06229" lon="6.22178">
        <ele>363.52</ele>
        <time>2018-09-09T12:18:52Z</time>
      </trkpt>
      <trkpt lat="47.06234" lon="6.22172">
        <ele>363.52</ele>
        <time>2018-09-09T12:18:53Z</time>
      </trkpt>
      <trkpt lat="47.06266" lon="6.22106">
        <ele>363.04</ele>
        <time>2018-09-09T12:19:02Z</time>
      </trkpt>
      <trkpt lat="47.06269" lon="6.22099">
        <ele>363.04</ele>
        <time>2018-09-09T12:19:03Z</time>
      </trkpt>
      <trkpt lat="47.06271" lon="6.22091">
        <ele>363.04</ele>
        <time>2018-09-09T12:19:04Z</time>
      </trkpt>
      <trkpt lat="47.0628" lon="6.2206">
        <ele>362.55</ele>
        <time>2018-09-09T12:19:08Z</time>
      </trkpt>
      <trkpt lat="47.06283" lon="6.22052">
        <ele>363.04</ele>
        <time>2018-09-09T12:19:09Z</time>
      </trkpt>
      <trkpt lat="47.06294" lon="6.22014">
        <ele>363.04</ele>
        <time>2018-09-09T12:19:14Z</time>
      </trkpt>
      <trkpt lat="47.06304" lon="6.21886">
        <ele>360.63</ele>
        <time>2018-09-09T12:19:28Z</time>
      </trkpt>
      <trkpt lat="47.06295" lon="6.21715">
        <ele>359.67</ele>
        <time>2018-09-09T12:19:46Z</time>
      </trkpt>
      <trkpt lat="47.06305" lon="6.21584">
        <ele>358.71</ele>
        <time>2018-09-09T12:19:59Z</time>
      </trkpt>
      <trkpt lat="47.06344" lon="6.21436">
        <ele>357.75</ele>
        <time>2018-09-09T12:20:14Z</time>
      </trkpt>
      <trkpt lat="47.06378" lon="6.21317">
        <ele>357.75</ele>
        <time>2018-09-09T12:20:27Z</time>
      </trkpt>
      <trkpt lat="47.06414" lon="6.21194">
        <ele>357.27</ele>
        <time>2018-09-09T12:20:41Z</time>
      </trkpt>
      <trkpt lat="47.06452" lon="6.21055">
        <ele>357.27</ele>
        <time>2018-09-09T12:20:57Z</time>
      </trkpt>
      <trkpt lat="47.0649" lon="6.20923">
        <ele>357.27</ele>
        <time>2018-09-09T12:21:12Z</time>
      </trkpt>
      <trkpt lat="47.06533" lon="6.20784">
        <ele>356.79</ele>
        <time>2018-09-09T12:21:28Z</time>
      </trkpt>
      <trkpt lat="47.06551" lon="6.20742">
        <ele>356.79</ele>
        <time>2018-09-09T12:21:33Z</time>
      </trkpt>
      <trkpt lat="47.06604" lon="6.20653">
        <ele>356.31</ele>
        <time>2018-09-09T12:21:45Z</time>
      </trkpt>
      <trkpt lat="47.06691" lon="6.20576">
        <ele>357.27</ele>
        <time>2018-09-09T12:22:01Z</time>
      </trkpt>
      <trkpt lat="47.06748" lon="6.20542">
        <ele>357.27</ele>
        <time>2018-09-09T12:22:11Z</time>
      </trkpt>
      <trkpt lat="47.06758" lon="6.20538">
        <ele>357.27</ele>
        <time>2018-09-09T12:22:13Z</time>
      </trkpt>
      <trkpt lat="47.06782" lon="6.2053">
        <ele>356.79</ele>
        <time>2018-09-09T12:22:18Z</time>
      </trkpt>
      <trkpt lat="47.06787" lon="6.20528">
        <ele>355.83</ele>
        <time>2018-09-09T12:22:19Z</time>
      </trkpt>
      <trkpt lat="47.06864" lon="6.20492">
        <ele>355.83</ele>
        <time>2018-09-09T12:22:33Z</time>
      </trkpt>
      <trkpt lat="47.06935" lon="6.20458">
        <ele>355.83</ele>
        <time>2018-09-09T12:22:46Z</time>
      </trkpt>
      <trkpt lat="47.06946" lon="6.20452">
        <ele>356.31</ele>
        <time>2018-09-09T12:22:48Z</time>
      </trkpt>
      <trkpt lat="47.06951" lon="6.20449">
        <ele>355.83</ele>
        <time>2018-09-09T12:22:49Z</time>
      </trkpt>
      <trkpt lat="47.07027" lon="6.20408">
        <ele>353.9</ele>
        <time>2018-09-09T12:23:02Z</time>
      </trkpt>
      <trkpt lat="47.071" lon="6.20352">
        <ele>352.46</ele>
        <time>2018-09-09T12:23:14Z</time>
      </trkpt>
      <trkpt lat="47.07123" lon="6.20333">
        <ele>352.46</ele>
        <time>2018-09-09T12:23:18Z</time>
      </trkpt>
      <trkpt lat="47.07128" lon="6.20328">
        <ele>352.46</ele>
        <time>2018-09-09T12:23:19Z</time>
      </trkpt>
      <trkpt lat="47.07133" lon="6.20321">
        <ele>352.46</ele>
        <time>2018-09-09T12:23:20Z</time>
      </trkpt>
      <trkpt lat="47.07173" lon="6.20245">
        <ele>351.98</ele>
        <time>2018-09-09T12:23:30Z</time>
      </trkpt>
      <trkpt lat="47.07204" lon="6.20125">
        <ele>349.1</ele>
        <time>2018-09-09T12:23:42Z</time>
      </trkpt>
      <trkpt lat="47.07212" lon="6.20073">
        <ele>348.62</ele>
        <time>2018-09-09T12:23:47Z</time>
      </trkpt>
      <trkpt lat="47.07213" lon="6.20063">
        <ele>348.62</ele>
        <time>2018-09-09T12:23:48Z</time>
      </trkpt>
      <trkpt lat="47.07215" lon="6.20053">
        <ele>348.62</ele>
        <time>2018-09-09T12:23:49Z</time>
      </trkpt>
      <trkpt lat="47.07217" lon="6.20042">
        <ele>348.62</ele>
        <time>2018-09-09T12:23:50Z</time>
      </trkpt>
      <trkpt lat="47.07219" lon="6.20032">
        <ele>348.62</ele>
        <time>2018-09-09T12:23:51Z</time>
      </trkpt>
      <trkpt lat="47.07237" lon="6.19889">
        <ele>349.1</ele>
        <time>2018-09-09T12:24:05Z</time>
      </trkpt>
      <trkpt lat="47.07252" lon="6.19778">
        <ele>348.13</ele>
        <time>2018-09-09T12:24:16Z</time>
      </trkpt>
      <trkpt lat="47.07267" lon="6.19663">
        <ele>348.62</ele>
        <time>2018-09-09T12:24:28Z</time>
      </trkpt>
      <trkpt lat="47.07267" lon="6.19654">
        <ele>348.62</ele>
        <time>2018-09-09T12:24:29Z</time>
      </trkpt>
      <trkpt lat="47.07265" lon="6.19636">
        <ele>349.1</ele>
        <time>2018-09-09T12:24:31Z</time>
      </trkpt>
      <trkpt lat="47.07278" lon="6.19531">
        <ele>348.62</ele>
        <time>2018-09-09T12:24:43Z</time>
      </trkpt>
      <trkpt lat="47.0728" lon="6.19513">
        <ele>349.1</ele>
        <time>2018-09-09T12:24:45Z</time>
      </trkpt>
      <trkpt lat="47.07285" lon="6.19488">
        <ele>348.62</ele>
        <time>2018-09-09T12:24:48Z</time>
      </trkpt>
      <trkpt lat="47.07287" lon="6.19479">
        <ele>348.62</ele>
        <time>2018-09-09T12:24:49Z</time>
      </trkpt>
      <trkpt lat="47.07292" lon="6.19451">
        <ele>348.62</ele>
        <time>2018-09-09T12:24:52Z</time>
      </trkpt>
      <trkpt lat="47.07305" lon="6.19353">
        <ele>349.1</ele>
        <time>2018-09-09T12:25:02Z</time>
      </trkpt>
      <trkpt lat="47.07304" lon="6.19343">
        <ele>349.1</ele>
        <time>2018-09-09T12:25:03Z</time>
      </trkpt>
      <trkpt lat="47.07301" lon="6.19335">
        <ele>349.1</ele>
        <time>2018-09-09T12:25:04Z</time>
      </trkpt>
      <trkpt lat="47.07297" lon="6.19328">
        <ele>349.1</ele>
        <time>2018-09-09T12:25:05Z</time>
      </trkpt>
      <trkpt lat="47.07292" lon="6.19321">
        <ele>349.1</ele>
        <time>2018-09-09T12:25:06Z</time>
      </trkpt>
      <trkpt lat="47.07288" lon="6.19315">
        <ele>349.1</ele>
        <time>2018-09-09T12:25:07Z</time>
      </trkpt>
      <trkpt lat="47.07284" lon="6.19307">
        <ele>349.58</ele>
        <time>2018-09-09T12:25:08Z</time>
      </trkpt>
      <trkpt lat="47.07281" lon="6.193">
        <ele>349.58</ele>
        <time>2018-09-09T12:25:09Z</time>
      </trkpt>
      <trkpt lat="47.07279" lon="6.19292">
        <ele>349.58</ele>
        <time>2018-09-09T12:25:10Z</time>
      </trkpt>
      <trkpt lat="47.07277" lon="6.19285">
        <ele>349.58</ele>
        <time>2018-09-09T12:25:11Z</time>
      </trkpt>
      <trkpt lat="47.07275" lon="6.19277">
        <ele>350.06</ele>
        <time>2018-09-09T12:25:12Z</time>
      </trkpt>
      <trkpt lat="47.07274" lon="6.19268">
        <ele>350.06</ele>
        <time>2018-09-09T12:25:13Z</time>
      </trkpt>
      <trkpt lat="47.07273" lon="6.1926">
        <ele>350.54</ele>
        <time>2018-09-09T12:25:14Z</time>
      </trkpt>
      <trkpt lat="47.07274" lon="6.19251">
        <ele>350.54</ele>
        <time>2018-09-09T12:25:15Z</time>
      </trkpt>
      <trkpt lat="47.07277" lon="6.19243">
        <ele>351.5</ele>
        <time>2018-09-09T12:25:16Z</time>
      </trkpt>
      <trkpt lat="47.0728" lon="6.19237">
        <ele>351.5</ele>
        <time>2018-09-09T12:25:17Z</time>
      </trkpt>
      <trkpt lat="47.07284" lon="6.19231">
        <ele>351.98</ele>
        <time>2018-09-09T12:25:18Z</time>
      </trkpt>
      <trkpt lat="47.07289" lon="6.19226">
        <ele>351.98</ele>
        <time>2018-09-09T12:25:19Z</time>
      </trkpt>
      <trkpt lat="47.07294" lon="6.1922">
        <ele>351.5</ele>
        <time>2018-09-09T12:25:20Z</time>
      </trkpt>
      <trkpt lat="47.07298" lon="6.19212">
        <ele>351.02</ele>
        <time>2018-09-09T12:25:21Z</time>
      </trkpt>
      <trkpt lat="47.07302" lon="6.19204">
        <ele>350.06</ele>
        <time>2018-09-09T12:25:22Z</time>
      </trkpt>
      <trkpt lat="47.07306" lon="6.19196">
        <ele>350.06</ele>
        <time>2018-09-09T12:25:23Z</time>
      </trkpt>
      <trkpt lat="47.07347" lon="6.19098">
        <ele>347.65</ele>
        <time>2018-09-09T12:25:35Z</time>
      </trkpt>
      <trkpt lat="47.0735" lon="6.19091">
        <ele>347.65</ele>
        <time>2018-09-09T12:25:36Z</time>
      </trkpt>
      <trkpt lat="47.07353" lon="6.19084">
        <ele>348.13</ele>
        <time>2018-09-09T12:25:37Z</time>
      </trkpt>
      <trkpt lat="47.07357" lon="6.19077">
        <ele>348.13</ele>
        <time>2018-09-09T12:25:38Z</time>
      </trkpt>
      <trkpt lat="47.0736" lon="6.1907">
        <ele>348.13</ele>
        <time>2018-09-09T12:25:39Z</time>
      </trkpt>
      <trkpt lat="47.07369" lon="6.19057">
        <ele>347.65</ele>
        <time>2018-09-09T12:25:41Z</time>
      </trkpt>
      <trkpt lat="47.07373" lon="6.19051">
        <ele>347.65</ele>
        <time>2018-09-09T12:25:42Z</time>
      </trkpt>
      <trkpt lat="47.07377" lon="6.19044">
        <ele>347.65</ele>
        <time>2018-09-09T12:25:43Z</time>
      </trkpt>
      <trkpt lat="47.07386" lon="6.19031">
        <ele>348.13</ele>
        <time>2018-09-09T12:25:45Z</time>
      </trkpt>
      <trkpt lat="47.07443" lon="6.18964">
        <ele>348.62</ele>
        <time>2018-09-09T12:25:57Z</time>
      </trkpt>
      <trkpt lat="47.07505" lon="6.18893">
        <ele>348.62</ele>
        <time>2018-09-09T12:26:09Z</time>
      </trkpt>
      <trkpt lat="47.07525" lon="6.18857">
        <ele>349.1</ele>
        <time>2018-09-09T12:26:14Z</time>
      </trkpt>
      <trkpt lat="47.07555" lon="6.18804">
        <ele>349.1</ele>
        <time>2018-09-09T12:26:22Z</time>
      </trkpt>
      <trkpt lat="47.07568" lon="6.1879">
        <ele>350.06</ele>
        <time>2018-09-09T12:26:25Z</time>
      </trkpt>
      <trkpt lat="47.07583" lon="6.18781">
        <ele>351.5</ele>
        <time>2018-09-09T12:26:28Z</time>
      </trkpt>
      <trkpt lat="47.07588" lon="6.18777">
        <ele>351.98</ele>
        <time>2018-09-09T12:26:29Z</time>
      </trkpt>
      <trkpt lat="47.07592" lon="6.18772">
        <ele>351.98</ele>
        <time>2018-09-09T12:26:30Z</time>
      </trkpt>
      <trkpt lat="47.07616" lon="6.1874">
        <ele>354.38</ele>
        <time>2018-09-09T12:26:36Z</time>
      </trkpt>
      <trkpt lat="47.07624" lon="6.18731">
        <ele>354.86</ele>
        <time>2018-09-09T12:26:38Z</time>
      </trkpt>
      <trkpt lat="47.07628" lon="6.18727">
        <ele>354.86</ele>
        <time>2018-09-09T12:26:39Z</time>
      </trkpt>
      <trkpt lat="47.07644" lon="6.18717">
        <ele>354.86</ele>
        <time>2018-09-09T12:26:42Z</time>
      </trkpt>
      <trkpt lat="47.0765" lon="6.18714">
        <ele>354.38</ele>
        <time>2018-09-09T12:26:43Z</time>
      </trkpt>
      <trkpt lat="47.07737" lon="6.18688">
        <ele>351.5</ele>
        <time>2018-09-09T12:26:57Z</time>
      </trkpt>
      <trkpt lat="47.07801" lon="6.18673">
        <ele>348.13</ele>
        <time>2018-09-09T12:27:05Z</time>
      </trkpt>
      <trkpt lat="47.07906" lon="6.18646">
        <ele>346.69</ele>
        <time>2018-09-09T12:27:19Z</time>
      </trkpt>
      <trkpt lat="47.07925" lon="6.18641">
        <ele>347.17</ele>
        <time>2018-09-09T12:27:22Z</time>
      </trkpt>
      <trkpt lat="47.07951" lon="6.18635">
        <ele>347.65</ele>
        <time>2018-09-09T12:27:26Z</time>
      </trkpt>
      <trkpt lat="47.07957" lon="6.18636">
        <ele>347.65</ele>
        <time>2018-09-09T12:27:27Z</time>
      </trkpt>
      <trkpt lat="47.07963" lon="6.18638">
        <ele>347.65</ele>
        <time>2018-09-09T12:27:28Z</time>
      </trkpt>
      <trkpt lat="47.07968" lon="6.18642">
        <ele>347.65</ele>
        <time>2018-09-09T12:27:29Z</time>
      </trkpt>
      <trkpt lat="47.07973" lon="6.18647">
        <ele>348.13</ele>
        <time>2018-09-09T12:27:30Z</time>
      </trkpt>
      <trkpt lat="47.07978" lon="6.18653">
        <ele>348.13</ele>
        <time>2018-09-09T12:27:31Z</time>
      </trkpt>
      <trkpt lat="47.07983" lon="6.18657">
        <ele>348.13</ele>
        <time>2018-09-09T12:27:32Z</time>
      </trkpt>
      <trkpt lat="47.07988" lon="6.18661">
        <ele>348.13</ele>
        <time>2018-09-09T12:27:33Z</time>
      </trkpt>
      <trkpt lat="47.07994" lon="6.18662">
        <ele>348.13</ele>
        <time>2018-09-09T12:27:34Z</time>
      </trkpt>
      <trkpt lat="47.08" lon="6.18661">
        <ele>348.13</ele>
        <time>2018-09-09T12:27:35Z</time>
      </trkpt>
      <trkpt lat="47.08005" lon="6.18658">
        <ele>348.13</ele>
        <time>2018-09-09T12:27:36Z</time>
      </trkpt>
      <trkpt lat="47.08011" lon="6.18655">
        <ele>348.13</ele>
        <time>2018-09-09T12:27:37Z</time>
      </trkpt>
      <trkpt lat="47.08037" lon="6.1864">
        <ele>348.62</ele>
        <time>2018-09-09T12:27:42Z</time>
      </trkpt>
      <trkpt lat="47.0804" lon="6.18635">
        <ele>348.62</ele>
        <time>2018-09-09T12:27:43Z</time>
      </trkpt>
      <trkpt lat="47.08043" lon="6.1863">
        <ele>348.62</ele>
        <time>2018-09-09T12:27:44Z</time>
      </trkpt>
      <trkpt lat="47.08046" lon="6.18623">
        <ele>348.13</ele>
        <time>2018-09-09T12:27:45Z</time>
      </trkpt>
      <trkpt lat="47.0805" lon="6.18618">
        <ele>347.65</ele>
        <time>2018-09-09T12:27:46Z</time>
      </trkpt>
      <trkpt lat="47.08053" lon="6.18613">
        <ele>348.13</ele>
        <time>2018-09-09T12:27:47Z</time>
      </trkpt>
      <trkpt lat="47.08056" lon="6.18607">
        <ele>347.65</ele>
        <time>2018-09-09T12:27:48Z</time>
      </trkpt>
      <trkpt lat="47.0806" lon="6.18602">
        <ele>347.65</ele>
        <time>2018-09-09T12:27:49Z</time>
      </trkpt>
      <trkpt lat="47.08077" lon="6.18581">
        <ele>347.65</ele>
        <time>2018-09-09T12:27:53Z</time>
      </trkpt>
      <trkpt lat="47.08081" lon="6.18574">
        <ele>347.65</ele>
        <time>2018-09-09T12:27:54Z</time>
      </trkpt>
      <trkpt lat="47.08092" lon="6.18543">
        <ele>347.65</ele>
        <time>2018-09-09T12:27:58Z</time>
      </trkpt>
      <trkpt lat="47.08142" lon="6.18448">
        <ele>346.69</ele>
        <time>2018-09-09T12:28:12Z</time>
      </trkpt>
      <trkpt lat="47.08146" lon="6.1844">
        <ele>346.69</ele>
        <time>2018-09-09T12:28:13Z</time>
      </trkpt>
      <trkpt lat="47.08178" lon="6.18373">
        <ele>346.21</ele>
        <time>2018-09-09T12:28:21Z</time>
      </trkpt>
      <trkpt lat="47.08184" lon="6.18368">
        <ele>346.21</ele>
        <time>2018-09-09T12:28:22Z</time>
      </trkpt>
      <trkpt lat="47.08189" lon="6.18365">
        <ele>346.69</ele>
        <time>2018-09-09T12:28:23Z</time>
      </trkpt>
      <trkpt lat="47.08202" lon="6.18362">
        <ele>347.17</ele>
        <time>2018-09-09T12:28:25Z</time>
      </trkpt>
      <trkpt lat="47.08208" lon="6.18358">
        <ele>347.17</ele>
        <time>2018-09-09T12:28:26Z</time>
      </trkpt>
      <trkpt lat="47.08213" lon="6.18352">
        <ele>346.69</ele>
        <time>2018-09-09T12:28:27Z</time>
      </trkpt>
      <trkpt lat="47.08218" lon="6.18347">
        <ele>346.69</ele>
        <time>2018-09-09T12:28:28Z</time>
      </trkpt>
      <trkpt lat="47.08223" lon="6.18341">
        <ele>346.69</ele>
        <time>2018-09-09T12:28:29Z</time>
      </trkpt>
      <trkpt lat="47.08228" lon="6.18336">
        <ele>346.69</ele>
        <time>2018-09-09T12:28:30Z</time>
      </trkpt>
      <trkpt lat="47.08242" lon="6.18322">
        <ele>346.69</ele>
        <time>2018-09-09T12:28:33Z</time>
      </trkpt>
      <trkpt lat="47.08258" lon="6.18309">
        <ele>346.69</ele>
        <time>2018-09-09T12:28:36Z</time>
      </trkpt>
      <trkpt lat="47.08263" lon="6.18305">
        <ele>347.17</ele>
        <time>2018-09-09T12:28:37Z</time>
      </trkpt>
      <trkpt lat="47.08328" lon="6.18267">
        <ele>347.65</ele>
        <time>2018-09-09T12:28:48Z</time>
      </trkpt>
      <trkpt lat="47.08368" lon="6.18244">
        <ele>346.21</ele>
        <time>2018-09-09T12:28:55Z</time>
      </trkpt>
      <trkpt lat="47.08432" lon="6.18208">
        <ele>346.21</ele>
        <time>2018-09-09T12:29:06Z</time>
      </trkpt>
      <trkpt lat="47.08501" lon="6.18171">
        <ele>345.73</ele>
        <time>2018-09-09T12:29:17Z</time>
      </trkpt>
      <trkpt lat="47.08513" lon="6.18163">
        <ele>345.73</ele>
        <time>2018-09-09T12:29:19Z</time>
      </trkpt>
      <trkpt lat="47.08587" lon="6.18122">
        <ele>344.77</ele>
        <time>2018-09-09T12:29:30Z</time>
      </trkpt>
      <trkpt lat="47.08649" lon="6.18079">
        <ele>344.77</ele>
        <time>2018-09-09T12:29:40Z</time>
      </trkpt>
      <trkpt lat="47.08713" lon="6.18029">
        <ele>343.81</ele>
        <time>2018-09-09T12:29:49Z</time>
      </trkpt>
      <trkpt lat="47.0877" lon="6.17958">
        <ele>343.81</ele>
        <time>2018-09-09T12:29:59Z</time>
      </trkpt>
      <trkpt lat="47.08783" lon="6.17935">
        <ele>343.81</ele>
        <time>2018-09-09T12:30:02Z</time>
      </trkpt>
      <trkpt lat="47.08838" lon="6.17831">
        <ele>343.81</ele>
        <time>2018-09-09T12:30:15Z</time>
      </trkpt>
      <trkpt lat="47.08868" lon="6.17768">
        <ele>343.33</ele>
        <time>2018-09-09T12:30:22Z</time>
      </trkpt>
      <trkpt lat="47.08872" lon="6.17758">
        <ele>343.33</ele>
        <time>2018-09-09T12:30:23Z</time>
      </trkpt>
      <trkpt lat="47.08876" lon="6.1775">
        <ele>343.81</ele>
        <time>2018-09-09T12:30:24Z</time>
      </trkpt>
      <trkpt lat="47.08881" lon="6.17741">
        <ele>343.33</ele>
        <time>2018-09-09T12:30:25Z</time>
      </trkpt>
      <trkpt lat="47.08885" lon="6.17731">
        <ele>343.81</ele>
        <time>2018-09-09T12:30:26Z</time>
      </trkpt>
      <trkpt lat="47.08929" lon="6.17627">
        <ele>343.33</ele>
        <time>2018-09-09T12:30:37Z</time>
      </trkpt>
      <trkpt lat="47.08968" lon="6.1753">
        <ele>344.77</ele>
        <time>2018-09-09T12:30:48Z</time>
      </trkpt>
      <trkpt lat="47.08986" lon="6.17496">
        <ele>344.77</ele>
        <time>2018-09-09T12:30:52Z</time>
      </trkpt>
      <trkpt lat="47.09013" lon="6.17458">
        <ele>344.77</ele>
        <time>2018-09-09T12:30:57Z</time>
      </trkpt>
      <trkpt lat="47.09059" lon="6.17389">
        <ele>344.29</ele>
        <time>2018-09-09T12:31:06Z</time>
      </trkpt>
      <trkpt lat="47.09105" lon="6.17318">
        <ele>343.81</ele>
        <time>2018-09-09T12:31:15Z</time>
      </trkpt>
      <trkpt lat="47.09132" lon="6.17279">
        <ele>343.81</ele>
        <time>2018-09-09T12:31:20Z</time>
      </trkpt>
      <trkpt lat="47.09137" lon="6.17271">
        <ele>344.29</ele>
        <time>2018-09-09T12:31:21Z</time>
      </trkpt>
      <trkpt lat="47.09142" lon="6.17263">
        <ele>344.29</ele>
        <time>2018-09-09T12:31:22Z</time>
      </trkpt>
      <trkpt lat="47.09186" lon="6.172">
        <ele>343.33</ele>
        <time>2018-09-09T12:31:30Z</time>
      </trkpt>
      <trkpt lat="47.0919" lon="6.1719">
        <ele>343.81</ele>
        <time>2018-09-09T12:31:31Z</time>
      </trkpt>
      <trkpt lat="47.09193" lon="6.1718">
        <ele>343.81</ele>
        <time>2018-09-09T12:31:32Z</time>
      </trkpt>
      <trkpt lat="47.09216" lon="6.17066">
        <ele>343.33</ele>
        <time>2018-09-09T12:31:44Z</time>
      </trkpt>
      <trkpt lat="47.09219" lon="6.17058">
        <ele>343.81</ele>
        <time>2018-09-09T12:31:45Z</time>
      </trkpt>
      <trkpt lat="47.09222" lon="6.17052">
        <ele>343.81</ele>
        <time>2018-09-09T12:31:46Z</time>
      </trkpt>
      <trkpt lat="47.09227" lon="6.1704">
        <ele>343.81</ele>
        <time>2018-09-09T12:31:48Z</time>
      </trkpt>
      <trkpt lat="47.0923" lon="6.17034">
        <ele>343.81</ele>
        <time>2018-09-09T12:31:49Z</time>
      </trkpt>
      <trkpt lat="47.09233" lon="6.17028">
        <ele>343.81</ele>
        <time>2018-09-09T12:31:50Z</time>
      </trkpt>
      <trkpt lat="47.09268" lon="6.16929">
        <ele>344.77</ele>
        <time>2018-09-09T12:32:06Z</time>
      </trkpt>
      <trkpt lat="47.09282" lon="6.16888">
        <ele>344.77</ele>
        <time>2018-09-09T12:32:12Z</time>
      </trkpt>
      <trkpt lat="47.09286" lon="6.16882">
        <ele>344.77</ele>
        <time>2018-09-09T12:32:13Z</time>
      </trkpt>
      <trkpt lat="47.0929" lon="6.16877">
        <ele>344.77</ele>
        <time>2018-09-09T12:32:14Z</time>
      </trkpt>
      <trkpt lat="47.09299" lon="6.16868">
        <ele>344.29</ele>
        <time>2018-09-09T12:32:16Z</time>
      </trkpt>
      <trkpt lat="47.09303" lon="6.16863">
        <ele>344.29</ele>
        <time>2018-09-09T12:32:17Z</time>
      </trkpt>
      <trkpt lat="47.09307" lon="6.16859">
        <ele>344.29</ele>
        <time>2018-09-09T12:32:18Z</time>
      </trkpt>
      <trkpt lat="47.09312" lon="6.16855">
        <ele>344.29</ele>
        <time>2018-09-09T12:32:19Z</time>
      </trkpt>
      <trkpt lat="47.09316" lon="6.16851">
        <ele>344.29</ele>
        <time>2018-09-09T12:32:20Z</time>
      </trkpt>
      <trkpt lat="47.09325" lon="6.16843">
        <ele>344.29</ele>
        <time>2018-09-09T12:32:22Z</time>
      </trkpt>
      <trkpt lat="47.09346" lon="6.16814">
        <ele>344.29</ele>
        <time>2018-09-09T12:32:28Z</time>
      </trkpt>
      <trkpt lat="47.0935" lon="6.16809">
        <ele>344.29</ele>
        <time>2018-09-09T12:32:29Z</time>
      </trkpt>
      <trkpt lat="47.09353" lon="6.16805">
        <ele>344.29</ele>
        <time>2018-09-09T12:32:30Z</time>
      </trkpt>
      <trkpt lat="47.09357" lon="6.16801">
        <ele>344.29</ele>
        <time>2018-09-09T12:32:31Z</time>
      </trkpt>
      <trkpt lat="47.09361" lon="6.16799">
        <ele>344.77</ele>
        <time>2018-09-09T12:32:32Z</time>
      </trkpt>
      <trkpt lat="47.09365" lon="6.16796">
        <ele>344.77</ele>
        <time>2018-09-09T12:32:33Z</time>
      </trkpt>
      <trkpt lat="47.09369" lon="6.16792">
        <ele>344.77</ele>
        <time>2018-09-09T12:32:34Z</time>
      </trkpt>
      <trkpt lat="47.09379" lon="6.1678">
        <ele>345.25</ele>
        <time>2018-09-09T12:32:37Z</time>
      </trkpt>
      <trkpt lat="47.09383" lon="6.16779">
        <ele>345.25</ele>
        <time>2018-09-09T12:32:38Z</time>
      </trkpt>
      <trkpt lat="47.09388" lon="6.16781">
        <ele>344.77</ele>
        <time>2018-09-09T12:32:39Z</time>
      </trkpt>
      <trkpt lat="47.09396" lon="6.16787">
        <ele>344.77</ele>
        <time>2018-09-09T12:32:41Z</time>
      </trkpt>
      <trkpt lat="47.094" lon="6.16792">
        <ele>344.29</ele>
        <time>2018-09-09T12:32:42Z</time>
      </trkpt>
      <trkpt lat="47.09454" lon="6.16851">
        <ele>343.81</ele>
        <time>2018-09-09T12:32:55Z</time>
      </trkpt>
      <trkpt lat="47.09476" lon="6.16875">
        <ele>343.33</ele>
        <time>2018-09-09T12:33:00Z</time>
      </trkpt>
      <trkpt lat="47.09481" lon="6.16878">
        <ele>342.85</ele>
        <time>2018-09-09T12:33:01Z</time>
      </trkpt>
      <trkpt lat="47.09487" lon="6.16877">
        <ele>342.85</ele>
        <time>2018-09-09T12:33:02Z</time>
      </trkpt>
      <trkpt lat="47.09492" lon="6.16874">
        <ele>342.85</ele>
        <time>2018-09-09T12:33:03Z</time>
      </trkpt>
      <trkpt lat="47.09496" lon="6.1687">
        <ele>343.33</ele>
        <time>2018-09-09T12:33:04Z</time>
      </trkpt>
      <trkpt lat="47.09501" lon="6.16866">
        <ele>343.33</ele>
        <time>2018-09-09T12:33:05Z</time>
      </trkpt>
      <trkpt lat="47.09552" lon="6.16812">
        <ele>341.89</ele>
        <time>2018-09-09T12:33:17Z</time>
      </trkpt>
      <trkpt lat="47.09561" lon="6.16804">
        <ele>342.37</ele>
        <time>2018-09-09T12:33:19Z</time>
      </trkpt>
      <trkpt lat="47.09566" lon="6.16799">
        <ele>341.89</ele>
        <time>2018-09-09T12:33:20Z</time>
      </trkpt>
      <trkpt lat="47.09574" lon="6.1679">
        <ele>342.37</ele>
        <time>2018-09-09T12:33:22Z</time>
      </trkpt>
      <trkpt lat="47.09579" lon="6.16785">
        <ele>342.37</ele>
        <time>2018-09-09T12:33:23Z</time>
      </trkpt>
      <trkpt lat="47.09583" lon="6.1678">
        <ele>341.89</ele>
        <time>2018-09-09T12:33:24Z</time>
      </trkpt>
      <trkpt lat="47.09633" lon="6.16729">
        <ele>341.41</ele>
        <time>2018-09-09T12:33:35Z</time>
      </trkpt>
      <trkpt lat="47.09637" lon="6.16724">
        <ele>341.41</ele>
        <time>2018-09-09T12:33:36Z</time>
      </trkpt>
      <trkpt lat="47.09699" lon="6.16663">
        <ele>341.89</ele>
        <time>2018-09-09T12:33:50Z</time>
      </trkpt>
      <trkpt lat="47.09703" lon="6.16659">
        <ele>341.89</ele>
        <time>2018-09-09T12:33:51Z</time>
      </trkpt>
      <trkpt lat="47.09708" lon="6.16654">
        <ele>341.89</ele>
        <time>2018-09-09T12:33:52Z</time>
      </trkpt>
      <trkpt lat="47.09712" lon="6.16649">
        <ele>341.41</ele>
        <time>2018-09-09T12:33:53Z</time>
      </trkpt>
      <trkpt lat="47.09716" lon="6.16645">
        <ele>341.41</ele>
        <time>2018-09-09T12:33:54Z</time>
      </trkpt>
      <trkpt lat="47.09721" lon="6.1664">
        <ele>341.41</ele>
        <time>2018-09-09T12:33:55Z</time>
      </trkpt>
      <trkpt lat="47.09776" lon="6.16586">
        <ele>341.89</ele>
        <time>2018-09-09T12:34:07Z</time>
      </trkpt>
      <trkpt lat="47.09803" lon="6.16558">
        <ele>341.41</ele>
        <time>2018-09-09T12:34:13Z</time>
      </trkpt>
      <trkpt lat="47.09808" lon="6.16553">
        <ele>341.89</ele>
        <time>2018-09-09T12:34:14Z</time>
      </trkpt>
      <trkpt lat="47.09845" lon="6.16517">
        <ele>341.89</ele>
        <time>2018-09-09T12:34:22Z</time>
      </trkpt>
      <trkpt lat="47.09873" lon="6.16487">
        <ele>341.89</ele>
        <time>2018-09-09T12:34:28Z</time>
      </trkpt>
      <trkpt lat="47.09886" lon="6.16473">
        <ele>341.89</ele>
        <time>2018-09-09T12:34:31Z</time>
      </trkpt>
      <trkpt lat="47.09891" lon="6.16469">
        <ele>341.89</ele>
        <time>2018-09-09T12:34:32Z</time>
      </trkpt>
      <trkpt lat="47.09895" lon="6.16463">
        <ele>341.89</ele>
        <time>2018-09-09T12:34:33Z</time>
      </trkpt>
      <trkpt lat="47.09899" lon="6.16458">
        <ele>341.89</ele>
        <time>2018-09-09T12:34:34Z</time>
      </trkpt>
      <trkpt lat="47.09904" lon="6.16453">
        <ele>341.89</ele>
        <time>2018-09-09T12:34:35Z</time>
      </trkpt>
      <trkpt lat="47.09909" lon="6.16449">
        <ele>341.89</ele>
        <time>2018-09-09T12:34:36Z</time>
      </trkpt>
      <trkpt lat="47.09913" lon="6.16444">
        <ele>341.89</ele>
        <time>2018-09-09T12:34:37Z</time>
      </trkpt>
      <trkpt lat="47.09918" lon="6.1644">
        <ele>341.89</ele>
        <time>2018-09-09T12:34:38Z</time>
      </trkpt>
      <trkpt lat="47.09923" lon="6.16435">
        <ele>341.89</ele>
        <time>2018-09-09T12:34:39Z</time>
      </trkpt>
      <trkpt lat="47.09974" lon="6.16384">
        <ele>342.37</ele>
        <time>2018-09-09T12:34:50Z</time>
      </trkpt>
      <trkpt lat="47.10045" lon="6.16315">
        <ele>342.85</ele>
        <time>2018-09-09T12:35:04Z</time>
      </trkpt>
      <trkpt lat="47.10068" lon="6.16293">
        <ele>343.33</ele>
        <time>2018-09-09T12:35:09Z</time>
      </trkpt>
      <trkpt lat="47.10081" lon="6.16284">
        <ele>343.33</ele>
        <time>2018-09-09T12:35:12Z</time>
      </trkpt>
      <trkpt lat="47.101" lon="6.16275">
        <ele>343.33</ele>
        <time>2018-09-09T12:35:16Z</time>
      </trkpt>
      <trkpt lat="47.10109" lon="6.16269">
        <ele>343.33</ele>
        <time>2018-09-09T12:35:18Z</time>
      </trkpt>
      <trkpt lat="47.10117" lon="6.16262">
        <ele>343.81</ele>
        <time>2018-09-09T12:35:20Z</time>
      </trkpt>
      <trkpt lat="47.10125" lon="6.16254">
        <ele>343.81</ele>
        <time>2018-09-09T12:35:22Z</time>
      </trkpt>
      <trkpt lat="47.1013" lon="6.16252">
        <ele>344.29</ele>
        <time>2018-09-09T12:35:23Z</time>
      </trkpt>
      <trkpt lat="47.10135" lon="6.16251">
        <ele>343.81</ele>
        <time>2018-09-09T12:35:24Z</time>
      </trkpt>
      <trkpt lat="47.1014" lon="6.16251">
        <ele>343.33</ele>
        <time>2018-09-09T12:35:25Z</time>
      </trkpt>
      <trkpt lat="47.10146" lon="6.16253">
        <ele>342.85</ele>
        <time>2018-09-09T12:35:26Z</time>
      </trkpt>
      <trkpt lat="47.10151" lon="6.16253">
        <ele>342.85</ele>
        <time>2018-09-09T12:35:27Z</time>
      </trkpt>
      <trkpt lat="47.10157" lon="6.16253">
        <ele>342.85</ele>
        <time>2018-09-09T12:35:28Z</time>
      </trkpt>
      <trkpt lat="47.10162" lon="6.16251">
        <ele>342.85</ele>
        <time>2018-09-09T12:35:29Z</time>
      </trkpt>
      <trkpt lat="47.10167" lon="6.16248">
        <ele>342.85</ele>
        <time>2018-09-09T12:35:30Z</time>
      </trkpt>
      <trkpt lat="47.10172" lon="6.16243">
        <ele>343.33</ele>
        <time>2018-09-09T12:35:31Z</time>
      </trkpt>
      <trkpt lat="47.10176" lon="6.16238">
        <ele>342.85</ele>
        <time>2018-09-09T12:35:32Z</time>
      </trkpt>
      <trkpt lat="47.1018" lon="6.16231">
        <ele>342.85</ele>
        <time>2018-09-09T12:35:33Z</time>
      </trkpt>
      <trkpt lat="47.10182" lon="6.16223">
        <ele>342.37</ele>
        <time>2018-09-09T12:35:34Z</time>
      </trkpt>
      <trkpt lat="47.10184" lon="6.16215">
        <ele>342.37</ele>
        <time>2018-09-09T12:35:35Z</time>
      </trkpt>
      <trkpt lat="47.10186" lon="6.16207">
        <ele>342.37</ele>
        <time>2018-09-09T12:35:36Z</time>
      </trkpt>
      <trkpt lat="47.10186" lon="6.16199">
        <ele>342.37</ele>
        <time>2018-09-09T12:35:37Z</time>
      </trkpt>
      <trkpt lat="47.10186" lon="6.16192">
        <ele>342.85</ele>
        <time>2018-09-09T12:35:38Z</time>
      </trkpt>
      <trkpt lat="47.10192" lon="6.16163">
        <ele>344.77</ele>
        <time>2018-09-09T12:35:44Z</time>
      </trkpt>
      <trkpt lat="47.10195" lon="6.16159">
        <ele>344.77</ele>
        <time>2018-09-09T12:35:45Z</time>
      </trkpt>
      <trkpt lat="47.10199" lon="6.16156">
        <ele>344.77</ele>
        <time>2018-09-09T12:35:46Z</time>
      </trkpt>
      <trkpt lat="47.10203" lon="6.16152">
        <ele>344.29</ele>
        <time>2018-09-09T12:35:47Z</time>
      </trkpt>
      <trkpt lat="47.10262" lon="6.16093">
        <ele>343.81</ele>
        <time>2018-09-09T12:36:02Z</time>
      </trkpt>
      <trkpt lat="47.10282" lon="6.16071">
        <ele>344.29</ele>
        <time>2018-09-09T12:36:07Z</time>
      </trkpt>
      <trkpt lat="47.10286" lon="6.16067">
        <ele>344.29</ele>
        <time>2018-09-09T12:36:08Z</time>
      </trkpt>
      <trkpt lat="47.10289" lon="6.16063">
        <ele>344.77</ele>
        <time>2018-09-09T12:36:09Z</time>
      </trkpt>
      <trkpt lat="47.10309" lon="6.16044">
        <ele>344.29</ele>
        <time>2018-09-09T12:36:14Z</time>
      </trkpt>
      <trkpt lat="47.10313" lon="6.16039">
        <ele>344.29</ele>
        <time>2018-09-09T12:36:15Z</time>
      </trkpt>
      <trkpt lat="47.10316" lon="6.16033">
        <ele>344.29</ele>
        <time>2018-09-09T12:36:16Z</time>
      </trkpt>
      <trkpt lat="47.10356" lon="6.15952">
        <ele>345.25</ele>
        <time>2018-09-09T12:36:28Z</time>
      </trkpt>
      <trkpt lat="47.1039" lon="6.15847">
        <ele>345.73</ele>
        <time>2018-09-09T12:36:42Z</time>
      </trkpt>
      <trkpt lat="47.10406" lon="6.15738">
        <ele>346.21</ele>
        <time>2018-09-09T12:36:56Z</time>
      </trkpt>
      <trkpt lat="47.1041" lon="6.15689">
        <ele>346.21</ele>
        <time>2018-09-09T12:37:03Z</time>
      </trkpt>
      <trkpt lat="47.10413" lon="6.15658">
        <ele>346.69</ele>
        <time>2018-09-09T12:37:09Z</time>
      </trkpt>
      <trkpt lat="47.10409" lon="6.15656">
        <ele>346.21</ele>
        <time>2018-09-09T12:37:10Z</time>
      </trkpt>
      <trkpt lat="47.10404" lon="6.15658">
        <ele>345.73</ele>
        <time>2018-09-09T12:37:11Z</time>
      </trkpt>
      <trkpt lat="47.104" lon="6.1566">
        <ele>345.73</ele>
        <time>2018-09-09T12:37:12Z</time>
      </trkpt>
      <trkpt lat="47.10395" lon="6.15663">
        <ele>345.25</ele>
        <time>2018-09-09T12:37:13Z</time>
      </trkpt>
      <trkpt lat="47.1039" lon="6.15667">
        <ele>344.77</ele>
        <time>2018-09-09T12:37:14Z</time>
      </trkpt>
      <trkpt lat="47.10386" lon="6.15672">
        <ele>344.77</ele>
        <time>2018-09-09T12:37:15Z</time>
      </trkpt>
      <trkpt lat="47.10383" lon="6.15678">
        <ele>344.77</ele>
        <time>2018-09-09T12:37:16Z</time>
      </trkpt>
      <trkpt lat="47.10379" lon="6.15684">
        <ele>343.81</ele>
        <time>2018-09-09T12:37:17Z</time>
      </trkpt>
      <trkpt lat="47.10376" lon="6.15689">
        <ele>343.33</ele>
        <time>2018-09-09T12:37:18Z</time>
      </trkpt>
      <trkpt lat="47.10371" lon="6.15691">
        <ele>342.85</ele>
        <time>2018-09-09T12:37:19Z</time>
      </trkpt>
      <trkpt lat="47.10366" lon="6.1569">
        <ele>341.89</ele>
        <time>2018-09-09T12:37:20Z</time>
      </trkpt>
      <trkpt lat="47.10361" lon="6.15688">
        <ele>341.41</ele>
        <time>2018-09-09T12:37:21Z</time>
      </trkpt>
      <trkpt lat="47.10355" lon="6.15685">
        <ele>341.41</ele>
        <time>2018-09-09T12:37:22Z</time>
      </trkpt>
      <trkpt lat="47.10351" lon="6.15681">
        <ele>340.92</ele>
        <time>2018-09-09T12:37:23Z</time>
      </trkpt>
      <trkpt lat="47.10347" lon="6.15676">
        <ele>341.89</ele>
        <time>2018-09-09T12:37:24Z</time>
      </trkpt>
      <trkpt lat="47.10343" lon="6.15672">
        <ele>341.89</ele>
        <time>2018-09-09T12:37:25Z</time>
      </trkpt>
      <trkpt lat="47.10287" lon="6.15604">
        <ele>341.41</ele>
        <time>2018-09-09T12:37:41Z</time>
      </trkpt>
      <trkpt lat="47.10263" lon="6.15576">
        <ele>340.92</ele>
        <time>2018-09-09T12:37:47Z</time>
      </trkpt>
      <trkpt lat="47.1026" lon="6.1557">
        <ele>340.92</ele>
        <time>2018-09-09T12:37:48Z</time>
      </trkpt>
      <trkpt lat="47.10258" lon="6.15562">
        <ele>340.92</ele>
        <time>2018-09-09T12:37:49Z</time>
      </trkpt>
      <trkpt lat="47.10256" lon="6.15555">
        <ele>340.44</ele>
        <time>2018-09-09T12:37:50Z</time>
      </trkpt>
      <trkpt lat="47.10256" lon="6.15547">
        <ele>339.96</ele>
        <time>2018-09-09T12:37:51Z</time>
      </trkpt>
      <trkpt lat="47.10256" lon="6.15539">
        <ele>339.96</ele>
        <time>2018-09-09T12:37:52Z</time>
      </trkpt>
      <trkpt lat="47.10257" lon="6.15532">
        <ele>339.96</ele>
        <time>2018-09-09T12:37:53Z</time>
      </trkpt>
      <trkpt lat="47.10257" lon="6.15524">
        <ele>339.96</ele>
        <time>2018-09-09T12:37:54Z</time>
      </trkpt>
      <trkpt lat="47.10264" lon="6.15467">
        <ele>340.92</ele>
        <time>2018-09-09T12:38:02Z</time>
      </trkpt>
      <trkpt lat="47.1028" lon="6.15381">
        <ele>339.48</ele>
        <time>2018-09-09T12:38:14Z</time>
      </trkpt>
      <trkpt lat="47.1029" lon="6.1535">
        <ele>338.04</ele>
        <time>2018-09-09T12:38:18Z</time>
      </trkpt>
      <trkpt lat="47.10296" lon="6.15335">
        <ele>337.56</ele>
        <time>2018-09-09T12:38:20Z</time>
      </trkpt>
      <trkpt lat="47.10317" lon="6.15289">
        <ele>336.6</ele>
        <time>2018-09-09T12:38:26Z</time>
      </trkpt>
      <trkpt lat="47.10369" lon="6.15204">
        <ele>334.68</ele>
        <time>2018-09-09T12:38:38Z</time>
      </trkpt>
      <trkpt lat="47.10373" lon="6.15197">
        <ele>334.68</ele>
        <time>2018-09-09T12:38:39Z</time>
      </trkpt>
      <trkpt lat="47.1039" lon="6.15165">
        <ele>334.68</ele>
        <time>2018-09-09T12:38:44Z</time>
      </trkpt>
      <trkpt lat="47.10391" lon="6.1516">
        <ele>334.68</ele>
        <time>2018-09-09T12:38:45Z</time>
      </trkpt>
      <trkpt lat="47.10389" lon="6.15155">
        <ele>335.16</ele>
        <time>2018-09-09T12:38:46Z</time>
      </trkpt>
      <trkpt lat="47.10387" lon="6.15152">
        <ele>335.16</ele>
        <time>2018-09-09T12:38:47Z</time>
      </trkpt>
      <trkpt lat="47.10384" lon="6.15149">
        <ele>335.16</ele>
        <time>2018-09-09T12:38:48Z</time>
      </trkpt>
      <trkpt lat="47.10382" lon="6.15146">
        <ele>335.16</ele>
        <time>2018-09-09T12:38:49Z</time>
      </trkpt>
      <trkpt lat="47.10378" lon="6.15145">
        <ele>335.16</ele>
        <time>2018-09-09T12:38:50Z</time>
      </trkpt>
      <trkpt lat="47.10375" lon="6.15143">
        <ele>335.16</ele>
        <time>2018-09-09T12:38:51Z</time>
      </trkpt>
      <trkpt lat="47.10372" lon="6.15141">
        <ele>335.16</ele>
        <time>2018-09-09T12:38:52Z</time>
      </trkpt>
      <trkpt lat="47.10369" lon="6.15139">
        <ele>335.16</ele>
        <time>2018-09-09T12:38:53Z</time>
      </trkpt>
      <trkpt lat="47.10341" lon="6.15123">
        <ele>335.16</ele>
        <time>2018-09-09T12:39:03Z</time>
      </trkpt>
      <trkpt lat="47.1034" lon="6.15125">
        <ele>335.64</ele>
        <time>2018-09-09T12:39:04Z</time>
      </trkpt>
      <trkpt lat="47.10338" lon="6.15127">
        <ele>335.64</ele>
        <time>2018-09-09T12:39:05Z</time>
      </trkpt>
      <trkpt lat="47.10337" lon="6.15131">
        <ele>335.64</ele>
        <time>2018-09-09T12:39:06Z</time>
      </trkpt>
      <trkpt lat="47.10336" lon="6.15135">
        <ele>335.16</ele>
        <time>2018-09-09T12:39:07Z</time>
      </trkpt>
      <trkpt lat="47.10334" lon="6.15139">
        <ele>335.16</ele>
        <time>2018-09-09T12:39:08Z</time>
      </trkpt>
      <trkpt lat="47.10333" lon="6.15143">
        <ele>335.64</ele>
        <time>2018-09-09T12:39:09Z</time>
      </trkpt>
      <trkpt lat="47.10331" lon="6.15147">
        <ele>335.16</ele>
        <time>2018-09-09T12:39:10Z</time>
      </trkpt>
      <trkpt lat="47.10311" lon="6.15185">
        <ele>335.64</ele>
        <time>2018-09-09T12:39:22Z</time>
      </trkpt>
      <trkpt lat="47.10308" lon="6.15192">
        <ele>335.64</ele>
        <time>2018-09-09T12:39:25Z</time>
      </trkpt>
      <trkpt lat="47.10307" lon="6.15194">
        <ele>335.64</ele>
        <time>2018-09-09T12:39:26Z</time>
      </trkpt>
      <trkpt lat="47.10306" lon="6.15195">
        <ele>335.64</ele>
        <time>2018-09-09T12:39:27Z</time>
      </trkpt>
      <trkpt lat="47.10304" lon="6.15196">
        <ele>336.12</ele>
        <time>2018-09-09T12:39:28Z</time>
      </trkpt>
      <trkpt lat="47.10303" lon="6.15195">
        <ele>336.12</ele>
        <time>2018-09-09T12:39:29Z</time>
      </trkpt>
      <trkpt lat="47.10301" lon="6.15192">
        <ele>336.12</ele>
        <time>2018-09-09T12:39:38Z</time>
      </trkpt>
      <trkpt lat="47.10301" lon="6.15191">
        <ele>336.12</ele>
        <time>2018-09-09T12:39:42Z</time>
      </trkpt>
    </trkseg>
  </trk>
</gpx>